<?xml version="1.0" encoding="UTF-8" standalone="no" ?>
<gpx xmlns="http://www.topografix.com/GPX/1/1" xmlns:xsi="http://www.w3.org/2001/XMLSchema-instance" xsi:schemaLocation="http://www.topografix.com/GPX/1/1 http://www.topografix.com/GPX/1/1/gpx.xsd" version="1.1" creator="VisuGPX - https://www.visugpx.com">
  <metadata>
    <name>2020-09-01 08:06:57</name>
    <desc><![CDATA[File with points/tracks from Locus Map/3.37.2]]></desc>
  </metadata>
  <trk>
    <name><![CDATA[2020-09-01 08:06:57]]></name>
    <trkseg>
      <trkpt lat="43.09457" lon="0.7027">
        <ele>377.85</ele>
        <time>2020-09-01T06:06:58.999Z</time>
      </trkpt>
      <trkpt lat="43.09452" lon="0.70257">
        <ele>374.16</ele>
        <time>2020-09-01T06:08:39.999Z</time>
      </trkpt>
      <trkpt lat="43.09452" lon="0.7024">
        <ele>373.31</ele>
        <time>2020-09-01T06:08:44.999Z</time>
      </trkpt>
      <trkpt lat="43.0945" lon="0.70218">
        <ele>372.52</ele>
        <time>2020-09-01T06:08:49.999Z</time>
      </trkpt>
      <trkpt lat="43.0945" lon="0.70198">
        <ele>371.81</ele>
        <time>2020-09-01T06:08:54.999Z</time>
      </trkpt>
      <trkpt lat="43.09451" lon="0.70178">
        <ele>371.16</ele>
        <time>2020-09-01T06:08:59.999Z</time>
      </trkpt>
      <trkpt lat="43.09455" lon="0.70154">
        <ele>370.61</ele>
        <time>2020-09-01T06:09:04.999Z</time>
      </trkpt>
      <trkpt lat="43.09454" lon="0.70131">
        <ele>370.18</ele>
        <time>2020-09-01T06:09:09.999Z</time>
      </trkpt>
      <trkpt lat="43.09451" lon="0.7011">
        <ele>369.82</ele>
        <time>2020-09-01T06:09:14.999Z</time>
      </trkpt>
      <trkpt lat="43.09445" lon="0.7009">
        <ele>369.51</ele>
        <time>2020-09-01T06:09:19.999Z</time>
      </trkpt>
      <trkpt lat="43.0944" lon="0.70068">
        <ele>369.26</ele>
        <time>2020-09-01T06:09:24.999Z</time>
      </trkpt>
      <trkpt lat="43.09436" lon="0.70048">
        <ele>369.03</ele>
        <time>2020-09-01T06:09:29.999Z</time>
      </trkpt>
      <trkpt lat="43.09432" lon="0.70027">
        <ele>368.85</ele>
        <time>2020-09-01T06:09:34.999Z</time>
      </trkpt>
      <trkpt lat="43.09431" lon="0.70005">
        <ele>368.75</ele>
        <time>2020-09-01T06:09:39.999Z</time>
      </trkpt>
      <trkpt lat="43.0943" lon="0.69982">
        <ele>368.7</ele>
        <time>2020-09-01T06:09:44.999Z</time>
      </trkpt>
      <trkpt lat="43.09429" lon="0.69958">
        <ele>368.68</ele>
        <time>2020-09-01T06:09:49.999Z</time>
      </trkpt>
      <trkpt lat="43.09428" lon="0.69934">
        <ele>368.65</ele>
        <time>2020-09-01T06:09:54.999Z</time>
      </trkpt>
      <trkpt lat="43.09428" lon="0.6991">
        <ele>368.62</ele>
        <time>2020-09-01T06:09:59.999Z</time>
      </trkpt>
      <trkpt lat="43.09429" lon="0.69887">
        <ele>368.58</ele>
        <time>2020-09-01T06:10:04.999Z</time>
      </trkpt>
      <trkpt lat="43.09429" lon="0.69865">
        <ele>368.54</ele>
        <time>2020-09-01T06:10:09.999Z</time>
      </trkpt>
      <trkpt lat="43.0943" lon="0.69844">
        <ele>368.51</ele>
        <time>2020-09-01T06:10:14.999Z</time>
      </trkpt>
      <trkpt lat="43.0943" lon="0.69823">
        <ele>368.47</ele>
        <time>2020-09-01T06:10:19.999Z</time>
      </trkpt>
      <trkpt lat="43.09431" lon="0.69801">
        <ele>368.43</ele>
        <time>2020-09-01T06:10:24.999Z</time>
      </trkpt>
      <trkpt lat="43.09432" lon="0.6978">
        <ele>368.39</ele>
        <time>2020-09-01T06:10:29.999Z</time>
      </trkpt>
      <trkpt lat="43.09432" lon="0.69758">
        <ele>368.35</ele>
        <time>2020-09-01T06:10:34.999Z</time>
      </trkpt>
      <trkpt lat="43.09432" lon="0.69738">
        <ele>368.31</ele>
        <time>2020-09-01T06:10:39.999Z</time>
      </trkpt>
      <trkpt lat="43.0943" lon="0.69719">
        <ele>368.28</ele>
        <time>2020-09-01T06:10:44.999Z</time>
      </trkpt>
      <trkpt lat="43.0943" lon="0.69701">
        <ele>368.25</ele>
        <time>2020-09-01T06:10:49.999Z</time>
      </trkpt>
      <trkpt lat="43.09431" lon="0.69687">
        <ele>368.21</ele>
        <time>2020-09-01T06:11:22.999Z</time>
      </trkpt>
      <trkpt lat="43.09431" lon="0.69671">
        <ele>368.19</ele>
        <time>2020-09-01T06:11:27.999Z</time>
      </trkpt>
      <trkpt lat="43.09432" lon="0.69654">
        <ele>368.17</ele>
        <time>2020-09-01T06:11:32.999Z</time>
      </trkpt>
      <trkpt lat="43.09431" lon="0.69635">
        <ele>368.16</ele>
        <time>2020-09-01T06:11:37.999Z</time>
      </trkpt>
      <trkpt lat="43.09432" lon="0.69617">
        <ele>368.15</ele>
        <time>2020-09-01T06:11:42.999Z</time>
      </trkpt>
      <trkpt lat="43.09433" lon="0.69597">
        <ele>368.13</ele>
        <time>2020-09-01T06:11:47.999Z</time>
      </trkpt>
      <trkpt lat="43.09434" lon="0.69579">
        <ele>368.12</ele>
        <time>2020-09-01T06:11:52.999Z</time>
      </trkpt>
      <trkpt lat="43.09434" lon="0.6956">
        <ele>368.11</ele>
        <time>2020-09-01T06:11:57.999Z</time>
      </trkpt>
      <trkpt lat="43.09435" lon="0.69541">
        <ele>368.11</ele>
        <time>2020-09-01T06:12:02.999Z</time>
      </trkpt>
      <trkpt lat="43.09435" lon="0.69521">
        <ele>368.12</ele>
        <time>2020-09-01T06:12:07.999Z</time>
      </trkpt>
      <trkpt lat="43.09436" lon="0.69501">
        <ele>368.15</ele>
        <time>2020-09-01T06:12:12.999Z</time>
      </trkpt>
      <trkpt lat="43.09436" lon="0.69481">
        <ele>368.19</ele>
        <time>2020-09-01T06:12:17.999Z</time>
      </trkpt>
      <trkpt lat="43.09436" lon="0.6946">
        <ele>368.24</ele>
        <time>2020-09-01T06:12:22.999Z</time>
      </trkpt>
      <trkpt lat="43.09437" lon="0.6944">
        <ele>368.3</ele>
        <time>2020-09-01T06:12:27.999Z</time>
      </trkpt>
      <trkpt lat="43.09438" lon="0.6942">
        <ele>368.35</ele>
        <time>2020-09-01T06:12:32.999Z</time>
      </trkpt>
      <trkpt lat="43.09437" lon="0.69398">
        <ele>368.41</ele>
        <time>2020-09-01T06:12:37.999Z</time>
      </trkpt>
      <trkpt lat="43.09436" lon="0.69378">
        <ele>368.46</ele>
        <time>2020-09-01T06:12:42.999Z</time>
      </trkpt>
      <trkpt lat="43.09436" lon="0.69358">
        <ele>368.52</ele>
        <time>2020-09-01T06:12:47.999Z</time>
      </trkpt>
      <trkpt lat="43.09437" lon="0.69338">
        <ele>368.58</ele>
        <time>2020-09-01T06:12:52.999Z</time>
      </trkpt>
      <trkpt lat="43.09438" lon="0.69317">
        <ele>368.64</ele>
        <time>2020-09-01T06:12:57.999Z</time>
      </trkpt>
      <trkpt lat="43.0944" lon="0.69297">
        <ele>368.69</ele>
        <time>2020-09-01T06:13:02.999Z</time>
      </trkpt>
      <trkpt lat="43.0944" lon="0.69276">
        <ele>368.75</ele>
        <time>2020-09-01T06:13:07.999Z</time>
      </trkpt>
      <trkpt lat="43.0944" lon="0.69255">
        <ele>368.82</ele>
        <time>2020-09-01T06:13:12.999Z</time>
      </trkpt>
      <trkpt lat="43.09439" lon="0.69234">
        <ele>368.88</ele>
        <time>2020-09-01T06:13:17.999Z</time>
      </trkpt>
      <trkpt lat="43.09438" lon="0.69214">
        <ele>368.96</ele>
        <time>2020-09-01T06:13:22.999Z</time>
      </trkpt>
      <trkpt lat="43.09437" lon="0.69194">
        <ele>369.03</ele>
        <time>2020-09-01T06:13:27.999Z</time>
      </trkpt>
      <trkpt lat="43.09443" lon="0.69178">
        <ele>369.11</ele>
        <time>2020-09-01T06:13:32.999Z</time>
      </trkpt>
      <trkpt lat="43.09453" lon="0.69172">
        <ele>369.19</ele>
        <time>2020-09-01T06:13:37.999Z</time>
      </trkpt>
      <trkpt lat="43.09464" lon="0.69166">
        <ele>369.27</ele>
        <time>2020-09-01T06:13:42.999Z</time>
      </trkpt>
      <trkpt lat="43.09466" lon="0.69144">
        <ele>369.35</ele>
        <time>2020-09-01T06:13:47.999Z</time>
      </trkpt>
      <trkpt lat="43.09459" lon="0.69122">
        <ele>369.43</ele>
        <time>2020-09-01T06:13:52.999Z</time>
      </trkpt>
      <trkpt lat="43.09454" lon="0.691">
        <ele>369.52</ele>
        <time>2020-09-01T06:13:57.999Z</time>
      </trkpt>
      <trkpt lat="43.0945" lon="0.69078">
        <ele>369.6</ele>
        <time>2020-09-01T06:14:02.999Z</time>
      </trkpt>
      <trkpt lat="43.09446" lon="0.69056">
        <ele>369.68</ele>
        <time>2020-09-01T06:14:07.999Z</time>
      </trkpt>
      <trkpt lat="43.09444" lon="0.69034">
        <ele>369.77</ele>
        <time>2020-09-01T06:14:12.999Z</time>
      </trkpt>
      <trkpt lat="43.09442" lon="0.69012">
        <ele>369.85</ele>
        <time>2020-09-01T06:14:17.999Z</time>
      </trkpt>
      <trkpt lat="43.09441" lon="0.68991">
        <ele>369.93</ele>
        <time>2020-09-01T06:14:22.999Z</time>
      </trkpt>
      <trkpt lat="43.09442" lon="0.6897">
        <ele>370.02</ele>
        <time>2020-09-01T06:14:27.999Z</time>
      </trkpt>
      <trkpt lat="43.09442" lon="0.68949">
        <ele>370.1</ele>
        <time>2020-09-01T06:14:32.999Z</time>
      </trkpt>
      <trkpt lat="43.09442" lon="0.68927">
        <ele>370.19</ele>
        <time>2020-09-01T06:14:37.999Z</time>
      </trkpt>
      <trkpt lat="43.09443" lon="0.68904">
        <ele>370.28</ele>
        <time>2020-09-01T06:14:42.999Z</time>
      </trkpt>
      <trkpt lat="43.09443" lon="0.68881">
        <ele>370.37</ele>
        <time>2020-09-01T06:14:47.999Z</time>
      </trkpt>
      <trkpt lat="43.09443" lon="0.6886">
        <ele>370.46</ele>
        <time>2020-09-01T06:14:52.999Z</time>
      </trkpt>
      <trkpt lat="43.09444" lon="0.68841">
        <ele>370.55</ele>
        <time>2020-09-01T06:14:57.999Z</time>
      </trkpt>
      <trkpt lat="43.09444" lon="0.68822">
        <ele>370.64</ele>
        <time>2020-09-01T06:15:02.999Z</time>
      </trkpt>
      <trkpt lat="43.09445" lon="0.68801">
        <ele>370.73</ele>
        <time>2020-09-01T06:15:07.999Z</time>
      </trkpt>
      <trkpt lat="43.09445" lon="0.68776">
        <ele>370.81</ele>
        <time>2020-09-01T06:15:12.999Z</time>
      </trkpt>
      <trkpt lat="43.09444" lon="0.68751">
        <ele>370.88</ele>
        <time>2020-09-01T06:15:17.999Z</time>
      </trkpt>
      <trkpt lat="43.09444" lon="0.68728">
        <ele>370.95</ele>
        <time>2020-09-01T06:15:22.999Z</time>
      </trkpt>
      <trkpt lat="43.09444" lon="0.68706">
        <ele>371.03</ele>
        <time>2020-09-01T06:15:27.999Z</time>
      </trkpt>
      <trkpt lat="43.09444" lon="0.68684">
        <ele>371.11</ele>
        <time>2020-09-01T06:15:32.999Z</time>
      </trkpt>
      <trkpt lat="43.09444" lon="0.68664">
        <ele>371.2</ele>
        <time>2020-09-01T06:15:37.999Z</time>
      </trkpt>
      <trkpt lat="43.09445" lon="0.68649">
        <ele>371.29</ele>
        <time>2020-09-01T06:15:42.999Z</time>
      </trkpt>
      <trkpt lat="43.09446" lon="0.68632">
        <ele>371.38</ele>
        <time>2020-09-01T06:15:47.999Z</time>
      </trkpt>
      <trkpt lat="43.09446" lon="0.6861">
        <ele>371.46</ele>
        <time>2020-09-01T06:15:52.999Z</time>
      </trkpt>
      <trkpt lat="43.09443" lon="0.68584">
        <ele>371.54</ele>
        <time>2020-09-01T06:15:57.999Z</time>
      </trkpt>
      <trkpt lat="43.09441" lon="0.68561">
        <ele>371.62</ele>
        <time>2020-09-01T06:16:02.999Z</time>
      </trkpt>
      <trkpt lat="43.09437" lon="0.68536">
        <ele>371.7</ele>
        <time>2020-09-01T06:16:07.999Z</time>
      </trkpt>
      <trkpt lat="43.09432" lon="0.68514">
        <ele>371.79</ele>
        <time>2020-09-01T06:16:12.999Z</time>
      </trkpt>
      <trkpt lat="43.09427" lon="0.68495">
        <ele>371.87</ele>
        <time>2020-09-01T06:16:17.999Z</time>
      </trkpt>
      <trkpt lat="43.0942" lon="0.6847">
        <ele>371.94</ele>
        <time>2020-09-01T06:16:22.999Z</time>
      </trkpt>
      <trkpt lat="43.09411" lon="0.68442">
        <ele>372.03</ele>
        <time>2020-09-01T06:16:27.999Z</time>
      </trkpt>
      <trkpt lat="43.09405" lon="0.68419">
        <ele>372.13</ele>
        <time>2020-09-01T06:16:32.999Z</time>
      </trkpt>
      <trkpt lat="43.09399" lon="0.68398">
        <ele>372.23</ele>
        <time>2020-09-01T06:16:37.999Z</time>
      </trkpt>
      <trkpt lat="43.09394" lon="0.68378">
        <ele>372.36</ele>
        <time>2020-09-01T06:16:42.999Z</time>
      </trkpt>
      <trkpt lat="43.09386" lon="0.68359">
        <ele>372.49</ele>
        <time>2020-09-01T06:16:47.999Z</time>
      </trkpt>
      <trkpt lat="43.09379" lon="0.68341">
        <ele>372.61</ele>
        <time>2020-09-01T06:16:52.999Z</time>
      </trkpt>
      <trkpt lat="43.09371" lon="0.68319">
        <ele>372.72</ele>
        <time>2020-09-01T06:16:57.999Z</time>
      </trkpt>
      <trkpt lat="43.09362" lon="0.68294">
        <ele>372.81</ele>
        <time>2020-09-01T06:17:02.999Z</time>
      </trkpt>
      <trkpt lat="43.09354" lon="0.68271">
        <ele>372.9</ele>
        <time>2020-09-01T06:17:07.999Z</time>
      </trkpt>
      <trkpt lat="43.09346" lon="0.68248">
        <ele>373</ele>
        <time>2020-09-01T06:17:12.999Z</time>
      </trkpt>
      <trkpt lat="43.09338" lon="0.68227">
        <ele>373.1</ele>
        <time>2020-09-01T06:17:17.999Z</time>
      </trkpt>
      <trkpt lat="43.09331" lon="0.68204">
        <ele>373.2</ele>
        <time>2020-09-01T06:17:22.999Z</time>
      </trkpt>
      <trkpt lat="43.09323" lon="0.68183">
        <ele>373.29</ele>
        <time>2020-09-01T06:17:27.999Z</time>
      </trkpt>
      <trkpt lat="43.09315" lon="0.68163">
        <ele>373.38</ele>
        <time>2020-09-01T06:17:32.999Z</time>
      </trkpt>
      <trkpt lat="43.09308" lon="0.68142">
        <ele>373.46</ele>
        <time>2020-09-01T06:17:37.999Z</time>
      </trkpt>
      <trkpt lat="43.09301" lon="0.68121">
        <ele>373.54</ele>
        <time>2020-09-01T06:17:42.999Z</time>
      </trkpt>
      <trkpt lat="43.09293" lon="0.68099">
        <ele>373.62</ele>
        <time>2020-09-01T06:17:47.999Z</time>
      </trkpt>
      <trkpt lat="43.09285" lon="0.68077">
        <ele>373.69</ele>
        <time>2020-09-01T06:17:52.999Z</time>
      </trkpt>
      <trkpt lat="43.09277" lon="0.68055">
        <ele>373.76</ele>
        <time>2020-09-01T06:17:58.000Z</time>
      </trkpt>
      <trkpt lat="43.09271" lon="0.68035">
        <ele>373.83</ele>
        <time>2020-09-01T06:18:03.000Z</time>
      </trkpt>
      <trkpt lat="43.09265" lon="0.68015">
        <ele>373.92</ele>
        <time>2020-09-01T06:18:08.000Z</time>
      </trkpt>
      <trkpt lat="43.09258" lon="0.67993">
        <ele>374</ele>
        <time>2020-09-01T06:18:13.000Z</time>
      </trkpt>
      <trkpt lat="43.0925" lon="0.67971">
        <ele>374.09</ele>
        <time>2020-09-01T06:18:18.000Z</time>
      </trkpt>
      <trkpt lat="43.09243" lon="0.67949">
        <ele>374.17</ele>
        <time>2020-09-01T06:18:23.000Z</time>
      </trkpt>
      <trkpt lat="43.09235" lon="0.67928">
        <ele>374.26</ele>
        <time>2020-09-01T06:18:28.000Z</time>
      </trkpt>
      <trkpt lat="43.09228" lon="0.67905">
        <ele>374.35</ele>
        <time>2020-09-01T06:18:33.000Z</time>
      </trkpt>
      <trkpt lat="43.0922" lon="0.67883">
        <ele>374.44</ele>
        <time>2020-09-01T06:18:38.000Z</time>
      </trkpt>
      <trkpt lat="43.09212" lon="0.67861">
        <ele>374.54</ele>
        <time>2020-09-01T06:18:43.000Z</time>
      </trkpt>
      <trkpt lat="43.09205" lon="0.6784">
        <ele>374.65</ele>
        <time>2020-09-01T06:18:48.000Z</time>
      </trkpt>
      <trkpt lat="43.09197" lon="0.67819">
        <ele>374.76</ele>
        <time>2020-09-01T06:18:53.000Z</time>
      </trkpt>
      <trkpt lat="43.09189" lon="0.67797">
        <ele>374.88</ele>
        <time>2020-09-01T06:18:58.000Z</time>
      </trkpt>
      <trkpt lat="43.09181" lon="0.67776">
        <ele>374.99</ele>
        <time>2020-09-01T06:19:03.000Z</time>
      </trkpt>
      <trkpt lat="43.09174" lon="0.67754">
        <ele>375.1</ele>
        <time>2020-09-01T06:19:08.000Z</time>
      </trkpt>
      <trkpt lat="43.09166" lon="0.67731">
        <ele>375.22</ele>
        <time>2020-09-01T06:19:13.000Z</time>
      </trkpt>
      <trkpt lat="43.09158" lon="0.67709">
        <ele>375.55</ele>
        <time>2020-09-01T06:19:18.000Z</time>
      </trkpt>
      <trkpt lat="43.09151" lon="0.67685">
        <ele>375.68</ele>
        <time>2020-09-01T06:19:23.000Z</time>
      </trkpt>
      <trkpt lat="43.09145" lon="0.67665">
        <ele>375.82</ele>
        <time>2020-09-01T06:19:28.000Z</time>
      </trkpt>
      <trkpt lat="43.09138" lon="0.67644">
        <ele>376.63</ele>
        <time>2020-09-01T06:19:33.000Z</time>
      </trkpt>
      <trkpt lat="43.09128" lon="0.67617">
        <ele>377.4</ele>
        <time>2020-09-01T06:19:38.000Z</time>
      </trkpt>
      <trkpt lat="43.09119" lon="0.67591">
        <ele>377.73</ele>
        <time>2020-09-01T06:19:43.000Z</time>
      </trkpt>
      <trkpt lat="43.09112" lon="0.67569">
        <ele>377.78</ele>
        <time>2020-09-01T06:19:48.000Z</time>
      </trkpt>
      <trkpt lat="43.09104" lon="0.67546">
        <ele>377.86</ele>
        <time>2020-09-01T06:19:53.000Z</time>
      </trkpt>
      <trkpt lat="43.09096" lon="0.67524">
        <ele>377.96</ele>
        <time>2020-09-01T06:19:58.000Z</time>
      </trkpt>
      <trkpt lat="43.09089" lon="0.67503">
        <ele>378.08</ele>
        <time>2020-09-01T06:20:03.000Z</time>
      </trkpt>
      <trkpt lat="43.09081" lon="0.67482">
        <ele>378.21</ele>
        <time>2020-09-01T06:20:08.000Z</time>
      </trkpt>
      <trkpt lat="43.09074" lon="0.67462">
        <ele>378.36</ele>
        <time>2020-09-01T06:20:13.000Z</time>
      </trkpt>
      <trkpt lat="43.09068" lon="0.67443">
        <ele>378.52</ele>
        <time>2020-09-01T06:20:18.000Z</time>
      </trkpt>
      <trkpt lat="43.09061" lon="0.67421">
        <ele>378.69</ele>
        <time>2020-09-01T06:20:23.000Z</time>
      </trkpt>
      <trkpt lat="43.09053" lon="0.67399">
        <ele>378.85</ele>
        <time>2020-09-01T06:20:28.000Z</time>
      </trkpt>
      <trkpt lat="43.09045" lon="0.67378">
        <ele>379.03</ele>
        <time>2020-09-01T06:20:33.000Z</time>
      </trkpt>
      <trkpt lat="43.09037" lon="0.67356">
        <ele>379.21</ele>
        <time>2020-09-01T06:20:38.000Z</time>
      </trkpt>
      <trkpt lat="43.09029" lon="0.67334">
        <ele>379.39</ele>
        <time>2020-09-01T06:20:43.000Z</time>
      </trkpt>
      <trkpt lat="43.09022" lon="0.67314">
        <ele>379.58</ele>
        <time>2020-09-01T06:20:48.000Z</time>
      </trkpt>
      <trkpt lat="43.09014" lon="0.67292">
        <ele>379.76</ele>
        <time>2020-09-01T06:20:53.000Z</time>
      </trkpt>
      <trkpt lat="43.09006" lon="0.6727">
        <ele>379.93</ele>
        <time>2020-09-01T06:20:58.000Z</time>
      </trkpt>
      <trkpt lat="43.08998" lon="0.67248">
        <ele>380.11</ele>
        <time>2020-09-01T06:21:03.000Z</time>
      </trkpt>
      <trkpt lat="43.08991" lon="0.67227">
        <ele>380.28</ele>
        <time>2020-09-01T06:21:08.000Z</time>
      </trkpt>
      <trkpt lat="43.08984" lon="0.67206">
        <ele>380.46</ele>
        <time>2020-09-01T06:21:13.000Z</time>
      </trkpt>
      <trkpt lat="43.08977" lon="0.67187">
        <ele>380.63</ele>
        <time>2020-09-01T06:21:18.000Z</time>
      </trkpt>
      <trkpt lat="43.08971" lon="0.67168">
        <ele>380.8</ele>
        <time>2020-09-01T06:21:23.000Z</time>
      </trkpt>
      <trkpt lat="43.08964" lon="0.67148">
        <ele>380.94</ele>
        <time>2020-09-01T06:21:28.000Z</time>
      </trkpt>
      <trkpt lat="43.08955" lon="0.67124">
        <ele>381.42</ele>
        <time>2020-09-01T06:21:33.000Z</time>
      </trkpt>
      <trkpt lat="43.08947" lon="0.67101">
        <ele>381.56</ele>
        <time>2020-09-01T06:21:38.000Z</time>
      </trkpt>
      <trkpt lat="43.08939" lon="0.67077">
        <ele>381.64</ele>
        <time>2020-09-01T06:21:43.000Z</time>
      </trkpt>
      <trkpt lat="43.08931" lon="0.67056">
        <ele>381.7</ele>
        <time>2020-09-01T06:21:48.000Z</time>
      </trkpt>
      <trkpt lat="43.08923" lon="0.67032">
        <ele>381.78</ele>
        <time>2020-09-01T06:21:53.000Z</time>
      </trkpt>
      <trkpt lat="43.08916" lon="0.67012">
        <ele>381.87</ele>
        <time>2020-09-01T06:21:58.000Z</time>
      </trkpt>
      <trkpt lat="43.08909" lon="0.66993">
        <ele>381.97</ele>
        <time>2020-09-01T06:22:03.000Z</time>
      </trkpt>
      <trkpt lat="43.08902" lon="0.66973">
        <ele>382.07</ele>
        <time>2020-09-01T06:22:08.000Z</time>
      </trkpt>
      <trkpt lat="43.08895" lon="0.66955">
        <ele>382.16</ele>
        <time>2020-09-01T06:22:13.000Z</time>
      </trkpt>
      <trkpt lat="43.08887" lon="0.66935">
        <ele>382.23</ele>
        <time>2020-09-01T06:22:18.000Z</time>
      </trkpt>
      <trkpt lat="43.08879" lon="0.66911">
        <ele>382.29</ele>
        <time>2020-09-01T06:22:23.000Z</time>
      </trkpt>
      <trkpt lat="43.08871" lon="0.66887">
        <ele>382.35</ele>
        <time>2020-09-01T06:22:28.000Z</time>
      </trkpt>
      <trkpt lat="43.08864" lon="0.66865">
        <ele>382.43</ele>
        <time>2020-09-01T06:22:33.000Z</time>
      </trkpt>
      <trkpt lat="43.08856" lon="0.66842">
        <ele>382.53</ele>
        <time>2020-09-01T06:22:38.000Z</time>
      </trkpt>
      <trkpt lat="43.08849" lon="0.66818">
        <ele>382.64</ele>
        <time>2020-09-01T06:22:43.000Z</time>
      </trkpt>
      <trkpt lat="43.08841" lon="0.66795">
        <ele>382.77</ele>
        <time>2020-09-01T06:22:48.000Z</time>
      </trkpt>
      <trkpt lat="43.08833" lon="0.66772">
        <ele>382.91</ele>
        <time>2020-09-01T06:22:53.000Z</time>
      </trkpt>
      <trkpt lat="43.08824" lon="0.6675">
        <ele>383.06</ele>
        <time>2020-09-01T06:22:58.000Z</time>
      </trkpt>
      <trkpt lat="43.08817" lon="0.66729">
        <ele>383.21</ele>
        <time>2020-09-01T06:23:03.000Z</time>
      </trkpt>
      <trkpt lat="43.0881" lon="0.66712">
        <ele>383.37</ele>
        <time>2020-09-01T06:23:08.000Z</time>
      </trkpt>
      <trkpt lat="43.08801" lon="0.66691">
        <ele>383.52</ele>
        <time>2020-09-01T06:23:13.000Z</time>
      </trkpt>
      <trkpt lat="43.08793" lon="0.66668">
        <ele>383.66</ele>
        <time>2020-09-01T06:23:18.000Z</time>
      </trkpt>
      <trkpt lat="43.08786" lon="0.66648">
        <ele>383.79</ele>
        <time>2020-09-01T06:23:23.000Z</time>
      </trkpt>
      <trkpt lat="43.08778" lon="0.66626">
        <ele>383.92</ele>
        <time>2020-09-01T06:23:28.000Z</time>
      </trkpt>
      <trkpt lat="43.08771" lon="0.66605">
        <ele>384.05</ele>
        <time>2020-09-01T06:23:33.000Z</time>
      </trkpt>
      <trkpt lat="43.08765" lon="0.66585">
        <ele>384.17</ele>
        <time>2020-09-01T06:23:38.000Z</time>
      </trkpt>
      <trkpt lat="43.08758" lon="0.66562">
        <ele>384.29</ele>
        <time>2020-09-01T06:23:43.000Z</time>
      </trkpt>
      <trkpt lat="43.0875" lon="0.6654">
        <ele>384.4</ele>
        <time>2020-09-01T06:23:48.000Z</time>
      </trkpt>
      <trkpt lat="43.08743" lon="0.6652">
        <ele>384.5</ele>
        <time>2020-09-01T06:23:53.000Z</time>
      </trkpt>
      <trkpt lat="43.08735" lon="0.66499">
        <ele>384.58</ele>
        <time>2020-09-01T06:23:58.000Z</time>
      </trkpt>
      <trkpt lat="43.08727" lon="0.66476">
        <ele>384.66</ele>
        <time>2020-09-01T06:24:03.000Z</time>
      </trkpt>
      <trkpt lat="43.08719" lon="0.66456">
        <ele>384.74</ele>
        <time>2020-09-01T06:24:08.000Z</time>
      </trkpt>
      <trkpt lat="43.08712" lon="0.66436">
        <ele>384.82</ele>
        <time>2020-09-01T06:24:13.000Z</time>
      </trkpt>
      <trkpt lat="43.08705" lon="0.66412">
        <ele>384.9</ele>
        <time>2020-09-01T06:24:18.000Z</time>
      </trkpt>
      <trkpt lat="43.08697" lon="0.66391">
        <ele>384.98</ele>
        <time>2020-09-01T06:24:23.000Z</time>
      </trkpt>
      <trkpt lat="43.0869" lon="0.66371">
        <ele>385.08</ele>
        <time>2020-09-01T06:24:28.000Z</time>
      </trkpt>
      <trkpt lat="43.08684" lon="0.66353">
        <ele>385.17</ele>
        <time>2020-09-01T06:24:33.000Z</time>
      </trkpt>
      <trkpt lat="43.08678" lon="0.66334">
        <ele>385.26</ele>
        <time>2020-09-01T06:24:38.000Z</time>
      </trkpt>
      <trkpt lat="43.08671" lon="0.66314">
        <ele>385.35</ele>
        <time>2020-09-01T06:24:43.000Z</time>
      </trkpt>
      <trkpt lat="43.08664" lon="0.66295">
        <ele>385.43</ele>
        <time>2020-09-01T06:24:48.000Z</time>
      </trkpt>
      <trkpt lat="43.08658" lon="0.66274">
        <ele>385.5</ele>
        <time>2020-09-01T06:24:53.000Z</time>
      </trkpt>
      <trkpt lat="43.08651" lon="0.66254">
        <ele>385.57</ele>
        <time>2020-09-01T06:24:58.000Z</time>
      </trkpt>
      <trkpt lat="43.08644" lon="0.66234">
        <ele>385.64</ele>
        <time>2020-09-01T06:25:03.000Z</time>
      </trkpt>
      <trkpt lat="43.08637" lon="0.66213">
        <ele>385.69</ele>
        <time>2020-09-01T06:25:08.000Z</time>
      </trkpt>
      <trkpt lat="43.08629" lon="0.66193">
        <ele>385.74</ele>
        <time>2020-09-01T06:25:13.000Z</time>
      </trkpt>
      <trkpt lat="43.08622" lon="0.66174">
        <ele>385.79</ele>
        <time>2020-09-01T06:25:18.000Z</time>
      </trkpt>
      <trkpt lat="43.08615" lon="0.66153">
        <ele>385.83</ele>
        <time>2020-09-01T06:25:23.000Z</time>
      </trkpt>
      <trkpt lat="43.08608" lon="0.66133">
        <ele>385.87</ele>
        <time>2020-09-01T06:25:28.000Z</time>
      </trkpt>
      <trkpt lat="43.08602" lon="0.66113">
        <ele>385.9</ele>
        <time>2020-09-01T06:25:33.000Z</time>
      </trkpt>
      <trkpt lat="43.08594" lon="0.66091">
        <ele>385.93</ele>
        <time>2020-09-01T06:25:38.000Z</time>
      </trkpt>
      <trkpt lat="43.08586" lon="0.66069">
        <ele>385.97</ele>
        <time>2020-09-01T06:25:43.000Z</time>
      </trkpt>
      <trkpt lat="43.08579" lon="0.66049">
        <ele>386.02</ele>
        <time>2020-09-01T06:25:48.000Z</time>
      </trkpt>
      <trkpt lat="43.08572" lon="0.6603">
        <ele>386.08</ele>
        <time>2020-09-01T06:25:53.000Z</time>
      </trkpt>
      <trkpt lat="43.08566" lon="0.6601">
        <ele>386.15</ele>
        <time>2020-09-01T06:25:58.000Z</time>
      </trkpt>
      <trkpt lat="43.08559" lon="0.6599">
        <ele>386.22</ele>
        <time>2020-09-01T06:26:03.000Z</time>
      </trkpt>
      <trkpt lat="43.08552" lon="0.6597">
        <ele>386.29</ele>
        <time>2020-09-01T06:26:08.000Z</time>
      </trkpt>
      <trkpt lat="43.08545" lon="0.6595">
        <ele>386.37</ele>
        <time>2020-09-01T06:26:13.000Z</time>
      </trkpt>
      <trkpt lat="43.08537" lon="0.6593">
        <ele>386.46</ele>
        <time>2020-09-01T06:26:18.000Z</time>
      </trkpt>
      <trkpt lat="43.0853" lon="0.65909">
        <ele>386.55</ele>
        <time>2020-09-01T06:26:23.000Z</time>
      </trkpt>
      <trkpt lat="43.08523" lon="0.65888">
        <ele>386.64</ele>
        <time>2020-09-01T06:26:28.000Z</time>
      </trkpt>
      <trkpt lat="43.08515" lon="0.65867">
        <ele>386.74</ele>
        <time>2020-09-01T06:26:33.000Z</time>
      </trkpt>
      <trkpt lat="43.08508" lon="0.65846">
        <ele>386.83</ele>
        <time>2020-09-01T06:26:38.000Z</time>
      </trkpt>
      <trkpt lat="43.08501" lon="0.65824">
        <ele>386.93</ele>
        <time>2020-09-01T06:26:43.000Z</time>
      </trkpt>
      <trkpt lat="43.08493" lon="0.65803">
        <ele>387.03</ele>
        <time>2020-09-01T06:26:48.000Z</time>
      </trkpt>
      <trkpt lat="43.08486" lon="0.65781">
        <ele>387.14</ele>
        <time>2020-09-01T06:26:53.000Z</time>
      </trkpt>
      <trkpt lat="43.08478" lon="0.65761">
        <ele>387.24</ele>
        <time>2020-09-01T06:26:58.000Z</time>
      </trkpt>
      <trkpt lat="43.08471" lon="0.65741">
        <ele>387.35</ele>
        <time>2020-09-01T06:27:03.000Z</time>
      </trkpt>
      <trkpt lat="43.08465" lon="0.65721">
        <ele>387.46</ele>
        <time>2020-09-01T06:27:08.000Z</time>
      </trkpt>
      <trkpt lat="43.08458" lon="0.65701">
        <ele>387.57</ele>
        <time>2020-09-01T06:27:13.000Z</time>
      </trkpt>
      <trkpt lat="43.08451" lon="0.6568">
        <ele>387.69</ele>
        <time>2020-09-01T06:27:18.000Z</time>
      </trkpt>
      <trkpt lat="43.08443" lon="0.6566">
        <ele>387.8</ele>
        <time>2020-09-01T06:27:23.000Z</time>
      </trkpt>
      <trkpt lat="43.08437" lon="0.6564">
        <ele>387.92</ele>
        <time>2020-09-01T06:27:28.000Z</time>
      </trkpt>
      <trkpt lat="43.0843" lon="0.6562">
        <ele>388.03</ele>
        <time>2020-09-01T06:27:33.000Z</time>
      </trkpt>
      <trkpt lat="43.08423" lon="0.656">
        <ele>388.15</ele>
        <time>2020-09-01T06:27:38.000Z</time>
      </trkpt>
      <trkpt lat="43.08415" lon="0.65579">
        <ele>388.27</ele>
        <time>2020-09-01T06:27:43.000Z</time>
      </trkpt>
      <trkpt lat="43.08408" lon="0.65558">
        <ele>388.39</ele>
        <time>2020-09-01T06:27:48.000Z</time>
      </trkpt>
      <trkpt lat="43.08401" lon="0.65537">
        <ele>388.5</ele>
        <time>2020-09-01T06:27:53.000Z</time>
      </trkpt>
      <trkpt lat="43.08394" lon="0.65517">
        <ele>388.62</ele>
        <time>2020-09-01T06:27:58.000Z</time>
      </trkpt>
      <trkpt lat="43.08387" lon="0.65496">
        <ele>388.73</ele>
        <time>2020-09-01T06:28:03.000Z</time>
      </trkpt>
      <trkpt lat="43.08379" lon="0.65474">
        <ele>388.85</ele>
        <time>2020-09-01T06:28:08.000Z</time>
      </trkpt>
      <trkpt lat="43.08372" lon="0.65454">
        <ele>388.96</ele>
        <time>2020-09-01T06:28:13.000Z</time>
      </trkpt>
      <trkpt lat="43.08364" lon="0.65433">
        <ele>389.07</ele>
        <time>2020-09-01T06:28:18.000Z</time>
      </trkpt>
      <trkpt lat="43.08356" lon="0.65411">
        <ele>389.19</ele>
        <time>2020-09-01T06:28:23.000Z</time>
      </trkpt>
      <trkpt lat="43.08348" lon="0.65389">
        <ele>389.3</ele>
        <time>2020-09-01T06:28:28.000Z</time>
      </trkpt>
      <trkpt lat="43.08341" lon="0.65367">
        <ele>389.42</ele>
        <time>2020-09-01T06:28:33.000Z</time>
      </trkpt>
      <trkpt lat="43.08333" lon="0.65347">
        <ele>389.54</ele>
        <time>2020-09-01T06:28:38.000Z</time>
      </trkpt>
      <trkpt lat="43.08326" lon="0.65326">
        <ele>389.66</ele>
        <time>2020-09-01T06:28:43.000Z</time>
      </trkpt>
      <trkpt lat="43.08319" lon="0.65306">
        <ele>389.78</ele>
        <time>2020-09-01T06:28:48.000Z</time>
      </trkpt>
      <trkpt lat="43.08313" lon="0.65286">
        <ele>389.89</ele>
        <time>2020-09-01T06:28:53.000Z</time>
      </trkpt>
      <trkpt lat="43.08307" lon="0.65263">
        <ele>390.01</ele>
        <time>2020-09-01T06:28:58.000Z</time>
      </trkpt>
      <trkpt lat="43.08303" lon="0.6524">
        <ele>390.12</ele>
        <time>2020-09-01T06:29:03.000Z</time>
      </trkpt>
      <trkpt lat="43.08301" lon="0.65216">
        <ele>390.23</ele>
        <time>2020-09-01T06:29:08.000Z</time>
      </trkpt>
      <trkpt lat="43.08298" lon="0.65193">
        <ele>390.34</ele>
        <time>2020-09-01T06:29:13.000Z</time>
      </trkpt>
      <trkpt lat="43.08296" lon="0.65169">
        <ele>390.45</ele>
        <time>2020-09-01T06:29:18.000Z</time>
      </trkpt>
      <trkpt lat="43.08293" lon="0.65146">
        <ele>390.56</ele>
        <time>2020-09-01T06:29:23.000Z</time>
      </trkpt>
      <trkpt lat="43.0829" lon="0.65123">
        <ele>390.66</ele>
        <time>2020-09-01T06:29:28.000Z</time>
      </trkpt>
      <trkpt lat="43.08287" lon="0.651">
        <ele>390.77</ele>
        <time>2020-09-01T06:29:33.000Z</time>
      </trkpt>
      <trkpt lat="43.08284" lon="0.65078">
        <ele>390.87</ele>
        <time>2020-09-01T06:29:38.000Z</time>
      </trkpt>
      <trkpt lat="43.08281" lon="0.65055">
        <ele>390.97</ele>
        <time>2020-09-01T06:29:43.000Z</time>
      </trkpt>
      <trkpt lat="43.08278" lon="0.65033">
        <ele>391.06</ele>
        <time>2020-09-01T06:29:48.000Z</time>
      </trkpt>
      <trkpt lat="43.08271" lon="0.65012">
        <ele>391.15</ele>
        <time>2020-09-01T06:29:53.000Z</time>
      </trkpt>
      <trkpt lat="43.08259" lon="0.64993">
        <ele>391.24</ele>
        <time>2020-09-01T06:29:58.000Z</time>
      </trkpt>
      <trkpt lat="43.08246" lon="0.64978">
        <ele>391.32</ele>
        <time>2020-09-01T06:30:03.000Z</time>
      </trkpt>
      <trkpt lat="43.08236" lon="0.64957">
        <ele>391.54</ele>
        <time>2020-09-01T06:30:08.000Z</time>
      </trkpt>
      <trkpt lat="43.08232" lon="0.64928">
        <ele>392.23</ele>
        <time>2020-09-01T06:30:13.000Z</time>
      </trkpt>
      <trkpt lat="43.08229" lon="0.64902">
        <ele>392.57</ele>
        <time>2020-09-01T06:30:18.000Z</time>
      </trkpt>
      <trkpt lat="43.08226" lon="0.64878">
        <ele>392.64</ele>
        <time>2020-09-01T06:30:23.000Z</time>
      </trkpt>
      <trkpt lat="43.08222" lon="0.64854">
        <ele>392.67</ele>
        <time>2020-09-01T06:30:28.000Z</time>
      </trkpt>
      <trkpt lat="43.08219" lon="0.64831">
        <ele>392.7</ele>
        <time>2020-09-01T06:30:33.000Z</time>
      </trkpt>
      <trkpt lat="43.08217" lon="0.64807">
        <ele>392.75</ele>
        <time>2020-09-01T06:30:38.000Z</time>
      </trkpt>
      <trkpt lat="43.08214" lon="0.64784">
        <ele>392.81</ele>
        <time>2020-09-01T06:30:43.000Z</time>
      </trkpt>
      <trkpt lat="43.08211" lon="0.64761">
        <ele>392.9</ele>
        <time>2020-09-01T06:30:48.000Z</time>
      </trkpt>
      <trkpt lat="43.08208" lon="0.6474">
        <ele>393</ele>
        <time>2020-09-01T06:30:53.000Z</time>
      </trkpt>
      <trkpt lat="43.08205" lon="0.64717">
        <ele>393.1</ele>
        <time>2020-09-01T06:30:58.000Z</time>
      </trkpt>
      <trkpt lat="43.08202" lon="0.64693">
        <ele>393.19</ele>
        <time>2020-09-01T06:31:03.000Z</time>
      </trkpt>
      <trkpt lat="43.08199" lon="0.6467">
        <ele>393.29</ele>
        <time>2020-09-01T06:31:08.000Z</time>
      </trkpt>
      <trkpt lat="43.08196" lon="0.64646">
        <ele>393.38</ele>
        <time>2020-09-01T06:31:13.000Z</time>
      </trkpt>
      <trkpt lat="43.08193" lon="0.64623">
        <ele>393.47</ele>
        <time>2020-09-01T06:31:18.000Z</time>
      </trkpt>
      <trkpt lat="43.0819" lon="0.64599">
        <ele>393.56</ele>
        <time>2020-09-01T06:31:23.000Z</time>
      </trkpt>
      <trkpt lat="43.08187" lon="0.64575">
        <ele>393.64</ele>
        <time>2020-09-01T06:31:28.000Z</time>
      </trkpt>
      <trkpt lat="43.08184" lon="0.6455">
        <ele>393.73</ele>
        <time>2020-09-01T06:31:33.000Z</time>
      </trkpt>
      <trkpt lat="43.08181" lon="0.64527">
        <ele>393.82</ele>
        <time>2020-09-01T06:31:38.000Z</time>
      </trkpt>
      <trkpt lat="43.08178" lon="0.64504">
        <ele>393.91</ele>
        <time>2020-09-01T06:31:43.000Z</time>
      </trkpt>
      <trkpt lat="43.08175" lon="0.64481">
        <ele>393.99</ele>
        <time>2020-09-01T06:31:47.999Z</time>
      </trkpt>
      <trkpt lat="43.08172" lon="0.64459">
        <ele>394.07</ele>
        <time>2020-09-01T06:31:52.999Z</time>
      </trkpt>
      <trkpt lat="43.08169" lon="0.64435">
        <ele>394.15</ele>
        <time>2020-09-01T06:31:57.999Z</time>
      </trkpt>
      <trkpt lat="43.08166" lon="0.64411">
        <ele>394.23</ele>
        <time>2020-09-01T06:32:02.999Z</time>
      </trkpt>
      <trkpt lat="43.08162" lon="0.64387">
        <ele>394.31</ele>
        <time>2020-09-01T06:32:07.999Z</time>
      </trkpt>
      <trkpt lat="43.08159" lon="0.64363">
        <ele>394.39</ele>
        <time>2020-09-01T06:32:12.999Z</time>
      </trkpt>
      <trkpt lat="43.08156" lon="0.6434">
        <ele>394.48</ele>
        <time>2020-09-01T06:32:17.999Z</time>
      </trkpt>
      <trkpt lat="43.08153" lon="0.64317">
        <ele>394.56</ele>
        <time>2020-09-01T06:32:22.999Z</time>
      </trkpt>
      <trkpt lat="43.08151" lon="0.64294">
        <ele>394.64</ele>
        <time>2020-09-01T06:32:27.999Z</time>
      </trkpt>
      <trkpt lat="43.08147" lon="0.64271">
        <ele>394.73</ele>
        <time>2020-09-01T06:32:32.999Z</time>
      </trkpt>
      <trkpt lat="43.08144" lon="0.64247">
        <ele>394.81</ele>
        <time>2020-09-01T06:32:37.999Z</time>
      </trkpt>
      <trkpt lat="43.08141" lon="0.64222">
        <ele>394.9</ele>
        <time>2020-09-01T06:32:42.999Z</time>
      </trkpt>
      <trkpt lat="43.08138" lon="0.64199">
        <ele>394.98</ele>
        <time>2020-09-01T06:32:47.999Z</time>
      </trkpt>
      <trkpt lat="43.08135" lon="0.64175">
        <ele>395.07</ele>
        <time>2020-09-01T06:32:52.999Z</time>
      </trkpt>
      <trkpt lat="43.08132" lon="0.6415">
        <ele>395.52</ele>
        <time>2020-09-01T06:32:57.999Z</time>
      </trkpt>
      <trkpt lat="43.08128" lon="0.64126">
        <ele>395.78</ele>
        <time>2020-09-01T06:33:02.999Z</time>
      </trkpt>
      <trkpt lat="43.08125" lon="0.64101">
        <ele>395.86</ele>
        <time>2020-09-01T06:33:07.999Z</time>
      </trkpt>
      <trkpt lat="43.08123" lon="0.64076">
        <ele>395.94</ele>
        <time>2020-09-01T06:33:12.999Z</time>
      </trkpt>
      <trkpt lat="43.08123" lon="0.64052">
        <ele>395.97</ele>
        <time>2020-09-01T06:33:17.999Z</time>
      </trkpt>
      <trkpt lat="43.08123" lon="0.64029">
        <ele>396</ele>
        <time>2020-09-01T06:33:22.999Z</time>
      </trkpt>
      <trkpt lat="43.08123" lon="0.64007">
        <ele>396.03</ele>
        <time>2020-09-01T06:33:27.999Z</time>
      </trkpt>
      <trkpt lat="43.0812" lon="0.63986">
        <ele>396.07</ele>
        <time>2020-09-01T06:33:32.999Z</time>
      </trkpt>
      <trkpt lat="43.08113" lon="0.63966">
        <ele>396.1</ele>
        <time>2020-09-01T06:33:37.999Z</time>
      </trkpt>
      <trkpt lat="43.08106" lon="0.63944">
        <ele>396.13</ele>
        <time>2020-09-01T06:33:42.999Z</time>
      </trkpt>
      <trkpt lat="43.08103" lon="0.63921">
        <ele>396.16</ele>
        <time>2020-09-01T06:33:47.999Z</time>
      </trkpt>
      <trkpt lat="43.08101" lon="0.63899">
        <ele>396.19</ele>
        <time>2020-09-01T06:33:52.999Z</time>
      </trkpt>
      <trkpt lat="43.08097" lon="0.63876">
        <ele>396.22</ele>
        <time>2020-09-01T06:33:57.999Z</time>
      </trkpt>
      <trkpt lat="43.08094" lon="0.63853">
        <ele>396.25</ele>
        <time>2020-09-01T06:34:02.999Z</time>
      </trkpt>
      <trkpt lat="43.08091" lon="0.6383">
        <ele>396.29</ele>
        <time>2020-09-01T06:34:07.999Z</time>
      </trkpt>
      <trkpt lat="43.08088" lon="0.63806">
        <ele>396.34</ele>
        <time>2020-09-01T06:34:12.999Z</time>
      </trkpt>
      <trkpt lat="43.08085" lon="0.63784">
        <ele>396.39</ele>
        <time>2020-09-01T06:34:17.999Z</time>
      </trkpt>
      <trkpt lat="43.08083" lon="0.63759">
        <ele>396.46</ele>
        <time>2020-09-01T06:34:22.999Z</time>
      </trkpt>
      <trkpt lat="43.0808" lon="0.63737">
        <ele>396.55</ele>
        <time>2020-09-01T06:34:27.999Z</time>
      </trkpt>
      <trkpt lat="43.08077" lon="0.63714">
        <ele>396.65</ele>
        <time>2020-09-01T06:34:32.999Z</time>
      </trkpt>
      <trkpt lat="43.08074" lon="0.63691">
        <ele>396.76</ele>
        <time>2020-09-01T06:34:37.999Z</time>
      </trkpt>
      <trkpt lat="43.08071" lon="0.63668">
        <ele>396.88</ele>
        <time>2020-09-01T06:34:42.999Z</time>
      </trkpt>
      <trkpt lat="43.08068" lon="0.63645">
        <ele>397.01</ele>
        <time>2020-09-01T06:34:47.999Z</time>
      </trkpt>
      <trkpt lat="43.08065" lon="0.63623">
        <ele>397.15</ele>
        <time>2020-09-01T06:34:52.999Z</time>
      </trkpt>
      <trkpt lat="43.08063" lon="0.63602">
        <ele>397.29</ele>
        <time>2020-09-01T06:34:57.999Z</time>
      </trkpt>
      <trkpt lat="43.08061" lon="0.6358">
        <ele>397.44</ele>
        <time>2020-09-01T06:35:02.999Z</time>
      </trkpt>
      <trkpt lat="43.08059" lon="0.63558">
        <ele>397.59</ele>
        <time>2020-09-01T06:35:07.999Z</time>
      </trkpt>
      <trkpt lat="43.08057" lon="0.63537">
        <ele>397.75</ele>
        <time>2020-09-01T06:35:12.999Z</time>
      </trkpt>
      <trkpt lat="43.08054" lon="0.63514">
        <ele>397.91</ele>
        <time>2020-09-01T06:35:17.999Z</time>
      </trkpt>
      <trkpt lat="43.08051" lon="0.63492">
        <ele>398.07</ele>
        <time>2020-09-01T06:35:22.999Z</time>
      </trkpt>
      <trkpt lat="43.08048" lon="0.63471">
        <ele>398.23</ele>
        <time>2020-09-01T06:35:27.999Z</time>
      </trkpt>
      <trkpt lat="43.08045" lon="0.6345">
        <ele>398.39</ele>
        <time>2020-09-01T06:35:32.999Z</time>
      </trkpt>
      <trkpt lat="43.08043" lon="0.63428">
        <ele>398.54</ele>
        <time>2020-09-01T06:35:37.999Z</time>
      </trkpt>
      <trkpt lat="43.08039" lon="0.63406">
        <ele>398.7</ele>
        <time>2020-09-01T06:35:42.999Z</time>
      </trkpt>
      <trkpt lat="43.08037" lon="0.63384">
        <ele>398.86</ele>
        <time>2020-09-01T06:35:47.999Z</time>
      </trkpt>
      <trkpt lat="43.08034" lon="0.63362">
        <ele>399.01</ele>
        <time>2020-09-01T06:35:52.999Z</time>
      </trkpt>
      <trkpt lat="43.08031" lon="0.63339">
        <ele>399.17</ele>
        <time>2020-09-01T06:35:57.999Z</time>
      </trkpt>
      <trkpt lat="43.08028" lon="0.63316">
        <ele>399.32</ele>
        <time>2020-09-01T06:36:02.999Z</time>
      </trkpt>
      <trkpt lat="43.08025" lon="0.63294">
        <ele>399.47</ele>
        <time>2020-09-01T06:36:07.999Z</time>
      </trkpt>
      <trkpt lat="43.08022" lon="0.63272">
        <ele>399.63</ele>
        <time>2020-09-01T06:36:12.999Z</time>
      </trkpt>
      <trkpt lat="43.08019" lon="0.6325">
        <ele>399.78</ele>
        <time>2020-09-01T06:36:17.999Z</time>
      </trkpt>
      <trkpt lat="43.08016" lon="0.63228">
        <ele>399.94</ele>
        <time>2020-09-01T06:36:22.999Z</time>
      </trkpt>
      <trkpt lat="43.08014" lon="0.63207">
        <ele>400.09</ele>
        <time>2020-09-01T06:36:27.999Z</time>
      </trkpt>
      <trkpt lat="43.08011" lon="0.63185">
        <ele>400.25</ele>
        <time>2020-09-01T06:36:32.999Z</time>
      </trkpt>
      <trkpt lat="43.08009" lon="0.63162">
        <ele>400.4</ele>
        <time>2020-09-01T06:36:37.999Z</time>
      </trkpt>
      <trkpt lat="43.0801" lon="0.6314">
        <ele>400.56</ele>
        <time>2020-09-01T06:36:42.999Z</time>
      </trkpt>
      <trkpt lat="43.08014" lon="0.6312">
        <ele>400.71</ele>
        <time>2020-09-01T06:36:47.999Z</time>
      </trkpt>
      <trkpt lat="43.08022" lon="0.631">
        <ele>400.85</ele>
        <time>2020-09-01T06:36:52.999Z</time>
      </trkpt>
      <trkpt lat="43.08034" lon="0.63081">
        <ele>400.99</ele>
        <time>2020-09-01T06:36:57.999Z</time>
      </trkpt>
      <trkpt lat="43.0805" lon="0.63065">
        <ele>401.86</ele>
        <time>2020-09-01T06:37:02.999Z</time>
      </trkpt>
      <trkpt lat="43.08068" lon="0.63049">
        <ele>402.21</ele>
        <time>2020-09-01T06:37:07.999Z</time>
      </trkpt>
      <trkpt lat="43.08086" lon="0.63034">
        <ele>402.36</ele>
        <time>2020-09-01T06:37:12.999Z</time>
      </trkpt>
      <trkpt lat="43.08104" lon="0.6302">
        <ele>402.43</ele>
        <time>2020-09-01T06:37:17.999Z</time>
      </trkpt>
      <trkpt lat="43.08122" lon="0.63005">
        <ele>402.46</ele>
        <time>2020-09-01T06:37:22.999Z</time>
      </trkpt>
      <trkpt lat="43.0814" lon="0.62991">
        <ele>402.48</ele>
        <time>2020-09-01T06:37:27.999Z</time>
      </trkpt>
      <trkpt lat="43.08158" lon="0.62976">
        <ele>402.49</ele>
        <time>2020-09-01T06:37:32.999Z</time>
      </trkpt>
      <trkpt lat="43.08175" lon="0.62961">
        <ele>402.5</ele>
        <time>2020-09-01T06:37:37.999Z</time>
      </trkpt>
      <trkpt lat="43.08192" lon="0.62947">
        <ele>402.51</ele>
        <time>2020-09-01T06:37:42.999Z</time>
      </trkpt>
      <trkpt lat="43.0821" lon="0.62933">
        <ele>402.53</ele>
        <time>2020-09-01T06:37:47.999Z</time>
      </trkpt>
      <trkpt lat="43.08226" lon="0.6292">
        <ele>402.55</ele>
        <time>2020-09-01T06:37:52.999Z</time>
      </trkpt>
      <trkpt lat="43.08243" lon="0.62906">
        <ele>402.57</ele>
        <time>2020-09-01T06:37:57.999Z</time>
      </trkpt>
      <trkpt lat="43.0826" lon="0.62892">
        <ele>402.6</ele>
        <time>2020-09-01T06:38:02.999Z</time>
      </trkpt>
      <trkpt lat="43.08276" lon="0.62878">
        <ele>402.63</ele>
        <time>2020-09-01T06:38:07.999Z</time>
      </trkpt>
      <trkpt lat="43.08293" lon="0.62864">
        <ele>402.64</ele>
        <time>2020-09-01T06:38:12.999Z</time>
      </trkpt>
      <trkpt lat="43.0831" lon="0.6285">
        <ele>402.67</ele>
        <time>2020-09-01T06:38:17.999Z</time>
      </trkpt>
      <trkpt lat="43.08328" lon="0.62836">
        <ele>402.7</ele>
        <time>2020-09-01T06:38:22.999Z</time>
      </trkpt>
      <trkpt lat="43.08346" lon="0.62822">
        <ele>402.74</ele>
        <time>2020-09-01T06:38:27.999Z</time>
      </trkpt>
      <trkpt lat="43.08364" lon="0.62807">
        <ele>402.78</ele>
        <time>2020-09-01T06:38:32.999Z</time>
      </trkpt>
      <trkpt lat="43.08382" lon="0.62791">
        <ele>402.81</ele>
        <time>2020-09-01T06:38:37.999Z</time>
      </trkpt>
      <trkpt lat="43.084" lon="0.62777">
        <ele>402.84</ele>
        <time>2020-09-01T06:38:42.999Z</time>
      </trkpt>
      <trkpt lat="43.08418" lon="0.62761">
        <ele>402.87</ele>
        <time>2020-09-01T06:38:47.999Z</time>
      </trkpt>
      <trkpt lat="43.08436" lon="0.62744">
        <ele>402.9</ele>
        <time>2020-09-01T06:38:52.999Z</time>
      </trkpt>
      <trkpt lat="43.08453" lon="0.62724">
        <ele>402.93</ele>
        <time>2020-09-01T06:38:57.999Z</time>
      </trkpt>
      <trkpt lat="43.08469" lon="0.62704">
        <ele>402.97</ele>
        <time>2020-09-01T06:39:02.999Z</time>
      </trkpt>
      <trkpt lat="43.08483" lon="0.62683">
        <ele>403.01</ele>
        <time>2020-09-01T06:39:07.999Z</time>
      </trkpt>
      <trkpt lat="43.08495" lon="0.62662">
        <ele>403.05</ele>
        <time>2020-09-01T06:39:12.999Z</time>
      </trkpt>
      <trkpt lat="43.08505" lon="0.62639">
        <ele>403.09</ele>
        <time>2020-09-01T06:39:17.999Z</time>
      </trkpt>
      <trkpt lat="43.08515" lon="0.62614">
        <ele>403.14</ele>
        <time>2020-09-01T06:39:22.999Z</time>
      </trkpt>
      <trkpt lat="43.08525" lon="0.62591">
        <ele>403.2</ele>
        <time>2020-09-01T06:39:27.999Z</time>
      </trkpt>
      <trkpt lat="43.08533" lon="0.62569">
        <ele>403.21</ele>
        <time>2020-09-01T06:39:32.999Z</time>
      </trkpt>
      <trkpt lat="43.08542" lon="0.62547">
        <ele>403.23</ele>
        <time>2020-09-01T06:39:37.999Z</time>
      </trkpt>
      <trkpt lat="43.0855" lon="0.62525">
        <ele>403.26</ele>
        <time>2020-09-01T06:39:42.999Z</time>
      </trkpt>
      <trkpt lat="43.08558" lon="0.62502">
        <ele>403.39</ele>
        <time>2020-09-01T06:39:47.999Z</time>
      </trkpt>
      <trkpt lat="43.08567" lon="0.62477">
        <ele>403.59</ele>
        <time>2020-09-01T06:39:52.999Z</time>
      </trkpt>
      <trkpt lat="43.08576" lon="0.62454">
        <ele>403.74</ele>
        <time>2020-09-01T06:39:57.999Z</time>
      </trkpt>
      <trkpt lat="43.08583" lon="0.62431">
        <ele>403.84</ele>
        <time>2020-09-01T06:40:02.999Z</time>
      </trkpt>
      <trkpt lat="43.0859" lon="0.62407">
        <ele>403.92</ele>
        <time>2020-09-01T06:40:07.999Z</time>
      </trkpt>
      <trkpt lat="43.08598" lon="0.62384">
        <ele>404</ele>
        <time>2020-09-01T06:40:12.999Z</time>
      </trkpt>
      <trkpt lat="43.08606" lon="0.6236">
        <ele>404.06</ele>
        <time>2020-09-01T06:40:17.999Z</time>
      </trkpt>
      <trkpt lat="43.08613" lon="0.62335">
        <ele>404.12</ele>
        <time>2020-09-01T06:40:22.999Z</time>
      </trkpt>
      <trkpt lat="43.08621" lon="0.6231">
        <ele>404.2</ele>
        <time>2020-09-01T06:40:27.999Z</time>
      </trkpt>
      <trkpt lat="43.0863" lon="0.62286">
        <ele>404.3</ele>
        <time>2020-09-01T06:40:32.999Z</time>
      </trkpt>
      <trkpt lat="43.08638" lon="0.62263">
        <ele>404.38</ele>
        <time>2020-09-01T06:40:37.999Z</time>
      </trkpt>
      <trkpt lat="43.08647" lon="0.62239">
        <ele>404.45</ele>
        <time>2020-09-01T06:40:42.999Z</time>
      </trkpt>
      <trkpt lat="43.08654" lon="0.62216">
        <ele>404.48</ele>
        <time>2020-09-01T06:40:47.999Z</time>
      </trkpt>
      <trkpt lat="43.0866" lon="0.62193">
        <ele>404.49</ele>
        <time>2020-09-01T06:40:52.999Z</time>
      </trkpt>
      <trkpt lat="43.08666" lon="0.62169">
        <ele>404.5</ele>
        <time>2020-09-01T06:40:57.999Z</time>
      </trkpt>
      <trkpt lat="43.08671" lon="0.62145">
        <ele>404.52</ele>
        <time>2020-09-01T06:41:02.999Z</time>
      </trkpt>
      <trkpt lat="43.08676" lon="0.6212">
        <ele>404.54</ele>
        <time>2020-09-01T06:41:07.999Z</time>
      </trkpt>
      <trkpt lat="43.08681" lon="0.62097">
        <ele>404.57</ele>
        <time>2020-09-01T06:41:12.999Z</time>
      </trkpt>
      <trkpt lat="43.08685" lon="0.62073">
        <ele>404.68</ele>
        <time>2020-09-01T06:41:17.999Z</time>
      </trkpt>
      <trkpt lat="43.08691" lon="0.62049">
        <ele>404.76</ele>
        <time>2020-09-01T06:41:22.999Z</time>
      </trkpt>
      <trkpt lat="43.08697" lon="0.62026">
        <ele>404.79</ele>
        <time>2020-09-01T06:41:27.999Z</time>
      </trkpt>
      <trkpt lat="43.08703" lon="0.62004">
        <ele>404.83</ele>
        <time>2020-09-01T06:41:32.999Z</time>
      </trkpt>
      <trkpt lat="43.0871" lon="0.61983">
        <ele>404.88</ele>
        <time>2020-09-01T06:41:37.999Z</time>
      </trkpt>
      <trkpt lat="43.08719" lon="0.61963">
        <ele>404.93</ele>
        <time>2020-09-01T06:41:42.999Z</time>
      </trkpt>
      <trkpt lat="43.08729" lon="0.61944">
        <ele>404.99</ele>
        <time>2020-09-01T06:41:47.999Z</time>
      </trkpt>
      <trkpt lat="43.0874" lon="0.61923">
        <ele>405.05</ele>
        <time>2020-09-01T06:41:52.999Z</time>
      </trkpt>
      <trkpt lat="43.08753" lon="0.61911">
        <ele>405.11</ele>
        <time>2020-09-01T06:41:57.999Z</time>
      </trkpt>
      <trkpt lat="43.08763" lon="0.61907">
        <ele>405.17</ele>
        <time>2020-09-01T06:42:02.999Z</time>
      </trkpt>
      <trkpt lat="43.08766" lon="0.61888">
        <ele>405.24</ele>
        <time>2020-09-01T06:42:07.999Z</time>
      </trkpt>
      <trkpt lat="43.08763" lon="0.61864">
        <ele>405.3</ele>
        <time>2020-09-01T06:42:12.999Z</time>
      </trkpt>
      <trkpt lat="43.0876" lon="0.61839">
        <ele>405.37</ele>
        <time>2020-09-01T06:42:17.999Z</time>
      </trkpt>
      <trkpt lat="43.08754" lon="0.61816">
        <ele>405.46</ele>
        <time>2020-09-01T06:42:22.999Z</time>
      </trkpt>
      <trkpt lat="43.08749" lon="0.61793">
        <ele>405.55</ele>
        <time>2020-09-01T06:42:27.999Z</time>
      </trkpt>
      <trkpt lat="43.08744" lon="0.6177">
        <ele>405.64</ele>
        <time>2020-09-01T06:42:32.999Z</time>
      </trkpt>
      <trkpt lat="43.08738" lon="0.61748">
        <ele>405.74</ele>
        <time>2020-09-01T06:42:37.999Z</time>
      </trkpt>
      <trkpt lat="43.08732" lon="0.61727">
        <ele>405.85</ele>
        <time>2020-09-01T06:42:42.999Z</time>
      </trkpt>
      <trkpt lat="43.08724" lon="0.61706">
        <ele>406.13</ele>
        <time>2020-09-01T06:42:47.999Z</time>
      </trkpt>
      <trkpt lat="43.08716" lon="0.61684">
        <ele>406.22</ele>
        <time>2020-09-01T06:42:52.999Z</time>
      </trkpt>
      <trkpt lat="43.08708" lon="0.61664">
        <ele>406.31</ele>
        <time>2020-09-01T06:42:57.999Z</time>
      </trkpt>
      <trkpt lat="43.087" lon="0.61644">
        <ele>406.4</ele>
        <time>2020-09-01T06:43:02.999Z</time>
      </trkpt>
      <trkpt lat="43.08693" lon="0.61624">
        <ele>406.49</ele>
        <time>2020-09-01T06:43:07.999Z</time>
      </trkpt>
      <trkpt lat="43.08685" lon="0.61605">
        <ele>406.59</ele>
        <time>2020-09-01T06:43:12.999Z</time>
      </trkpt>
      <trkpt lat="43.08678" lon="0.61587">
        <ele>406.69</ele>
        <time>2020-09-01T06:43:17.999Z</time>
      </trkpt>
      <trkpt lat="43.0867" lon="0.61568">
        <ele>406.79</ele>
        <time>2020-09-01T06:43:22.999Z</time>
      </trkpt>
      <trkpt lat="43.08663" lon="0.61548">
        <ele>406.88</ele>
        <time>2020-09-01T06:43:27.999Z</time>
      </trkpt>
      <trkpt lat="43.08657" lon="0.61528">
        <ele>406.98</ele>
        <time>2020-09-01T06:43:32.999Z</time>
      </trkpt>
      <trkpt lat="43.08651" lon="0.6151">
        <ele>407.08</ele>
        <time>2020-09-01T06:43:37.999Z</time>
      </trkpt>
      <trkpt lat="43.08649" lon="0.61491">
        <ele>407.18</ele>
        <time>2020-09-01T06:43:42.999Z</time>
      </trkpt>
      <trkpt lat="43.08643" lon="0.61471">
        <ele>407.28</ele>
        <time>2020-09-01T06:43:47.999Z</time>
      </trkpt>
      <trkpt lat="43.08637" lon="0.61453">
        <ele>407.39</ele>
        <time>2020-09-01T06:43:52.999Z</time>
      </trkpt>
      <trkpt lat="43.0863" lon="0.61433">
        <ele>407.48</ele>
        <time>2020-09-01T06:43:57.999Z</time>
      </trkpt>
      <trkpt lat="43.08623" lon="0.61411">
        <ele>407.58</ele>
        <time>2020-09-01T06:44:02.999Z</time>
      </trkpt>
      <trkpt lat="43.08616" lon="0.6139">
        <ele>407.67</ele>
        <time>2020-09-01T06:44:07.999Z</time>
      </trkpt>
      <trkpt lat="43.0861" lon="0.61369">
        <ele>407.77</ele>
        <time>2020-09-01T06:44:12.999Z</time>
      </trkpt>
      <trkpt lat="43.08605" lon="0.61352">
        <ele>407.86</ele>
        <time>2020-09-01T06:44:17.999Z</time>
      </trkpt>
      <trkpt lat="43.08599" lon="0.61332">
        <ele>407.94</ele>
        <time>2020-09-01T06:44:22.999Z</time>
      </trkpt>
      <trkpt lat="43.08592" lon="0.61311">
        <ele>408.02</ele>
        <time>2020-09-01T06:44:27.999Z</time>
      </trkpt>
      <trkpt lat="43.08584" lon="0.61291">
        <ele>408.1</ele>
        <time>2020-09-01T06:44:32.999Z</time>
      </trkpt>
      <trkpt lat="43.08576" lon="0.61271">
        <ele>408.18</ele>
        <time>2020-09-01T06:44:37.999Z</time>
      </trkpt>
      <trkpt lat="43.08569" lon="0.61251">
        <ele>408.26</ele>
        <time>2020-09-01T06:44:42.999Z</time>
      </trkpt>
      <trkpt lat="43.08561" lon="0.61232">
        <ele>408.34</ele>
        <time>2020-09-01T06:44:47.999Z</time>
      </trkpt>
      <trkpt lat="43.08554" lon="0.61213">
        <ele>408.42</ele>
        <time>2020-09-01T06:44:52.999Z</time>
      </trkpt>
      <trkpt lat="43.08546" lon="0.61193">
        <ele>408.5</ele>
        <time>2020-09-01T06:44:57.999Z</time>
      </trkpt>
      <trkpt lat="43.08538" lon="0.61174">
        <ele>408.58</ele>
        <time>2020-09-01T06:45:02.999Z</time>
      </trkpt>
      <trkpt lat="43.08533" lon="0.61156">
        <ele>408.67</ele>
        <time>2020-09-01T06:45:07.999Z</time>
      </trkpt>
      <trkpt lat="43.08525" lon="0.61136">
        <ele>408.75</ele>
        <time>2020-09-01T06:45:12.999Z</time>
      </trkpt>
      <trkpt lat="43.08517" lon="0.61118">
        <ele>408.84</ele>
        <time>2020-09-01T06:45:17.999Z</time>
      </trkpt>
      <trkpt lat="43.08507" lon="0.611">
        <ele>408.92</ele>
        <time>2020-09-01T06:45:22.999Z</time>
      </trkpt>
      <trkpt lat="43.08497" lon="0.61084">
        <ele>408.99</ele>
        <time>2020-09-01T06:45:27.999Z</time>
      </trkpt>
      <trkpt lat="43.08486" lon="0.61068">
        <ele>409.07</ele>
        <time>2020-09-01T06:45:32.999Z</time>
      </trkpt>
      <trkpt lat="43.08477" lon="0.61055">
        <ele>409.13</ele>
        <time>2020-09-01T06:45:37.000Z</time>
      </trkpt>
      <trkpt lat="43.08465" lon="0.61039">
        <ele>409.2</ele>
        <time>2020-09-01T06:45:42.000Z</time>
      </trkpt>
      <trkpt lat="43.08453" lon="0.61024">
        <ele>409.27</ele>
        <time>2020-09-01T06:45:47.000Z</time>
      </trkpt>
      <trkpt lat="43.08441" lon="0.61007">
        <ele>409.35</ele>
        <time>2020-09-01T06:45:52.000Z</time>
      </trkpt>
      <trkpt lat="43.08429" lon="0.60991">
        <ele>409.42</ele>
        <time>2020-09-01T06:45:57.000Z</time>
      </trkpt>
      <trkpt lat="43.08419" lon="0.60972">
        <ele>409.5</ele>
        <time>2020-09-01T06:46:02.000Z</time>
      </trkpt>
      <trkpt lat="43.08409" lon="0.60953">
        <ele>409.59</ele>
        <time>2020-09-01T06:46:07.000Z</time>
      </trkpt>
      <trkpt lat="43.08401" lon="0.60934">
        <ele>409.69</ele>
        <time>2020-09-01T06:46:12.000Z</time>
      </trkpt>
      <trkpt lat="43.08393" lon="0.60915">
        <ele>409.8</ele>
        <time>2020-09-01T06:46:17.000Z</time>
      </trkpt>
      <trkpt lat="43.08385" lon="0.60896">
        <ele>409.92</ele>
        <time>2020-09-01T06:46:22.000Z</time>
      </trkpt>
      <trkpt lat="43.08377" lon="0.60878">
        <ele>410.04</ele>
        <time>2020-09-01T06:46:27.000Z</time>
      </trkpt>
      <trkpt lat="43.08369" lon="0.60858">
        <ele>410.18</ele>
        <time>2020-09-01T06:46:32.000Z</time>
      </trkpt>
      <trkpt lat="43.08361" lon="0.60839">
        <ele>410.31</ele>
        <time>2020-09-01T06:46:37.000Z</time>
      </trkpt>
      <trkpt lat="43.08354" lon="0.60819">
        <ele>410.45</ele>
        <time>2020-09-01T06:46:42.000Z</time>
      </trkpt>
      <trkpt lat="43.08346" lon="0.60799">
        <ele>410.59</ele>
        <time>2020-09-01T06:46:47.000Z</time>
      </trkpt>
      <trkpt lat="43.08337" lon="0.60779">
        <ele>410.74</ele>
        <time>2020-09-01T06:46:52.000Z</time>
      </trkpt>
      <trkpt lat="43.0833" lon="0.6076">
        <ele>410.89</ele>
        <time>2020-09-01T06:46:57.000Z</time>
      </trkpt>
      <trkpt lat="43.08322" lon="0.6074">
        <ele>411.05</ele>
        <time>2020-09-01T06:47:02.000Z</time>
      </trkpt>
      <trkpt lat="43.08313" lon="0.60719">
        <ele>411.2</ele>
        <time>2020-09-01T06:47:07.000Z</time>
      </trkpt>
      <trkpt lat="43.08305" lon="0.60699">
        <ele>411.35</ele>
        <time>2020-09-01T06:47:12.000Z</time>
      </trkpt>
      <trkpt lat="43.08298" lon="0.60679">
        <ele>411.51</ele>
        <time>2020-09-01T06:47:17.000Z</time>
      </trkpt>
      <trkpt lat="43.0829" lon="0.60657">
        <ele>411.66</ele>
        <time>2020-09-01T06:47:22.000Z</time>
      </trkpt>
      <trkpt lat="43.08283" lon="0.60637">
        <ele>411.81</ele>
        <time>2020-09-01T06:47:27.000Z</time>
      </trkpt>
      <trkpt lat="43.08276" lon="0.60617">
        <ele>411.97</ele>
        <time>2020-09-01T06:47:32.000Z</time>
      </trkpt>
      <trkpt lat="43.08267" lon="0.60596">
        <ele>412.12</ele>
        <time>2020-09-01T06:47:37.000Z</time>
      </trkpt>
      <trkpt lat="43.0826" lon="0.60574">
        <ele>412.27</ele>
        <time>2020-09-01T06:47:42.000Z</time>
      </trkpt>
      <trkpt lat="43.08252" lon="0.60553">
        <ele>412.43</ele>
        <time>2020-09-01T06:47:47.000Z</time>
      </trkpt>
      <trkpt lat="43.08244" lon="0.60534">
        <ele>412.58</ele>
        <time>2020-09-01T06:47:52.000Z</time>
      </trkpt>
      <trkpt lat="43.08237" lon="0.60513">
        <ele>412.73</ele>
        <time>2020-09-01T06:47:57.000Z</time>
      </trkpt>
      <trkpt lat="43.0823" lon="0.60492">
        <ele>412.89</ele>
        <time>2020-09-01T06:48:02.000Z</time>
      </trkpt>
      <trkpt lat="43.08223" lon="0.6047">
        <ele>413.04</ele>
        <time>2020-09-01T06:48:07.000Z</time>
      </trkpt>
      <trkpt lat="43.08215" lon="0.6045">
        <ele>413.19</ele>
        <time>2020-09-01T06:48:12.000Z</time>
      </trkpt>
      <trkpt lat="43.08205" lon="0.6043">
        <ele>413.35</ele>
        <time>2020-09-01T06:48:17.000Z</time>
      </trkpt>
      <trkpt lat="43.08194" lon="0.6041">
        <ele>413.5</ele>
        <time>2020-09-01T06:48:22.000Z</time>
      </trkpt>
      <trkpt lat="43.08184" lon="0.6039">
        <ele>414.06</ele>
        <time>2020-09-01T06:48:27.000Z</time>
      </trkpt>
      <trkpt lat="43.08171" lon="0.60369">
        <ele>414.8</ele>
        <time>2020-09-01T06:48:32.000Z</time>
      </trkpt>
      <trkpt lat="43.08157" lon="0.60349">
        <ele>415.11</ele>
        <time>2020-09-01T06:48:37.000Z</time>
      </trkpt>
      <trkpt lat="43.08143" lon="0.60326">
        <ele>415.28</ele>
        <time>2020-09-01T06:48:42.000Z</time>
      </trkpt>
      <trkpt lat="43.08129" lon="0.60303">
        <ele>415.39</ele>
        <time>2020-09-01T06:48:47.000Z</time>
      </trkpt>
      <trkpt lat="43.08115" lon="0.60281">
        <ele>415.49</ele>
        <time>2020-09-01T06:48:52.000Z</time>
      </trkpt>
      <trkpt lat="43.081" lon="0.60258">
        <ele>415.58</ele>
        <time>2020-09-01T06:48:57.000Z</time>
      </trkpt>
      <trkpt lat="43.08085" lon="0.60234">
        <ele>415.66</ele>
        <time>2020-09-01T06:49:02.000Z</time>
      </trkpt>
      <trkpt lat="43.08071" lon="0.60213">
        <ele>415.74</ele>
        <time>2020-09-01T06:49:07.000Z</time>
      </trkpt>
      <trkpt lat="43.08057" lon="0.60191">
        <ele>415.81</ele>
        <time>2020-09-01T06:49:12.000Z</time>
      </trkpt>
      <trkpt lat="43.08043" lon="0.6017">
        <ele>415.88</ele>
        <time>2020-09-01T06:49:17.000Z</time>
      </trkpt>
      <trkpt lat="43.0803" lon="0.6015">
        <ele>415.93</ele>
        <time>2020-09-01T06:49:22.000Z</time>
      </trkpt>
      <trkpt lat="43.08015" lon="0.60131">
        <ele>415.97</ele>
        <time>2020-09-01T06:49:27.000Z</time>
      </trkpt>
      <trkpt lat="43.08002" lon="0.60112">
        <ele>416</ele>
        <time>2020-09-01T06:49:32.000Z</time>
      </trkpt>
      <trkpt lat="43.07991" lon="0.60091">
        <ele>416.05</ele>
        <time>2020-09-01T06:49:37.000Z</time>
      </trkpt>
      <trkpt lat="43.07985" lon="0.6007">
        <ele>416.06</ele>
        <time>2020-09-01T06:49:42.000Z</time>
      </trkpt>
      <trkpt lat="43.07982" lon="0.60052">
        <ele>416.08</ele>
        <time>2020-09-01T06:49:47.000Z</time>
      </trkpt>
      <trkpt lat="43.07979" lon="0.60034">
        <ele>416.11</ele>
        <time>2020-09-01T06:49:52.000Z</time>
      </trkpt>
      <trkpt lat="43.07975" lon="0.60014">
        <ele>416.14</ele>
        <time>2020-09-01T06:49:57.000Z</time>
      </trkpt>
      <trkpt lat="43.0797" lon="0.59993">
        <ele>416.17</ele>
        <time>2020-09-01T06:50:02.000Z</time>
      </trkpt>
      <trkpt lat="43.07965" lon="0.59972">
        <ele>416.19</ele>
        <time>2020-09-01T06:50:07.000Z</time>
      </trkpt>
      <trkpt lat="43.07959" lon="0.5995">
        <ele>416.22</ele>
        <time>2020-09-01T06:50:12.000Z</time>
      </trkpt>
      <trkpt lat="43.07951" lon="0.59925">
        <ele>416.34</ele>
        <time>2020-09-01T06:50:17.000Z</time>
      </trkpt>
      <trkpt lat="43.07946" lon="0.59901">
        <ele>416.4</ele>
        <time>2020-09-01T06:50:22.000Z</time>
      </trkpt>
      <trkpt lat="43.07941" lon="0.59876">
        <ele>416.52</ele>
        <time>2020-09-01T06:50:27.000Z</time>
      </trkpt>
      <trkpt lat="43.07937" lon="0.59851">
        <ele>416.58</ele>
        <time>2020-09-01T06:50:32.000Z</time>
      </trkpt>
      <trkpt lat="43.07932" lon="0.59824">
        <ele>416.73</ele>
        <time>2020-09-01T06:50:37.000Z</time>
      </trkpt>
      <trkpt lat="43.07929" lon="0.59801">
        <ele>416.75</ele>
        <time>2020-09-01T06:50:42.000Z</time>
      </trkpt>
      <trkpt lat="43.07925" lon="0.59777">
        <ele>416.77</ele>
        <time>2020-09-01T06:50:47.000Z</time>
      </trkpt>
      <trkpt lat="43.0792" lon="0.59752">
        <ele>416.83</ele>
        <time>2020-09-01T06:50:52.000Z</time>
      </trkpt>
      <trkpt lat="43.07918" lon="0.59727">
        <ele>416.84</ele>
        <time>2020-09-01T06:50:57.000Z</time>
      </trkpt>
      <trkpt lat="43.07917" lon="0.59706">
        <ele>416.85</ele>
        <time>2020-09-01T06:51:02.000Z</time>
      </trkpt>
      <trkpt lat="43.07917" lon="0.59683">
        <ele>416.85</ele>
        <time>2020-09-01T06:51:07.000Z</time>
      </trkpt>
      <trkpt lat="43.07916" lon="0.59663">
        <ele>416.87</ele>
        <time>2020-09-01T06:51:12.000Z</time>
      </trkpt>
      <trkpt lat="43.07915" lon="0.59641">
        <ele>416.88</ele>
        <time>2020-09-01T06:51:17.000Z</time>
      </trkpt>
      <trkpt lat="43.07913" lon="0.59618">
        <ele>416.9</ele>
        <time>2020-09-01T06:51:22.000Z</time>
      </trkpt>
      <trkpt lat="43.0791" lon="0.59597">
        <ele>416.91</ele>
        <time>2020-09-01T06:51:27.000Z</time>
      </trkpt>
      <trkpt lat="43.07906" lon="0.59577">
        <ele>416.93</ele>
        <time>2020-09-01T06:51:32.000Z</time>
      </trkpt>
      <trkpt lat="43.07901" lon="0.59561">
        <ele>416.96</ele>
        <time>2020-09-01T06:51:37.000Z</time>
      </trkpt>
      <trkpt lat="43.07891" lon="0.59551">
        <ele>417.01</ele>
        <time>2020-09-01T06:51:42.000Z</time>
      </trkpt>
      <trkpt lat="43.07881" lon="0.59543">
        <ele>417.07</ele>
        <time>2020-09-01T06:51:47.000Z</time>
      </trkpt>
      <trkpt lat="43.07869" lon="0.59533">
        <ele>417.14</ele>
        <time>2020-09-01T06:51:52.000Z</time>
      </trkpt>
      <trkpt lat="43.07863" lon="0.59517">
        <ele>417.22</ele>
        <time>2020-09-01T06:51:57.000Z</time>
      </trkpt>
      <trkpt lat="43.07873" lon="0.59495">
        <ele>417.31</ele>
        <time>2020-09-01T06:52:02.000Z</time>
      </trkpt>
      <trkpt lat="43.07887" lon="0.59479">
        <ele>417.57</ele>
        <time>2020-09-01T06:52:07.000Z</time>
      </trkpt>
      <trkpt lat="43.07897" lon="0.5946">
        <ele>417.65</ele>
        <time>2020-09-01T06:52:12.000Z</time>
      </trkpt>
      <trkpt lat="43.07894" lon="0.59437">
        <ele>417.73</ele>
        <time>2020-09-01T06:52:17.000Z</time>
      </trkpt>
      <trkpt lat="43.07888" lon="0.59416">
        <ele>417.82</ele>
        <time>2020-09-01T06:52:22.000Z</time>
      </trkpt>
      <trkpt lat="43.07878" lon="0.59398">
        <ele>417.9</ele>
        <time>2020-09-01T06:52:27.000Z</time>
      </trkpt>
      <trkpt lat="43.07868" lon="0.59373">
        <ele>418.49</ele>
        <time>2020-09-01T06:52:32.000Z</time>
      </trkpt>
      <trkpt lat="43.07867" lon="0.59344">
        <ele>418.74</ele>
        <time>2020-09-01T06:52:37.000Z</time>
      </trkpt>
      <trkpt lat="43.07865" lon="0.59315">
        <ele>418.88</ele>
        <time>2020-09-01T06:52:42.000Z</time>
      </trkpt>
      <trkpt lat="43.07861" lon="0.59288">
        <ele>418.99</ele>
        <time>2020-09-01T06:52:47.000Z</time>
      </trkpt>
      <trkpt lat="43.07853" lon="0.59261">
        <ele>419.08</ele>
        <time>2020-09-01T06:52:52.000Z</time>
      </trkpt>
      <trkpt lat="43.07842" lon="0.59236">
        <ele>419.18</ele>
        <time>2020-09-01T06:52:57.000Z</time>
      </trkpt>
      <trkpt lat="43.07831" lon="0.59213">
        <ele>419.26</ele>
        <time>2020-09-01T06:53:02.000Z</time>
      </trkpt>
      <trkpt lat="43.07821" lon="0.59191">
        <ele>419.32</ele>
        <time>2020-09-01T06:53:07.000Z</time>
      </trkpt>
      <trkpt lat="43.07812" lon="0.5917">
        <ele>419.4</ele>
        <time>2020-09-01T06:53:12.000Z</time>
      </trkpt>
      <trkpt lat="43.07803" lon="0.5915">
        <ele>419.48</ele>
        <time>2020-09-01T06:53:17.000Z</time>
      </trkpt>
      <trkpt lat="43.0779" lon="0.59126">
        <ele>419.76</ele>
        <time>2020-09-01T06:53:22.000Z</time>
      </trkpt>
      <trkpt lat="43.07778" lon="0.59105">
        <ele>419.92</ele>
        <time>2020-09-01T06:53:27.000Z</time>
      </trkpt>
      <trkpt lat="43.07771" lon="0.59082">
        <ele>419.98</ele>
        <time>2020-09-01T06:53:32.000Z</time>
      </trkpt>
      <trkpt lat="43.07766" lon="0.59062">
        <ele>420</ele>
        <time>2020-09-01T06:53:37.000Z</time>
      </trkpt>
      <trkpt lat="43.07761" lon="0.59042">
        <ele>420.02</ele>
        <time>2020-09-01T06:53:42.000Z</time>
      </trkpt>
      <trkpt lat="43.07756" lon="0.59021">
        <ele>420.04</ele>
        <time>2020-09-01T06:53:47.000Z</time>
      </trkpt>
      <trkpt lat="43.07753" lon="0.59003">
        <ele>420.06</ele>
        <time>2020-09-01T06:53:52.000Z</time>
      </trkpt>
      <trkpt lat="43.07747" lon="0.58981">
        <ele>420.08</ele>
        <time>2020-09-01T06:53:57.000Z</time>
      </trkpt>
      <trkpt lat="43.07742" lon="0.58957">
        <ele>420.1</ele>
        <time>2020-09-01T06:54:02.000Z</time>
      </trkpt>
      <trkpt lat="43.07738" lon="0.58934">
        <ele>420.13</ele>
        <time>2020-09-01T06:54:07.000Z</time>
      </trkpt>
      <trkpt lat="43.07733" lon="0.58912">
        <ele>420.15</ele>
        <time>2020-09-01T06:54:12.000Z</time>
      </trkpt>
      <trkpt lat="43.0773" lon="0.58887">
        <ele>420.24</ele>
        <time>2020-09-01T06:54:17.000Z</time>
      </trkpt>
      <trkpt lat="43.07727" lon="0.58859">
        <ele>420.29</ele>
        <time>2020-09-01T06:54:22.000Z</time>
      </trkpt>
      <trkpt lat="43.07727" lon="0.58831">
        <ele>420.31</ele>
        <time>2020-09-01T06:54:27.000Z</time>
      </trkpt>
      <trkpt lat="43.07728" lon="0.58803">
        <ele>420.31</ele>
        <time>2020-09-01T06:54:32.000Z</time>
      </trkpt>
      <trkpt lat="43.07729" lon="0.58777">
        <ele>420.31</ele>
        <time>2020-09-01T06:54:37.000Z</time>
      </trkpt>
      <trkpt lat="43.07731" lon="0.58751">
        <ele>420.29</ele>
        <time>2020-09-01T06:54:42.000Z</time>
      </trkpt>
      <trkpt lat="43.07732" lon="0.58724">
        <ele>420.28</ele>
        <time>2020-09-01T06:54:47.000Z</time>
      </trkpt>
      <trkpt lat="43.07732" lon="0.58696">
        <ele>420.26</ele>
        <time>2020-09-01T06:54:52.000Z</time>
      </trkpt>
      <trkpt lat="43.07735" lon="0.58669">
        <ele>420.25</ele>
        <time>2020-09-01T06:54:57.000Z</time>
      </trkpt>
      <trkpt lat="43.07742" lon="0.58645">
        <ele>420.26</ele>
        <time>2020-09-01T06:55:02.000Z</time>
      </trkpt>
      <trkpt lat="43.0775" lon="0.5862">
        <ele>420.3</ele>
        <time>2020-09-01T06:55:07.000Z</time>
      </trkpt>
      <trkpt lat="43.07757" lon="0.58593">
        <ele>420.31</ele>
        <time>2020-09-01T06:55:12.000Z</time>
      </trkpt>
      <trkpt lat="43.07765" lon="0.58568">
        <ele>420.33</ele>
        <time>2020-09-01T06:55:17.000Z</time>
      </trkpt>
      <trkpt lat="43.07776" lon="0.58544">
        <ele>420.33</ele>
        <time>2020-09-01T06:55:22.000Z</time>
      </trkpt>
      <trkpt lat="43.07786" lon="0.58519">
        <ele>420.32</ele>
        <time>2020-09-01T06:55:27.000Z</time>
      </trkpt>
      <trkpt lat="43.07796" lon="0.58496">
        <ele>420.33</ele>
        <time>2020-09-01T06:55:32.000Z</time>
      </trkpt>
      <trkpt lat="43.07795" lon="0.58472">
        <ele>420.36</ele>
        <time>2020-09-01T06:55:37.000Z</time>
      </trkpt>
      <trkpt lat="43.07781" lon="0.58452">
        <ele>420.42</ele>
        <time>2020-09-01T06:55:42.000Z</time>
      </trkpt>
      <trkpt lat="43.07769" lon="0.58434">
        <ele>420.44</ele>
        <time>2020-09-01T06:55:47.000Z</time>
      </trkpt>
      <trkpt lat="43.07761" lon="0.5841">
        <ele>420.5</ele>
        <time>2020-09-01T06:55:52.000Z</time>
      </trkpt>
      <trkpt lat="43.07753" lon="0.5839">
        <ele>420.53</ele>
        <time>2020-09-01T06:55:57.000Z</time>
      </trkpt>
      <trkpt lat="43.07744" lon="0.58367">
        <ele>420.69</ele>
        <time>2020-09-01T06:56:02.000Z</time>
      </trkpt>
      <trkpt lat="43.07744" lon="0.58336">
        <ele>420.9</ele>
        <time>2020-09-01T06:56:07.000Z</time>
      </trkpt>
      <trkpt lat="43.07755" lon="0.58296">
        <ele>420.99</ele>
        <time>2020-09-01T06:56:12.000Z</time>
      </trkpt>
      <trkpt lat="43.07776" lon="0.5826">
        <ele>421.03</ele>
        <time>2020-09-01T06:56:17.000Z</time>
      </trkpt>
      <trkpt lat="43.078" lon="0.58222">
        <ele>420.85</ele>
        <time>2020-09-01T06:56:22.000Z</time>
      </trkpt>
      <trkpt lat="43.07821" lon="0.58182">
        <ele>420.36</ele>
        <time>2020-09-01T06:56:27.000Z</time>
      </trkpt>
      <trkpt lat="43.07844" lon="0.58147">
        <ele>419.97</ele>
        <time>2020-09-01T06:56:32.000Z</time>
      </trkpt>
      <trkpt lat="43.07862" lon="0.58113">
        <ele>420.23</ele>
        <time>2020-09-01T06:56:37.000Z</time>
      </trkpt>
      <trkpt lat="43.07879" lon="0.58082">
        <ele>420.33</ele>
        <time>2020-09-01T06:56:42.000Z</time>
      </trkpt>
      <trkpt lat="43.07896" lon="0.58053">
        <ele>419.36</ele>
        <time>2020-09-01T06:56:47.000Z</time>
      </trkpt>
      <trkpt lat="43.07913" lon="0.58026">
        <ele>418.93</ele>
        <time>2020-09-01T06:56:52.000Z</time>
      </trkpt>
      <trkpt lat="43.07929" lon="0.57998">
        <ele>419.11</ele>
        <time>2020-09-01T06:56:57.000Z</time>
      </trkpt>
      <trkpt lat="43.07946" lon="0.5797">
        <ele>419.27</ele>
        <time>2020-09-01T06:57:02.000Z</time>
      </trkpt>
      <trkpt lat="43.07962" lon="0.57941">
        <ele>418.74</ele>
        <time>2020-09-01T06:57:07.000Z</time>
      </trkpt>
      <trkpt lat="43.07979" lon="0.57914">
        <ele>418.03</ele>
        <time>2020-09-01T06:57:12.000Z</time>
      </trkpt>
      <trkpt lat="43.07995" lon="0.57887">
        <ele>417.41</ele>
        <time>2020-09-01T06:57:17.000Z</time>
      </trkpt>
      <trkpt lat="43.08012" lon="0.57861">
        <ele>416.56</ele>
        <time>2020-09-01T06:57:22.000Z</time>
      </trkpt>
      <trkpt lat="43.08027" lon="0.57836">
        <ele>415.86</ele>
        <time>2020-09-01T06:57:27.000Z</time>
      </trkpt>
      <trkpt lat="43.08043" lon="0.57809">
        <ele>415.45</ele>
        <time>2020-09-01T06:57:32.000Z</time>
      </trkpt>
      <trkpt lat="43.0806" lon="0.57783">
        <ele>414.82</ele>
        <time>2020-09-01T06:57:37.000Z</time>
      </trkpt>
      <trkpt lat="43.08076" lon="0.57758">
        <ele>414.4</ele>
        <time>2020-09-01T06:57:42.000Z</time>
      </trkpt>
      <trkpt lat="43.08092" lon="0.57731">
        <ele>414.41</ele>
        <time>2020-09-01T06:57:47.000Z</time>
      </trkpt>
      <trkpt lat="43.08108" lon="0.57705">
        <ele>414.51</ele>
        <time>2020-09-01T06:57:52.000Z</time>
      </trkpt>
      <trkpt lat="43.08123" lon="0.57682">
        <ele>414.42</ele>
        <time>2020-09-01T06:57:57.000Z</time>
      </trkpt>
      <trkpt lat="43.08137" lon="0.57659">
        <ele>414.19</ele>
        <time>2020-09-01T06:58:02.000Z</time>
      </trkpt>
      <trkpt lat="43.08152" lon="0.5764">
        <ele>414.16</ele>
        <time>2020-09-01T06:58:07.000Z</time>
      </trkpt>
      <trkpt lat="43.08166" lon="0.57618">
        <ele>414.18</ele>
        <time>2020-09-01T06:58:12.000Z</time>
      </trkpt>
      <trkpt lat="43.0818" lon="0.57597">
        <ele>414.17</ele>
        <time>2020-09-01T06:58:17.000Z</time>
      </trkpt>
      <trkpt lat="43.08194" lon="0.57576">
        <ele>414.17</ele>
        <time>2020-09-01T06:58:22.000Z</time>
      </trkpt>
      <trkpt lat="43.08207" lon="0.57557">
        <ele>414.26</ele>
        <time>2020-09-01T06:58:27.000Z</time>
      </trkpt>
      <trkpt lat="43.0822" lon="0.57543">
        <ele>414.26</ele>
        <time>2020-09-01T06:58:32.000Z</time>
      </trkpt>
      <trkpt lat="43.08231" lon="0.57535">
        <ele>414.28</ele>
        <time>2020-09-01T06:58:37.000Z</time>
      </trkpt>
      <trkpt lat="43.08242" lon="0.57529">
        <ele>414.31</ele>
        <time>2020-09-01T06:58:42.000Z</time>
      </trkpt>
      <trkpt lat="43.08254" lon="0.57526">
        <ele>414.36</ele>
        <time>2020-09-01T06:58:47.000Z</time>
      </trkpt>
      <trkpt lat="43.08265" lon="0.57525">
        <ele>414.48</ele>
        <time>2020-09-01T06:58:52.000Z</time>
      </trkpt>
      <trkpt lat="43.08277" lon="0.57525">
        <ele>414.66</ele>
        <time>2020-09-01T06:58:57.000Z</time>
      </trkpt>
      <trkpt lat="43.0829" lon="0.57526">
        <ele>414.91</ele>
        <time>2020-09-01T06:59:02.000Z</time>
      </trkpt>
      <trkpt lat="43.08304" lon="0.57526">
        <ele>415.21</ele>
        <time>2020-09-01T06:59:07.000Z</time>
      </trkpt>
      <trkpt lat="43.08319" lon="0.57525">
        <ele>415.49</ele>
        <time>2020-09-01T06:59:12.000Z</time>
      </trkpt>
      <trkpt lat="43.08337" lon="0.57522">
        <ele>415.97</ele>
        <time>2020-09-01T06:59:17.000Z</time>
      </trkpt>
      <trkpt lat="43.08359" lon="0.57515">
        <ele>417.01</ele>
        <time>2020-09-01T06:59:22.000Z</time>
      </trkpt>
      <trkpt lat="43.08381" lon="0.57491">
        <ele>417.66</ele>
        <time>2020-09-01T06:59:26.999Z</time>
      </trkpt>
      <trkpt lat="43.08401" lon="0.57464">
        <ele>418.1</ele>
        <time>2020-09-01T06:59:31.999Z</time>
      </trkpt>
      <trkpt lat="43.0842" lon="0.57444">
        <ele>418.22</ele>
        <time>2020-09-01T06:59:36.999Z</time>
      </trkpt>
      <trkpt lat="43.08435" lon="0.5743">
        <ele>418.23</ele>
        <time>2020-09-01T06:59:41.999Z</time>
      </trkpt>
      <trkpt lat="43.08442" lon="0.57415">
        <ele>418.26</ele>
        <time>2020-09-01T06:59:46.999Z</time>
      </trkpt>
      <trkpt lat="43.08448" lon="0.57404">
        <ele>418.31</ele>
        <time>2020-09-01T06:59:51.999Z</time>
      </trkpt>
      <trkpt lat="43.08456" lon="0.57394">
        <ele>418.42</ele>
        <time>2020-09-01T06:59:57.999Z</time>
      </trkpt>
      <trkpt lat="43.08462" lon="0.57384">
        <ele>418.53</ele>
        <time>2020-09-01T07:00:03.999Z</time>
      </trkpt>
      <trkpt lat="43.08469" lon="0.57375">
        <ele>418.67</ele>
        <time>2020-09-01T07:00:09.999Z</time>
      </trkpt>
      <trkpt lat="43.08474" lon="0.57363">
        <ele>418.84</ele>
        <time>2020-09-01T07:00:15.999Z</time>
      </trkpt>
      <trkpt lat="43.08482" lon="0.57353">
        <ele>419.08</ele>
        <time>2020-09-01T07:00:21.999Z</time>
      </trkpt>
      <trkpt lat="43.08489" lon="0.57343">
        <ele>419.38</ele>
        <time>2020-09-01T07:00:27.999Z</time>
      </trkpt>
      <trkpt lat="43.08494" lon="0.57333">
        <ele>419.74</ele>
        <time>2020-09-01T07:00:33.999Z</time>
      </trkpt>
      <trkpt lat="43.08501" lon="0.57322">
        <ele>420.23</ele>
        <time>2020-09-01T07:00:40.999Z</time>
      </trkpt>
      <trkpt lat="43.08507" lon="0.57313">
        <ele>420.71</ele>
        <time>2020-09-01T07:00:46.999Z</time>
      </trkpt>
      <trkpt lat="43.08514" lon="0.57302">
        <ele>421.25</ele>
        <time>2020-09-01T07:00:53.999Z</time>
      </trkpt>
      <trkpt lat="43.08518" lon="0.5729">
        <ele>421.83</ele>
        <time>2020-09-01T07:01:00.999Z</time>
      </trkpt>
      <trkpt lat="43.08524" lon="0.5728">
        <ele>422.36</ele>
        <time>2020-09-01T07:01:06.999Z</time>
      </trkpt>
      <trkpt lat="43.08529" lon="0.5727">
        <ele>422.88</ele>
        <time>2020-09-01T07:01:12.999Z</time>
      </trkpt>
      <trkpt lat="43.08537" lon="0.57263">
        <ele>423.32</ele>
        <time>2020-09-01T07:01:17.999Z</time>
      </trkpt>
      <trkpt lat="43.08537" lon="0.5725">
        <ele>423.85</ele>
        <time>2020-09-01T07:01:23.999Z</time>
      </trkpt>
      <trkpt lat="43.08532" lon="0.57239">
        <ele>424.41</ele>
        <time>2020-09-01T07:01:29.999Z</time>
      </trkpt>
      <trkpt lat="43.08524" lon="0.57231">
        <ele>425.07</ele>
        <time>2020-09-01T07:01:36.999Z</time>
      </trkpt>
      <trkpt lat="43.08515" lon="0.57226">
        <ele>425.63</ele>
        <time>2020-09-01T07:01:42.999Z</time>
      </trkpt>
      <trkpt lat="43.08506" lon="0.57224">
        <ele>428.48</ele>
        <time>2020-09-01T07:04:32.999Z</time>
      </trkpt>
      <trkpt lat="43.08496" lon="0.57222">
        <ele>428.96</ele>
        <time>2020-09-01T07:04:39.999Z</time>
      </trkpt>
      <trkpt lat="43.08487" lon="0.5722">
        <ele>429.54</ele>
        <time>2020-09-01T07:04:48.999Z</time>
      </trkpt>
      <trkpt lat="43.08478" lon="0.57218">
        <ele>430.04</ele>
        <time>2020-09-01T07:04:56.999Z</time>
      </trkpt>
      <trkpt lat="43.08468" lon="0.57217">
        <ele>430.6</ele>
        <time>2020-09-01T07:05:05.999Z</time>
      </trkpt>
      <trkpt lat="43.08459" lon="0.57216">
        <ele>431.17</ele>
        <time>2020-09-01T07:05:14.999Z</time>
      </trkpt>
      <trkpt lat="43.08449" lon="0.57214">
        <ele>431.73</ele>
        <time>2020-09-01T07:05:23.999Z</time>
      </trkpt>
      <trkpt lat="43.0844" lon="0.57212">
        <ele>432.3</ele>
        <time>2020-09-01T07:05:32.999Z</time>
      </trkpt>
      <trkpt lat="43.08432" lon="0.57209">
        <ele>432.94</ele>
        <time>2020-09-01T07:05:42.999Z</time>
      </trkpt>
      <trkpt lat="43.08422" lon="0.57205">
        <ele>433.58</ele>
        <time>2020-09-01T07:05:52.999Z</time>
      </trkpt>
      <trkpt lat="43.08414" lon="0.57199">
        <ele>434.15</ele>
        <time>2020-09-01T07:06:01.999Z</time>
      </trkpt>
      <trkpt lat="43.0841" lon="0.57188">
        <ele>434.79</ele>
        <time>2020-09-01T07:06:11.999Z</time>
      </trkpt>
      <trkpt lat="43.08409" lon="0.57175">
        <ele>435.44</ele>
        <time>2020-09-01T07:06:21.999Z</time>
      </trkpt>
      <trkpt lat="43.08413" lon="0.57163">
        <ele>436.13</ele>
        <time>2020-09-01T07:06:31.999Z</time>
      </trkpt>
      <trkpt lat="43.08415" lon="0.57151">
        <ele>436.79</ele>
        <time>2020-09-01T07:06:40.999Z</time>
      </trkpt>
      <trkpt lat="43.0842" lon="0.57139">
        <ele>437.46</ele>
        <time>2020-09-01T07:06:49.999Z</time>
      </trkpt>
      <trkpt lat="43.08423" lon="0.57127">
        <ele>438.14</ele>
        <time>2020-09-01T07:06:58.999Z</time>
      </trkpt>
      <trkpt lat="43.08427" lon="0.57115">
        <ele>438.81</ele>
        <time>2020-09-01T07:07:07.999Z</time>
      </trkpt>
      <trkpt lat="43.08436" lon="0.57119">
        <ele>439.54</ele>
        <time>2020-09-01T07:07:17.999Z</time>
      </trkpt>
      <trkpt lat="43.08442" lon="0.5711">
        <ele>441.48</ele>
        <time>2020-09-01T07:08:16.999Z</time>
      </trkpt>
      <trkpt lat="43.08445" lon="0.57095">
        <ele>442</ele>
        <time>2020-09-01T07:08:21.999Z</time>
      </trkpt>
      <trkpt lat="43.08449" lon="0.57082">
        <ele>442.5</ele>
        <time>2020-09-01T07:08:26.999Z</time>
      </trkpt>
      <trkpt lat="43.08454" lon="0.57068">
        <ele>442.96</ele>
        <time>2020-09-01T07:08:31.999Z</time>
      </trkpt>
      <trkpt lat="43.08457" lon="0.57054">
        <ele>443.48</ele>
        <time>2020-09-01T07:08:37.999Z</time>
      </trkpt>
      <trkpt lat="43.08463" lon="0.5704">
        <ele>443.89</ele>
        <time>2020-09-01T07:08:42.999Z</time>
      </trkpt>
      <trkpt lat="43.08471" lon="0.57022">
        <ele>444.27</ele>
        <time>2020-09-01T07:08:47.999Z</time>
      </trkpt>
      <trkpt lat="43.08475" lon="0.57005">
        <ele>444.65</ele>
        <time>2020-09-01T07:08:52.999Z</time>
      </trkpt>
      <trkpt lat="43.0848" lon="0.56991">
        <ele>445.01</ele>
        <time>2020-09-01T07:08:57.999Z</time>
      </trkpt>
      <trkpt lat="43.08487" lon="0.56974">
        <ele>445.36</ele>
        <time>2020-09-01T07:09:02.999Z</time>
      </trkpt>
      <trkpt lat="43.0849" lon="0.56957">
        <ele>445.69</ele>
        <time>2020-09-01T07:09:07.999Z</time>
      </trkpt>
      <trkpt lat="43.08493" lon="0.56939">
        <ele>446.01</ele>
        <time>2020-09-01T07:09:12.999Z</time>
      </trkpt>
      <trkpt lat="43.08499" lon="0.56922">
        <ele>446.32</ele>
        <time>2020-09-01T07:09:17.999Z</time>
      </trkpt>
      <trkpt lat="43.08506" lon="0.56907">
        <ele>446.61</ele>
        <time>2020-09-01T07:09:22.999Z</time>
      </trkpt>
      <trkpt lat="43.08516" lon="0.56895">
        <ele>446.88</ele>
        <time>2020-09-01T07:09:27.999Z</time>
      </trkpt>
      <trkpt lat="43.08526" lon="0.5688">
        <ele>447.13</ele>
        <time>2020-09-01T07:09:32.999Z</time>
      </trkpt>
      <trkpt lat="43.08537" lon="0.56868">
        <ele>447.37</ele>
        <time>2020-09-01T07:09:37.999Z</time>
      </trkpt>
      <trkpt lat="43.08551" lon="0.56852">
        <ele>447.6</ele>
        <time>2020-09-01T07:09:42.999Z</time>
      </trkpt>
      <trkpt lat="43.08553" lon="0.56832">
        <ele>447.84</ele>
        <time>2020-09-01T07:09:47.999Z</time>
      </trkpt>
      <trkpt lat="43.08556" lon="0.56815">
        <ele>448.08</ele>
        <time>2020-09-01T07:09:52.999Z</time>
      </trkpt>
      <trkpt lat="43.08557" lon="0.56794">
        <ele>448.32</ele>
        <time>2020-09-01T07:09:57.999Z</time>
      </trkpt>
      <trkpt lat="43.08561" lon="0.56773">
        <ele>448.56</ele>
        <time>2020-09-01T07:10:02.999Z</time>
      </trkpt>
      <trkpt lat="43.08568" lon="0.56756">
        <ele>448.8</ele>
        <time>2020-09-01T07:10:07.999Z</time>
      </trkpt>
      <trkpt lat="43.08573" lon="0.56736">
        <ele>449.02</ele>
        <time>2020-09-01T07:10:12.999Z</time>
      </trkpt>
      <trkpt lat="43.08578" lon="0.56708">
        <ele>449.55</ele>
        <time>2020-09-01T07:10:17.999Z</time>
      </trkpt>
      <trkpt lat="43.08582" lon="0.56684">
        <ele>450.56</ele>
        <time>2020-09-01T07:10:22.999Z</time>
      </trkpt>
      <trkpt lat="43.08586" lon="0.56662">
        <ele>451.07</ele>
        <time>2020-09-01T07:10:27.999Z</time>
      </trkpt>
      <trkpt lat="43.08588" lon="0.56634">
        <ele>451.4</ele>
        <time>2020-09-01T07:10:32.999Z</time>
      </trkpt>
      <trkpt lat="43.0859" lon="0.56608">
        <ele>451.52</ele>
        <time>2020-09-01T07:10:37.999Z</time>
      </trkpt>
      <trkpt lat="43.08589" lon="0.56581">
        <ele>452.01</ele>
        <time>2020-09-01T07:10:42.999Z</time>
      </trkpt>
      <trkpt lat="43.08592" lon="0.56553">
        <ele>452.4</ele>
        <time>2020-09-01T07:10:47.999Z</time>
      </trkpt>
      <trkpt lat="43.0859" lon="0.56521">
        <ele>452.61</ele>
        <time>2020-09-01T07:10:52.999Z</time>
      </trkpt>
      <trkpt lat="43.08589" lon="0.56496">
        <ele>452.93</ele>
        <time>2020-09-01T07:10:57.999Z</time>
      </trkpt>
      <trkpt lat="43.08583" lon="0.56462">
        <ele>453.33</ele>
        <time>2020-09-01T07:11:02.999Z</time>
      </trkpt>
      <trkpt lat="43.08576" lon="0.56436">
        <ele>453.71</ele>
        <time>2020-09-01T07:11:07.999Z</time>
      </trkpt>
      <trkpt lat="43.08571" lon="0.56408">
        <ele>454.01</ele>
        <time>2020-09-01T07:11:12.999Z</time>
      </trkpt>
      <trkpt lat="43.08567" lon="0.56381">
        <ele>454.3</ele>
        <time>2020-09-01T07:11:17.999Z</time>
      </trkpt>
      <trkpt lat="43.08562" lon="0.56358">
        <ele>454.52</ele>
        <time>2020-09-01T07:11:22.999Z</time>
      </trkpt>
      <trkpt lat="43.08558" lon="0.56337">
        <ele>454.62</ele>
        <time>2020-09-01T07:11:27.999Z</time>
      </trkpt>
      <trkpt lat="43.08556" lon="0.56324">
        <ele>454.81</ele>
        <time>2020-09-01T07:11:33.999Z</time>
      </trkpt>
      <trkpt lat="43.08552" lon="0.56305">
        <ele>455.03</ele>
        <time>2020-09-01T07:11:38.999Z</time>
      </trkpt>
      <trkpt lat="43.08547" lon="0.56287">
        <ele>455.26</ele>
        <time>2020-09-01T07:11:43.999Z</time>
      </trkpt>
      <trkpt lat="43.08542" lon="0.56263">
        <ele>455.51</ele>
        <time>2020-09-01T07:11:48.999Z</time>
      </trkpt>
      <trkpt lat="43.08537" lon="0.56241">
        <ele>455.79</ele>
        <time>2020-09-01T07:11:53.999Z</time>
      </trkpt>
      <trkpt lat="43.08531" lon="0.5622">
        <ele>456.09</ele>
        <time>2020-09-01T07:11:58.999Z</time>
      </trkpt>
      <trkpt lat="43.08527" lon="0.56198">
        <ele>456.4</ele>
        <time>2020-09-01T07:12:03.999Z</time>
      </trkpt>
      <trkpt lat="43.08523" lon="0.56176">
        <ele>456.73</ele>
        <time>2020-09-01T07:12:08.999Z</time>
      </trkpt>
      <trkpt lat="43.08518" lon="0.56154">
        <ele>457.06</ele>
        <time>2020-09-01T07:12:13.999Z</time>
      </trkpt>
      <trkpt lat="43.08517" lon="0.5613">
        <ele>457.39</ele>
        <time>2020-09-01T07:12:18.999Z</time>
      </trkpt>
      <trkpt lat="43.08519" lon="0.56106">
        <ele>457.72</ele>
        <time>2020-09-01T07:12:23.999Z</time>
      </trkpt>
      <trkpt lat="43.08524" lon="0.56083">
        <ele>458.04</ele>
        <time>2020-09-01T07:12:28.999Z</time>
      </trkpt>
      <trkpt lat="43.08527" lon="0.56058">
        <ele>458.36</ele>
        <time>2020-09-01T07:12:33.999Z</time>
      </trkpt>
      <trkpt lat="43.08532" lon="0.56034">
        <ele>459.23</ele>
        <time>2020-09-01T07:12:38.999Z</time>
      </trkpt>
      <trkpt lat="43.08536" lon="0.56009">
        <ele>459.5</ele>
        <time>2020-09-01T07:12:43.999Z</time>
      </trkpt>
      <trkpt lat="43.0854" lon="0.55985">
        <ele>460.53</ele>
        <time>2020-09-01T07:12:48.999Z</time>
      </trkpt>
      <trkpt lat="43.08543" lon="0.5596">
        <ele>461.78</ele>
        <time>2020-09-01T07:12:53.999Z</time>
      </trkpt>
      <trkpt lat="43.08547" lon="0.55934">
        <ele>462.32</ele>
        <time>2020-09-01T07:12:58.999Z</time>
      </trkpt>
      <trkpt lat="43.08549" lon="0.55913">
        <ele>462.52</ele>
        <time>2020-09-01T07:13:03.000Z</time>
      </trkpt>
      <trkpt lat="43.08552" lon="0.55889">
        <ele>462.59</ele>
        <time>2020-09-01T07:13:08.000Z</time>
      </trkpt>
      <trkpt lat="43.08555" lon="0.55869">
        <ele>462.68</ele>
        <time>2020-09-01T07:13:13.000Z</time>
      </trkpt>
      <trkpt lat="43.08557" lon="0.55851">
        <ele>462.8</ele>
        <time>2020-09-01T07:13:18.000Z</time>
      </trkpt>
      <trkpt lat="43.08559" lon="0.55831">
        <ele>462.95</ele>
        <time>2020-09-01T07:13:23.000Z</time>
      </trkpt>
      <trkpt lat="43.08562" lon="0.55814">
        <ele>463.11</ele>
        <time>2020-09-01T07:13:28.000Z</time>
      </trkpt>
      <trkpt lat="43.08565" lon="0.55795">
        <ele>463.28</ele>
        <time>2020-09-01T07:13:33.000Z</time>
      </trkpt>
      <trkpt lat="43.0857" lon="0.55771">
        <ele>463.45</ele>
        <time>2020-09-01T07:13:38.000Z</time>
      </trkpt>
      <trkpt lat="43.08572" lon="0.55743">
        <ele>463.63</ele>
        <time>2020-09-01T07:13:43.000Z</time>
      </trkpt>
      <trkpt lat="43.08573" lon="0.55718">
        <ele>463.83</ele>
        <time>2020-09-01T07:13:48.000Z</time>
      </trkpt>
      <trkpt lat="43.08576" lon="0.55696">
        <ele>464.02</ele>
        <time>2020-09-01T07:13:53.000Z</time>
      </trkpt>
      <trkpt lat="43.0858" lon="0.55674">
        <ele>464.21</ele>
        <time>2020-09-01T07:13:58.000Z</time>
      </trkpt>
      <trkpt lat="43.08581" lon="0.55652">
        <ele>464.4</ele>
        <time>2020-09-01T07:14:03.000Z</time>
      </trkpt>
      <trkpt lat="43.08584" lon="0.55632">
        <ele>464.58</ele>
        <time>2020-09-01T07:14:08.000Z</time>
      </trkpt>
      <trkpt lat="43.08587" lon="0.55612">
        <ele>464.77</ele>
        <time>2020-09-01T07:14:13.000Z</time>
      </trkpt>
      <trkpt lat="43.08589" lon="0.5559">
        <ele>464.96</ele>
        <time>2020-09-01T07:14:18.000Z</time>
      </trkpt>
      <trkpt lat="43.08592" lon="0.5557">
        <ele>465.16</ele>
        <time>2020-09-01T07:14:23.000Z</time>
      </trkpt>
      <trkpt lat="43.08594" lon="0.55552">
        <ele>465.37</ele>
        <time>2020-09-01T07:14:28.000Z</time>
      </trkpt>
      <trkpt lat="43.08596" lon="0.55533">
        <ele>465.57</ele>
        <time>2020-09-01T07:14:33.000Z</time>
      </trkpt>
      <trkpt lat="43.08599" lon="0.55514">
        <ele>465.78</ele>
        <time>2020-09-01T07:14:38.000Z</time>
      </trkpt>
      <trkpt lat="43.08603" lon="0.55494">
        <ele>465.98</ele>
        <time>2020-09-01T07:14:43.000Z</time>
      </trkpt>
      <trkpt lat="43.08606" lon="0.55475">
        <ele>466.19</ele>
        <time>2020-09-01T07:14:48.000Z</time>
      </trkpt>
      <trkpt lat="43.08609" lon="0.55457">
        <ele>466.4</ele>
        <time>2020-09-01T07:14:53.000Z</time>
      </trkpt>
      <trkpt lat="43.08613" lon="0.55439">
        <ele>466.61</ele>
        <time>2020-09-01T07:14:58.000Z</time>
      </trkpt>
      <trkpt lat="43.08615" lon="0.5542">
        <ele>466.82</ele>
        <time>2020-09-01T07:15:03.000Z</time>
      </trkpt>
      <trkpt lat="43.08618" lon="0.55401">
        <ele>467.02</ele>
        <time>2020-09-01T07:15:08.000Z</time>
      </trkpt>
      <trkpt lat="43.08621" lon="0.55381">
        <ele>467.22</ele>
        <time>2020-09-01T07:15:13.000Z</time>
      </trkpt>
      <trkpt lat="43.08625" lon="0.55363">
        <ele>467.43</ele>
        <time>2020-09-01T07:15:18.000Z</time>
      </trkpt>
      <trkpt lat="43.08628" lon="0.55347">
        <ele>467.64</ele>
        <time>2020-09-01T07:15:23.000Z</time>
      </trkpt>
      <trkpt lat="43.08631" lon="0.5533">
        <ele>467.85</ele>
        <time>2020-09-01T07:15:28.000Z</time>
      </trkpt>
      <trkpt lat="43.08635" lon="0.55316">
        <ele>468.06</ele>
        <time>2020-09-01T07:15:33.000Z</time>
      </trkpt>
      <trkpt lat="43.08638" lon="0.55299">
        <ele>468.27</ele>
        <time>2020-09-01T07:15:38.000Z</time>
      </trkpt>
      <trkpt lat="43.08641" lon="0.55285">
        <ele>468.49</ele>
        <time>2020-09-01T07:15:43.000Z</time>
      </trkpt>
      <trkpt lat="43.08641" lon="0.55269">
        <ele>468.73</ele>
        <time>2020-09-01T07:15:48.000Z</time>
      </trkpt>
      <trkpt lat="43.08643" lon="0.55254">
        <ele>468.97</ele>
        <time>2020-09-01T07:15:53.000Z</time>
      </trkpt>
      <trkpt lat="43.08645" lon="0.5524">
        <ele>469.21</ele>
        <time>2020-09-01T07:15:58.000Z</time>
      </trkpt>
      <trkpt lat="43.08648" lon="0.55223">
        <ele>469.44</ele>
        <time>2020-09-01T07:16:03.000Z</time>
      </trkpt>
      <trkpt lat="43.08649" lon="0.55202">
        <ele>469.67</ele>
        <time>2020-09-01T07:16:08.000Z</time>
      </trkpt>
      <trkpt lat="43.08651" lon="0.55186">
        <ele>469.91</ele>
        <time>2020-09-01T07:16:13.000Z</time>
      </trkpt>
      <trkpt lat="43.08653" lon="0.55172">
        <ele>470.16</ele>
        <time>2020-09-01T07:16:18.000Z</time>
      </trkpt>
      <trkpt lat="43.08656" lon="0.55158">
        <ele>470.39</ele>
        <time>2020-09-01T07:16:23.000Z</time>
      </trkpt>
      <trkpt lat="43.0866" lon="0.5514">
        <ele>470.61</ele>
        <time>2020-09-01T07:16:28.000Z</time>
      </trkpt>
      <trkpt lat="43.08665" lon="0.55123">
        <ele>470.86</ele>
        <time>2020-09-01T07:16:33.000Z</time>
      </trkpt>
      <trkpt lat="43.08667" lon="0.55105">
        <ele>471.12</ele>
        <time>2020-09-01T07:16:38.000Z</time>
      </trkpt>
      <trkpt lat="43.08669" lon="0.55087">
        <ele>471.38</ele>
        <time>2020-09-01T07:16:43.000Z</time>
      </trkpt>
      <trkpt lat="43.0867" lon="0.5507">
        <ele>471.64</ele>
        <time>2020-09-01T07:16:48.000Z</time>
      </trkpt>
      <trkpt lat="43.08671" lon="0.55053">
        <ele>471.87</ele>
        <time>2020-09-01T07:16:53.000Z</time>
      </trkpt>
      <trkpt lat="43.08673" lon="0.55038">
        <ele>472.09</ele>
        <time>2020-09-01T07:16:58.000Z</time>
      </trkpt>
      <trkpt lat="43.08675" lon="0.55025">
        <ele>472.3</ele>
        <time>2020-09-01T07:17:03.000Z</time>
      </trkpt>
      <trkpt lat="43.08677" lon="0.55011">
        <ele>472.5</ele>
        <time>2020-09-01T07:17:08.000Z</time>
      </trkpt>
      <trkpt lat="43.0868" lon="0.54996">
        <ele>472.7</ele>
        <time>2020-09-01T07:17:13.000Z</time>
      </trkpt>
      <trkpt lat="43.08681" lon="0.54979">
        <ele>472.91</ele>
        <time>2020-09-01T07:17:18.000Z</time>
      </trkpt>
      <trkpt lat="43.08685" lon="0.54966">
        <ele>473.13</ele>
        <time>2020-09-01T07:17:23.000Z</time>
      </trkpt>
      <trkpt lat="43.08688" lon="0.54948">
        <ele>473.35</ele>
        <time>2020-09-01T07:17:28.000Z</time>
      </trkpt>
      <trkpt lat="43.0869" lon="0.54932">
        <ele>473.57</ele>
        <time>2020-09-01T07:17:33.000Z</time>
      </trkpt>
      <trkpt lat="43.08694" lon="0.54919">
        <ele>473.78</ele>
        <time>2020-09-01T07:17:38.000Z</time>
      </trkpt>
      <trkpt lat="43.08698" lon="0.54905">
        <ele>473.99</ele>
        <time>2020-09-01T07:17:43.000Z</time>
      </trkpt>
      <trkpt lat="43.08703" lon="0.54883">
        <ele>474.2</ele>
        <time>2020-09-01T07:17:48.000Z</time>
      </trkpt>
      <trkpt lat="43.08704" lon="0.54869">
        <ele>474.43</ele>
        <time>2020-09-01T07:17:53.000Z</time>
      </trkpt>
      <trkpt lat="43.08706" lon="0.54856">
        <ele>474.68</ele>
        <time>2020-09-01T07:17:58.000Z</time>
      </trkpt>
      <trkpt lat="43.08708" lon="0.54843">
        <ele>475</ele>
        <time>2020-09-01T07:18:04.000Z</time>
      </trkpt>
      <trkpt lat="43.08708" lon="0.54825">
        <ele>475.26</ele>
        <time>2020-09-01T07:18:09.000Z</time>
      </trkpt>
      <trkpt lat="43.08708" lon="0.54803">
        <ele>475.52</ele>
        <time>2020-09-01T07:18:14.000Z</time>
      </trkpt>
      <trkpt lat="43.08708" lon="0.54789">
        <ele>475.77</ele>
        <time>2020-09-01T07:18:19.000Z</time>
      </trkpt>
      <trkpt lat="43.08709" lon="0.54774">
        <ele>476.01</ele>
        <time>2020-09-01T07:18:24.000Z</time>
      </trkpt>
      <trkpt lat="43.0871" lon="0.5476">
        <ele>476.25</ele>
        <time>2020-09-01T07:18:29.000Z</time>
      </trkpt>
      <trkpt lat="43.08714" lon="0.54749">
        <ele>476.53</ele>
        <time>2020-09-01T07:18:35.000Z</time>
      </trkpt>
      <trkpt lat="43.08719" lon="0.54735">
        <ele>476.79</ele>
        <time>2020-09-01T07:18:41.000Z</time>
      </trkpt>
      <trkpt lat="43.08722" lon="0.54723">
        <ele>477</ele>
        <time>2020-09-01T07:18:46.000Z</time>
      </trkpt>
      <trkpt lat="43.08723" lon="0.54704">
        <ele>477.21</ele>
        <time>2020-09-01T07:18:51.000Z</time>
      </trkpt>
      <trkpt lat="43.08725" lon="0.54691">
        <ele>477.46</ele>
        <time>2020-09-01T07:18:57.000Z</time>
      </trkpt>
      <trkpt lat="43.08729" lon="0.54671">
        <ele>477.66</ele>
        <time>2020-09-01T07:19:02.000Z</time>
      </trkpt>
      <trkpt lat="43.08732" lon="0.5465">
        <ele>477.87</ele>
        <time>2020-09-01T07:19:07.000Z</time>
      </trkpt>
      <trkpt lat="43.08733" lon="0.54634">
        <ele>478.08</ele>
        <time>2020-09-01T07:19:12.000Z</time>
      </trkpt>
      <trkpt lat="43.08733" lon="0.5462">
        <ele>478.31</ele>
        <time>2020-09-01T07:19:17.000Z</time>
      </trkpt>
      <trkpt lat="43.08736" lon="0.54608">
        <ele>478.54</ele>
        <time>2020-09-01T07:19:22.000Z</time>
      </trkpt>
      <trkpt lat="43.08738" lon="0.54595">
        <ele>478.78</ele>
        <time>2020-09-01T07:19:27.000Z</time>
      </trkpt>
      <trkpt lat="43.0874" lon="0.54582">
        <ele>479.01</ele>
        <time>2020-09-01T07:19:32.000Z</time>
      </trkpt>
      <trkpt lat="43.08742" lon="0.54568">
        <ele>479.24</ele>
        <time>2020-09-01T07:19:37.000Z</time>
      </trkpt>
      <trkpt lat="43.08746" lon="0.54551">
        <ele>479.47</ele>
        <time>2020-09-01T07:19:42.000Z</time>
      </trkpt>
      <trkpt lat="43.0875" lon="0.54533">
        <ele>479.72</ele>
        <time>2020-09-01T07:19:47.000Z</time>
      </trkpt>
      <trkpt lat="43.08751" lon="0.54519">
        <ele>479.97</ele>
        <time>2020-09-01T07:19:52.000Z</time>
      </trkpt>
      <trkpt lat="43.08753" lon="0.54503">
        <ele>480.23</ele>
        <time>2020-09-01T07:19:57.000Z</time>
      </trkpt>
      <trkpt lat="43.08752" lon="0.54484">
        <ele>480.5</ele>
        <time>2020-09-01T07:20:02.000Z</time>
      </trkpt>
      <trkpt lat="43.08754" lon="0.54471">
        <ele>480.78</ele>
        <time>2020-09-01T07:20:07.000Z</time>
      </trkpt>
      <trkpt lat="43.08756" lon="0.54456">
        <ele>481.06</ele>
        <time>2020-09-01T07:20:12.000Z</time>
      </trkpt>
      <trkpt lat="43.08762" lon="0.54438">
        <ele>481.33</ele>
        <time>2020-09-01T07:20:17.000Z</time>
      </trkpt>
      <trkpt lat="43.08766" lon="0.5442">
        <ele>481.59</ele>
        <time>2020-09-01T07:20:22.000Z</time>
      </trkpt>
      <trkpt lat="43.0877" lon="0.54397">
        <ele>481.85</ele>
        <time>2020-09-01T07:20:27.000Z</time>
      </trkpt>
      <trkpt lat="43.08774" lon="0.54376">
        <ele>482.12</ele>
        <time>2020-09-01T07:20:32.000Z</time>
      </trkpt>
      <trkpt lat="43.08778" lon="0.54355">
        <ele>482.39</ele>
        <time>2020-09-01T07:20:37.000Z</time>
      </trkpt>
      <trkpt lat="43.08781" lon="0.54331">
        <ele>482.66</ele>
        <time>2020-09-01T07:20:42.000Z</time>
      </trkpt>
      <trkpt lat="43.08784" lon="0.54307">
        <ele>482.94</ele>
        <time>2020-09-01T07:20:47.000Z</time>
      </trkpt>
      <trkpt lat="43.08787" lon="0.54283">
        <ele>483.2</ele>
        <time>2020-09-01T07:20:52.000Z</time>
      </trkpt>
      <trkpt lat="43.08792" lon="0.54259">
        <ele>483.46</ele>
        <time>2020-09-01T07:20:57.000Z</time>
      </trkpt>
      <trkpt lat="43.08796" lon="0.54237">
        <ele>483.72</ele>
        <time>2020-09-01T07:21:02.000Z</time>
      </trkpt>
      <trkpt lat="43.088" lon="0.54217">
        <ele>483.98</ele>
        <time>2020-09-01T07:21:07.000Z</time>
      </trkpt>
      <trkpt lat="43.08805" lon="0.54198">
        <ele>484.23</ele>
        <time>2020-09-01T07:21:12.000Z</time>
      </trkpt>
      <trkpt lat="43.08811" lon="0.54173">
        <ele>484.48</ele>
        <time>2020-09-01T07:21:17.000Z</time>
      </trkpt>
      <trkpt lat="43.08812" lon="0.54149">
        <ele>484.73</ele>
        <time>2020-09-01T07:21:22.000Z</time>
      </trkpt>
      <trkpt lat="43.08814" lon="0.54128">
        <ele>484.97</ele>
        <time>2020-09-01T07:21:27.000Z</time>
      </trkpt>
      <trkpt lat="43.08819" lon="0.54105">
        <ele>485.2</ele>
        <time>2020-09-01T07:21:32.000Z</time>
      </trkpt>
      <trkpt lat="43.08819" lon="0.54081">
        <ele>485.44</ele>
        <time>2020-09-01T07:21:37.000Z</time>
      </trkpt>
      <trkpt lat="43.08822" lon="0.54063">
        <ele>485.67</ele>
        <time>2020-09-01T07:21:42.000Z</time>
      </trkpt>
      <trkpt lat="43.08824" lon="0.5404">
        <ele>485.9</ele>
        <time>2020-09-01T07:21:47.000Z</time>
      </trkpt>
      <trkpt lat="43.08828" lon="0.54023">
        <ele>486.13</ele>
        <time>2020-09-01T07:21:52.000Z</time>
      </trkpt>
      <trkpt lat="43.08829" lon="0.54002">
        <ele>486.39</ele>
        <time>2020-09-01T07:21:57.000Z</time>
      </trkpt>
      <trkpt lat="43.0883" lon="0.53985">
        <ele>486.66</ele>
        <time>2020-09-01T07:22:02.000Z</time>
      </trkpt>
      <trkpt lat="43.08831" lon="0.5397">
        <ele>486.94</ele>
        <time>2020-09-01T07:22:07.000Z</time>
      </trkpt>
      <trkpt lat="43.08832" lon="0.53957">
        <ele>487.22</ele>
        <time>2020-09-01T07:22:12.000Z</time>
      </trkpt>
      <trkpt lat="43.08835" lon="0.53943">
        <ele>487.5</ele>
        <time>2020-09-01T07:22:17.000Z</time>
      </trkpt>
      <trkpt lat="43.08838" lon="0.53929">
        <ele>487.83</ele>
        <time>2020-09-01T07:22:23.000Z</time>
      </trkpt>
      <trkpt lat="43.08841" lon="0.53917">
        <ele>488.09</ele>
        <time>2020-09-01T07:22:28.000Z</time>
      </trkpt>
      <trkpt lat="43.08844" lon="0.53905">
        <ele>488.35</ele>
        <time>2020-09-01T07:22:33.000Z</time>
      </trkpt>
      <trkpt lat="43.08846" lon="0.53893">
        <ele>488.61</ele>
        <time>2020-09-01T07:22:38.000Z</time>
      </trkpt>
      <trkpt lat="43.08848" lon="0.5388">
        <ele>488.86</ele>
        <time>2020-09-01T07:22:43.000Z</time>
      </trkpt>
      <trkpt lat="43.0885" lon="0.53867">
        <ele>489.12</ele>
        <time>2020-09-01T07:22:48.000Z</time>
      </trkpt>
      <trkpt lat="43.08851" lon="0.53853">
        <ele>489.42</ele>
        <time>2020-09-01T07:22:54.000Z</time>
      </trkpt>
      <trkpt lat="43.08853" lon="0.53841">
        <ele>489.68</ele>
        <time>2020-09-01T07:22:59.000Z</time>
      </trkpt>
      <trkpt lat="43.08855" lon="0.53827">
        <ele>489.98</ele>
        <time>2020-09-01T07:23:05.000Z</time>
      </trkpt>
      <trkpt lat="43.08858" lon="0.53812">
        <ele>490.29</ele>
        <time>2020-09-01T07:23:11.000Z</time>
      </trkpt>
      <trkpt lat="43.08859" lon="0.53798">
        <ele>490.59</ele>
        <time>2020-09-01T07:23:17.000Z</time>
      </trkpt>
      <trkpt lat="43.08862" lon="0.53785">
        <ele>490.91</ele>
        <time>2020-09-01T07:23:23.000Z</time>
      </trkpt>
      <trkpt lat="43.08863" lon="0.5377">
        <ele>491.23</ele>
        <time>2020-09-01T07:23:29.000Z</time>
      </trkpt>
      <trkpt lat="43.08865" lon="0.53757">
        <ele>491.56</ele>
        <time>2020-09-01T07:23:35.000Z</time>
      </trkpt>
      <trkpt lat="43.08866" lon="0.53744">
        <ele>491.9</ele>
        <time>2020-09-01T07:23:41.000Z</time>
      </trkpt>
      <trkpt lat="43.08868" lon="0.53731">
        <ele>492.24</ele>
        <time>2020-09-01T07:23:47.000Z</time>
      </trkpt>
      <trkpt lat="43.0887" lon="0.53718">
        <ele>492.58</ele>
        <time>2020-09-01T07:23:53.000Z</time>
      </trkpt>
      <trkpt lat="43.08873" lon="0.53706">
        <ele>492.93</ele>
        <time>2020-09-01T07:23:59.000Z</time>
      </trkpt>
      <trkpt lat="43.08874" lon="0.53692">
        <ele>493.29</ele>
        <time>2020-09-01T07:24:05.000Z</time>
      </trkpt>
      <trkpt lat="43.08876" lon="0.53679">
        <ele>493.65</ele>
        <time>2020-09-01T07:24:11.000Z</time>
      </trkpt>
      <trkpt lat="43.08878" lon="0.53667">
        <ele>494.01</ele>
        <time>2020-09-01T07:24:17.000Z</time>
      </trkpt>
      <trkpt lat="43.0888" lon="0.53654">
        <ele>494.38</ele>
        <time>2020-09-01T07:24:23.000Z</time>
      </trkpt>
      <trkpt lat="43.08882" lon="0.53641">
        <ele>494.75</ele>
        <time>2020-09-01T07:24:29.000Z</time>
      </trkpt>
      <trkpt lat="43.08884" lon="0.53628">
        <ele>495.12</ele>
        <time>2020-09-01T07:24:35.000Z</time>
      </trkpt>
      <trkpt lat="43.08885" lon="0.53615">
        <ele>495.5</ele>
        <time>2020-09-01T07:24:41.000Z</time>
      </trkpt>
      <trkpt lat="43.08887" lon="0.53601">
        <ele>495.87</ele>
        <time>2020-09-01T07:24:47.000Z</time>
      </trkpt>
      <trkpt lat="43.08889" lon="0.53588">
        <ele>496.25</ele>
        <time>2020-09-01T07:24:53.000Z</time>
      </trkpt>
      <trkpt lat="43.08891" lon="0.53574">
        <ele>496.62</ele>
        <time>2020-09-01T07:24:59.000Z</time>
      </trkpt>
      <trkpt lat="43.08893" lon="0.53561">
        <ele>497.01</ele>
        <time>2020-09-01T07:25:05.000Z</time>
      </trkpt>
      <trkpt lat="43.08895" lon="0.53549">
        <ele>497.39</ele>
        <time>2020-09-01T07:25:11.000Z</time>
      </trkpt>
      <trkpt lat="43.08897" lon="0.53536">
        <ele>497.77</ele>
        <time>2020-09-01T07:25:17.000Z</time>
      </trkpt>
      <trkpt lat="43.08898" lon="0.53522">
        <ele>498.15</ele>
        <time>2020-09-01T07:25:23.000Z</time>
      </trkpt>
      <trkpt lat="43.08899" lon="0.53508">
        <ele>498.53</ele>
        <time>2020-09-01T07:25:29.000Z</time>
      </trkpt>
      <trkpt lat="43.08901" lon="0.53495">
        <ele>498.84</ele>
        <time>2020-09-01T07:25:34.000Z</time>
      </trkpt>
      <trkpt lat="43.08903" lon="0.53482">
        <ele>499.16</ele>
        <time>2020-09-01T07:25:39.000Z</time>
      </trkpt>
      <trkpt lat="43.08905" lon="0.53469">
        <ele>499.47</ele>
        <time>2020-09-01T07:25:44.000Z</time>
      </trkpt>
      <trkpt lat="43.08908" lon="0.53455">
        <ele>499.79</ele>
        <time>2020-09-01T07:25:49.000Z</time>
      </trkpt>
      <trkpt lat="43.08909" lon="0.53443">
        <ele>500.1</ele>
        <time>2020-09-01T07:25:54.000Z</time>
      </trkpt>
      <trkpt lat="43.08911" lon="0.5343">
        <ele>500.4</ele>
        <time>2020-09-01T07:25:59.000Z</time>
      </trkpt>
      <trkpt lat="43.08913" lon="0.53418">
        <ele>500.71</ele>
        <time>2020-09-01T07:26:04.000Z</time>
      </trkpt>
      <trkpt lat="43.08915" lon="0.53404">
        <ele>501.02</ele>
        <time>2020-09-01T07:26:09.000Z</time>
      </trkpt>
      <trkpt lat="43.08917" lon="0.53391">
        <ele>501.32</ele>
        <time>2020-09-01T07:26:14.000Z</time>
      </trkpt>
      <trkpt lat="43.08919" lon="0.53378">
        <ele>501.62</ele>
        <time>2020-09-01T07:26:19.000Z</time>
      </trkpt>
      <trkpt lat="43.08921" lon="0.53366">
        <ele>501.93</ele>
        <time>2020-09-01T07:26:24.000Z</time>
      </trkpt>
      <trkpt lat="43.08922" lon="0.53352">
        <ele>502.23</ele>
        <time>2020-09-01T07:26:29.000Z</time>
      </trkpt>
      <trkpt lat="43.08924" lon="0.53338">
        <ele>502.54</ele>
        <time>2020-09-01T07:26:34.000Z</time>
      </trkpt>
      <trkpt lat="43.08926" lon="0.53325">
        <ele>502.85</ele>
        <time>2020-09-01T07:26:39.000Z</time>
      </trkpt>
      <trkpt lat="43.08927" lon="0.53312">
        <ele>503.15</ele>
        <time>2020-09-01T07:26:44.000Z</time>
      </trkpt>
      <trkpt lat="43.08929" lon="0.533">
        <ele>503.45</ele>
        <time>2020-09-01T07:26:48.999Z</time>
      </trkpt>
      <trkpt lat="43.08931" lon="0.53287">
        <ele>503.76</ele>
        <time>2020-09-01T07:26:53.999Z</time>
      </trkpt>
      <trkpt lat="43.08932" lon="0.53274">
        <ele>504.06</ele>
        <time>2020-09-01T07:26:58.999Z</time>
      </trkpt>
      <trkpt lat="43.08934" lon="0.5326">
        <ele>504.36</ele>
        <time>2020-09-01T07:27:03.999Z</time>
      </trkpt>
      <trkpt lat="43.08936" lon="0.53247">
        <ele>504.66</ele>
        <time>2020-09-01T07:27:08.999Z</time>
      </trkpt>
      <trkpt lat="43.08938" lon="0.53234">
        <ele>504.96</ele>
        <time>2020-09-01T07:27:13.999Z</time>
      </trkpt>
      <trkpt lat="43.0894" lon="0.53221">
        <ele>505.26</ele>
        <time>2020-09-01T07:27:18.999Z</time>
      </trkpt>
      <trkpt lat="43.08942" lon="0.53208">
        <ele>505.56</ele>
        <time>2020-09-01T07:27:23.999Z</time>
      </trkpt>
      <trkpt lat="43.08944" lon="0.53195">
        <ele>505.86</ele>
        <time>2020-09-01T07:27:28.999Z</time>
      </trkpt>
      <trkpt lat="43.08946" lon="0.53182">
        <ele>506.15</ele>
        <time>2020-09-01T07:27:33.999Z</time>
      </trkpt>
      <trkpt lat="43.08948" lon="0.53168">
        <ele>506.51</ele>
        <time>2020-09-01T07:27:39.999Z</time>
      </trkpt>
      <trkpt lat="43.08949" lon="0.53154">
        <ele>506.8</ele>
        <time>2020-09-01T07:27:44.999Z</time>
      </trkpt>
      <trkpt lat="43.08952" lon="0.53141">
        <ele>507.1</ele>
        <time>2020-09-01T07:27:49.999Z</time>
      </trkpt>
      <trkpt lat="43.08954" lon="0.53128">
        <ele>507.39</ele>
        <time>2020-09-01T07:27:54.999Z</time>
      </trkpt>
      <trkpt lat="43.08955" lon="0.53115">
        <ele>507.68</ele>
        <time>2020-09-01T07:27:59.999Z</time>
      </trkpt>
      <trkpt lat="43.08958" lon="0.53101">
        <ele>507.97</ele>
        <time>2020-09-01T07:28:04.999Z</time>
      </trkpt>
      <trkpt lat="43.08961" lon="0.53086">
        <ele>508.26</ele>
        <time>2020-09-01T07:28:09.999Z</time>
      </trkpt>
      <trkpt lat="43.08963" lon="0.53072">
        <ele>508.55</ele>
        <time>2020-09-01T07:28:14.999Z</time>
      </trkpt>
      <trkpt lat="43.08965" lon="0.53057">
        <ele>508.84</ele>
        <time>2020-09-01T07:28:19.999Z</time>
      </trkpt>
      <trkpt lat="43.08967" lon="0.53043">
        <ele>509.12</ele>
        <time>2020-09-01T07:28:24.999Z</time>
      </trkpt>
      <trkpt lat="43.0897" lon="0.53029">
        <ele>509.4</ele>
        <time>2020-09-01T07:28:29.999Z</time>
      </trkpt>
      <trkpt lat="43.08972" lon="0.53015">
        <ele>509.69</ele>
        <time>2020-09-01T07:28:34.999Z</time>
      </trkpt>
      <trkpt lat="43.08975" lon="0.53001">
        <ele>509.97</ele>
        <time>2020-09-01T07:28:39.999Z</time>
      </trkpt>
      <trkpt lat="43.08977" lon="0.52987">
        <ele>510.25</ele>
        <time>2020-09-01T07:28:44.999Z</time>
      </trkpt>
      <trkpt lat="43.08979" lon="0.52973">
        <ele>510.53</ele>
        <time>2020-09-01T07:28:49.999Z</time>
      </trkpt>
      <trkpt lat="43.0898" lon="0.52956">
        <ele>510.82</ele>
        <time>2020-09-01T07:28:54.999Z</time>
      </trkpt>
      <trkpt lat="43.08984" lon="0.5294">
        <ele>511.1</ele>
        <time>2020-09-01T07:28:59.999Z</time>
      </trkpt>
      <trkpt lat="43.08987" lon="0.52922">
        <ele>511.39</ele>
        <time>2020-09-01T07:29:04.999Z</time>
      </trkpt>
      <trkpt lat="43.08989" lon="0.52903">
        <ele>511.67</ele>
        <time>2020-09-01T07:29:09.999Z</time>
      </trkpt>
      <trkpt lat="43.08991" lon="0.52885">
        <ele>511.95</ele>
        <time>2020-09-01T07:29:14.999Z</time>
      </trkpt>
      <trkpt lat="43.08995" lon="0.52864">
        <ele>512.23</ele>
        <time>2020-09-01T07:29:19.999Z</time>
      </trkpt>
      <trkpt lat="43.08998" lon="0.52842">
        <ele>512.5</ele>
        <time>2020-09-01T07:29:24.999Z</time>
      </trkpt>
      <trkpt lat="43.08999" lon="0.52819">
        <ele>512.78</ele>
        <time>2020-09-01T07:29:29.999Z</time>
      </trkpt>
      <trkpt lat="43.09003" lon="0.52798">
        <ele>513.05</ele>
        <time>2020-09-01T07:29:34.999Z</time>
      </trkpt>
      <trkpt lat="43.09006" lon="0.52776">
        <ele>513.31</ele>
        <time>2020-09-01T07:29:39.999Z</time>
      </trkpt>
      <trkpt lat="43.09011" lon="0.5275">
        <ele>514.29</ele>
        <time>2020-09-01T07:29:44.999Z</time>
      </trkpt>
      <trkpt lat="43.09016" lon="0.52722">
        <ele>515.63</ele>
        <time>2020-09-01T07:29:49.999Z</time>
      </trkpt>
      <trkpt lat="43.0902" lon="0.52689">
        <ele>516.23</ele>
        <time>2020-09-01T07:29:54.999Z</time>
      </trkpt>
      <trkpt lat="43.09022" lon="0.52654">
        <ele>516.63</ele>
        <time>2020-09-01T07:29:59.999Z</time>
      </trkpt>
      <trkpt lat="43.09027" lon="0.52627">
        <ele>516.88</ele>
        <time>2020-09-01T07:30:04.999Z</time>
      </trkpt>
      <trkpt lat="43.09033" lon="0.52602">
        <ele>517.15</ele>
        <time>2020-09-01T07:30:09.999Z</time>
      </trkpt>
      <trkpt lat="43.09039" lon="0.5258">
        <ele>517.21</ele>
        <time>2020-09-01T07:30:14.999Z</time>
      </trkpt>
      <trkpt lat="43.09041" lon="0.5256">
        <ele>517.28</ele>
        <time>2020-09-01T07:30:19.999Z</time>
      </trkpt>
      <trkpt lat="43.09042" lon="0.52546">
        <ele>517.36</ele>
        <time>2020-09-01T07:30:24.999Z</time>
      </trkpt>
      <trkpt lat="43.09044" lon="0.52531">
        <ele>517.47</ele>
        <time>2020-09-01T07:30:29.999Z</time>
      </trkpt>
      <trkpt lat="43.09047" lon="0.52516">
        <ele>517.59</ele>
        <time>2020-09-01T07:30:34.999Z</time>
      </trkpt>
      <trkpt lat="43.09048" lon="0.52504">
        <ele>517.73</ele>
        <time>2020-09-01T07:30:39.999Z</time>
      </trkpt>
      <trkpt lat="43.09051" lon="0.5249">
        <ele>517.88</ele>
        <time>2020-09-01T07:30:44.999Z</time>
      </trkpt>
      <trkpt lat="43.09052" lon="0.52475">
        <ele>518.04</ele>
        <time>2020-09-01T07:30:49.999Z</time>
      </trkpt>
      <trkpt lat="43.09052" lon="0.52461">
        <ele>518.26</ele>
        <time>2020-09-01T07:30:55.999Z</time>
      </trkpt>
      <trkpt lat="43.09053" lon="0.52448">
        <ele>518.45</ele>
        <time>2020-09-01T07:31:00.999Z</time>
      </trkpt>
      <trkpt lat="43.09054" lon="0.52435">
        <ele>518.65</ele>
        <time>2020-09-01T07:31:05.999Z</time>
      </trkpt>
      <trkpt lat="43.09054" lon="0.52422">
        <ele>518.86</ele>
        <time>2020-09-01T07:31:10.999Z</time>
      </trkpt>
      <trkpt lat="43.09054" lon="0.52408">
        <ele>519.09</ele>
        <time>2020-09-01T07:31:15.999Z</time>
      </trkpt>
      <trkpt lat="43.09055" lon="0.52395">
        <ele>519.31</ele>
        <time>2020-09-01T07:31:20.999Z</time>
      </trkpt>
      <trkpt lat="43.09055" lon="0.52381">
        <ele>519.55</ele>
        <time>2020-09-01T07:31:25.999Z</time>
      </trkpt>
      <trkpt lat="43.09055" lon="0.52366">
        <ele>519.8</ele>
        <time>2020-09-01T07:31:30.999Z</time>
      </trkpt>
      <trkpt lat="43.09054" lon="0.52349">
        <ele>520.05</ele>
        <time>2020-09-01T07:31:35.999Z</time>
      </trkpt>
      <trkpt lat="43.09053" lon="0.52336">
        <ele>520.32</ele>
        <time>2020-09-01T07:31:40.999Z</time>
      </trkpt>
      <trkpt lat="43.09053" lon="0.5232">
        <ele>520.59</ele>
        <time>2020-09-01T07:31:45.999Z</time>
      </trkpt>
      <trkpt lat="43.09052" lon="0.52302">
        <ele>520.86</ele>
        <time>2020-09-01T07:31:50.999Z</time>
      </trkpt>
      <trkpt lat="43.09052" lon="0.52285">
        <ele>521.12</ele>
        <time>2020-09-01T07:31:55.999Z</time>
      </trkpt>
      <trkpt lat="43.09052" lon="0.5227">
        <ele>521.37</ele>
        <time>2020-09-01T07:32:00.999Z</time>
      </trkpt>
      <trkpt lat="43.09052" lon="0.52255">
        <ele>521.6</ele>
        <time>2020-09-01T07:32:05.999Z</time>
      </trkpt>
      <trkpt lat="43.09051" lon="0.52242">
        <ele>521.88</ele>
        <time>2020-09-01T07:32:11.999Z</time>
      </trkpt>
      <trkpt lat="43.09052" lon="0.52226">
        <ele>522.13</ele>
        <time>2020-09-01T07:32:16.999Z</time>
      </trkpt>
      <trkpt lat="43.09053" lon="0.52208">
        <ele>522.37</ele>
        <time>2020-09-01T07:32:21.999Z</time>
      </trkpt>
      <trkpt lat="43.09053" lon="0.52195">
        <ele>522.61</ele>
        <time>2020-09-01T07:32:26.999Z</time>
      </trkpt>
      <trkpt lat="43.09054" lon="0.52181">
        <ele>522.86</ele>
        <time>2020-09-01T07:32:31.999Z</time>
      </trkpt>
      <trkpt lat="43.09054" lon="0.52164">
        <ele>523.1</ele>
        <time>2020-09-01T07:32:36.999Z</time>
      </trkpt>
      <trkpt lat="43.09054" lon="0.52151">
        <ele>523.35</ele>
        <time>2020-09-01T07:32:41.999Z</time>
      </trkpt>
      <trkpt lat="43.09055" lon="0.52136">
        <ele>523.61</ele>
        <time>2020-09-01T07:32:46.999Z</time>
      </trkpt>
      <trkpt lat="43.09056" lon="0.52121">
        <ele>523.86</ele>
        <time>2020-09-01T07:32:51.999Z</time>
      </trkpt>
      <trkpt lat="43.09056" lon="0.52105">
        <ele>524.11</ele>
        <time>2020-09-01T07:32:56.999Z</time>
      </trkpt>
      <trkpt lat="43.09058" lon="0.5209">
        <ele>524.37</ele>
        <time>2020-09-01T07:33:01.999Z</time>
      </trkpt>
      <trkpt lat="43.09059" lon="0.52075">
        <ele>524.64</ele>
        <time>2020-09-01T07:33:06.999Z</time>
      </trkpt>
      <trkpt lat="43.0906" lon="0.5206">
        <ele>524.9</ele>
        <time>2020-09-01T07:33:11.999Z</time>
      </trkpt>
      <trkpt lat="43.0906" lon="0.52043">
        <ele>525.17</ele>
        <time>2020-09-01T07:33:16.999Z</time>
      </trkpt>
      <trkpt lat="43.0906" lon="0.52026">
        <ele>525.44</ele>
        <time>2020-09-01T07:33:21.999Z</time>
      </trkpt>
      <trkpt lat="43.0906" lon="0.52009">
        <ele>525.71</ele>
        <time>2020-09-01T07:33:26.999Z</time>
      </trkpt>
      <trkpt lat="43.0906" lon="0.51993">
        <ele>525.98</ele>
        <time>2020-09-01T07:33:31.999Z</time>
      </trkpt>
      <trkpt lat="43.09061" lon="0.51979">
        <ele>526.26</ele>
        <time>2020-09-01T07:33:36.999Z</time>
      </trkpt>
      <trkpt lat="43.09063" lon="0.51965">
        <ele>526.53</ele>
        <time>2020-09-01T07:33:41.999Z</time>
      </trkpt>
      <trkpt lat="43.09065" lon="0.51949">
        <ele>526.8</ele>
        <time>2020-09-01T07:33:46.999Z</time>
      </trkpt>
      <trkpt lat="43.09066" lon="0.51933">
        <ele>527.07</ele>
        <time>2020-09-01T07:33:51.999Z</time>
      </trkpt>
      <trkpt lat="43.09067" lon="0.51913">
        <ele>527.35</ele>
        <time>2020-09-01T07:33:56.999Z</time>
      </trkpt>
      <trkpt lat="43.09068" lon="0.51896">
        <ele>527.62</ele>
        <time>2020-09-01T07:34:01.999Z</time>
      </trkpt>
      <trkpt lat="43.09069" lon="0.51879">
        <ele>527.89</ele>
        <time>2020-09-01T07:34:06.999Z</time>
      </trkpt>
      <trkpt lat="43.09069" lon="0.51861">
        <ele>528.16</ele>
        <time>2020-09-01T07:34:11.999Z</time>
      </trkpt>
      <trkpt lat="43.0907" lon="0.51843">
        <ele>528.43</ele>
        <time>2020-09-01T07:34:16.999Z</time>
      </trkpt>
      <trkpt lat="43.09072" lon="0.51827">
        <ele>528.7</ele>
        <time>2020-09-01T07:34:21.999Z</time>
      </trkpt>
      <trkpt lat="43.09074" lon="0.51811">
        <ele>528.96</ele>
        <time>2020-09-01T07:34:26.999Z</time>
      </trkpt>
      <trkpt lat="43.09075" lon="0.51795">
        <ele>529.22</ele>
        <time>2020-09-01T07:34:31.999Z</time>
      </trkpt>
      <trkpt lat="43.09077" lon="0.51779">
        <ele>529.48</ele>
        <time>2020-09-01T07:34:36.999Z</time>
      </trkpt>
      <trkpt lat="43.09079" lon="0.51762">
        <ele>529.74</ele>
        <time>2020-09-01T07:34:41.999Z</time>
      </trkpt>
      <trkpt lat="43.0908" lon="0.51747">
        <ele>529.99</ele>
        <time>2020-09-01T07:34:46.999Z</time>
      </trkpt>
      <trkpt lat="43.09082" lon="0.5173">
        <ele>530.25</ele>
        <time>2020-09-01T07:34:51.999Z</time>
      </trkpt>
      <trkpt lat="43.09083" lon="0.51713">
        <ele>530.5</ele>
        <time>2020-09-01T07:34:56.999Z</time>
      </trkpt>
      <trkpt lat="43.09085" lon="0.51697">
        <ele>530.75</ele>
        <time>2020-09-01T07:35:01.999Z</time>
      </trkpt>
      <trkpt lat="43.09086" lon="0.5168">
        <ele>531</ele>
        <time>2020-09-01T07:35:06.999Z</time>
      </trkpt>
      <trkpt lat="43.09087" lon="0.51663">
        <ele>531.26</ele>
        <time>2020-09-01T07:35:11.999Z</time>
      </trkpt>
      <trkpt lat="43.09089" lon="0.51647">
        <ele>531.53</ele>
        <time>2020-09-01T07:35:16.999Z</time>
      </trkpt>
      <trkpt lat="43.09091" lon="0.51629">
        <ele>531.79</ele>
        <time>2020-09-01T07:35:21.999Z</time>
      </trkpt>
      <trkpt lat="43.09093" lon="0.51612">
        <ele>532.05</ele>
        <time>2020-09-01T07:35:26.999Z</time>
      </trkpt>
      <trkpt lat="43.09094" lon="0.51594">
        <ele>532.31</ele>
        <time>2020-09-01T07:35:31.999Z</time>
      </trkpt>
      <trkpt lat="43.09096" lon="0.51573">
        <ele>532.58</ele>
        <time>2020-09-01T07:35:36.999Z</time>
      </trkpt>
      <trkpt lat="43.09096" lon="0.51552">
        <ele>532.85</ele>
        <time>2020-09-01T07:35:41.999Z</time>
      </trkpt>
      <trkpt lat="43.09098" lon="0.51532">
        <ele>533.12</ele>
        <time>2020-09-01T07:35:46.999Z</time>
      </trkpt>
      <trkpt lat="43.09099" lon="0.5151">
        <ele>533.39</ele>
        <time>2020-09-01T07:35:51.999Z</time>
      </trkpt>
      <trkpt lat="43.09102" lon="0.51486">
        <ele>533.67</ele>
        <time>2020-09-01T07:35:56.999Z</time>
      </trkpt>
      <trkpt lat="43.09105" lon="0.51463">
        <ele>533.94</ele>
        <time>2020-09-01T07:36:01.999Z</time>
      </trkpt>
      <trkpt lat="43.09109" lon="0.5144">
        <ele>534.67</ele>
        <time>2020-09-01T07:36:06.999Z</time>
      </trkpt>
      <trkpt lat="43.09112" lon="0.51414">
        <ele>535.76</ele>
        <time>2020-09-01T07:36:11.999Z</time>
      </trkpt>
      <trkpt lat="43.09117" lon="0.51385">
        <ele>536.67</ele>
        <time>2020-09-01T07:36:16.999Z</time>
      </trkpt>
      <trkpt lat="43.09119" lon="0.51355">
        <ele>537.15</ele>
        <time>2020-09-01T07:36:21.999Z</time>
      </trkpt>
      <trkpt lat="43.09122" lon="0.51322">
        <ele>537.48</ele>
        <time>2020-09-01T07:36:26.999Z</time>
      </trkpt>
      <trkpt lat="43.09125" lon="0.51285">
        <ele>537.76</ele>
        <time>2020-09-01T07:36:31.999Z</time>
      </trkpt>
      <trkpt lat="43.09128" lon="0.51245">
        <ele>538.01</ele>
        <time>2020-09-01T07:36:36.999Z</time>
      </trkpt>
      <trkpt lat="43.0913" lon="0.51204">
        <ele>538.27</ele>
        <time>2020-09-01T07:36:41.999Z</time>
      </trkpt>
      <trkpt lat="43.09132" lon="0.51162">
        <ele>538.51</ele>
        <time>2020-09-01T07:36:46.999Z</time>
      </trkpt>
      <trkpt lat="43.09135" lon="0.51121">
        <ele>538.38</ele>
        <time>2020-09-01T07:36:51.999Z</time>
      </trkpt>
      <trkpt lat="43.09136" lon="0.5108">
        <ele>538.32</ele>
        <time>2020-09-01T07:36:56.999Z</time>
      </trkpt>
      <trkpt lat="43.09136" lon="0.5104">
        <ele>538.56</ele>
        <time>2020-09-01T07:37:01.999Z</time>
      </trkpt>
      <trkpt lat="43.09138" lon="0.51008">
        <ele>538.94</ele>
        <time>2020-09-01T07:37:06.999Z</time>
      </trkpt>
      <trkpt lat="43.0914" lon="0.50987">
        <ele>539.04</ele>
        <time>2020-09-01T07:37:11.999Z</time>
      </trkpt>
      <trkpt lat="43.09141" lon="0.50968">
        <ele>539.35</ele>
        <time>2020-09-01T07:37:16.999Z</time>
      </trkpt>
      <trkpt lat="43.09143" lon="0.50952">
        <ele>539.9</ele>
        <time>2020-09-01T07:37:21.999Z</time>
      </trkpt>
      <trkpt lat="43.09145" lon="0.50937">
        <ele>540.62</ele>
        <time>2020-09-01T07:37:26.999Z</time>
      </trkpt>
      <trkpt lat="43.09146" lon="0.5092">
        <ele>541.47</ele>
        <time>2020-09-01T07:37:31.999Z</time>
      </trkpt>
      <trkpt lat="43.09146" lon="0.50907">
        <ele>542.51</ele>
        <time>2020-09-01T07:37:36.999Z</time>
      </trkpt>
      <trkpt lat="43.09147" lon="0.50891">
        <ele>543.65</ele>
        <time>2020-09-01T07:37:41.999Z</time>
      </trkpt>
      <trkpt lat="43.09148" lon="0.50875">
        <ele>544.76</ele>
        <time>2020-09-01T07:37:46.999Z</time>
      </trkpt>
      <trkpt lat="43.0915" lon="0.5086">
        <ele>545.8</ele>
        <time>2020-09-01T07:37:51.999Z</time>
      </trkpt>
      <trkpt lat="43.09151" lon="0.50846">
        <ele>546.68</ele>
        <time>2020-09-01T07:37:56.999Z</time>
      </trkpt>
      <trkpt lat="43.09152" lon="0.50832">
        <ele>547.36</ele>
        <time>2020-09-01T07:38:01.999Z</time>
      </trkpt>
      <trkpt lat="43.09152" lon="0.50819">
        <ele>547.96</ele>
        <time>2020-09-01T07:38:06.999Z</time>
      </trkpt>
      <trkpt lat="43.09152" lon="0.50806">
        <ele>548.53</ele>
        <time>2020-09-01T07:38:11.999Z</time>
      </trkpt>
      <trkpt lat="43.09152" lon="0.50793">
        <ele>549.06</ele>
        <time>2020-09-01T07:38:16.999Z</time>
      </trkpt>
      <trkpt lat="43.09153" lon="0.5078">
        <ele>549.56</ele>
        <time>2020-09-01T07:38:21.999Z</time>
      </trkpt>
      <trkpt lat="43.09154" lon="0.50767">
        <ele>549.98</ele>
        <time>2020-09-01T07:38:26.999Z</time>
      </trkpt>
      <trkpt lat="43.09157" lon="0.50752">
        <ele>550.37</ele>
        <time>2020-09-01T07:38:31.999Z</time>
      </trkpt>
      <trkpt lat="43.09159" lon="0.50737">
        <ele>550.78</ele>
        <time>2020-09-01T07:38:36.999Z</time>
      </trkpt>
      <trkpt lat="43.0916" lon="0.50721">
        <ele>551.21</ele>
        <time>2020-09-01T07:38:41.999Z</time>
      </trkpt>
      <trkpt lat="43.09163" lon="0.50704">
        <ele>551.61</ele>
        <time>2020-09-01T07:38:46.999Z</time>
      </trkpt>
      <trkpt lat="43.09164" lon="0.50687">
        <ele>551.98</ele>
        <time>2020-09-01T07:38:51.999Z</time>
      </trkpt>
      <trkpt lat="43.09166" lon="0.50666">
        <ele>552.29</ele>
        <time>2020-09-01T07:38:56.999Z</time>
      </trkpt>
      <trkpt lat="43.09166" lon="0.50647">
        <ele>552.56</ele>
        <time>2020-09-01T07:39:01.999Z</time>
      </trkpt>
      <trkpt lat="43.09167" lon="0.50629">
        <ele>552.81</ele>
        <time>2020-09-01T07:39:06.999Z</time>
      </trkpt>
      <trkpt lat="43.09171" lon="0.5061">
        <ele>553.05</ele>
        <time>2020-09-01T07:39:11.999Z</time>
      </trkpt>
      <trkpt lat="43.09175" lon="0.50589">
        <ele>553.28</ele>
        <time>2020-09-01T07:39:16.999Z</time>
      </trkpt>
      <trkpt lat="43.0918" lon="0.50568">
        <ele>553.45</ele>
        <time>2020-09-01T07:39:21.999Z</time>
      </trkpt>
      <trkpt lat="43.09185" lon="0.5054">
        <ele>553.54</ele>
        <time>2020-09-01T07:39:26.999Z</time>
      </trkpt>
      <trkpt lat="43.0919" lon="0.50513">
        <ele>554.05</ele>
        <time>2020-09-01T07:39:31.999Z</time>
      </trkpt>
      <trkpt lat="43.09193" lon="0.50488">
        <ele>554.45</ele>
        <time>2020-09-01T07:39:36.999Z</time>
      </trkpt>
      <trkpt lat="43.09199" lon="0.50462">
        <ele>554.82</ele>
        <time>2020-09-01T07:39:41.999Z</time>
      </trkpt>
      <trkpt lat="43.09205" lon="0.50435">
        <ele>555.01</ele>
        <time>2020-09-01T07:39:46.999Z</time>
      </trkpt>
      <trkpt lat="43.09215" lon="0.50407">
        <ele>555.62</ele>
        <time>2020-09-01T07:39:51.999Z</time>
      </trkpt>
      <trkpt lat="43.09223" lon="0.50377">
        <ele>556.16</ele>
        <time>2020-09-01T07:39:56.999Z</time>
      </trkpt>
      <trkpt lat="43.09232" lon="0.50348">
        <ele>556.58</ele>
        <time>2020-09-01T07:40:01.999Z</time>
      </trkpt>
      <trkpt lat="43.09239" lon="0.50315">
        <ele>556.88</ele>
        <time>2020-09-01T07:40:06.999Z</time>
      </trkpt>
      <trkpt lat="43.09249" lon="0.50283">
        <ele>556.92</ele>
        <time>2020-09-01T07:40:11.999Z</time>
      </trkpt>
      <trkpt lat="43.0926" lon="0.5025">
        <ele>556.9</ele>
        <time>2020-09-01T07:40:16.999Z</time>
      </trkpt>
      <trkpt lat="43.09271" lon="0.50216">
        <ele>556.78</ele>
        <time>2020-09-01T07:40:21.999Z</time>
      </trkpt>
      <trkpt lat="43.09282" lon="0.50181">
        <ele>556.64</ele>
        <time>2020-09-01T07:40:26.999Z</time>
      </trkpt>
      <trkpt lat="43.0929" lon="0.50153">
        <ele>556.55</ele>
        <time>2020-09-01T07:40:31.000Z</time>
      </trkpt>
      <trkpt lat="43.09299" lon="0.5012">
        <ele>556.32</ele>
        <time>2020-09-01T07:40:36.000Z</time>
      </trkpt>
      <trkpt lat="43.09307" lon="0.50091">
        <ele>556.24</ele>
        <time>2020-09-01T07:40:41.000Z</time>
      </trkpt>
      <trkpt lat="43.09314" lon="0.50064">
        <ele>556.32</ele>
        <time>2020-09-01T07:40:46.000Z</time>
      </trkpt>
      <trkpt lat="43.09322" lon="0.5004">
        <ele>556.74</ele>
        <time>2020-09-01T07:40:51.000Z</time>
      </trkpt>
      <trkpt lat="43.09329" lon="0.50016">
        <ele>557</ele>
        <time>2020-09-01T07:40:56.000Z</time>
      </trkpt>
      <trkpt lat="43.09336" lon="0.49992">
        <ele>557.24</ele>
        <time>2020-09-01T07:41:01.000Z</time>
      </trkpt>
      <trkpt lat="43.09344" lon="0.49969">
        <ele>557.47</ele>
        <time>2020-09-01T07:41:06.000Z</time>
      </trkpt>
      <trkpt lat="43.0935" lon="0.49946">
        <ele>557.52</ele>
        <time>2020-09-01T07:41:11.000Z</time>
      </trkpt>
      <trkpt lat="43.09355" lon="0.49924">
        <ele>557.57</ele>
        <time>2020-09-01T07:41:16.000Z</time>
      </trkpt>
      <trkpt lat="43.09361" lon="0.49905">
        <ele>557.64</ele>
        <time>2020-09-01T07:41:21.000Z</time>
      </trkpt>
      <trkpt lat="43.09366" lon="0.49886">
        <ele>557.73</ele>
        <time>2020-09-01T07:41:26.000Z</time>
      </trkpt>
      <trkpt lat="43.09371" lon="0.4987">
        <ele>557.82</ele>
        <time>2020-09-01T07:41:31.000Z</time>
      </trkpt>
      <trkpt lat="43.09376" lon="0.49855">
        <ele>557.92</ele>
        <time>2020-09-01T07:41:36.000Z</time>
      </trkpt>
      <trkpt lat="43.0938" lon="0.49839">
        <ele>558.03</ele>
        <time>2020-09-01T07:41:41.000Z</time>
      </trkpt>
      <trkpt lat="43.09385" lon="0.49824">
        <ele>558.15</ele>
        <time>2020-09-01T07:41:46.000Z</time>
      </trkpt>
      <trkpt lat="43.0939" lon="0.49809">
        <ele>558.3</ele>
        <time>2020-09-01T07:41:51.000Z</time>
      </trkpt>
      <trkpt lat="43.09395" lon="0.49793">
        <ele>558.49</ele>
        <time>2020-09-01T07:41:56.000Z</time>
      </trkpt>
      <trkpt lat="43.09399" lon="0.49777">
        <ele>558.71</ele>
        <time>2020-09-01T07:42:01.000Z</time>
      </trkpt>
      <trkpt lat="43.09404" lon="0.49759">
        <ele>558.95</ele>
        <time>2020-09-01T07:42:06.000Z</time>
      </trkpt>
      <trkpt lat="43.09408" lon="0.49742">
        <ele>559.23</ele>
        <time>2020-09-01T07:42:11.000Z</time>
      </trkpt>
      <trkpt lat="43.09413" lon="0.49726">
        <ele>559.51</ele>
        <time>2020-09-01T07:42:16.000Z</time>
      </trkpt>
      <trkpt lat="43.09417" lon="0.49709">
        <ele>559.82</ele>
        <time>2020-09-01T07:42:21.000Z</time>
      </trkpt>
      <trkpt lat="43.09423" lon="0.49689">
        <ele>560.13</ele>
        <time>2020-09-01T07:42:26.000Z</time>
      </trkpt>
      <trkpt lat="43.09429" lon="0.49669">
        <ele>560.44</ele>
        <time>2020-09-01T07:42:31.000Z</time>
      </trkpt>
      <trkpt lat="43.09436" lon="0.49648">
        <ele>560.75</ele>
        <time>2020-09-01T07:42:36.000Z</time>
      </trkpt>
      <trkpt lat="43.09442" lon="0.49627">
        <ele>561.03</ele>
        <time>2020-09-01T07:42:41.000Z</time>
      </trkpt>
      <trkpt lat="43.09448" lon="0.49605">
        <ele>561.32</ele>
        <time>2020-09-01T07:42:46.000Z</time>
      </trkpt>
      <trkpt lat="43.09454" lon="0.49582">
        <ele>561.6</ele>
        <time>2020-09-01T07:42:51.000Z</time>
      </trkpt>
      <trkpt lat="43.09461" lon="0.49559">
        <ele>561.86</ele>
        <time>2020-09-01T07:42:56.000Z</time>
      </trkpt>
      <trkpt lat="43.09467" lon="0.49535">
        <ele>562.47</ele>
        <time>2020-09-01T07:43:01.000Z</time>
      </trkpt>
      <trkpt lat="43.09474" lon="0.49511">
        <ele>563.62</ele>
        <time>2020-09-01T07:43:06.000Z</time>
      </trkpt>
      <trkpt lat="43.09482" lon="0.49487">
        <ele>564.45</ele>
        <time>2020-09-01T07:43:11.000Z</time>
      </trkpt>
      <trkpt lat="43.09489" lon="0.49462">
        <ele>564.77</ele>
        <time>2020-09-01T07:43:16.000Z</time>
      </trkpt>
      <trkpt lat="43.09497" lon="0.49438">
        <ele>564.98</ele>
        <time>2020-09-01T07:43:21.000Z</time>
      </trkpt>
      <trkpt lat="43.09504" lon="0.49412">
        <ele>565.12</ele>
        <time>2020-09-01T07:43:26.000Z</time>
      </trkpt>
      <trkpt lat="43.09512" lon="0.49387">
        <ele>565.21</ele>
        <time>2020-09-01T07:43:31.000Z</time>
      </trkpt>
      <trkpt lat="43.0952" lon="0.49361">
        <ele>565.29</ele>
        <time>2020-09-01T07:43:36.000Z</time>
      </trkpt>
      <trkpt lat="43.09528" lon="0.49334">
        <ele>565.35</ele>
        <time>2020-09-01T07:43:41.000Z</time>
      </trkpt>
      <trkpt lat="43.09536" lon="0.49307">
        <ele>565.4</ele>
        <time>2020-09-01T07:43:46.000Z</time>
      </trkpt>
      <trkpt lat="43.09543" lon="0.49282">
        <ele>565.49</ele>
        <time>2020-09-01T07:43:51.000Z</time>
      </trkpt>
      <trkpt lat="43.09551" lon="0.49256">
        <ele>565.55</ele>
        <time>2020-09-01T07:43:56.000Z</time>
      </trkpt>
      <trkpt lat="43.09558" lon="0.49231">
        <ele>565.62</ele>
        <time>2020-09-01T07:44:01.000Z</time>
      </trkpt>
      <trkpt lat="43.09564" lon="0.49207">
        <ele>565.66</ele>
        <time>2020-09-01T07:44:06.000Z</time>
      </trkpt>
      <trkpt lat="43.09571" lon="0.49185">
        <ele>565.68</ele>
        <time>2020-09-01T07:44:11.000Z</time>
      </trkpt>
      <trkpt lat="43.09578" lon="0.49162">
        <ele>565.7</ele>
        <time>2020-09-01T07:44:16.000Z</time>
      </trkpt>
      <trkpt lat="43.09584" lon="0.49142">
        <ele>565.73</ele>
        <time>2020-09-01T07:44:21.000Z</time>
      </trkpt>
      <trkpt lat="43.09591" lon="0.49122">
        <ele>565.76</ele>
        <time>2020-09-01T07:44:26.000Z</time>
      </trkpt>
      <trkpt lat="43.09596" lon="0.49101">
        <ele>565.8</ele>
        <time>2020-09-01T07:44:31.000Z</time>
      </trkpt>
      <trkpt lat="43.09602" lon="0.4908">
        <ele>565.85</ele>
        <time>2020-09-01T07:44:36.000Z</time>
      </trkpt>
      <trkpt lat="43.09608" lon="0.49059">
        <ele>565.9</ele>
        <time>2020-09-01T07:44:41.000Z</time>
      </trkpt>
      <trkpt lat="43.09613" lon="0.49039">
        <ele>565.96</ele>
        <time>2020-09-01T07:44:46.000Z</time>
      </trkpt>
      <trkpt lat="43.09619" lon="0.49019">
        <ele>566.03</ele>
        <time>2020-09-01T07:44:51.000Z</time>
      </trkpt>
      <trkpt lat="43.09625" lon="0.49">
        <ele>566.11</ele>
        <time>2020-09-01T07:44:56.000Z</time>
      </trkpt>
      <trkpt lat="43.09631" lon="0.4898">
        <ele>566.19</ele>
        <time>2020-09-01T07:45:01.000Z</time>
      </trkpt>
      <trkpt lat="43.09636" lon="0.4896">
        <ele>566.28</ele>
        <time>2020-09-01T07:45:06.000Z</time>
      </trkpt>
      <trkpt lat="43.09642" lon="0.48941">
        <ele>566.37</ele>
        <time>2020-09-01T07:45:11.000Z</time>
      </trkpt>
      <trkpt lat="43.09647" lon="0.48923">
        <ele>566.47</ele>
        <time>2020-09-01T07:45:16.000Z</time>
      </trkpt>
      <trkpt lat="43.09652" lon="0.48906">
        <ele>566.57</ele>
        <time>2020-09-01T07:45:21.000Z</time>
      </trkpt>
      <trkpt lat="43.09656" lon="0.48892">
        <ele>566.68</ele>
        <time>2020-09-01T07:45:26.000Z</time>
      </trkpt>
      <trkpt lat="43.09659" lon="0.48876">
        <ele>566.8</ele>
        <time>2020-09-01T07:45:31.000Z</time>
      </trkpt>
      <trkpt lat="43.09664" lon="0.48859">
        <ele>566.93</ele>
        <time>2020-09-01T07:45:36.000Z</time>
      </trkpt>
      <trkpt lat="43.0967" lon="0.48843">
        <ele>567.06</ele>
        <time>2020-09-01T07:45:41.000Z</time>
      </trkpt>
      <trkpt lat="43.09676" lon="0.48827">
        <ele>567.18</ele>
        <time>2020-09-01T07:45:46.000Z</time>
      </trkpt>
      <trkpt lat="43.09681" lon="0.48812">
        <ele>567.31</ele>
        <time>2020-09-01T07:45:51.000Z</time>
      </trkpt>
      <trkpt lat="43.09686" lon="0.48797">
        <ele>567.43</ele>
        <time>2020-09-01T07:45:56.000Z</time>
      </trkpt>
      <trkpt lat="43.0969" lon="0.48779">
        <ele>567.54</ele>
        <time>2020-09-01T07:46:01.000Z</time>
      </trkpt>
      <trkpt lat="43.09696" lon="0.48759">
        <ele>567.64</ele>
        <time>2020-09-01T07:46:06.000Z</time>
      </trkpt>
      <trkpt lat="43.09702" lon="0.48737">
        <ele>567.74</ele>
        <time>2020-09-01T07:46:11.000Z</time>
      </trkpt>
      <trkpt lat="43.0971" lon="0.48712">
        <ele>568</ele>
        <time>2020-09-01T07:46:16.000Z</time>
      </trkpt>
      <trkpt lat="43.09718" lon="0.48688">
        <ele>568.43</ele>
        <time>2020-09-01T07:46:21.000Z</time>
      </trkpt>
      <trkpt lat="43.09726" lon="0.48659">
        <ele>568.8</ele>
        <time>2020-09-01T07:46:26.000Z</time>
      </trkpt>
      <trkpt lat="43.09733" lon="0.48631">
        <ele>568.99</ele>
        <time>2020-09-01T07:46:31.000Z</time>
      </trkpt>
      <trkpt lat="43.0974" lon="0.48605">
        <ele>569.07</ele>
        <time>2020-09-01T07:46:36.000Z</time>
      </trkpt>
      <trkpt lat="43.09749" lon="0.48579">
        <ele>569.12</ele>
        <time>2020-09-01T07:46:41.000Z</time>
      </trkpt>
      <trkpt lat="43.09757" lon="0.48553">
        <ele>569.17</ele>
        <time>2020-09-01T07:46:46.000Z</time>
      </trkpt>
      <trkpt lat="43.09763" lon="0.48527">
        <ele>569.2</ele>
        <time>2020-09-01T07:46:51.000Z</time>
      </trkpt>
      <trkpt lat="43.0977" lon="0.48504">
        <ele>569.22</ele>
        <time>2020-09-01T07:46:56.000Z</time>
      </trkpt>
      <trkpt lat="43.09773" lon="0.4848">
        <ele>569.24</ele>
        <time>2020-09-01T07:47:01.000Z</time>
      </trkpt>
      <trkpt lat="43.09764" lon="0.4846">
        <ele>569.37</ele>
        <time>2020-09-01T07:47:06.000Z</time>
      </trkpt>
      <trkpt lat="43.09744" lon="0.48453">
        <ele>569.41</ele>
        <time>2020-09-01T07:47:11.000Z</time>
      </trkpt>
      <trkpt lat="43.09728" lon="0.48451">
        <ele>569.45</ele>
        <time>2020-09-01T07:47:16.000Z</time>
      </trkpt>
      <trkpt lat="43.09719" lon="0.48449">
        <ele>569.49</ele>
        <time>2020-09-01T07:47:45.000Z</time>
      </trkpt>
      <trkpt lat="43.0971" lon="0.48446">
        <ele>569.52</ele>
        <time>2020-09-01T07:47:54.000Z</time>
      </trkpt>
      <trkpt lat="43.09693" lon="0.48445">
        <ele>569.55</ele>
        <time>2020-09-01T07:47:59.000Z</time>
      </trkpt>
      <trkpt lat="43.09681" lon="0.48445">
        <ele>569.58</ele>
        <time>2020-09-01T07:48:04.000Z</time>
      </trkpt>
      <trkpt lat="43.09667" lon="0.48443">
        <ele>569.61</ele>
        <time>2020-09-01T07:48:09.000Z</time>
      </trkpt>
      <trkpt lat="43.09653" lon="0.4844">
        <ele>569.64</ele>
        <time>2020-09-01T07:48:14.000Z</time>
      </trkpt>
      <trkpt lat="43.0964" lon="0.48438">
        <ele>569.67</ele>
        <time>2020-09-01T07:48:19.000Z</time>
      </trkpt>
      <trkpt lat="43.0963" lon="0.48432">
        <ele>569.7</ele>
        <time>2020-09-01T07:48:24.000Z</time>
      </trkpt>
      <trkpt lat="43.09629" lon="0.48419">
        <ele>569.75</ele>
        <time>2020-09-01T07:48:30.000Z</time>
      </trkpt>
      <trkpt lat="43.09626" lon="0.484">
        <ele>569.8</ele>
        <time>2020-09-01T07:48:35.000Z</time>
      </trkpt>
      <trkpt lat="43.09623" lon="0.4838">
        <ele>569.86</ele>
        <time>2020-09-01T07:48:40.000Z</time>
      </trkpt>
      <trkpt lat="43.09626" lon="0.48367">
        <ele>569.93</ele>
        <time>2020-09-01T07:48:46.000Z</time>
      </trkpt>
      <trkpt lat="43.09635" lon="0.48357">
        <ele>569.99</ele>
        <time>2020-09-01T07:48:51.000Z</time>
      </trkpt>
      <trkpt lat="43.09647" lon="0.48341">
        <ele>570.05</ele>
        <time>2020-09-01T07:48:56.000Z</time>
      </trkpt>
      <trkpt lat="43.09659" lon="0.48322">
        <ele>570.12</ele>
        <time>2020-09-01T07:49:01.000Z</time>
      </trkpt>
      <trkpt lat="43.0967" lon="0.48301">
        <ele>570.29</ele>
        <time>2020-09-01T07:49:06.000Z</time>
      </trkpt>
      <trkpt lat="43.09678" lon="0.48276">
        <ele>570.75</ele>
        <time>2020-09-01T07:49:11.000Z</time>
      </trkpt>
      <trkpt lat="43.09685" lon="0.48248">
        <ele>570.94</ele>
        <time>2020-09-01T07:49:16.000Z</time>
      </trkpt>
      <trkpt lat="43.09692" lon="0.48219">
        <ele>571.02</ele>
        <time>2020-09-01T07:49:21.000Z</time>
      </trkpt>
      <trkpt lat="43.09697" lon="0.48188">
        <ele>571.03</ele>
        <time>2020-09-01T07:49:26.000Z</time>
      </trkpt>
      <trkpt lat="43.09703" lon="0.48159">
        <ele>571.03</ele>
        <time>2020-09-01T07:49:31.000Z</time>
      </trkpt>
      <trkpt lat="43.09708" lon="0.4813">
        <ele>571.03</ele>
        <time>2020-09-01T07:49:36.000Z</time>
      </trkpt>
      <trkpt lat="43.09715" lon="0.48102">
        <ele>571.05</ele>
        <time>2020-09-01T07:49:41.000Z</time>
      </trkpt>
      <trkpt lat="43.0972" lon="0.48072">
        <ele>571.06</ele>
        <time>2020-09-01T07:49:46.000Z</time>
      </trkpt>
      <trkpt lat="43.09726" lon="0.48043">
        <ele>571.08</ele>
        <time>2020-09-01T07:49:51.000Z</time>
      </trkpt>
      <trkpt lat="43.09731" lon="0.48013">
        <ele>571.11</ele>
        <time>2020-09-01T07:49:56.000Z</time>
      </trkpt>
      <trkpt lat="43.09737" lon="0.47985">
        <ele>571.15</ele>
        <time>2020-09-01T07:50:01.000Z</time>
      </trkpt>
      <trkpt lat="43.09742" lon="0.47956">
        <ele>571.16</ele>
        <time>2020-09-01T07:50:06.000Z</time>
      </trkpt>
      <trkpt lat="43.09746" lon="0.47928">
        <ele>571.19</ele>
        <time>2020-09-01T07:50:11.000Z</time>
      </trkpt>
      <trkpt lat="43.09752" lon="0.47901">
        <ele>571.22</ele>
        <time>2020-09-01T07:50:16.000Z</time>
      </trkpt>
      <trkpt lat="43.09757" lon="0.47875">
        <ele>571.25</ele>
        <time>2020-09-01T07:50:21.000Z</time>
      </trkpt>
      <trkpt lat="43.09762" lon="0.47847">
        <ele>571.3</ele>
        <time>2020-09-01T07:50:26.000Z</time>
      </trkpt>
      <trkpt lat="43.09767" lon="0.4782">
        <ele>571.39</ele>
        <time>2020-09-01T07:50:31.000Z</time>
      </trkpt>
      <trkpt lat="43.09772" lon="0.47792">
        <ele>571.47</ele>
        <time>2020-09-01T07:50:36.000Z</time>
      </trkpt>
      <trkpt lat="43.09777" lon="0.47766">
        <ele>571.53</ele>
        <time>2020-09-01T07:50:41.000Z</time>
      </trkpt>
      <trkpt lat="43.09782" lon="0.47737">
        <ele>571.53</ele>
        <time>2020-09-01T07:50:46.000Z</time>
      </trkpt>
      <trkpt lat="43.09787" lon="0.47708">
        <ele>571.52</ele>
        <time>2020-09-01T07:50:51.000Z</time>
      </trkpt>
      <trkpt lat="43.09791" lon="0.4768">
        <ele>571.48</ele>
        <time>2020-09-01T07:50:56.000Z</time>
      </trkpt>
      <trkpt lat="43.09795" lon="0.47652">
        <ele>571.39</ele>
        <time>2020-09-01T07:51:01.000Z</time>
      </trkpt>
      <trkpt lat="43.09798" lon="0.47626">
        <ele>571.31</ele>
        <time>2020-09-01T07:51:06.000Z</time>
      </trkpt>
      <trkpt lat="43.09803" lon="0.47599">
        <ele>571.19</ele>
        <time>2020-09-01T07:51:11.000Z</time>
      </trkpt>
      <trkpt lat="43.09808" lon="0.47571">
        <ele>571.1</ele>
        <time>2020-09-01T07:51:16.000Z</time>
      </trkpt>
      <trkpt lat="43.09812" lon="0.47544">
        <ele>571.05</ele>
        <time>2020-09-01T07:51:21.000Z</time>
      </trkpt>
      <trkpt lat="43.09816" lon="0.47519">
        <ele>571.05</ele>
        <time>2020-09-01T07:51:26.000Z</time>
      </trkpt>
      <trkpt lat="43.09819" lon="0.47496">
        <ele>571.05</ele>
        <time>2020-09-01T07:51:31.000Z</time>
      </trkpt>
      <trkpt lat="43.09823" lon="0.47473">
        <ele>571.05</ele>
        <time>2020-09-01T07:51:36.000Z</time>
      </trkpt>
      <trkpt lat="43.09825" lon="0.47449">
        <ele>571.06</ele>
        <time>2020-09-01T07:51:41.000Z</time>
      </trkpt>
      <trkpt lat="43.09827" lon="0.47427">
        <ele>571.06</ele>
        <time>2020-09-01T07:51:46.000Z</time>
      </trkpt>
      <trkpt lat="43.09831" lon="0.47405">
        <ele>571.07</ele>
        <time>2020-09-01T07:51:51.000Z</time>
      </trkpt>
      <trkpt lat="43.09833" lon="0.47383">
        <ele>571.08</ele>
        <time>2020-09-01T07:51:56.000Z</time>
      </trkpt>
      <trkpt lat="43.09836" lon="0.47362">
        <ele>571.09</ele>
        <time>2020-09-01T07:52:01.000Z</time>
      </trkpt>
      <trkpt lat="43.09839" lon="0.47341">
        <ele>571.11</ele>
        <time>2020-09-01T07:52:06.000Z</time>
      </trkpt>
      <trkpt lat="43.09842" lon="0.47319">
        <ele>571.13</ele>
        <time>2020-09-01T07:52:11.000Z</time>
      </trkpt>
      <trkpt lat="43.09845" lon="0.47298">
        <ele>571.15</ele>
        <time>2020-09-01T07:52:16.000Z</time>
      </trkpt>
      <trkpt lat="43.09847" lon="0.47277">
        <ele>571.18</ele>
        <time>2020-09-01T07:52:21.000Z</time>
      </trkpt>
      <trkpt lat="43.09851" lon="0.47256">
        <ele>571.21</ele>
        <time>2020-09-01T07:52:26.000Z</time>
      </trkpt>
      <trkpt lat="43.09855" lon="0.47236">
        <ele>571.25</ele>
        <time>2020-09-01T07:52:31.000Z</time>
      </trkpt>
      <trkpt lat="43.09859" lon="0.47215">
        <ele>571.29</ele>
        <time>2020-09-01T07:52:36.000Z</time>
      </trkpt>
      <trkpt lat="43.09863" lon="0.47194">
        <ele>571.34</ele>
        <time>2020-09-01T07:52:41.000Z</time>
      </trkpt>
      <trkpt lat="43.09867" lon="0.47175">
        <ele>571.4</ele>
        <time>2020-09-01T07:52:46.000Z</time>
      </trkpt>
      <trkpt lat="43.0987" lon="0.47153">
        <ele>571.46</ele>
        <time>2020-09-01T07:52:51.000Z</time>
      </trkpt>
      <trkpt lat="43.09873" lon="0.47131">
        <ele>571.52</ele>
        <time>2020-09-01T07:52:56.000Z</time>
      </trkpt>
      <trkpt lat="43.09877" lon="0.47107">
        <ele>571.58</ele>
        <time>2020-09-01T07:53:01.000Z</time>
      </trkpt>
      <trkpt lat="43.0988" lon="0.47083">
        <ele>571.64</ele>
        <time>2020-09-01T07:53:06.000Z</time>
      </trkpt>
      <trkpt lat="43.09881" lon="0.4706">
        <ele>571.7</ele>
        <time>2020-09-01T07:53:11.000Z</time>
      </trkpt>
      <trkpt lat="43.09884" lon="0.47035">
        <ele>571.76</ele>
        <time>2020-09-01T07:53:16.000Z</time>
      </trkpt>
      <trkpt lat="43.09886" lon="0.47011">
        <ele>571.81</ele>
        <time>2020-09-01T07:53:21.000Z</time>
      </trkpt>
      <trkpt lat="43.09888" lon="0.46984">
        <ele>571.92</ele>
        <time>2020-09-01T07:53:26.000Z</time>
      </trkpt>
      <trkpt lat="43.09892" lon="0.46956">
        <ele>572.12</ele>
        <time>2020-09-01T07:53:31.000Z</time>
      </trkpt>
      <trkpt lat="43.09896" lon="0.46931">
        <ele>572.18</ele>
        <time>2020-09-01T07:53:36.000Z</time>
      </trkpt>
      <trkpt lat="43.09899" lon="0.46905">
        <ele>572.26</ele>
        <time>2020-09-01T07:53:41.000Z</time>
      </trkpt>
      <trkpt lat="43.09903" lon="0.4688">
        <ele>572.27</ele>
        <time>2020-09-01T07:53:46.000Z</time>
      </trkpt>
      <trkpt lat="43.09906" lon="0.46856">
        <ele>572.33</ele>
        <time>2020-09-01T07:53:51.000Z</time>
      </trkpt>
      <trkpt lat="43.09908" lon="0.46832">
        <ele>572.35</ele>
        <time>2020-09-01T07:53:56.000Z</time>
      </trkpt>
      <trkpt lat="43.09912" lon="0.46807">
        <ele>572.36</ele>
        <time>2020-09-01T07:54:01.000Z</time>
      </trkpt>
      <trkpt lat="43.09914" lon="0.46781">
        <ele>572.42</ele>
        <time>2020-09-01T07:54:06.000Z</time>
      </trkpt>
      <trkpt lat="43.09916" lon="0.46754">
        <ele>572.46</ele>
        <time>2020-09-01T07:54:11.000Z</time>
      </trkpt>
      <trkpt lat="43.09919" lon="0.46727">
        <ele>572.47</ele>
        <time>2020-09-01T07:54:15.999Z</time>
      </trkpt>
      <trkpt lat="43.09921" lon="0.46703">
        <ele>572.47</ele>
        <time>2020-09-01T07:54:20.999Z</time>
      </trkpt>
      <trkpt lat="43.09924" lon="0.46681">
        <ele>572.47</ele>
        <time>2020-09-01T07:54:25.999Z</time>
      </trkpt>
      <trkpt lat="43.09926" lon="0.46658">
        <ele>572.47</ele>
        <time>2020-09-01T07:54:30.999Z</time>
      </trkpt>
      <trkpt lat="43.0993" lon="0.46632">
        <ele>572.45</ele>
        <time>2020-09-01T07:54:35.999Z</time>
      </trkpt>
      <trkpt lat="43.09933" lon="0.46607">
        <ele>572.43</ele>
        <time>2020-09-01T07:54:40.999Z</time>
      </trkpt>
      <trkpt lat="43.09936" lon="0.46582">
        <ele>572.42</ele>
        <time>2020-09-01T07:54:45.999Z</time>
      </trkpt>
      <trkpt lat="43.0994" lon="0.46557">
        <ele>572.41</ele>
        <time>2020-09-01T07:54:50.999Z</time>
      </trkpt>
      <trkpt lat="43.09941" lon="0.46533">
        <ele>572.41</ele>
        <time>2020-09-01T07:54:55.999Z</time>
      </trkpt>
      <trkpt lat="43.09945" lon="0.46509">
        <ele>572.42</ele>
        <time>2020-09-01T07:55:00.999Z</time>
      </trkpt>
      <trkpt lat="43.09948" lon="0.46484">
        <ele>572.43</ele>
        <time>2020-09-01T07:55:05.999Z</time>
      </trkpt>
      <trkpt lat="43.09949" lon="0.4646">
        <ele>572.45</ele>
        <time>2020-09-01T07:55:10.999Z</time>
      </trkpt>
      <trkpt lat="43.0995" lon="0.46435">
        <ele>572.47</ele>
        <time>2020-09-01T07:55:15.999Z</time>
      </trkpt>
      <trkpt lat="43.09951" lon="0.46412">
        <ele>572.49</ele>
        <time>2020-09-01T07:55:20.999Z</time>
      </trkpt>
      <trkpt lat="43.09952" lon="0.46387">
        <ele>572.51</ele>
        <time>2020-09-01T07:55:25.999Z</time>
      </trkpt>
      <trkpt lat="43.09953" lon="0.46362">
        <ele>572.53</ele>
        <time>2020-09-01T07:55:30.999Z</time>
      </trkpt>
      <trkpt lat="43.09955" lon="0.46338">
        <ele>572.55</ele>
        <time>2020-09-01T07:55:35.999Z</time>
      </trkpt>
      <trkpt lat="43.09957" lon="0.46312">
        <ele>572.58</ele>
        <time>2020-09-01T07:55:40.999Z</time>
      </trkpt>
      <trkpt lat="43.09962" lon="0.46286">
        <ele>572.74</ele>
        <time>2020-09-01T07:55:45.999Z</time>
      </trkpt>
      <trkpt lat="43.09966" lon="0.46259">
        <ele>572.82</ele>
        <time>2020-09-01T07:55:50.999Z</time>
      </trkpt>
      <trkpt lat="43.0997" lon="0.46231">
        <ele>572.86</ele>
        <time>2020-09-01T07:55:55.999Z</time>
      </trkpt>
      <trkpt lat="43.09974" lon="0.46202">
        <ele>572.86</ele>
        <time>2020-09-01T07:56:00.999Z</time>
      </trkpt>
      <trkpt lat="43.09978" lon="0.46174">
        <ele>572.88</ele>
        <time>2020-09-01T07:56:05.999Z</time>
      </trkpt>
      <trkpt lat="43.09981" lon="0.46147">
        <ele>572.88</ele>
        <time>2020-09-01T07:56:10.999Z</time>
      </trkpt>
      <trkpt lat="43.09986" lon="0.46118">
        <ele>572.88</ele>
        <time>2020-09-01T07:56:15.999Z</time>
      </trkpt>
      <trkpt lat="43.0999" lon="0.4609">
        <ele>572.86</ele>
        <time>2020-09-01T07:56:20.999Z</time>
      </trkpt>
      <trkpt lat="43.09993" lon="0.46061">
        <ele>572.85</ele>
        <time>2020-09-01T07:56:25.999Z</time>
      </trkpt>
      <trkpt lat="43.09999" lon="0.46031">
        <ele>572.86</ele>
        <time>2020-09-01T07:56:30.999Z</time>
      </trkpt>
      <trkpt lat="43.10004" lon="0.46001">
        <ele>572.88</ele>
        <time>2020-09-01T07:56:35.999Z</time>
      </trkpt>
      <trkpt lat="43.10008" lon="0.45972">
        <ele>572.89</ele>
        <time>2020-09-01T07:56:40.999Z</time>
      </trkpt>
      <trkpt lat="43.10011" lon="0.45945">
        <ele>572.87</ele>
        <time>2020-09-01T07:56:45.999Z</time>
      </trkpt>
      <trkpt lat="43.10015" lon="0.4592">
        <ele>572.86</ele>
        <time>2020-09-01T07:56:50.999Z</time>
      </trkpt>
      <trkpt lat="43.10018" lon="0.45897">
        <ele>572.85</ele>
        <time>2020-09-01T07:56:55.999Z</time>
      </trkpt>
      <trkpt lat="43.10021" lon="0.45877">
        <ele>572.85</ele>
        <time>2020-09-01T07:57:00.999Z</time>
      </trkpt>
      <trkpt lat="43.10027" lon="0.45858">
        <ele>572.84</ele>
        <time>2020-09-01T07:57:05.999Z</time>
      </trkpt>
      <trkpt lat="43.10031" lon="0.45835">
        <ele>572.84</ele>
        <time>2020-09-01T07:57:10.999Z</time>
      </trkpt>
      <trkpt lat="43.10035" lon="0.45814">
        <ele>572.84</ele>
        <time>2020-09-01T07:57:15.999Z</time>
      </trkpt>
      <trkpt lat="43.10039" lon="0.45794">
        <ele>572.85</ele>
        <time>2020-09-01T07:57:20.999Z</time>
      </trkpt>
      <trkpt lat="43.10045" lon="0.45773">
        <ele>572.86</ele>
        <time>2020-09-01T07:57:25.999Z</time>
      </trkpt>
      <trkpt lat="43.1005" lon="0.45751">
        <ele>572.87</ele>
        <time>2020-09-01T07:57:30.999Z</time>
      </trkpt>
      <trkpt lat="43.10056" lon="0.45727">
        <ele>572.89</ele>
        <time>2020-09-01T07:57:35.999Z</time>
      </trkpt>
      <trkpt lat="43.10061" lon="0.45704">
        <ele>572.91</ele>
        <time>2020-09-01T07:57:40.999Z</time>
      </trkpt>
      <trkpt lat="43.10068" lon="0.45681">
        <ele>572.93</ele>
        <time>2020-09-01T07:57:45.999Z</time>
      </trkpt>
      <trkpt lat="43.10073" lon="0.45657">
        <ele>572.95</ele>
        <time>2020-09-01T07:57:50.999Z</time>
      </trkpt>
      <trkpt lat="43.10079" lon="0.45633">
        <ele>573.03</ele>
        <time>2020-09-01T07:57:55.999Z</time>
      </trkpt>
      <trkpt lat="43.10084" lon="0.45609">
        <ele>573.09</ele>
        <time>2020-09-01T07:58:00.999Z</time>
      </trkpt>
      <trkpt lat="43.10089" lon="0.45585">
        <ele>573.11</ele>
        <time>2020-09-01T07:58:05.999Z</time>
      </trkpt>
      <trkpt lat="43.10095" lon="0.45562">
        <ele>573.13</ele>
        <time>2020-09-01T07:58:10.999Z</time>
      </trkpt>
      <trkpt lat="43.10101" lon="0.45539">
        <ele>573.14</ele>
        <time>2020-09-01T07:58:15.999Z</time>
      </trkpt>
      <trkpt lat="43.10106" lon="0.45516">
        <ele>573.14</ele>
        <time>2020-09-01T07:58:20.999Z</time>
      </trkpt>
      <trkpt lat="43.10111" lon="0.45494">
        <ele>573.15</ele>
        <time>2020-09-01T07:58:25.999Z</time>
      </trkpt>
      <trkpt lat="43.10114" lon="0.45471">
        <ele>573.16</ele>
        <time>2020-09-01T07:58:30.999Z</time>
      </trkpt>
      <trkpt lat="43.10117" lon="0.45447">
        <ele>573.16</ele>
        <time>2020-09-01T07:58:35.999Z</time>
      </trkpt>
      <trkpt lat="43.10121" lon="0.45424">
        <ele>573.16</ele>
        <time>2020-09-01T07:58:40.999Z</time>
      </trkpt>
      <trkpt lat="43.10124" lon="0.45401">
        <ele>573.16</ele>
        <time>2020-09-01T07:58:45.999Z</time>
      </trkpt>
      <trkpt lat="43.10127" lon="0.45379">
        <ele>573.16</ele>
        <time>2020-09-01T07:58:50.999Z</time>
      </trkpt>
      <trkpt lat="43.1013" lon="0.45357">
        <ele>573.15</ele>
        <time>2020-09-01T07:58:55.999Z</time>
      </trkpt>
      <trkpt lat="43.10131" lon="0.45335">
        <ele>573.14</ele>
        <time>2020-09-01T07:59:00.999Z</time>
      </trkpt>
      <trkpt lat="43.10132" lon="0.45312">
        <ele>573.13</ele>
        <time>2020-09-01T07:59:05.999Z</time>
      </trkpt>
      <trkpt lat="43.10133" lon="0.45289">
        <ele>573.12</ele>
        <time>2020-09-01T07:59:10.999Z</time>
      </trkpt>
      <trkpt lat="43.10133" lon="0.45266">
        <ele>573.1</ele>
        <time>2020-09-01T07:59:15.999Z</time>
      </trkpt>
      <trkpt lat="43.10135" lon="0.45241">
        <ele>573.09</ele>
        <time>2020-09-01T07:59:20.999Z</time>
      </trkpt>
      <trkpt lat="43.10135" lon="0.45217">
        <ele>573.07</ele>
        <time>2020-09-01T07:59:25.999Z</time>
      </trkpt>
      <trkpt lat="43.10137" lon="0.45192">
        <ele>573.06</ele>
        <time>2020-09-01T07:59:30.999Z</time>
      </trkpt>
      <trkpt lat="43.10138" lon="0.45167">
        <ele>573.04</ele>
        <time>2020-09-01T07:59:35.999Z</time>
      </trkpt>
      <trkpt lat="43.10141" lon="0.45143">
        <ele>573.02</ele>
        <time>2020-09-01T07:59:40.999Z</time>
      </trkpt>
      <trkpt lat="43.10142" lon="0.45119">
        <ele>573.01</ele>
        <time>2020-09-01T07:59:45.999Z</time>
      </trkpt>
      <trkpt lat="43.10145" lon="0.45095">
        <ele>573</ele>
        <time>2020-09-01T07:59:50.999Z</time>
      </trkpt>
      <trkpt lat="43.10145" lon="0.45069">
        <ele>572.98</ele>
        <time>2020-09-01T07:59:55.999Z</time>
      </trkpt>
      <trkpt lat="43.10146" lon="0.45046">
        <ele>572.98</ele>
        <time>2020-09-01T08:00:00.999Z</time>
      </trkpt>
      <trkpt lat="43.10148" lon="0.45022">
        <ele>572.97</ele>
        <time>2020-09-01T08:00:05.999Z</time>
      </trkpt>
      <trkpt lat="43.1015" lon="0.44998">
        <ele>572.96</ele>
        <time>2020-09-01T08:00:10.999Z</time>
      </trkpt>
      <trkpt lat="43.10151" lon="0.44974">
        <ele>572.96</ele>
        <time>2020-09-01T08:00:15.999Z</time>
      </trkpt>
      <trkpt lat="43.10152" lon="0.44951">
        <ele>572.96</ele>
        <time>2020-09-01T08:00:20.999Z</time>
      </trkpt>
      <trkpt lat="43.10154" lon="0.44928">
        <ele>572.96</ele>
        <time>2020-09-01T08:00:25.999Z</time>
      </trkpt>
      <trkpt lat="43.10155" lon="0.44903">
        <ele>572.97</ele>
        <time>2020-09-01T08:00:30.999Z</time>
      </trkpt>
      <trkpt lat="43.10156" lon="0.44879">
        <ele>572.98</ele>
        <time>2020-09-01T08:00:35.999Z</time>
      </trkpt>
      <trkpt lat="43.10158" lon="0.44856">
        <ele>572.98</ele>
        <time>2020-09-01T08:00:40.999Z</time>
      </trkpt>
      <trkpt lat="43.10159" lon="0.44833">
        <ele>573</ele>
        <time>2020-09-01T08:00:45.999Z</time>
      </trkpt>
      <trkpt lat="43.1016" lon="0.44809">
        <ele>573.01</ele>
        <time>2020-09-01T08:00:50.999Z</time>
      </trkpt>
      <trkpt lat="43.10161" lon="0.44786">
        <ele>573.03</ele>
        <time>2020-09-01T08:00:55.999Z</time>
      </trkpt>
      <trkpt lat="43.10163" lon="0.44763">
        <ele>573.05</ele>
        <time>2020-09-01T08:01:00.999Z</time>
      </trkpt>
      <trkpt lat="43.10165" lon="0.4474">
        <ele>573.07</ele>
        <time>2020-09-01T08:01:05.999Z</time>
      </trkpt>
      <trkpt lat="43.10166" lon="0.44714">
        <ele>573.09</ele>
        <time>2020-09-01T08:01:10.999Z</time>
      </trkpt>
      <trkpt lat="43.10165" lon="0.4469">
        <ele>573.1</ele>
        <time>2020-09-01T08:01:15.999Z</time>
      </trkpt>
      <trkpt lat="43.10167" lon="0.44667">
        <ele>573.12</ele>
        <time>2020-09-01T08:01:20.999Z</time>
      </trkpt>
      <trkpt lat="43.10169" lon="0.44646">
        <ele>573.14</ele>
        <time>2020-09-01T08:01:25.999Z</time>
      </trkpt>
      <trkpt lat="43.1017" lon="0.44623">
        <ele>573.16</ele>
        <time>2020-09-01T08:01:30.999Z</time>
      </trkpt>
      <trkpt lat="43.10171" lon="0.44599">
        <ele>573.18</ele>
        <time>2020-09-01T08:01:35.999Z</time>
      </trkpt>
      <trkpt lat="43.10172" lon="0.44576">
        <ele>573.19</ele>
        <time>2020-09-01T08:01:40.999Z</time>
      </trkpt>
      <trkpt lat="43.10172" lon="0.44554">
        <ele>573.21</ele>
        <time>2020-09-01T08:01:45.999Z</time>
      </trkpt>
      <trkpt lat="43.10172" lon="0.44533">
        <ele>573.24</ele>
        <time>2020-09-01T08:01:50.999Z</time>
      </trkpt>
      <trkpt lat="43.10172" lon="0.44511">
        <ele>573.28</ele>
        <time>2020-09-01T08:01:55.999Z</time>
      </trkpt>
      <trkpt lat="43.10172" lon="0.44493">
        <ele>573.32</ele>
        <time>2020-09-01T08:02:00.999Z</time>
      </trkpt>
      <trkpt lat="43.10173" lon="0.44471">
        <ele>573.37</ele>
        <time>2020-09-01T08:02:05.999Z</time>
      </trkpt>
      <trkpt lat="43.10173" lon="0.4445">
        <ele>573.43</ele>
        <time>2020-09-01T08:02:10.999Z</time>
      </trkpt>
      <trkpt lat="43.10174" lon="0.44429">
        <ele>573.49</ele>
        <time>2020-09-01T08:02:15.999Z</time>
      </trkpt>
      <trkpt lat="43.10174" lon="0.44407">
        <ele>573.57</ele>
        <time>2020-09-01T08:02:20.999Z</time>
      </trkpt>
      <trkpt lat="43.10174" lon="0.44384">
        <ele>573.65</ele>
        <time>2020-09-01T08:02:25.999Z</time>
      </trkpt>
      <trkpt lat="43.10174" lon="0.44361">
        <ele>573.73</ele>
        <time>2020-09-01T08:02:30.999Z</time>
      </trkpt>
      <trkpt lat="43.10175" lon="0.44336">
        <ele>573.82</ele>
        <time>2020-09-01T08:02:35.999Z</time>
      </trkpt>
      <trkpt lat="43.10175" lon="0.44314">
        <ele>573.9</ele>
        <time>2020-09-01T08:02:40.999Z</time>
      </trkpt>
      <trkpt lat="43.10174" lon="0.44294">
        <ele>573.98</ele>
        <time>2020-09-01T08:02:45.999Z</time>
      </trkpt>
      <trkpt lat="43.10173" lon="0.4427">
        <ele>574.07</ele>
        <time>2020-09-01T08:02:50.999Z</time>
      </trkpt>
      <trkpt lat="43.10175" lon="0.44247">
        <ele>574.15</ele>
        <time>2020-09-01T08:02:55.999Z</time>
      </trkpt>
      <trkpt lat="43.10175" lon="0.44225">
        <ele>574.24</ele>
        <time>2020-09-01T08:03:00.999Z</time>
      </trkpt>
      <trkpt lat="43.10175" lon="0.44204">
        <ele>574.32</ele>
        <time>2020-09-01T08:03:05.999Z</time>
      </trkpt>
      <trkpt lat="43.10175" lon="0.44184">
        <ele>574.42</ele>
        <time>2020-09-01T08:03:10.999Z</time>
      </trkpt>
      <trkpt lat="43.10177" lon="0.44162">
        <ele>574.52</ele>
        <time>2020-09-01T08:03:15.999Z</time>
      </trkpt>
      <trkpt lat="43.10183" lon="0.44144">
        <ele>574.63</ele>
        <time>2020-09-01T08:03:20.999Z</time>
      </trkpt>
      <trkpt lat="43.10185" lon="0.44125">
        <ele>574.74</ele>
        <time>2020-09-01T08:03:25.999Z</time>
      </trkpt>
      <trkpt lat="43.10187" lon="0.44106">
        <ele>574.85</ele>
        <time>2020-09-01T08:03:30.999Z</time>
      </trkpt>
      <trkpt lat="43.1019" lon="0.44088">
        <ele>574.95</ele>
        <time>2020-09-01T08:03:35.999Z</time>
      </trkpt>
      <trkpt lat="43.10193" lon="0.44071">
        <ele>575.05</ele>
        <time>2020-09-01T08:03:40.999Z</time>
      </trkpt>
      <trkpt lat="43.10197" lon="0.44052">
        <ele>575.14</ele>
        <time>2020-09-01T08:03:45.999Z</time>
      </trkpt>
      <trkpt lat="43.10201" lon="0.44032">
        <ele>575.24</ele>
        <time>2020-09-01T08:03:50.999Z</time>
      </trkpt>
      <trkpt lat="43.10205" lon="0.44013">
        <ele>575.33</ele>
        <time>2020-09-01T08:03:55.999Z</time>
      </trkpt>
      <trkpt lat="43.10208" lon="0.43993">
        <ele>575.42</ele>
        <time>2020-09-01T08:04:00.999Z</time>
      </trkpt>
      <trkpt lat="43.10212" lon="0.43974">
        <ele>575.51</ele>
        <time>2020-09-01T08:04:05.999Z</time>
      </trkpt>
      <trkpt lat="43.10216" lon="0.43956">
        <ele>575.59</ele>
        <time>2020-09-01T08:04:10.999Z</time>
      </trkpt>
      <trkpt lat="43.10219" lon="0.43938">
        <ele>575.69</ele>
        <time>2020-09-01T08:04:15.999Z</time>
      </trkpt>
      <trkpt lat="43.10222" lon="0.43921">
        <ele>575.79</ele>
        <time>2020-09-01T08:04:20.999Z</time>
      </trkpt>
      <trkpt lat="43.10226" lon="0.43901">
        <ele>575.9</ele>
        <time>2020-09-01T08:04:25.999Z</time>
      </trkpt>
      <trkpt lat="43.1023" lon="0.43883">
        <ele>576.01</ele>
        <time>2020-09-01T08:04:30.999Z</time>
      </trkpt>
      <trkpt lat="43.10233" lon="0.43867">
        <ele>576.12</ele>
        <time>2020-09-01T08:04:35.999Z</time>
      </trkpt>
      <trkpt lat="43.10237" lon="0.43849">
        <ele>576.23</ele>
        <time>2020-09-01T08:04:40.999Z</time>
      </trkpt>
      <trkpt lat="43.10239" lon="0.43831">
        <ele>576.36</ele>
        <time>2020-09-01T08:04:45.999Z</time>
      </trkpt>
      <trkpt lat="43.10243" lon="0.43813">
        <ele>576.49</ele>
        <time>2020-09-01T08:04:50.999Z</time>
      </trkpt>
      <trkpt lat="43.10246" lon="0.43798">
        <ele>576.63</ele>
        <time>2020-09-01T08:04:55.999Z</time>
      </trkpt>
      <trkpt lat="43.10249" lon="0.43779">
        <ele>576.76</ele>
        <time>2020-09-01T08:05:00.999Z</time>
      </trkpt>
      <trkpt lat="43.10253" lon="0.43763">
        <ele>576.91</ele>
        <time>2020-09-01T08:05:05.999Z</time>
      </trkpt>
      <trkpt lat="43.10257" lon="0.43748">
        <ele>577.06</ele>
        <time>2020-09-01T08:05:10.999Z</time>
      </trkpt>
      <trkpt lat="43.1026" lon="0.43732">
        <ele>577.22</ele>
        <time>2020-09-01T08:05:15.999Z</time>
      </trkpt>
      <trkpt lat="43.10263" lon="0.43718">
        <ele>577.38</ele>
        <time>2020-09-01T08:05:20.999Z</time>
      </trkpt>
      <trkpt lat="43.10266" lon="0.43704">
        <ele>577.54</ele>
        <time>2020-09-01T08:05:25.999Z</time>
      </trkpt>
      <trkpt lat="43.10266" lon="0.43691">
        <ele>577.7</ele>
        <time>2020-09-01T08:05:30.999Z</time>
      </trkpt>
      <trkpt lat="43.10268" lon="0.43676">
        <ele>577.85</ele>
        <time>2020-09-01T08:05:35.999Z</time>
      </trkpt>
      <trkpt lat="43.10269" lon="0.43661">
        <ele>578</ele>
        <time>2020-09-01T08:05:40.999Z</time>
      </trkpt>
      <trkpt lat="43.10269" lon="0.43647">
        <ele>578.15</ele>
        <time>2020-09-01T08:05:45.999Z</time>
      </trkpt>
      <trkpt lat="43.10271" lon="0.43634">
        <ele>578.29</ele>
        <time>2020-09-01T08:05:50.999Z</time>
      </trkpt>
      <trkpt lat="43.10273" lon="0.43619">
        <ele>578.43</ele>
        <time>2020-09-01T08:05:55.999Z</time>
      </trkpt>
      <trkpt lat="43.10272" lon="0.43601">
        <ele>578.57</ele>
        <time>2020-09-01T08:06:00.999Z</time>
      </trkpt>
      <trkpt lat="43.10273" lon="0.43587">
        <ele>578.76</ele>
        <time>2020-09-01T08:06:06.999Z</time>
      </trkpt>
      <trkpt lat="43.10275" lon="0.43573">
        <ele>578.97</ele>
        <time>2020-09-01T08:06:12.999Z</time>
      </trkpt>
      <trkpt lat="43.10277" lon="0.43555">
        <ele>579.14</ele>
        <time>2020-09-01T08:06:17.999Z</time>
      </trkpt>
      <trkpt lat="43.10277" lon="0.43539">
        <ele>579.31</ele>
        <time>2020-09-01T08:06:22.999Z</time>
      </trkpt>
      <trkpt lat="43.10279" lon="0.43522">
        <ele>579.47</ele>
        <time>2020-09-01T08:06:27.999Z</time>
      </trkpt>
      <trkpt lat="43.10279" lon="0.43508">
        <ele>579.62</ele>
        <time>2020-09-01T08:06:32.999Z</time>
      </trkpt>
      <trkpt lat="43.10281" lon="0.43492">
        <ele>579.77</ele>
        <time>2020-09-01T08:06:37.999Z</time>
      </trkpt>
      <trkpt lat="43.10281" lon="0.43479">
        <ele>579.94</ele>
        <time>2020-09-01T08:06:42.999Z</time>
      </trkpt>
      <trkpt lat="43.10281" lon="0.43462">
        <ele>580.11</ele>
        <time>2020-09-01T08:06:47.999Z</time>
      </trkpt>
      <trkpt lat="43.10282" lon="0.43448">
        <ele>580.29</ele>
        <time>2020-09-01T08:06:52.999Z</time>
      </trkpt>
      <trkpt lat="43.10282" lon="0.43432">
        <ele>580.49</ele>
        <time>2020-09-01T08:06:57.999Z</time>
      </trkpt>
      <trkpt lat="43.10283" lon="0.43414">
        <ele>580.69</ele>
        <time>2020-09-01T08:07:02.999Z</time>
      </trkpt>
      <trkpt lat="43.10285" lon="0.43399">
        <ele>580.89</ele>
        <time>2020-09-01T08:07:07.999Z</time>
      </trkpt>
      <trkpt lat="43.10287" lon="0.43383">
        <ele>581.1</ele>
        <time>2020-09-01T08:07:12.999Z</time>
      </trkpt>
      <trkpt lat="43.10289" lon="0.43368">
        <ele>581.31</ele>
        <time>2020-09-01T08:07:17.999Z</time>
      </trkpt>
      <trkpt lat="43.10289" lon="0.43351">
        <ele>581.52</ele>
        <time>2020-09-01T08:07:22.999Z</time>
      </trkpt>
      <trkpt lat="43.10289" lon="0.43336">
        <ele>581.73</ele>
        <time>2020-09-01T08:07:27.999Z</time>
      </trkpt>
      <trkpt lat="43.10288" lon="0.43322">
        <ele>581.93</ele>
        <time>2020-09-01T08:07:32.999Z</time>
      </trkpt>
      <trkpt lat="43.10288" lon="0.43307">
        <ele>582.14</ele>
        <time>2020-09-01T08:07:37.999Z</time>
      </trkpt>
      <trkpt lat="43.10288" lon="0.43289">
        <ele>582.34</ele>
        <time>2020-09-01T08:07:42.999Z</time>
      </trkpt>
      <trkpt lat="43.10288" lon="0.43274">
        <ele>582.53</ele>
        <time>2020-09-01T08:07:47.999Z</time>
      </trkpt>
      <trkpt lat="43.10288" lon="0.43261">
        <ele>582.67</ele>
        <time>2020-09-01T08:07:52.000Z</time>
      </trkpt>
      <trkpt lat="43.10286" lon="0.43247">
        <ele>582.88</ele>
        <time>2020-09-01T08:07:58.000Z</time>
      </trkpt>
      <trkpt lat="43.10286" lon="0.43232">
        <ele>583.08</ele>
        <time>2020-09-01T08:08:03.000Z</time>
      </trkpt>
      <trkpt lat="43.10287" lon="0.43213">
        <ele>583.27</ele>
        <time>2020-09-01T08:08:08.000Z</time>
      </trkpt>
      <trkpt lat="43.10287" lon="0.43197">
        <ele>583.45</ele>
        <time>2020-09-01T08:08:13.000Z</time>
      </trkpt>
      <trkpt lat="43.10287" lon="0.4318">
        <ele>583.63</ele>
        <time>2020-09-01T08:08:18.000Z</time>
      </trkpt>
      <trkpt lat="43.10287" lon="0.43163">
        <ele>583.8</ele>
        <time>2020-09-01T08:08:23.000Z</time>
      </trkpt>
      <trkpt lat="43.10287" lon="0.43146">
        <ele>583.96</ele>
        <time>2020-09-01T08:08:28.000Z</time>
      </trkpt>
      <trkpt lat="43.10286" lon="0.43132">
        <ele>584.12</ele>
        <time>2020-09-01T08:08:33.000Z</time>
      </trkpt>
      <trkpt lat="43.10286" lon="0.43118">
        <ele>584.31</ele>
        <time>2020-09-01T08:08:39.000Z</time>
      </trkpt>
      <trkpt lat="43.1028" lon="0.43108">
        <ele>589.54</ele>
        <time>2020-09-01T08:15:55.000Z</time>
      </trkpt>
      <trkpt lat="43.10282" lon="0.43095">
        <ele>590.31</ele>
        <time>2020-09-01T08:16:15.000Z</time>
      </trkpt>
      <trkpt lat="43.10283" lon="0.4308">
        <ele>590.65</ele>
        <time>2020-09-01T08:16:20.000Z</time>
      </trkpt>
      <trkpt lat="43.10283" lon="0.43062">
        <ele>590.97</ele>
        <time>2020-09-01T08:16:25.000Z</time>
      </trkpt>
      <trkpt lat="43.10283" lon="0.4304">
        <ele>591.26</ele>
        <time>2020-09-01T08:16:30.000Z</time>
      </trkpt>
      <trkpt lat="43.10284" lon="0.43016">
        <ele>591.53</ele>
        <time>2020-09-01T08:16:35.000Z</time>
      </trkpt>
      <trkpt lat="43.10283" lon="0.42993">
        <ele>591.79</ele>
        <time>2020-09-01T08:16:40.000Z</time>
      </trkpt>
      <trkpt lat="43.10282" lon="0.4297">
        <ele>592.02</ele>
        <time>2020-09-01T08:16:45.000Z</time>
      </trkpt>
      <trkpt lat="43.10282" lon="0.42948">
        <ele>592.25</ele>
        <time>2020-09-01T08:16:50.000Z</time>
      </trkpt>
      <trkpt lat="43.10279" lon="0.42927">
        <ele>592.46</ele>
        <time>2020-09-01T08:16:55.000Z</time>
      </trkpt>
      <trkpt lat="43.10277" lon="0.42905">
        <ele>592.67</ele>
        <time>2020-09-01T08:17:00.000Z</time>
      </trkpt>
      <trkpt lat="43.10274" lon="0.42886">
        <ele>592.87</ele>
        <time>2020-09-01T08:17:05.000Z</time>
      </trkpt>
      <trkpt lat="43.10274" lon="0.42864">
        <ele>593.06</ele>
        <time>2020-09-01T08:17:10.000Z</time>
      </trkpt>
      <trkpt lat="43.10272" lon="0.42839">
        <ele>593.24</ele>
        <time>2020-09-01T08:17:15.000Z</time>
      </trkpt>
      <trkpt lat="43.10272" lon="0.42813">
        <ele>593.4</ele>
        <time>2020-09-01T08:17:20.000Z</time>
      </trkpt>
      <trkpt lat="43.1027" lon="0.42785">
        <ele>593.55</ele>
        <time>2020-09-01T08:17:25.000Z</time>
      </trkpt>
      <trkpt lat="43.10269" lon="0.42759">
        <ele>593.71</ele>
        <time>2020-09-01T08:17:30.000Z</time>
      </trkpt>
      <trkpt lat="43.10264" lon="0.42735">
        <ele>593.87</ele>
        <time>2020-09-01T08:17:35.000Z</time>
      </trkpt>
      <trkpt lat="43.1026" lon="0.42709">
        <ele>594.03</ele>
        <time>2020-09-01T08:17:40.000Z</time>
      </trkpt>
      <trkpt lat="43.10257" lon="0.42688">
        <ele>594.19</ele>
        <time>2020-09-01T08:17:45.000Z</time>
      </trkpt>
      <trkpt lat="43.10253" lon="0.42663">
        <ele>594.6</ele>
        <time>2020-09-01T08:17:50.000Z</time>
      </trkpt>
      <trkpt lat="43.10248" lon="0.42634">
        <ele>594.95</ele>
        <time>2020-09-01T08:17:55.000Z</time>
      </trkpt>
      <trkpt lat="43.10244" lon="0.42607">
        <ele>595.22</ele>
        <time>2020-09-01T08:18:00.000Z</time>
      </trkpt>
      <trkpt lat="43.10239" lon="0.42583">
        <ele>595.31</ele>
        <time>2020-09-01T08:18:05.000Z</time>
      </trkpt>
      <trkpt lat="43.10237" lon="0.42558">
        <ele>595.66</ele>
        <time>2020-09-01T08:18:10.000Z</time>
      </trkpt>
      <trkpt lat="43.10234" lon="0.42534">
        <ele>595.72</ele>
        <time>2020-09-01T08:18:15.000Z</time>
      </trkpt>
      <trkpt lat="43.10232" lon="0.42511">
        <ele>595.78</ele>
        <time>2020-09-01T08:18:20.000Z</time>
      </trkpt>
      <trkpt lat="43.10229" lon="0.42488">
        <ele>595.84</ele>
        <time>2020-09-01T08:18:25.000Z</time>
      </trkpt>
      <trkpt lat="43.10226" lon="0.42468">
        <ele>595.9</ele>
        <time>2020-09-01T08:18:30.000Z</time>
      </trkpt>
      <trkpt lat="43.10224" lon="0.42445">
        <ele>595.95</ele>
        <time>2020-09-01T08:18:35.000Z</time>
      </trkpt>
      <trkpt lat="43.10221" lon="0.42421">
        <ele>596.01</ele>
        <time>2020-09-01T08:18:40.000Z</time>
      </trkpt>
      <trkpt lat="43.10219" lon="0.424">
        <ele>596.07</ele>
        <time>2020-09-01T08:18:45.000Z</time>
      </trkpt>
      <trkpt lat="43.10215" lon="0.42378">
        <ele>596.13</ele>
        <time>2020-09-01T08:18:50.000Z</time>
      </trkpt>
      <trkpt lat="43.10211" lon="0.42355">
        <ele>596.18</ele>
        <time>2020-09-01T08:18:55.000Z</time>
      </trkpt>
      <trkpt lat="43.10208" lon="0.42334">
        <ele>596.23</ele>
        <time>2020-09-01T08:19:00.000Z</time>
      </trkpt>
      <trkpt lat="43.10204" lon="0.42314">
        <ele>596.29</ele>
        <time>2020-09-01T08:19:05.000Z</time>
      </trkpt>
      <trkpt lat="43.10202" lon="0.42291">
        <ele>596.34</ele>
        <time>2020-09-01T08:19:10.000Z</time>
      </trkpt>
      <trkpt lat="43.10199" lon="0.42268">
        <ele>596.42</ele>
        <time>2020-09-01T08:19:15.000Z</time>
      </trkpt>
      <trkpt lat="43.10197" lon="0.42247">
        <ele>596.51</ele>
        <time>2020-09-01T08:19:20.000Z</time>
      </trkpt>
      <trkpt lat="43.10194" lon="0.42225">
        <ele>596.6</ele>
        <time>2020-09-01T08:19:25.000Z</time>
      </trkpt>
      <trkpt lat="43.10191" lon="0.42204">
        <ele>596.7</ele>
        <time>2020-09-01T08:19:30.000Z</time>
      </trkpt>
      <trkpt lat="43.10189" lon="0.42186">
        <ele>596.81</ele>
        <time>2020-09-01T08:19:35.000Z</time>
      </trkpt>
      <trkpt lat="43.10186" lon="0.42166">
        <ele>596.93</ele>
        <time>2020-09-01T08:19:40.000Z</time>
      </trkpt>
      <trkpt lat="43.10182" lon="0.42148">
        <ele>597.07</ele>
        <time>2020-09-01T08:19:45.000Z</time>
      </trkpt>
      <trkpt lat="43.10177" lon="0.42127">
        <ele>597.21</ele>
        <time>2020-09-01T08:19:50.000Z</time>
      </trkpt>
      <trkpt lat="43.10174" lon="0.42103">
        <ele>597.34</ele>
        <time>2020-09-01T08:19:55.000Z</time>
      </trkpt>
      <trkpt lat="43.1017" lon="0.42079">
        <ele>597.47</ele>
        <time>2020-09-01T08:20:00.000Z</time>
      </trkpt>
      <trkpt lat="43.10167" lon="0.42055">
        <ele>597.6</ele>
        <time>2020-09-01T08:20:05.000Z</time>
      </trkpt>
      <trkpt lat="43.10165" lon="0.42031">
        <ele>597.73</ele>
        <time>2020-09-01T08:20:10.000Z</time>
      </trkpt>
      <trkpt lat="43.10163" lon="0.42005">
        <ele>597.86</ele>
        <time>2020-09-01T08:20:15.000Z</time>
      </trkpt>
      <trkpt lat="43.10163" lon="0.41986">
        <ele>597.99</ele>
        <time>2020-09-01T08:20:20.000Z</time>
      </trkpt>
      <trkpt lat="43.10162" lon="0.41965">
        <ele>598.12</ele>
        <time>2020-09-01T08:20:25.000Z</time>
      </trkpt>
      <trkpt lat="43.10159" lon="0.41941">
        <ele>598.25</ele>
        <time>2020-09-01T08:20:30.000Z</time>
      </trkpt>
      <trkpt lat="43.10155" lon="0.41918">
        <ele>598.37</ele>
        <time>2020-09-01T08:20:35.000Z</time>
      </trkpt>
      <trkpt lat="43.10146" lon="0.41896">
        <ele>598.47</ele>
        <time>2020-09-01T08:20:40.000Z</time>
      </trkpt>
      <trkpt lat="43.10137" lon="0.41872">
        <ele>598.57</ele>
        <time>2020-09-01T08:20:45.000Z</time>
      </trkpt>
      <trkpt lat="43.10129" lon="0.4185">
        <ele>598.67</ele>
        <time>2020-09-01T08:20:50.000Z</time>
      </trkpt>
      <trkpt lat="43.1012" lon="0.41827">
        <ele>598.77</ele>
        <time>2020-09-01T08:20:54.999Z</time>
      </trkpt>
      <trkpt lat="43.10112" lon="0.41803">
        <ele>598.87</ele>
        <time>2020-09-01T08:20:59.999Z</time>
      </trkpt>
      <trkpt lat="43.10104" lon="0.41782">
        <ele>598.98</ele>
        <time>2020-09-01T08:21:04.999Z</time>
      </trkpt>
      <trkpt lat="43.10097" lon="0.41764">
        <ele>599.1</ele>
        <time>2020-09-01T08:21:09.999Z</time>
      </trkpt>
      <trkpt lat="43.10092" lon="0.4175">
        <ele>599.21</ele>
        <time>2020-09-01T08:21:14.999Z</time>
      </trkpt>
      <trkpt lat="43.10085" lon="0.4174">
        <ele>599.34</ele>
        <time>2020-09-01T08:21:19.999Z</time>
      </trkpt>
      <trkpt lat="43.10077" lon="0.41729">
        <ele>599.46</ele>
        <time>2020-09-01T08:21:24.999Z</time>
      </trkpt>
      <trkpt lat="43.10068" lon="0.41715">
        <ele>599.6</ele>
        <time>2020-09-01T08:21:29.999Z</time>
      </trkpt>
      <trkpt lat="43.10058" lon="0.41689">
        <ele>600.46</ele>
        <time>2020-09-01T08:21:34.999Z</time>
      </trkpt>
      <trkpt lat="43.10047" lon="0.41657">
        <ele>601.02</ele>
        <time>2020-09-01T08:21:39.999Z</time>
      </trkpt>
      <trkpt lat="43.10038" lon="0.41625">
        <ele>601.39</ele>
        <time>2020-09-01T08:21:44.999Z</time>
      </trkpt>
      <trkpt lat="43.10028" lon="0.41597">
        <ele>601.69</ele>
        <time>2020-09-01T08:21:49.999Z</time>
      </trkpt>
      <trkpt lat="43.1002" lon="0.41572">
        <ele>601.95</ele>
        <time>2020-09-01T08:21:54.999Z</time>
      </trkpt>
      <trkpt lat="43.10013" lon="0.41547">
        <ele>602.23</ele>
        <time>2020-09-01T08:21:59.999Z</time>
      </trkpt>
      <trkpt lat="43.10005" lon="0.41523">
        <ele>602.4</ele>
        <time>2020-09-01T08:22:04.999Z</time>
      </trkpt>
      <trkpt lat="43.09997" lon="0.41499">
        <ele>602.64</ele>
        <time>2020-09-01T08:22:09.999Z</time>
      </trkpt>
      <trkpt lat="43.0999" lon="0.41474">
        <ele>602.77</ele>
        <time>2020-09-01T08:22:14.999Z</time>
      </trkpt>
      <trkpt lat="43.09983" lon="0.4145">
        <ele>602.82</ele>
        <time>2020-09-01T08:22:19.999Z</time>
      </trkpt>
      <trkpt lat="43.09976" lon="0.41426">
        <ele>602.96</ele>
        <time>2020-09-01T08:22:24.999Z</time>
      </trkpt>
      <trkpt lat="43.0997" lon="0.41403">
        <ele>603.02</ele>
        <time>2020-09-01T08:22:29.999Z</time>
      </trkpt>
      <trkpt lat="43.09964" lon="0.41379">
        <ele>603.41</ele>
        <time>2020-09-01T08:22:34.999Z</time>
      </trkpt>
      <trkpt lat="43.09957" lon="0.41357">
        <ele>603.66</ele>
        <time>2020-09-01T08:22:39.999Z</time>
      </trkpt>
      <trkpt lat="43.09948" lon="0.41334">
        <ele>603.94</ele>
        <time>2020-09-01T08:22:44.999Z</time>
      </trkpt>
      <trkpt lat="43.0994" lon="0.41311">
        <ele>603.98</ele>
        <time>2020-09-01T08:22:49.999Z</time>
      </trkpt>
      <trkpt lat="43.09932" lon="0.41288">
        <ele>604.13</ele>
        <time>2020-09-01T08:22:54.999Z</time>
      </trkpt>
      <trkpt lat="43.09924" lon="0.41265">
        <ele>604.28</ele>
        <time>2020-09-01T08:22:59.999Z</time>
      </trkpt>
      <trkpt lat="43.09917" lon="0.41242">
        <ele>604.45</ele>
        <time>2020-09-01T08:23:04.999Z</time>
      </trkpt>
      <trkpt lat="43.0991" lon="0.41219">
        <ele>604.86</ele>
        <time>2020-09-01T08:23:09.999Z</time>
      </trkpt>
      <trkpt lat="43.09903" lon="0.41194">
        <ele>605.26</ele>
        <time>2020-09-01T08:23:14.999Z</time>
      </trkpt>
      <trkpt lat="43.09896" lon="0.4117">
        <ele>605.56</ele>
        <time>2020-09-01T08:23:19.999Z</time>
      </trkpt>
      <trkpt lat="43.09889" lon="0.41147">
        <ele>605.67</ele>
        <time>2020-09-01T08:23:24.999Z</time>
      </trkpt>
      <trkpt lat="43.09882" lon="0.41123">
        <ele>605.92</ele>
        <time>2020-09-01T08:23:29.999Z</time>
      </trkpt>
      <trkpt lat="43.09874" lon="0.41099">
        <ele>606.1</ele>
        <time>2020-09-01T08:23:34.999Z</time>
      </trkpt>
      <trkpt lat="43.09867" lon="0.41076">
        <ele>606.35</ele>
        <time>2020-09-01T08:23:39.999Z</time>
      </trkpt>
      <trkpt lat="43.0986" lon="0.41052">
        <ele>606.65</ele>
        <time>2020-09-01T08:23:44.999Z</time>
      </trkpt>
      <trkpt lat="43.09853" lon="0.41028">
        <ele>606.87</ele>
        <time>2020-09-01T08:23:49.999Z</time>
      </trkpt>
      <trkpt lat="43.09845" lon="0.41005">
        <ele>606.92</ele>
        <time>2020-09-01T08:23:54.999Z</time>
      </trkpt>
      <trkpt lat="43.09838" lon="0.40981">
        <ele>607.14</ele>
        <time>2020-09-01T08:23:59.999Z</time>
      </trkpt>
      <trkpt lat="43.0983" lon="0.40958">
        <ele>607.3</ele>
        <time>2020-09-01T08:24:04.999Z</time>
      </trkpt>
      <trkpt lat="43.09823" lon="0.40937">
        <ele>607.35</ele>
        <time>2020-09-01T08:24:09.999Z</time>
      </trkpt>
      <trkpt lat="43.09816" lon="0.40914">
        <ele>607.42</ele>
        <time>2020-09-01T08:24:14.999Z</time>
      </trkpt>
      <trkpt lat="43.09812" lon="0.40894">
        <ele>607.5</ele>
        <time>2020-09-01T08:24:19.999Z</time>
      </trkpt>
      <trkpt lat="43.09806" lon="0.40873">
        <ele>607.59</ele>
        <time>2020-09-01T08:24:24.999Z</time>
      </trkpt>
      <trkpt lat="43.098" lon="0.40852">
        <ele>607.69</ele>
        <time>2020-09-01T08:24:29.999Z</time>
      </trkpt>
      <trkpt lat="43.09794" lon="0.40831">
        <ele>607.79</ele>
        <time>2020-09-01T08:24:34.999Z</time>
      </trkpt>
      <trkpt lat="43.09787" lon="0.40807">
        <ele>607.9</ele>
        <time>2020-09-01T08:24:39.999Z</time>
      </trkpt>
      <trkpt lat="43.09781" lon="0.40788">
        <ele>608.01</ele>
        <time>2020-09-01T08:24:44.999Z</time>
      </trkpt>
      <trkpt lat="43.09774" lon="0.40768">
        <ele>608.12</ele>
        <time>2020-09-01T08:24:49.999Z</time>
      </trkpt>
      <trkpt lat="43.09767" lon="0.40744">
        <ele>608.23</ele>
        <time>2020-09-01T08:24:54.999Z</time>
      </trkpt>
      <trkpt lat="43.0976" lon="0.40723">
        <ele>608.34</ele>
        <time>2020-09-01T08:24:59.999Z</time>
      </trkpt>
      <trkpt lat="43.09752" lon="0.40699">
        <ele>608.45</ele>
        <time>2020-09-01T08:25:04.999Z</time>
      </trkpt>
      <trkpt lat="43.09746" lon="0.40678">
        <ele>608.56</ele>
        <time>2020-09-01T08:25:09.999Z</time>
      </trkpt>
      <trkpt lat="43.09739" lon="0.40658">
        <ele>608.67</ele>
        <time>2020-09-01T08:25:14.999Z</time>
      </trkpt>
      <trkpt lat="43.09733" lon="0.40637">
        <ele>608.77</ele>
        <time>2020-09-01T08:25:19.999Z</time>
      </trkpt>
      <trkpt lat="43.09727" lon="0.40615">
        <ele>608.87</ele>
        <time>2020-09-01T08:25:24.999Z</time>
      </trkpt>
      <trkpt lat="43.09721" lon="0.40594">
        <ele>608.96</ele>
        <time>2020-09-01T08:25:29.999Z</time>
      </trkpt>
      <trkpt lat="43.09714" lon="0.40573">
        <ele>609.04</ele>
        <time>2020-09-01T08:25:34.999Z</time>
      </trkpt>
      <trkpt lat="43.09708" lon="0.40549">
        <ele>609.13</ele>
        <time>2020-09-01T08:25:39.999Z</time>
      </trkpt>
      <trkpt lat="43.09701" lon="0.40526">
        <ele>609.22</ele>
        <time>2020-09-01T08:25:44.999Z</time>
      </trkpt>
      <trkpt lat="43.09694" lon="0.40505">
        <ele>609.31</ele>
        <time>2020-09-01T08:25:49.999Z</time>
      </trkpt>
      <trkpt lat="43.09687" lon="0.40485">
        <ele>609.39</ele>
        <time>2020-09-01T08:25:54.999Z</time>
      </trkpt>
      <trkpt lat="43.0968" lon="0.40463">
        <ele>609.47</ele>
        <time>2020-09-01T08:25:59.999Z</time>
      </trkpt>
      <trkpt lat="43.09673" lon="0.40442">
        <ele>609.54</ele>
        <time>2020-09-01T08:26:04.999Z</time>
      </trkpt>
      <trkpt lat="43.09666" lon="0.40418">
        <ele>609.61</ele>
        <time>2020-09-01T08:26:09.999Z</time>
      </trkpt>
      <trkpt lat="43.0966" lon="0.40396">
        <ele>609.69</ele>
        <time>2020-09-01T08:26:14.999Z</time>
      </trkpt>
      <trkpt lat="43.09653" lon="0.40375">
        <ele>609.76</ele>
        <time>2020-09-01T08:26:19.999Z</time>
      </trkpt>
      <trkpt lat="43.09647" lon="0.40353">
        <ele>609.84</ele>
        <time>2020-09-01T08:26:24.999Z</time>
      </trkpt>
      <trkpt lat="43.09639" lon="0.40329">
        <ele>609.93</ele>
        <time>2020-09-01T08:26:29.999Z</time>
      </trkpt>
      <trkpt lat="43.09633" lon="0.40308">
        <ele>610.04</ele>
        <time>2020-09-01T08:26:34.999Z</time>
      </trkpt>
      <trkpt lat="43.09628" lon="0.40292">
        <ele>610.16</ele>
        <time>2020-09-01T08:26:39.999Z</time>
      </trkpt>
      <trkpt lat="43.09622" lon="0.40273">
        <ele>610.27</ele>
        <time>2020-09-01T08:26:44.999Z</time>
      </trkpt>
      <trkpt lat="43.09615" lon="0.40249">
        <ele>610.38</ele>
        <time>2020-09-01T08:26:49.999Z</time>
      </trkpt>
      <trkpt lat="43.09608" lon="0.40227">
        <ele>610.48</ele>
        <time>2020-09-01T08:26:54.999Z</time>
      </trkpt>
      <trkpt lat="43.096" lon="0.40202">
        <ele>610.59</ele>
        <time>2020-09-01T08:26:59.999Z</time>
      </trkpt>
      <trkpt lat="43.09594" lon="0.40182">
        <ele>610.73</ele>
        <time>2020-09-01T08:27:04.999Z</time>
      </trkpt>
      <trkpt lat="43.09586" lon="0.40161">
        <ele>610.87</ele>
        <time>2020-09-01T08:27:09.999Z</time>
      </trkpt>
      <trkpt lat="43.0958" lon="0.40141">
        <ele>611.02</ele>
        <time>2020-09-01T08:27:14.999Z</time>
      </trkpt>
      <trkpt lat="43.09573" lon="0.40119">
        <ele>611.17</ele>
        <time>2020-09-01T08:27:19.999Z</time>
      </trkpt>
      <trkpt lat="43.09565" lon="0.40094">
        <ele>611.32</ele>
        <time>2020-09-01T08:27:24.999Z</time>
      </trkpt>
      <trkpt lat="43.09557" lon="0.4007">
        <ele>611.49</ele>
        <time>2020-09-01T08:27:29.999Z</time>
      </trkpt>
      <trkpt lat="43.09549" lon="0.40047">
        <ele>611.68</ele>
        <time>2020-09-01T08:27:34.999Z</time>
      </trkpt>
      <trkpt lat="43.09542" lon="0.40024">
        <ele>611.88</ele>
        <time>2020-09-01T08:27:39.999Z</time>
      </trkpt>
      <trkpt lat="43.09536" lon="0.40002">
        <ele>612.08</ele>
        <time>2020-09-01T08:27:44.999Z</time>
      </trkpt>
      <trkpt lat="43.09528" lon="0.39981">
        <ele>612.29</ele>
        <time>2020-09-01T08:27:49.999Z</time>
      </trkpt>
      <trkpt lat="43.0952" lon="0.39958">
        <ele>612.5</ele>
        <time>2020-09-01T08:27:54.999Z</time>
      </trkpt>
      <trkpt lat="43.09513" lon="0.39935">
        <ele>612.72</ele>
        <time>2020-09-01T08:27:59.999Z</time>
      </trkpt>
      <trkpt lat="43.09509" lon="0.39915">
        <ele>612.94</ele>
        <time>2020-09-01T08:28:04.999Z</time>
      </trkpt>
      <trkpt lat="43.09497" lon="0.39894">
        <ele>613.82</ele>
        <time>2020-09-01T08:28:09.999Z</time>
      </trkpt>
      <trkpt lat="43.09482" lon="0.39872">
        <ele>614.83</ele>
        <time>2020-09-01T08:28:14.999Z</time>
      </trkpt>
      <trkpt lat="43.09469" lon="0.39851">
        <ele>615.04</ele>
        <time>2020-09-01T08:28:19.999Z</time>
      </trkpt>
      <trkpt lat="43.09453" lon="0.39827">
        <ele>615.35</ele>
        <time>2020-09-01T08:28:24.999Z</time>
      </trkpt>
      <trkpt lat="43.09442" lon="0.39804">
        <ele>615.77</ele>
        <time>2020-09-01T08:28:29.999Z</time>
      </trkpt>
      <trkpt lat="43.09433" lon="0.39782">
        <ele>615.84</ele>
        <time>2020-09-01T08:28:34.999Z</time>
      </trkpt>
      <trkpt lat="43.09425" lon="0.39761">
        <ele>615.93</ele>
        <time>2020-09-01T08:28:39.999Z</time>
      </trkpt>
      <trkpt lat="43.09416" lon="0.39738">
        <ele>616.34</ele>
        <time>2020-09-01T08:28:44.999Z</time>
      </trkpt>
      <trkpt lat="43.09407" lon="0.39715">
        <ele>616.73</ele>
        <time>2020-09-01T08:28:49.999Z</time>
      </trkpt>
      <trkpt lat="43.09399" lon="0.39691">
        <ele>616.97</ele>
        <time>2020-09-01T08:28:54.999Z</time>
      </trkpt>
      <trkpt lat="43.09391" lon="0.3967">
        <ele>617.18</ele>
        <time>2020-09-01T08:28:59.999Z</time>
      </trkpt>
      <trkpt lat="43.09384" lon="0.39649">
        <ele>617.27</ele>
        <time>2020-09-01T08:29:04.999Z</time>
      </trkpt>
      <trkpt lat="43.09376" lon="0.39628">
        <ele>617.38</ele>
        <time>2020-09-01T08:29:09.999Z</time>
      </trkpt>
      <trkpt lat="43.09368" lon="0.39609">
        <ele>617.49</ele>
        <time>2020-09-01T08:29:14.999Z</time>
      </trkpt>
      <trkpt lat="43.09363" lon="0.3959">
        <ele>617.61</ele>
        <time>2020-09-01T08:29:19.999Z</time>
      </trkpt>
      <trkpt lat="43.09357" lon="0.39571">
        <ele>617.73</ele>
        <time>2020-09-01T08:29:24.999Z</time>
      </trkpt>
      <trkpt lat="43.09347" lon="0.39545">
        <ele>617.85</ele>
        <time>2020-09-01T08:29:29.999Z</time>
      </trkpt>
      <trkpt lat="43.09339" lon="0.39525">
        <ele>617.98</ele>
        <time>2020-09-01T08:29:34.999Z</time>
      </trkpt>
      <trkpt lat="43.09329" lon="0.39501">
        <ele>618.1</ele>
        <time>2020-09-01T08:29:39.999Z</time>
      </trkpt>
      <trkpt lat="43.09321" lon="0.39478">
        <ele>618.25</ele>
        <time>2020-09-01T08:29:44.999Z</time>
      </trkpt>
      <trkpt lat="43.09312" lon="0.39452">
        <ele>618.39</ele>
        <time>2020-09-01T08:29:49.999Z</time>
      </trkpt>
      <trkpt lat="43.09302" lon="0.39427">
        <ele>618.56</ele>
        <time>2020-09-01T08:29:54.999Z</time>
      </trkpt>
      <trkpt lat="43.09293" lon="0.39407">
        <ele>619.04</ele>
        <time>2020-09-01T08:29:59.999Z</time>
      </trkpt>
      <trkpt lat="43.09286" lon="0.39381">
        <ele>619.22</ele>
        <time>2020-09-01T08:30:04.999Z</time>
      </trkpt>
      <trkpt lat="43.0928" lon="0.3936">
        <ele>619.38</ele>
        <time>2020-09-01T08:30:09.999Z</time>
      </trkpt>
      <trkpt lat="43.09276" lon="0.39338">
        <ele>619.56</ele>
        <time>2020-09-01T08:30:14.999Z</time>
      </trkpt>
      <trkpt lat="43.09272" lon="0.39318">
        <ele>619.73</ele>
        <time>2020-09-01T08:30:19.999Z</time>
      </trkpt>
      <trkpt lat="43.09266" lon="0.39294">
        <ele>619.9</ele>
        <time>2020-09-01T08:30:24.999Z</time>
      </trkpt>
      <trkpt lat="43.0926" lon="0.39269">
        <ele>620.06</ele>
        <time>2020-09-01T08:30:29.999Z</time>
      </trkpt>
      <trkpt lat="43.09254" lon="0.39247">
        <ele>620.21</ele>
        <time>2020-09-01T08:30:34.999Z</time>
      </trkpt>
      <trkpt lat="43.09248" lon="0.39225">
        <ele>620.37</ele>
        <time>2020-09-01T08:30:39.999Z</time>
      </trkpt>
      <trkpt lat="43.09242" lon="0.39202">
        <ele>620.53</ele>
        <time>2020-09-01T08:30:44.999Z</time>
      </trkpt>
      <trkpt lat="43.09235" lon="0.39179">
        <ele>620.68</ele>
        <time>2020-09-01T08:30:49.999Z</time>
      </trkpt>
      <trkpt lat="43.09228" lon="0.39159">
        <ele>620.83</ele>
        <time>2020-09-01T08:30:54.999Z</time>
      </trkpt>
      <trkpt lat="43.09219" lon="0.39138">
        <ele>620.97</ele>
        <time>2020-09-01T08:30:59.999Z</time>
      </trkpt>
      <trkpt lat="43.0921" lon="0.39119">
        <ele>621.12</ele>
        <time>2020-09-01T08:31:04.999Z</time>
      </trkpt>
      <trkpt lat="43.09207" lon="0.39101">
        <ele>621.28</ele>
        <time>2020-09-01T08:31:09.999Z</time>
      </trkpt>
      <trkpt lat="43.09212" lon="0.3909">
        <ele>621.51</ele>
        <time>2020-09-01T08:31:16.999Z</time>
      </trkpt>
      <trkpt lat="43.09224" lon="0.39084">
        <ele>621.68</ele>
        <time>2020-09-01T08:31:21.999Z</time>
      </trkpt>
      <trkpt lat="43.09238" lon="0.39071">
        <ele>622.13</ele>
        <time>2020-09-01T08:31:26.999Z</time>
      </trkpt>
      <trkpt lat="43.09241" lon="0.39047">
        <ele>622.96</ele>
        <time>2020-09-01T08:31:31.999Z</time>
      </trkpt>
      <trkpt lat="43.09226" lon="0.39028">
        <ele>623.34</ele>
        <time>2020-09-01T08:31:36.999Z</time>
      </trkpt>
      <trkpt lat="43.09206" lon="0.39015">
        <ele>623.5</ele>
        <time>2020-09-01T08:31:41.999Z</time>
      </trkpt>
      <trkpt lat="43.09191" lon="0.38993">
        <ele>623.58</ele>
        <time>2020-09-01T08:31:46.999Z</time>
      </trkpt>
      <trkpt lat="43.09182" lon="0.3897">
        <ele>623.61</ele>
        <time>2020-09-01T08:31:51.999Z</time>
      </trkpt>
      <trkpt lat="43.09175" lon="0.38946">
        <ele>623.62</ele>
        <time>2020-09-01T08:31:56.999Z</time>
      </trkpt>
      <trkpt lat="43.09169" lon="0.38921">
        <ele>623.61</ele>
        <time>2020-09-01T08:32:01.999Z</time>
      </trkpt>
      <trkpt lat="43.09164" lon="0.38895">
        <ele>623.58</ele>
        <time>2020-09-01T08:32:06.999Z</time>
      </trkpt>
      <trkpt lat="43.09159" lon="0.38871">
        <ele>623.57</ele>
        <time>2020-09-01T08:32:11.999Z</time>
      </trkpt>
      <trkpt lat="43.09154" lon="0.38847">
        <ele>623.57</ele>
        <time>2020-09-01T08:32:16.999Z</time>
      </trkpt>
      <trkpt lat="43.09148" lon="0.38824">
        <ele>623.58</ele>
        <time>2020-09-01T08:32:21.999Z</time>
      </trkpt>
      <trkpt lat="43.09143" lon="0.388">
        <ele>623.58</ele>
        <time>2020-09-01T08:32:26.999Z</time>
      </trkpt>
      <trkpt lat="43.09138" lon="0.38779">
        <ele>623.6</ele>
        <time>2020-09-01T08:32:31.999Z</time>
      </trkpt>
      <trkpt lat="43.09133" lon="0.38758">
        <ele>623.61</ele>
        <time>2020-09-01T08:32:36.999Z</time>
      </trkpt>
      <trkpt lat="43.09128" lon="0.38737">
        <ele>623.63</ele>
        <time>2020-09-01T08:32:41.999Z</time>
      </trkpt>
      <trkpt lat="43.09123" lon="0.38718">
        <ele>623.65</ele>
        <time>2020-09-01T08:32:46.999Z</time>
      </trkpt>
      <trkpt lat="43.09119" lon="0.38698">
        <ele>623.67</ele>
        <time>2020-09-01T08:32:51.999Z</time>
      </trkpt>
      <trkpt lat="43.09114" lon="0.38674">
        <ele>623.69</ele>
        <time>2020-09-01T08:32:56.999Z</time>
      </trkpt>
      <trkpt lat="43.0911" lon="0.38654">
        <ele>623.71</ele>
        <time>2020-09-01T08:33:01.999Z</time>
      </trkpt>
      <trkpt lat="43.09105" lon="0.38634">
        <ele>623.74</ele>
        <time>2020-09-01T08:33:06.999Z</time>
      </trkpt>
      <trkpt lat="43.091" lon="0.38611">
        <ele>623.77</ele>
        <time>2020-09-01T08:33:11.999Z</time>
      </trkpt>
      <trkpt lat="43.09095" lon="0.38591">
        <ele>623.82</ele>
        <time>2020-09-01T08:33:16.999Z</time>
      </trkpt>
      <trkpt lat="43.09091" lon="0.38571">
        <ele>623.86</ele>
        <time>2020-09-01T08:33:21.999Z</time>
      </trkpt>
      <trkpt lat="43.09086" lon="0.3855">
        <ele>623.91</ele>
        <time>2020-09-01T08:33:26.999Z</time>
      </trkpt>
      <trkpt lat="43.09081" lon="0.3853">
        <ele>623.96</ele>
        <time>2020-09-01T08:33:31.999Z</time>
      </trkpt>
      <trkpt lat="43.09076" lon="0.38508">
        <ele>624.02</ele>
        <time>2020-09-01T08:33:36.999Z</time>
      </trkpt>
      <trkpt lat="43.09071" lon="0.38488">
        <ele>624.07</ele>
        <time>2020-09-01T08:33:41.999Z</time>
      </trkpt>
      <trkpt lat="43.09066" lon="0.38468">
        <ele>624.12</ele>
        <time>2020-09-01T08:33:46.999Z</time>
      </trkpt>
      <trkpt lat="43.09061" lon="0.38445">
        <ele>624.17</ele>
        <time>2020-09-01T08:33:51.999Z</time>
      </trkpt>
      <trkpt lat="43.09057" lon="0.38426">
        <ele>624.21</ele>
        <time>2020-09-01T08:33:56.000Z</time>
      </trkpt>
      <trkpt lat="43.09052" lon="0.38404">
        <ele>624.27</ele>
        <time>2020-09-01T08:34:01.000Z</time>
      </trkpt>
      <trkpt lat="43.09047" lon="0.38383">
        <ele>624.33</ele>
        <time>2020-09-01T08:34:06.000Z</time>
      </trkpt>
      <trkpt lat="43.09042" lon="0.38362">
        <ele>624.4</ele>
        <time>2020-09-01T08:34:11.000Z</time>
      </trkpt>
      <trkpt lat="43.09037" lon="0.38343">
        <ele>624.46</ele>
        <time>2020-09-01T08:34:16.000Z</time>
      </trkpt>
      <trkpt lat="43.09033" lon="0.38321">
        <ele>624.52</ele>
        <time>2020-09-01T08:34:21.000Z</time>
      </trkpt>
      <trkpt lat="43.09027" lon="0.38299">
        <ele>624.58</ele>
        <time>2020-09-01T08:34:26.000Z</time>
      </trkpt>
      <trkpt lat="43.09022" lon="0.38276">
        <ele>624.65</ele>
        <time>2020-09-01T08:34:31.000Z</time>
      </trkpt>
      <trkpt lat="43.09017" lon="0.38254">
        <ele>624.72</ele>
        <time>2020-09-01T08:34:36.000Z</time>
      </trkpt>
      <trkpt lat="43.09012" lon="0.38233">
        <ele>624.8</ele>
        <time>2020-09-01T08:34:41.000Z</time>
      </trkpt>
      <trkpt lat="43.09007" lon="0.38211">
        <ele>624.89</ele>
        <time>2020-09-01T08:34:46.000Z</time>
      </trkpt>
      <trkpt lat="43.09001" lon="0.38188">
        <ele>624.99</ele>
        <time>2020-09-01T08:34:51.000Z</time>
      </trkpt>
      <trkpt lat="43.08997" lon="0.38168">
        <ele>625.09</ele>
        <time>2020-09-01T08:34:56.000Z</time>
      </trkpt>
      <trkpt lat="43.08992" lon="0.38147">
        <ele>625.2</ele>
        <time>2020-09-01T08:35:01.000Z</time>
      </trkpt>
      <trkpt lat="43.08988" lon="0.38128">
        <ele>625.31</ele>
        <time>2020-09-01T08:35:06.000Z</time>
      </trkpt>
      <trkpt lat="43.08983" lon="0.38106">
        <ele>625.43</ele>
        <time>2020-09-01T08:35:11.000Z</time>
      </trkpt>
      <trkpt lat="43.08978" lon="0.38085">
        <ele>625.54</ele>
        <time>2020-09-01T08:35:16.000Z</time>
      </trkpt>
      <trkpt lat="43.08973" lon="0.38064">
        <ele>625.66</ele>
        <time>2020-09-01T08:35:21.000Z</time>
      </trkpt>
      <trkpt lat="43.08968" lon="0.38044">
        <ele>625.78</ele>
        <time>2020-09-01T08:35:26.000Z</time>
      </trkpt>
      <trkpt lat="43.08964" lon="0.38022">
        <ele>625.91</ele>
        <time>2020-09-01T08:35:31.000Z</time>
      </trkpt>
      <trkpt lat="43.08959" lon="0.38001">
        <ele>626.04</ele>
        <time>2020-09-01T08:35:36.000Z</time>
      </trkpt>
      <trkpt lat="43.08953" lon="0.37981">
        <ele>626.17</ele>
        <time>2020-09-01T08:35:41.000Z</time>
      </trkpt>
      <trkpt lat="43.08949" lon="0.37961">
        <ele>626.31</ele>
        <time>2020-09-01T08:35:46.000Z</time>
      </trkpt>
      <trkpt lat="43.08944" lon="0.37938">
        <ele>626.44</ele>
        <time>2020-09-01T08:35:51.000Z</time>
      </trkpt>
      <trkpt lat="43.08939" lon="0.37917">
        <ele>626.58</ele>
        <time>2020-09-01T08:35:56.000Z</time>
      </trkpt>
      <trkpt lat="43.08934" lon="0.37893">
        <ele>626.71</ele>
        <time>2020-09-01T08:36:01.000Z</time>
      </trkpt>
      <trkpt lat="43.08928" lon="0.3787">
        <ele>626.84</ele>
        <time>2020-09-01T08:36:06.000Z</time>
      </trkpt>
      <trkpt lat="43.08922" lon="0.37843">
        <ele>627.36</ele>
        <time>2020-09-01T08:36:11.000Z</time>
      </trkpt>
      <trkpt lat="43.08916" lon="0.37817">
        <ele>628.01</ele>
        <time>2020-09-01T08:36:16.000Z</time>
      </trkpt>
      <trkpt lat="43.0891" lon="0.37789">
        <ele>628.32</ele>
        <time>2020-09-01T08:36:21.000Z</time>
      </trkpt>
      <trkpt lat="43.08905" lon="0.37764">
        <ele>628.45</ele>
        <time>2020-09-01T08:36:26.000Z</time>
      </trkpt>
      <trkpt lat="43.08899" lon="0.37739">
        <ele>628.52</ele>
        <time>2020-09-01T08:36:31.000Z</time>
      </trkpt>
      <trkpt lat="43.08892" lon="0.37714">
        <ele>628.55</ele>
        <time>2020-09-01T08:36:36.000Z</time>
      </trkpt>
      <trkpt lat="43.08884" lon="0.37687">
        <ele>628.63</ele>
        <time>2020-09-01T08:36:41.000Z</time>
      </trkpt>
      <trkpt lat="43.08876" lon="0.37663">
        <ele>628.7</ele>
        <time>2020-09-01T08:36:46.000Z</time>
      </trkpt>
      <trkpt lat="43.08867" lon="0.37637">
        <ele>628.72</ele>
        <time>2020-09-01T08:36:51.000Z</time>
      </trkpt>
      <trkpt lat="43.08858" lon="0.37609">
        <ele>628.71</ele>
        <time>2020-09-01T08:36:56.000Z</time>
      </trkpt>
      <trkpt lat="43.08847" lon="0.37581">
        <ele>628.7</ele>
        <time>2020-09-01T08:37:01.000Z</time>
      </trkpt>
      <trkpt lat="43.08837" lon="0.37552">
        <ele>628.7</ele>
        <time>2020-09-01T08:37:06.000Z</time>
      </trkpt>
      <trkpt lat="43.08829" lon="0.37521">
        <ele>628.73</ele>
        <time>2020-09-01T08:37:11.000Z</time>
      </trkpt>
      <trkpt lat="43.08821" lon="0.3749">
        <ele>628.88</ele>
        <time>2020-09-01T08:37:16.000Z</time>
      </trkpt>
      <trkpt lat="43.08812" lon="0.37461">
        <ele>629.03</ele>
        <time>2020-09-01T08:37:21.000Z</time>
      </trkpt>
      <trkpt lat="43.08803" lon="0.37436">
        <ele>629.17</ele>
        <time>2020-09-01T08:37:26.000Z</time>
      </trkpt>
      <trkpt lat="43.08795" lon="0.3741">
        <ele>629.33</ele>
        <time>2020-09-01T08:37:31.000Z</time>
      </trkpt>
      <trkpt lat="43.08787" lon="0.37387">
        <ele>629.46</ele>
        <time>2020-09-01T08:37:36.000Z</time>
      </trkpt>
      <trkpt lat="43.08775" lon="0.37364">
        <ele>629.62</ele>
        <time>2020-09-01T08:37:41.000Z</time>
      </trkpt>
      <trkpt lat="43.08764" lon="0.3734">
        <ele>629.75</ele>
        <time>2020-09-01T08:37:46.000Z</time>
      </trkpt>
      <trkpt lat="43.08752" lon="0.37313">
        <ele>629.86</ele>
        <time>2020-09-01T08:37:51.000Z</time>
      </trkpt>
      <trkpt lat="43.08739" lon="0.37286">
        <ele>630.02</ele>
        <time>2020-09-01T08:37:56.000Z</time>
      </trkpt>
      <trkpt lat="43.08728" lon="0.37259">
        <ele>630.2</ele>
        <time>2020-09-01T08:38:01.000Z</time>
      </trkpt>
      <trkpt lat="43.08717" lon="0.37233">
        <ele>630.39</ele>
        <time>2020-09-01T08:38:06.000Z</time>
      </trkpt>
      <trkpt lat="43.08708" lon="0.3721">
        <ele>630.58</ele>
        <time>2020-09-01T08:38:11.000Z</time>
      </trkpt>
      <trkpt lat="43.08698" lon="0.37187">
        <ele>630.73</ele>
        <time>2020-09-01T08:38:16.000Z</time>
      </trkpt>
      <trkpt lat="43.08688" lon="0.37164">
        <ele>630.92</ele>
        <time>2020-09-01T08:38:21.000Z</time>
      </trkpt>
      <trkpt lat="43.08679" lon="0.37141">
        <ele>631.07</ele>
        <time>2020-09-01T08:38:26.000Z</time>
      </trkpt>
      <trkpt lat="43.08669" lon="0.3712">
        <ele>631.18</ele>
        <time>2020-09-01T08:38:31.000Z</time>
      </trkpt>
      <trkpt lat="43.0866" lon="0.37098">
        <ele>631.39</ele>
        <time>2020-09-01T08:38:36.000Z</time>
      </trkpt>
      <trkpt lat="43.08649" lon="0.37077">
        <ele>631.5</ele>
        <time>2020-09-01T08:38:41.000Z</time>
      </trkpt>
      <trkpt lat="43.0864" lon="0.37056">
        <ele>631.57</ele>
        <time>2020-09-01T08:38:46.000Z</time>
      </trkpt>
      <trkpt lat="43.08631" lon="0.37037">
        <ele>631.63</ele>
        <time>2020-09-01T08:38:51.000Z</time>
      </trkpt>
      <trkpt lat="43.08621" lon="0.37016">
        <ele>631.71</ele>
        <time>2020-09-01T08:38:56.000Z</time>
      </trkpt>
      <trkpt lat="43.08611" lon="0.36996">
        <ele>631.8</ele>
        <time>2020-09-01T08:39:01.000Z</time>
      </trkpt>
      <trkpt lat="43.08602" lon="0.36975">
        <ele>631.89</ele>
        <time>2020-09-01T08:39:06.000Z</time>
      </trkpt>
      <trkpt lat="43.08591" lon="0.36955">
        <ele>632.17</ele>
        <time>2020-09-01T08:39:11.000Z</time>
      </trkpt>
      <trkpt lat="43.08582" lon="0.36934">
        <ele>632.42</ele>
        <time>2020-09-01T08:39:16.000Z</time>
      </trkpt>
      <trkpt lat="43.08571" lon="0.36911">
        <ele>632.8</ele>
        <time>2020-09-01T08:39:21.000Z</time>
      </trkpt>
      <trkpt lat="43.08561" lon="0.36889">
        <ele>633.27</ele>
        <time>2020-09-01T08:39:26.000Z</time>
      </trkpt>
      <trkpt lat="43.08551" lon="0.36867">
        <ele>633.62</ele>
        <time>2020-09-01T08:39:31.000Z</time>
      </trkpt>
      <trkpt lat="43.0854" lon="0.36845">
        <ele>633.81</ele>
        <time>2020-09-01T08:39:36.000Z</time>
      </trkpt>
      <trkpt lat="43.08529" lon="0.36824">
        <ele>634.04</ele>
        <time>2020-09-01T08:39:41.000Z</time>
      </trkpt>
      <trkpt lat="43.0852" lon="0.36803">
        <ele>634.24</ele>
        <time>2020-09-01T08:39:46.000Z</time>
      </trkpt>
      <trkpt lat="43.08509" lon="0.36781">
        <ele>634.43</ele>
        <time>2020-09-01T08:39:51.000Z</time>
      </trkpt>
      <trkpt lat="43.08499" lon="0.36758">
        <ele>634.65</ele>
        <time>2020-09-01T08:39:56.000Z</time>
      </trkpt>
      <trkpt lat="43.08489" lon="0.36735">
        <ele>634.93</ele>
        <time>2020-09-01T08:40:01.000Z</time>
      </trkpt>
      <trkpt lat="43.08478" lon="0.36712">
        <ele>635.15</ele>
        <time>2020-09-01T08:40:06.000Z</time>
      </trkpt>
      <trkpt lat="43.08467" lon="0.36688">
        <ele>635.29</ele>
        <time>2020-09-01T08:40:11.000Z</time>
      </trkpt>
      <trkpt lat="43.08455" lon="0.36662">
        <ele>635.45</ele>
        <time>2020-09-01T08:40:16.000Z</time>
      </trkpt>
      <trkpt lat="43.08443" lon="0.36636">
        <ele>635.61</ele>
        <time>2020-09-01T08:40:21.000Z</time>
      </trkpt>
      <trkpt lat="43.0843" lon="0.3661">
        <ele>635.76</ele>
        <time>2020-09-01T08:40:26.000Z</time>
      </trkpt>
      <trkpt lat="43.08419" lon="0.36584">
        <ele>635.9</ele>
        <time>2020-09-01T08:40:31.000Z</time>
      </trkpt>
      <trkpt lat="43.08406" lon="0.36558">
        <ele>636.06</ele>
        <time>2020-09-01T08:40:36.000Z</time>
      </trkpt>
      <trkpt lat="43.08394" lon="0.36532">
        <ele>636.2</ele>
        <time>2020-09-01T08:40:41.000Z</time>
      </trkpt>
      <trkpt lat="43.08381" lon="0.36506">
        <ele>636.33</ele>
        <time>2020-09-01T08:40:46.000Z</time>
      </trkpt>
      <trkpt lat="43.0837" lon="0.36481">
        <ele>636.51</ele>
        <time>2020-09-01T08:40:51.000Z</time>
      </trkpt>
      <trkpt lat="43.08357" lon="0.36456">
        <ele>636.66</ele>
        <time>2020-09-01T08:40:56.000Z</time>
      </trkpt>
      <trkpt lat="43.08344" lon="0.3643">
        <ele>636.8</ele>
        <time>2020-09-01T08:41:01.000Z</time>
      </trkpt>
      <trkpt lat="43.08331" lon="0.36404">
        <ele>636.87</ele>
        <time>2020-09-01T08:41:06.000Z</time>
      </trkpt>
      <trkpt lat="43.08318" lon="0.36375">
        <ele>636.93</ele>
        <time>2020-09-01T08:41:11.000Z</time>
      </trkpt>
      <trkpt lat="43.08306" lon="0.36349">
        <ele>636.96</ele>
        <time>2020-09-01T08:41:16.000Z</time>
      </trkpt>
      <trkpt lat="43.08293" lon="0.36324">
        <ele>637.01</ele>
        <time>2020-09-01T08:41:21.000Z</time>
      </trkpt>
      <trkpt lat="43.0828" lon="0.36297">
        <ele>637.03</ele>
        <time>2020-09-01T08:41:26.000Z</time>
      </trkpt>
      <trkpt lat="43.08268" lon="0.3627">
        <ele>637.1</ele>
        <time>2020-09-01T08:41:31.000Z</time>
      </trkpt>
      <trkpt lat="43.08254" lon="0.36249">
        <ele>637.22</ele>
        <time>2020-09-01T08:41:36.000Z</time>
      </trkpt>
      <trkpt lat="43.08235" lon="0.36232">
        <ele>637.36</ele>
        <time>2020-09-01T08:41:41.000Z</time>
      </trkpt>
      <trkpt lat="43.08216" lon="0.36216">
        <ele>637.44</ele>
        <time>2020-09-01T08:41:46.000Z</time>
      </trkpt>
      <trkpt lat="43.08197" lon="0.36198">
        <ele>637.51</ele>
        <time>2020-09-01T08:41:51.000Z</time>
      </trkpt>
      <trkpt lat="43.0818" lon="0.36176">
        <ele>637.56</ele>
        <time>2020-09-01T08:41:56.000Z</time>
      </trkpt>
      <trkpt lat="43.08165" lon="0.36154">
        <ele>637.61</ele>
        <time>2020-09-01T08:42:01.000Z</time>
      </trkpt>
      <trkpt lat="43.08146" lon="0.36137">
        <ele>637.73</ele>
        <time>2020-09-01T08:42:06.000Z</time>
      </trkpt>
      <trkpt lat="43.08125" lon="0.3612">
        <ele>637.9</ele>
        <time>2020-09-01T08:42:11.000Z</time>
      </trkpt>
      <trkpt lat="43.08104" lon="0.36102">
        <ele>638.09</ele>
        <time>2020-09-01T08:42:16.000Z</time>
      </trkpt>
      <trkpt lat="43.08082" lon="0.36086">
        <ele>638.28</ele>
        <time>2020-09-01T08:42:21.000Z</time>
      </trkpt>
      <trkpt lat="43.08063" lon="0.36066">
        <ele>638.49</ele>
        <time>2020-09-01T08:42:26.000Z</time>
      </trkpt>
      <trkpt lat="43.08067" lon="0.36039">
        <ele>638.66</ele>
        <time>2020-09-01T08:42:31.000Z</time>
      </trkpt>
      <trkpt lat="43.08074" lon="0.36014">
        <ele>638.69</ele>
        <time>2020-09-01T08:42:36.000Z</time>
      </trkpt>
      <trkpt lat="43.08076" lon="0.35989">
        <ele>638.72</ele>
        <time>2020-09-01T08:42:41.000Z</time>
      </trkpt>
      <trkpt lat="43.08075" lon="0.35964">
        <ele>638.76</ele>
        <time>2020-09-01T08:42:46.000Z</time>
      </trkpt>
      <trkpt lat="43.08071" lon="0.35945">
        <ele>638.82</ele>
        <time>2020-09-01T08:42:51.000Z</time>
      </trkpt>
      <trkpt lat="43.08065" lon="0.35927">
        <ele>638.87</ele>
        <time>2020-09-01T08:42:56.000Z</time>
      </trkpt>
      <trkpt lat="43.08058" lon="0.35911">
        <ele>638.94</ele>
        <time>2020-09-01T08:43:01.000Z</time>
      </trkpt>
      <trkpt lat="43.08051" lon="0.35896">
        <ele>639.02</ele>
        <time>2020-09-01T08:43:06.000Z</time>
      </trkpt>
      <trkpt lat="43.08042" lon="0.3588">
        <ele>639.1</ele>
        <time>2020-09-01T08:43:11.000Z</time>
      </trkpt>
      <trkpt lat="43.08033" lon="0.35864">
        <ele>639.19</ele>
        <time>2020-09-01T08:43:16.000Z</time>
      </trkpt>
      <trkpt lat="43.08028" lon="0.35847">
        <ele>639.28</ele>
        <time>2020-09-01T08:43:21.000Z</time>
      </trkpt>
      <trkpt lat="43.08024" lon="0.35828">
        <ele>639.36</ele>
        <time>2020-09-01T08:43:26.000Z</time>
      </trkpt>
      <trkpt lat="43.08022" lon="0.3581">
        <ele>639.45</ele>
        <time>2020-09-01T08:43:31.000Z</time>
      </trkpt>
      <trkpt lat="43.08022" lon="0.35793">
        <ele>639.55</ele>
        <time>2020-09-01T08:43:36.000Z</time>
      </trkpt>
      <trkpt lat="43.08022" lon="0.35775">
        <ele>639.66</ele>
        <time>2020-09-01T08:43:41.000Z</time>
      </trkpt>
      <trkpt lat="43.08023" lon="0.35758">
        <ele>639.76</ele>
        <time>2020-09-01T08:43:46.000Z</time>
      </trkpt>
      <trkpt lat="43.08024" lon="0.35742">
        <ele>639.88</ele>
        <time>2020-09-01T08:43:51.000Z</time>
      </trkpt>
      <trkpt lat="43.08024" lon="0.35725">
        <ele>640</ele>
        <time>2020-09-01T08:43:56.000Z</time>
      </trkpt>
      <trkpt lat="43.08025" lon="0.35708">
        <ele>640.12</ele>
        <time>2020-09-01T08:44:01.000Z</time>
      </trkpt>
      <trkpt lat="43.08026" lon="0.35692">
        <ele>640.24</ele>
        <time>2020-09-01T08:44:06.000Z</time>
      </trkpt>
      <trkpt lat="43.08026" lon="0.35675">
        <ele>640.36</ele>
        <time>2020-09-01T08:44:11.000Z</time>
      </trkpt>
      <trkpt lat="43.08027" lon="0.35659">
        <ele>640.49</ele>
        <time>2020-09-01T08:44:16.000Z</time>
      </trkpt>
      <trkpt lat="43.08027" lon="0.35641">
        <ele>640.63</ele>
        <time>2020-09-01T08:44:21.000Z</time>
      </trkpt>
      <trkpt lat="43.08027" lon="0.35624">
        <ele>640.78</ele>
        <time>2020-09-01T08:44:26.000Z</time>
      </trkpt>
      <trkpt lat="43.08026" lon="0.35607">
        <ele>640.93</ele>
        <time>2020-09-01T08:44:31.000Z</time>
      </trkpt>
      <trkpt lat="43.08027" lon="0.35589">
        <ele>641.09</ele>
        <time>2020-09-01T08:44:36.000Z</time>
      </trkpt>
      <trkpt lat="43.08026" lon="0.35573">
        <ele>641.26</ele>
        <time>2020-09-01T08:44:41.000Z</time>
      </trkpt>
      <trkpt lat="43.08026" lon="0.35556">
        <ele>641.43</ele>
        <time>2020-09-01T08:44:46.000Z</time>
      </trkpt>
      <trkpt lat="43.08028" lon="0.35541">
        <ele>641.61</ele>
        <time>2020-09-01T08:44:51.000Z</time>
      </trkpt>
      <trkpt lat="43.08029" lon="0.35523">
        <ele>641.78</ele>
        <time>2020-09-01T08:44:56.000Z</time>
      </trkpt>
      <trkpt lat="43.0803" lon="0.35504">
        <ele>641.95</ele>
        <time>2020-09-01T08:45:01.000Z</time>
      </trkpt>
      <trkpt lat="43.08031" lon="0.35485">
        <ele>642.12</ele>
        <time>2020-09-01T08:45:06.000Z</time>
      </trkpt>
      <trkpt lat="43.08034" lon="0.35465">
        <ele>642.29</ele>
        <time>2020-09-01T08:45:11.000Z</time>
      </trkpt>
      <trkpt lat="43.08037" lon="0.35445">
        <ele>642.47</ele>
        <time>2020-09-01T08:45:16.000Z</time>
      </trkpt>
      <trkpt lat="43.08042" lon="0.35425">
        <ele>642.64</ele>
        <time>2020-09-01T08:45:21.000Z</time>
      </trkpt>
      <trkpt lat="43.08047" lon="0.35405">
        <ele>642.82</ele>
        <time>2020-09-01T08:45:26.000Z</time>
      </trkpt>
      <trkpt lat="43.08052" lon="0.35382">
        <ele>643.01</ele>
        <time>2020-09-01T08:45:31.000Z</time>
      </trkpt>
      <trkpt lat="43.08061" lon="0.35361">
        <ele>643.21</ele>
        <time>2020-09-01T08:45:36.000Z</time>
      </trkpt>
      <trkpt lat="43.0807" lon="0.3534">
        <ele>643.71</ele>
        <time>2020-09-01T08:45:41.000Z</time>
      </trkpt>
      <trkpt lat="43.08081" lon="0.35315">
        <ele>644.98</ele>
        <time>2020-09-01T08:45:46.000Z</time>
      </trkpt>
      <trkpt lat="43.08093" lon="0.3529">
        <ele>645.5</ele>
        <time>2020-09-01T08:45:51.000Z</time>
      </trkpt>
      <trkpt lat="43.08105" lon="0.35259">
        <ele>645.8</ele>
        <time>2020-09-01T08:45:56.000Z</time>
      </trkpt>
      <trkpt lat="43.0812" lon="0.3523">
        <ele>646.05</ele>
        <time>2020-09-01T08:46:01.000Z</time>
      </trkpt>
      <trkpt lat="43.08134" lon="0.35196">
        <ele>646.23</ele>
        <time>2020-09-01T08:46:06.000Z</time>
      </trkpt>
      <trkpt lat="43.08149" lon="0.35159">
        <ele>646.34</ele>
        <time>2020-09-01T08:46:11.000Z</time>
      </trkpt>
      <trkpt lat="43.08166" lon="0.35122">
        <ele>646.39</ele>
        <time>2020-09-01T08:46:16.000Z</time>
      </trkpt>
      <trkpt lat="43.08184" lon="0.35083">
        <ele>646.42</ele>
        <time>2020-09-01T08:46:21.000Z</time>
      </trkpt>
      <trkpt lat="43.08204" lon="0.35045">
        <ele>646.31</ele>
        <time>2020-09-01T08:46:26.000Z</time>
      </trkpt>
      <trkpt lat="43.08223" lon="0.35006">
        <ele>646.25</ele>
        <time>2020-09-01T08:46:31.000Z</time>
      </trkpt>
      <trkpt lat="43.08242" lon="0.34965">
        <ele>646.26</ele>
        <time>2020-09-01T08:46:36.000Z</time>
      </trkpt>
      <trkpt lat="43.08258" lon="0.34923">
        <ele>646.22</ele>
        <time>2020-09-01T08:46:41.000Z</time>
      </trkpt>
      <trkpt lat="43.08274" lon="0.34884">
        <ele>646.1</ele>
        <time>2020-09-01T08:46:46.000Z</time>
      </trkpt>
      <trkpt lat="43.08289" lon="0.3485">
        <ele>645.87</ele>
        <time>2020-09-01T08:46:51.000Z</time>
      </trkpt>
      <trkpt lat="43.08305" lon="0.34817">
        <ele>645.64</ele>
        <time>2020-09-01T08:46:56.000Z</time>
      </trkpt>
      <trkpt lat="43.08321" lon="0.34785">
        <ele>645.61</ele>
        <time>2020-09-01T08:47:00.999Z</time>
      </trkpt>
      <trkpt lat="43.08335" lon="0.34753">
        <ele>645.42</ele>
        <time>2020-09-01T08:47:05.999Z</time>
      </trkpt>
      <trkpt lat="43.08351" lon="0.34717">
        <ele>646.38</ele>
        <time>2020-09-01T08:47:10.999Z</time>
      </trkpt>
      <trkpt lat="43.08366" lon="0.34681">
        <ele>647.73</ele>
        <time>2020-09-01T08:47:15.999Z</time>
      </trkpt>
      <trkpt lat="43.08382" lon="0.34645">
        <ele>647.52</ele>
        <time>2020-09-01T08:47:20.999Z</time>
      </trkpt>
      <trkpt lat="43.084" lon="0.34605">
        <ele>647.06</ele>
        <time>2020-09-01T08:47:25.999Z</time>
      </trkpt>
      <trkpt lat="43.08417" lon="0.34565">
        <ele>646.86</ele>
        <time>2020-09-01T08:47:30.999Z</time>
      </trkpt>
      <trkpt lat="43.08434" lon="0.34527">
        <ele>646.75</ele>
        <time>2020-09-01T08:47:35.999Z</time>
      </trkpt>
      <trkpt lat="43.08451" lon="0.34489">
        <ele>646.79</ele>
        <time>2020-09-01T08:47:40.999Z</time>
      </trkpt>
      <trkpt lat="43.08468" lon="0.34452">
        <ele>646.75</ele>
        <time>2020-09-01T08:47:45.999Z</time>
      </trkpt>
      <trkpt lat="43.08484" lon="0.34417">
        <ele>646.48</ele>
        <time>2020-09-01T08:47:50.999Z</time>
      </trkpt>
      <trkpt lat="43.085" lon="0.34381">
        <ele>646.05</ele>
        <time>2020-09-01T08:47:55.999Z</time>
      </trkpt>
      <trkpt lat="43.08517" lon="0.34346">
        <ele>645.94</ele>
        <time>2020-09-01T08:48:00.999Z</time>
      </trkpt>
      <trkpt lat="43.08533" lon="0.3431">
        <ele>645.64</ele>
        <time>2020-09-01T08:48:05.999Z</time>
      </trkpt>
      <trkpt lat="43.08548" lon="0.34274">
        <ele>645.42</ele>
        <time>2020-09-01T08:48:10.999Z</time>
      </trkpt>
      <trkpt lat="43.08564" lon="0.34238">
        <ele>645.25</ele>
        <time>2020-09-01T08:48:15.999Z</time>
      </trkpt>
      <trkpt lat="43.0858" lon="0.34202">
        <ele>645.05</ele>
        <time>2020-09-01T08:48:20.999Z</time>
      </trkpt>
      <trkpt lat="43.08596" lon="0.34166">
        <ele>644.83</ele>
        <time>2020-09-01T08:48:25.999Z</time>
      </trkpt>
      <trkpt lat="43.08612" lon="0.3413">
        <ele>644.53</ele>
        <time>2020-09-01T08:48:30.999Z</time>
      </trkpt>
      <trkpt lat="43.08629" lon="0.34094">
        <ele>644.26</ele>
        <time>2020-09-01T08:48:35.999Z</time>
      </trkpt>
      <trkpt lat="43.08644" lon="0.34057">
        <ele>644.17</ele>
        <time>2020-09-01T08:48:40.999Z</time>
      </trkpt>
      <trkpt lat="43.0866" lon="0.34021">
        <ele>644.02</ele>
        <time>2020-09-01T08:48:45.999Z</time>
      </trkpt>
      <trkpt lat="43.08677" lon="0.33985">
        <ele>643.63</ele>
        <time>2020-09-01T08:48:50.999Z</time>
      </trkpt>
      <trkpt lat="43.08693" lon="0.33949">
        <ele>643.31</ele>
        <time>2020-09-01T08:48:55.999Z</time>
      </trkpt>
      <trkpt lat="43.08711" lon="0.33914">
        <ele>643.08</ele>
        <time>2020-09-01T08:49:00.999Z</time>
      </trkpt>
      <trkpt lat="43.08731" lon="0.3388">
        <ele>642.65</ele>
        <time>2020-09-01T08:49:05.999Z</time>
      </trkpt>
      <trkpt lat="43.08752" lon="0.33845">
        <ele>642.11</ele>
        <time>2020-09-01T08:49:10.999Z</time>
      </trkpt>
      <trkpt lat="43.08773" lon="0.3381">
        <ele>641.54</ele>
        <time>2020-09-01T08:49:15.999Z</time>
      </trkpt>
      <trkpt lat="43.08797" lon="0.33776">
        <ele>641.14</ele>
        <time>2020-09-01T08:49:20.999Z</time>
      </trkpt>
      <trkpt lat="43.08824" lon="0.33749">
        <ele>640.74</ele>
        <time>2020-09-01T08:49:25.999Z</time>
      </trkpt>
      <trkpt lat="43.08853" lon="0.33724">
        <ele>640.24</ele>
        <time>2020-09-01T08:49:30.999Z</time>
      </trkpt>
      <trkpt lat="43.0888" lon="0.337">
        <ele>639.92</ele>
        <time>2020-09-01T08:49:35.999Z</time>
      </trkpt>
      <trkpt lat="43.08908" lon="0.33678">
        <ele>639.55</ele>
        <time>2020-09-01T08:49:40.999Z</time>
      </trkpt>
      <trkpt lat="43.08934" lon="0.33657">
        <ele>639.4</ele>
        <time>2020-09-01T08:49:45.999Z</time>
      </trkpt>
      <trkpt lat="43.08961" lon="0.33636">
        <ele>639.21</ele>
        <time>2020-09-01T08:49:50.999Z</time>
      </trkpt>
      <trkpt lat="43.08988" lon="0.33614">
        <ele>638.93</ele>
        <time>2020-09-01T08:49:55.999Z</time>
      </trkpt>
      <trkpt lat="43.09015" lon="0.33592">
        <ele>638.62</ele>
        <time>2020-09-01T08:50:00.999Z</time>
      </trkpt>
      <trkpt lat="43.09045" lon="0.3357">
        <ele>638.16</ele>
        <time>2020-09-01T08:50:05.999Z</time>
      </trkpt>
      <trkpt lat="43.09074" lon="0.33546">
        <ele>637.8</ele>
        <time>2020-09-01T08:50:10.999Z</time>
      </trkpt>
      <trkpt lat="43.09104" lon="0.33523">
        <ele>637.85</ele>
        <time>2020-09-01T08:50:15.999Z</time>
      </trkpt>
      <trkpt lat="43.09134" lon="0.33503">
        <ele>637.24</ele>
        <time>2020-09-01T08:50:20.999Z</time>
      </trkpt>
      <trkpt lat="43.09164" lon="0.3348">
        <ele>636.62</ele>
        <time>2020-09-01T08:50:25.999Z</time>
      </trkpt>
      <trkpt lat="43.09194" lon="0.33456">
        <ele>635.97</ele>
        <time>2020-09-01T08:50:30.999Z</time>
      </trkpt>
      <trkpt lat="43.09223" lon="0.33431">
        <ele>635.28</ele>
        <time>2020-09-01T08:50:35.999Z</time>
      </trkpt>
      <trkpt lat="43.09252" lon="0.33406">
        <ele>634.41</ele>
        <time>2020-09-01T08:50:40.999Z</time>
      </trkpt>
      <trkpt lat="43.0928" lon="0.33381">
        <ele>633.92</ele>
        <time>2020-09-01T08:50:45.999Z</time>
      </trkpt>
      <trkpt lat="43.09308" lon="0.33358">
        <ele>633.38</ele>
        <time>2020-09-01T08:50:50.999Z</time>
      </trkpt>
      <trkpt lat="43.09337" lon="0.33335">
        <ele>632.76</ele>
        <time>2020-09-01T08:50:55.999Z</time>
      </trkpt>
      <trkpt lat="43.09364" lon="0.33312">
        <ele>632.27</ele>
        <time>2020-09-01T08:51:00.999Z</time>
      </trkpt>
      <trkpt lat="43.09392" lon="0.3329">
        <ele>631.54</ele>
        <time>2020-09-01T08:51:05.999Z</time>
      </trkpt>
      <trkpt lat="43.0942" lon="0.33267">
        <ele>630.83</ele>
        <time>2020-09-01T08:51:10.999Z</time>
      </trkpt>
      <trkpt lat="43.09449" lon="0.33247">
        <ele>630.02</ele>
        <time>2020-09-01T08:51:15.999Z</time>
      </trkpt>
      <trkpt lat="43.09477" lon="0.33225">
        <ele>629.02</ele>
        <time>2020-09-01T08:51:20.999Z</time>
      </trkpt>
      <trkpt lat="43.09505" lon="0.33202">
        <ele>628.05</ele>
        <time>2020-09-01T08:51:25.999Z</time>
      </trkpt>
      <trkpt lat="43.09534" lon="0.33178">
        <ele>627.01</ele>
        <time>2020-09-01T08:51:30.999Z</time>
      </trkpt>
      <trkpt lat="43.09564" lon="0.33154">
        <ele>626</ele>
        <time>2020-09-01T08:51:35.999Z</time>
      </trkpt>
      <trkpt lat="43.09594" lon="0.33129">
        <ele>624.99</ele>
        <time>2020-09-01T08:51:40.999Z</time>
      </trkpt>
      <trkpt lat="43.09625" lon="0.33105">
        <ele>624.05</ele>
        <time>2020-09-01T08:51:45.999Z</time>
      </trkpt>
      <trkpt lat="43.09655" lon="0.3308">
        <ele>623.18</ele>
        <time>2020-09-01T08:51:50.999Z</time>
      </trkpt>
      <trkpt lat="43.09685" lon="0.33057">
        <ele>622.26</ele>
        <time>2020-09-01T08:51:55.999Z</time>
      </trkpt>
      <trkpt lat="43.09714" lon="0.33034">
        <ele>621.41</ele>
        <time>2020-09-01T08:52:00.999Z</time>
      </trkpt>
      <trkpt lat="43.09741" lon="0.3301">
        <ele>620.61</ele>
        <time>2020-09-01T08:52:05.999Z</time>
      </trkpt>
      <trkpt lat="43.0977" lon="0.32989">
        <ele>619.87</ele>
        <time>2020-09-01T08:52:10.999Z</time>
      </trkpt>
      <trkpt lat="43.09798" lon="0.32966">
        <ele>619.03</ele>
        <time>2020-09-01T08:52:15.999Z</time>
      </trkpt>
      <trkpt lat="43.09827" lon="0.32942">
        <ele>618.37</ele>
        <time>2020-09-01T08:52:20.999Z</time>
      </trkpt>
      <trkpt lat="43.09857" lon="0.32917">
        <ele>617.7</ele>
        <time>2020-09-01T08:52:25.999Z</time>
      </trkpt>
      <trkpt lat="43.09887" lon="0.32895">
        <ele>616.88</ele>
        <time>2020-09-01T08:52:30.999Z</time>
      </trkpt>
      <trkpt lat="43.09917" lon="0.32871">
        <ele>616.13</ele>
        <time>2020-09-01T08:52:35.999Z</time>
      </trkpt>
      <trkpt lat="43.09946" lon="0.32846">
        <ele>615.43</ele>
        <time>2020-09-01T08:52:40.999Z</time>
      </trkpt>
      <trkpt lat="43.09977" lon="0.32821">
        <ele>614.64</ele>
        <time>2020-09-01T08:52:45.999Z</time>
      </trkpt>
      <trkpt lat="43.10008" lon="0.32797">
        <ele>613.83</ele>
        <time>2020-09-01T08:52:50.999Z</time>
      </trkpt>
      <trkpt lat="43.1004" lon="0.32772">
        <ele>613.08</ele>
        <time>2020-09-01T08:52:55.999Z</time>
      </trkpt>
      <trkpt lat="43.10074" lon="0.32748">
        <ele>612.39</ele>
        <time>2020-09-01T08:53:00.999Z</time>
      </trkpt>
      <trkpt lat="43.1011" lon="0.32735">
        <ele>611.39</ele>
        <time>2020-09-01T08:53:05.999Z</time>
      </trkpt>
      <trkpt lat="43.10147" lon="0.32737">
        <ele>610.55</ele>
        <time>2020-09-01T08:53:10.999Z</time>
      </trkpt>
      <trkpt lat="43.10187" lon="0.32746">
        <ele>609.84</ele>
        <time>2020-09-01T08:53:15.999Z</time>
      </trkpt>
      <trkpt lat="43.10227" lon="0.32754">
        <ele>608.74</ele>
        <time>2020-09-01T08:53:20.999Z</time>
      </trkpt>
      <trkpt lat="43.10266" lon="0.32761">
        <ele>607.72</ele>
        <time>2020-09-01T08:53:25.999Z</time>
      </trkpt>
      <trkpt lat="43.10303" lon="0.32768">
        <ele>606.78</ele>
        <time>2020-09-01T08:53:30.999Z</time>
      </trkpt>
      <trkpt lat="43.10341" lon="0.32775">
        <ele>605.65</ele>
        <time>2020-09-01T08:53:35.999Z</time>
      </trkpt>
      <trkpt lat="43.10378" lon="0.32783">
        <ele>604.35</ele>
        <time>2020-09-01T08:53:40.999Z</time>
      </trkpt>
      <trkpt lat="43.10413" lon="0.32792">
        <ele>603.33</ele>
        <time>2020-09-01T08:53:45.999Z</time>
      </trkpt>
      <trkpt lat="43.10442" lon="0.32775">
        <ele>602.41</ele>
        <time>2020-09-01T08:53:50.999Z</time>
      </trkpt>
      <trkpt lat="43.10458" lon="0.32739">
        <ele>601.79</ele>
        <time>2020-09-01T08:53:55.999Z</time>
      </trkpt>
      <trkpt lat="43.10474" lon="0.32703">
        <ele>601.12</ele>
        <time>2020-09-01T08:54:00.999Z</time>
      </trkpt>
      <trkpt lat="43.10487" lon="0.3267">
        <ele>600.44</ele>
        <time>2020-09-01T08:54:05.999Z</time>
      </trkpt>
      <trkpt lat="43.105" lon="0.32635">
        <ele>599.28</ele>
        <time>2020-09-01T08:54:10.999Z</time>
      </trkpt>
      <trkpt lat="43.10513" lon="0.32598">
        <ele>598.33</ele>
        <time>2020-09-01T08:54:15.999Z</time>
      </trkpt>
      <trkpt lat="43.10524" lon="0.32563">
        <ele>597.69</ele>
        <time>2020-09-01T08:54:20.999Z</time>
      </trkpt>
      <trkpt lat="43.10535" lon="0.32528">
        <ele>597.11</ele>
        <time>2020-09-01T08:54:25.999Z</time>
      </trkpt>
      <trkpt lat="43.10544" lon="0.32492">
        <ele>596.38</ele>
        <time>2020-09-01T08:54:30.999Z</time>
      </trkpt>
      <trkpt lat="43.10549" lon="0.32457">
        <ele>595.85</ele>
        <time>2020-09-01T08:54:35.999Z</time>
      </trkpt>
      <trkpt lat="43.10559" lon="0.3243">
        <ele>595.45</ele>
        <time>2020-09-01T08:54:40.999Z</time>
      </trkpt>
      <trkpt lat="43.10572" lon="0.32407">
        <ele>595.03</ele>
        <time>2020-09-01T08:54:45.999Z</time>
      </trkpt>
      <trkpt lat="43.10583" lon="0.32376">
        <ele>594.53</ele>
        <time>2020-09-01T08:54:50.999Z</time>
      </trkpt>
      <trkpt lat="43.10606" lon="0.32346">
        <ele>593.81</ele>
        <time>2020-09-01T08:54:55.999Z</time>
      </trkpt>
      <trkpt lat="43.10632" lon="0.32312">
        <ele>593</ele>
        <time>2020-09-01T08:55:00.999Z</time>
      </trkpt>
      <trkpt lat="43.10654" lon="0.32269">
        <ele>592.16</ele>
        <time>2020-09-01T08:55:05.999Z</time>
      </trkpt>
      <trkpt lat="43.10659" lon="0.32216">
        <ele>591.23</ele>
        <time>2020-09-01T08:55:10.999Z</time>
      </trkpt>
      <trkpt lat="43.10647" lon="0.32165">
        <ele>590.87</ele>
        <time>2020-09-01T08:55:15.999Z</time>
      </trkpt>
      <trkpt lat="43.10636" lon="0.32111">
        <ele>590.41</ele>
        <time>2020-09-01T08:55:20.999Z</time>
      </trkpt>
      <trkpt lat="43.10626" lon="0.32062">
        <ele>590.45</ele>
        <time>2020-09-01T08:55:25.999Z</time>
      </trkpt>
      <trkpt lat="43.10633" lon="0.32016">
        <ele>589.76</ele>
        <time>2020-09-01T08:55:30.999Z</time>
      </trkpt>
      <trkpt lat="43.10659" lon="0.31987">
        <ele>587.81</ele>
        <time>2020-09-01T08:55:35.999Z</time>
      </trkpt>
      <trkpt lat="43.10697" lon="0.31971">
        <ele>585.72</ele>
        <time>2020-09-01T08:55:40.999Z</time>
      </trkpt>
      <trkpt lat="43.10736" lon="0.31964">
        <ele>584.37</ele>
        <time>2020-09-01T08:55:45.999Z</time>
      </trkpt>
      <trkpt lat="43.10774" lon="0.31968">
        <ele>582.74</ele>
        <time>2020-09-01T08:55:50.999Z</time>
      </trkpt>
      <trkpt lat="43.10808" lon="0.3198">
        <ele>580.52</ele>
        <time>2020-09-01T08:55:55.999Z</time>
      </trkpt>
      <trkpt lat="43.10844" lon="0.31991">
        <ele>578.63</ele>
        <time>2020-09-01T08:56:00.999Z</time>
      </trkpt>
      <trkpt lat="43.10881" lon="0.32">
        <ele>577.05</ele>
        <time>2020-09-01T08:56:05.999Z</time>
      </trkpt>
      <trkpt lat="43.10914" lon="0.3201">
        <ele>575.34</ele>
        <time>2020-09-01T08:56:10.999Z</time>
      </trkpt>
      <trkpt lat="43.10949" lon="0.32019">
        <ele>573.32</ele>
        <time>2020-09-01T08:56:15.999Z</time>
      </trkpt>
      <trkpt lat="43.10985" lon="0.32011">
        <ele>571.16</ele>
        <time>2020-09-01T08:56:20.999Z</time>
      </trkpt>
      <trkpt lat="43.11022" lon="0.32001">
        <ele>569.27</ele>
        <time>2020-09-01T08:56:25.999Z</time>
      </trkpt>
      <trkpt lat="43.11061" lon="0.32003">
        <ele>567.75</ele>
        <time>2020-09-01T08:56:30.999Z</time>
      </trkpt>
      <trkpt lat="43.11103" lon="0.32007">
        <ele>565.98</ele>
        <time>2020-09-01T08:56:35.999Z</time>
      </trkpt>
      <trkpt lat="43.1114" lon="0.32042">
        <ele>564.34</ele>
        <time>2020-09-01T08:56:40.999Z</time>
      </trkpt>
      <trkpt lat="43.11166" lon="0.32086">
        <ele>564.58</ele>
        <time>2020-09-01T08:56:45.999Z</time>
      </trkpt>
      <trkpt lat="43.11197" lon="0.32098">
        <ele>564.32</ele>
        <time>2020-09-01T08:56:50.999Z</time>
      </trkpt>
      <trkpt lat="43.11229" lon="0.32108">
        <ele>562.89</ele>
        <time>2020-09-01T08:56:55.999Z</time>
      </trkpt>
      <trkpt lat="43.11259" lon="0.32131">
        <ele>560.25</ele>
        <time>2020-09-01T08:57:00.999Z</time>
      </trkpt>
      <trkpt lat="43.11296" lon="0.32135">
        <ele>557.98</ele>
        <time>2020-09-01T08:57:05.999Z</time>
      </trkpt>
      <trkpt lat="43.11334" lon="0.32122">
        <ele>556.76</ele>
        <time>2020-09-01T08:57:10.999Z</time>
      </trkpt>
      <trkpt lat="43.11367" lon="0.3209">
        <ele>556.03</ele>
        <time>2020-09-01T08:57:15.999Z</time>
      </trkpt>
      <trkpt lat="43.11404" lon="0.32072">
        <ele>555.26</ele>
        <time>2020-09-01T08:57:20.999Z</time>
      </trkpt>
      <trkpt lat="43.11439" lon="0.32054">
        <ele>552.81</ele>
        <time>2020-09-01T08:57:25.999Z</time>
      </trkpt>
      <trkpt lat="43.11474" lon="0.32043">
        <ele>549.24</ele>
        <time>2020-09-01T08:57:30.999Z</time>
      </trkpt>
      <trkpt lat="43.1151" lon="0.32019">
        <ele>545.44</ele>
        <time>2020-09-01T08:57:35.999Z</time>
      </trkpt>
      <trkpt lat="43.11553" lon="0.32002">
        <ele>542.82</ele>
        <time>2020-09-01T08:57:40.999Z</time>
      </trkpt>
      <trkpt lat="43.11592" lon="0.31984">
        <ele>539.32</ele>
        <time>2020-09-01T08:57:45.999Z</time>
      </trkpt>
      <trkpt lat="43.11635" lon="0.31975">
        <ele>536.54</ele>
        <time>2020-09-01T08:57:50.999Z</time>
      </trkpt>
      <trkpt lat="43.11679" lon="0.31974">
        <ele>534.88</ele>
        <time>2020-09-01T08:57:55.999Z</time>
      </trkpt>
      <trkpt lat="43.11722" lon="0.31977">
        <ele>532.35</ele>
        <time>2020-09-01T08:58:00.999Z</time>
      </trkpt>
      <trkpt lat="43.11763" lon="0.31981">
        <ele>529.9</ele>
        <time>2020-09-01T08:58:05.999Z</time>
      </trkpt>
      <trkpt lat="43.11805" lon="0.31985">
        <ele>527.51</ele>
        <time>2020-09-01T08:58:10.999Z</time>
      </trkpt>
      <trkpt lat="43.11844" lon="0.31984">
        <ele>526.07</ele>
        <time>2020-09-01T08:58:15.999Z</time>
      </trkpt>
      <trkpt lat="43.11883" lon="0.31971">
        <ele>525.53</ele>
        <time>2020-09-01T08:58:20.999Z</time>
      </trkpt>
      <trkpt lat="43.11923" lon="0.31958">
        <ele>524.45</ele>
        <time>2020-09-01T08:58:25.999Z</time>
      </trkpt>
      <trkpt lat="43.11966" lon="0.3195">
        <ele>522.84</ele>
        <time>2020-09-01T08:58:30.999Z</time>
      </trkpt>
      <trkpt lat="43.12005" lon="0.31929">
        <ele>520.57</ele>
        <time>2020-09-01T08:58:35.999Z</time>
      </trkpt>
      <trkpt lat="43.12045" lon="0.31913">
        <ele>517.75</ele>
        <time>2020-09-01T08:58:40.999Z</time>
      </trkpt>
      <trkpt lat="43.12088" lon="0.31904">
        <ele>517.23</ele>
        <time>2020-09-01T08:58:45.999Z</time>
      </trkpt>
      <trkpt lat="43.12128" lon="0.31894">
        <ele>518.69</ele>
        <time>2020-09-01T08:58:50.999Z</time>
      </trkpt>
      <trkpt lat="43.12164" lon="0.31876">
        <ele>520.37</ele>
        <time>2020-09-01T08:58:55.999Z</time>
      </trkpt>
      <trkpt lat="43.12202" lon="0.31848">
        <ele>519.69</ele>
        <time>2020-09-01T08:59:00.999Z</time>
      </trkpt>
      <trkpt lat="43.12246" lon="0.31831">
        <ele>517.62</ele>
        <time>2020-09-01T08:59:05.999Z</time>
      </trkpt>
      <trkpt lat="43.12288" lon="0.31832">
        <ele>514.17</ele>
        <time>2020-09-01T08:59:10.999Z</time>
      </trkpt>
      <trkpt lat="43.12325" lon="0.3182">
        <ele>512.35</ele>
        <time>2020-09-01T08:59:15.999Z</time>
      </trkpt>
      <trkpt lat="43.12364" lon="0.31799">
        <ele>511.95</ele>
        <time>2020-09-01T08:59:20.999Z</time>
      </trkpt>
      <trkpt lat="43.12402" lon="0.3179">
        <ele>511.94</ele>
        <time>2020-09-01T08:59:25.999Z</time>
      </trkpt>
      <trkpt lat="43.12439" lon="0.31778">
        <ele>511.97</ele>
        <time>2020-09-01T08:59:30.999Z</time>
      </trkpt>
      <trkpt lat="43.12478" lon="0.31763">
        <ele>511.06</ele>
        <time>2020-09-01T08:59:35.999Z</time>
      </trkpt>
      <trkpt lat="43.12514" lon="0.31752">
        <ele>508.74</ele>
        <time>2020-09-01T08:59:40.999Z</time>
      </trkpt>
      <trkpt lat="43.12546" lon="0.31736">
        <ele>507.44</ele>
        <time>2020-09-01T08:59:45.999Z</time>
      </trkpt>
      <trkpt lat="43.12575" lon="0.31708">
        <ele>506.05</ele>
        <time>2020-09-01T08:59:50.999Z</time>
      </trkpt>
      <trkpt lat="43.12603" lon="0.31669">
        <ele>504.43</ele>
        <time>2020-09-01T08:59:55.999Z</time>
      </trkpt>
      <trkpt lat="43.12633" lon="0.31642">
        <ele>503.25</ele>
        <time>2020-09-01T09:00:00.999Z</time>
      </trkpt>
      <trkpt lat="43.12664" lon="0.31619">
        <ele>501.6</ele>
        <time>2020-09-01T09:00:06.000Z</time>
      </trkpt>
      <trkpt lat="43.12694" lon="0.316">
        <ele>499.99</ele>
        <time>2020-09-01T09:00:11.000Z</time>
      </trkpt>
      <trkpt lat="43.12717" lon="0.31578">
        <ele>497.97</ele>
        <time>2020-09-01T09:00:16.000Z</time>
      </trkpt>
      <trkpt lat="43.1275" lon="0.31555">
        <ele>496.55</ele>
        <time>2020-09-01T09:00:21.000Z</time>
      </trkpt>
      <trkpt lat="43.12783" lon="0.31546">
        <ele>496.3</ele>
        <time>2020-09-01T09:00:26.000Z</time>
      </trkpt>
      <trkpt lat="43.12818" lon="0.31534">
        <ele>495.72</ele>
        <time>2020-09-01T09:00:31.000Z</time>
      </trkpt>
      <trkpt lat="43.12853" lon="0.31512">
        <ele>495.17</ele>
        <time>2020-09-01T09:00:36.000Z</time>
      </trkpt>
      <trkpt lat="43.12891" lon="0.31496">
        <ele>495.22</ele>
        <time>2020-09-01T09:00:41.000Z</time>
      </trkpt>
      <trkpt lat="43.12927" lon="0.31481">
        <ele>494.55</ele>
        <time>2020-09-01T09:00:46.000Z</time>
      </trkpt>
      <trkpt lat="43.12969" lon="0.31466">
        <ele>493.93</ele>
        <time>2020-09-01T09:00:51.000Z</time>
      </trkpt>
      <trkpt lat="43.13007" lon="0.31453">
        <ele>492.96</ele>
        <time>2020-09-01T09:00:56.000Z</time>
      </trkpt>
      <trkpt lat="43.13043" lon="0.31439">
        <ele>491.49</ele>
        <time>2020-09-01T09:01:01.000Z</time>
      </trkpt>
      <trkpt lat="43.13081" lon="0.31423">
        <ele>489.74</ele>
        <time>2020-09-01T09:01:06.000Z</time>
      </trkpt>
      <trkpt lat="43.13118" lon="0.31408">
        <ele>488.54</ele>
        <time>2020-09-01T09:01:11.000Z</time>
      </trkpt>
      <trkpt lat="43.13159" lon="0.31403">
        <ele>489.05</ele>
        <time>2020-09-01T09:01:16.000Z</time>
      </trkpt>
      <trkpt lat="43.13195" lon="0.3139">
        <ele>488.19</ele>
        <time>2020-09-01T09:01:21.000Z</time>
      </trkpt>
      <trkpt lat="43.13228" lon="0.31365">
        <ele>486.24</ele>
        <time>2020-09-01T09:01:26.000Z</time>
      </trkpt>
      <trkpt lat="43.13265" lon="0.3134">
        <ele>484.72</ele>
        <time>2020-09-01T09:01:31.000Z</time>
      </trkpt>
      <trkpt lat="43.13303" lon="0.31325">
        <ele>482.19</ele>
        <time>2020-09-01T09:01:36.000Z</time>
      </trkpt>
      <trkpt lat="43.13341" lon="0.31312">
        <ele>480.79</ele>
        <time>2020-09-01T09:01:41.000Z</time>
      </trkpt>
      <trkpt lat="43.13383" lon="0.31298">
        <ele>478.51</ele>
        <time>2020-09-01T09:01:46.000Z</time>
      </trkpt>
      <trkpt lat="43.13424" lon="0.31288">
        <ele>477.13</ele>
        <time>2020-09-01T09:01:51.000Z</time>
      </trkpt>
      <trkpt lat="43.13465" lon="0.3128">
        <ele>476.16</ele>
        <time>2020-09-01T09:01:56.000Z</time>
      </trkpt>
      <trkpt lat="43.13506" lon="0.31271">
        <ele>474.62</ele>
        <time>2020-09-01T09:02:01.000Z</time>
      </trkpt>
      <trkpt lat="43.13546" lon="0.31258">
        <ele>472.15</ele>
        <time>2020-09-01T09:02:06.000Z</time>
      </trkpt>
      <trkpt lat="43.13585" lon="0.31236">
        <ele>470.37</ele>
        <time>2020-09-01T09:02:11.000Z</time>
      </trkpt>
      <trkpt lat="43.13619" lon="0.31208">
        <ele>468.6</ele>
        <time>2020-09-01T09:02:16.000Z</time>
      </trkpt>
      <trkpt lat="43.13647" lon="0.31174">
        <ele>466.67</ele>
        <time>2020-09-01T09:02:21.000Z</time>
      </trkpt>
      <trkpt lat="43.13675" lon="0.3115">
        <ele>465.26</ele>
        <time>2020-09-01T09:02:26.000Z</time>
      </trkpt>
      <trkpt lat="43.13702" lon="0.31127">
        <ele>464.32</ele>
        <time>2020-09-01T09:02:31.000Z</time>
      </trkpt>
      <trkpt lat="43.13732" lon="0.31104">
        <ele>462.74</ele>
        <time>2020-09-01T09:02:36.000Z</time>
      </trkpt>
      <trkpt lat="43.13764" lon="0.31079">
        <ele>460.99</ele>
        <time>2020-09-01T09:02:41.000Z</time>
      </trkpt>
      <trkpt lat="43.13796" lon="0.31057">
        <ele>459.76</ele>
        <time>2020-09-01T09:02:46.000Z</time>
      </trkpt>
      <trkpt lat="43.13827" lon="0.31028">
        <ele>458.53</ele>
        <time>2020-09-01T09:02:51.000Z</time>
      </trkpt>
      <trkpt lat="43.1386" lon="0.30999">
        <ele>457</ele>
        <time>2020-09-01T09:02:56.000Z</time>
      </trkpt>
      <trkpt lat="43.13892" lon="0.30966">
        <ele>455.39</ele>
        <time>2020-09-01T09:03:01.000Z</time>
      </trkpt>
      <trkpt lat="43.13928" lon="0.30938">
        <ele>453.34</ele>
        <time>2020-09-01T09:03:06.000Z</time>
      </trkpt>
      <trkpt lat="43.13961" lon="0.30906">
        <ele>452.55</ele>
        <time>2020-09-01T09:03:11.000Z</time>
      </trkpt>
      <trkpt lat="43.13993" lon="0.30871">
        <ele>451.98</ele>
        <time>2020-09-01T09:03:16.000Z</time>
      </trkpt>
      <trkpt lat="43.1403" lon="0.30838">
        <ele>452.06</ele>
        <time>2020-09-01T09:03:21.000Z</time>
      </trkpt>
      <trkpt lat="43.14069" lon="0.30811">
        <ele>450.94</ele>
        <time>2020-09-01T09:03:26.000Z</time>
      </trkpt>
      <trkpt lat="43.14112" lon="0.30799">
        <ele>449.27</ele>
        <time>2020-09-01T09:03:31.000Z</time>
      </trkpt>
      <trkpt lat="43.14154" lon="0.30791">
        <ele>447.26</ele>
        <time>2020-09-01T09:03:36.000Z</time>
      </trkpt>
      <trkpt lat="43.14191" lon="0.30772">
        <ele>444.59</ele>
        <time>2020-09-01T09:03:41.000Z</time>
      </trkpt>
      <trkpt lat="43.14223" lon="0.30737">
        <ele>442.25</ele>
        <time>2020-09-01T09:03:46.000Z</time>
      </trkpt>
      <trkpt lat="43.14245" lon="0.30689">
        <ele>440.46</ele>
        <time>2020-09-01T09:03:51.000Z</time>
      </trkpt>
      <trkpt lat="43.14266" lon="0.30636">
        <ele>438.76</ele>
        <time>2020-09-01T09:03:56.000Z</time>
      </trkpt>
      <trkpt lat="43.14291" lon="0.30582">
        <ele>437.15</ele>
        <time>2020-09-01T09:04:01.000Z</time>
      </trkpt>
      <trkpt lat="43.14322" lon="0.30533">
        <ele>435.48</ele>
        <time>2020-09-01T09:04:06.000Z</time>
      </trkpt>
      <trkpt lat="43.14352" lon="0.30483">
        <ele>433.6</ele>
        <time>2020-09-01T09:04:11.000Z</time>
      </trkpt>
      <trkpt lat="43.14381" lon="0.30432">
        <ele>431.53</ele>
        <time>2020-09-01T09:04:16.000Z</time>
      </trkpt>
      <trkpt lat="43.14409" lon="0.3038">
        <ele>429.4</ele>
        <time>2020-09-01T09:04:21.000Z</time>
      </trkpt>
      <trkpt lat="43.1444" lon="0.30329">
        <ele>427.36</ele>
        <time>2020-09-01T09:04:26.000Z</time>
      </trkpt>
      <trkpt lat="43.14468" lon="0.30279">
        <ele>425.64</ele>
        <time>2020-09-01T09:04:31.000Z</time>
      </trkpt>
      <trkpt lat="43.14502" lon="0.30242">
        <ele>423.41</ele>
        <time>2020-09-01T09:04:36.000Z</time>
      </trkpt>
      <trkpt lat="43.14537" lon="0.3021">
        <ele>421.77</ele>
        <time>2020-09-01T09:04:41.000Z</time>
      </trkpt>
      <trkpt lat="43.14571" lon="0.30168">
        <ele>419.96</ele>
        <time>2020-09-01T09:04:46.000Z</time>
      </trkpt>
      <trkpt lat="43.14606" lon="0.30125">
        <ele>418.22</ele>
        <time>2020-09-01T09:04:51.000Z</time>
      </trkpt>
      <trkpt lat="43.1464" lon="0.30083">
        <ele>416.68</ele>
        <time>2020-09-01T09:04:56.000Z</time>
      </trkpt>
      <trkpt lat="43.14665" lon="0.30033">
        <ele>414.7</ele>
        <time>2020-09-01T09:05:01.000Z</time>
      </trkpt>
      <trkpt lat="43.14682" lon="0.29976">
        <ele>412.15</ele>
        <time>2020-09-01T09:05:06.000Z</time>
      </trkpt>
      <trkpt lat="43.14706" lon="0.29921">
        <ele>409.02</ele>
        <time>2020-09-01T09:05:11.000Z</time>
      </trkpt>
      <trkpt lat="43.14734" lon="0.29868">
        <ele>406.78</ele>
        <time>2020-09-01T09:05:16.000Z</time>
      </trkpt>
      <trkpt lat="43.14759" lon="0.29818">
        <ele>404.82</ele>
        <time>2020-09-01T09:05:21.000Z</time>
      </trkpt>
      <trkpt lat="43.14791" lon="0.29785">
        <ele>402.62</ele>
        <time>2020-09-01T09:05:26.000Z</time>
      </trkpt>
      <trkpt lat="43.14823" lon="0.2974">
        <ele>400.65</ele>
        <time>2020-09-01T09:05:31.000Z</time>
      </trkpt>
      <trkpt lat="43.14855" lon="0.29696">
        <ele>398.51</ele>
        <time>2020-09-01T09:05:36.000Z</time>
      </trkpt>
      <trkpt lat="43.14883" lon="0.29652">
        <ele>396.36</ele>
        <time>2020-09-01T09:05:41.000Z</time>
      </trkpt>
      <trkpt lat="43.14909" lon="0.29611">
        <ele>394.49</ele>
        <time>2020-09-01T09:05:46.000Z</time>
      </trkpt>
      <trkpt lat="43.14932" lon="0.29576">
        <ele>393.08</ele>
        <time>2020-09-01T09:05:51.000Z</time>
      </trkpt>
      <trkpt lat="43.14956" lon="0.29542">
        <ele>391.23</ele>
        <time>2020-09-01T09:05:56.000Z</time>
      </trkpt>
      <trkpt lat="43.14981" lon="0.29506">
        <ele>389.89</ele>
        <time>2020-09-01T09:06:01.000Z</time>
      </trkpt>
      <trkpt lat="43.15008" lon="0.29475">
        <ele>388.29</ele>
        <time>2020-09-01T09:06:06.000Z</time>
      </trkpt>
      <trkpt lat="43.15035" lon="0.29448">
        <ele>386.42</ele>
        <time>2020-09-01T09:06:11.000Z</time>
      </trkpt>
      <trkpt lat="43.15059" lon="0.29416">
        <ele>384.89</ele>
        <time>2020-09-01T09:06:16.000Z</time>
      </trkpt>
      <trkpt lat="43.15085" lon="0.29389">
        <ele>382.01</ele>
        <time>2020-09-01T09:06:21.000Z</time>
      </trkpt>
      <trkpt lat="43.15113" lon="0.29353">
        <ele>379.93</ele>
        <time>2020-09-01T09:06:26.000Z</time>
      </trkpt>
      <trkpt lat="43.15144" lon="0.29326">
        <ele>378.42</ele>
        <time>2020-09-01T09:06:31.000Z</time>
      </trkpt>
      <trkpt lat="43.15174" lon="0.29294">
        <ele>377.18</ele>
        <time>2020-09-01T09:06:36.000Z</time>
      </trkpt>
      <trkpt lat="43.15205" lon="0.29259">
        <ele>376.56</ele>
        <time>2020-09-01T09:06:41.000Z</time>
      </trkpt>
      <trkpt lat="43.15236" lon="0.29229">
        <ele>376.01</ele>
        <time>2020-09-01T09:06:46.000Z</time>
      </trkpt>
      <trkpt lat="43.15267" lon="0.29194">
        <ele>375.2</ele>
        <time>2020-09-01T09:06:51.000Z</time>
      </trkpt>
      <trkpt lat="43.153" lon="0.29164">
        <ele>372.6</ele>
        <time>2020-09-01T09:06:56.000Z</time>
      </trkpt>
      <trkpt lat="43.1533" lon="0.29134">
        <ele>370.04</ele>
        <time>2020-09-01T09:07:01.000Z</time>
      </trkpt>
      <trkpt lat="43.15357" lon="0.29106">
        <ele>368.19</ele>
        <time>2020-09-01T09:07:06.000Z</time>
      </trkpt>
      <trkpt lat="43.15384" lon="0.29074">
        <ele>366.89</ele>
        <time>2020-09-01T09:07:11.000Z</time>
      </trkpt>
      <trkpt lat="43.15412" lon="0.29044">
        <ele>366.02</ele>
        <time>2020-09-01T09:07:16.000Z</time>
      </trkpt>
      <trkpt lat="43.15437" lon="0.29019">
        <ele>364.76</ele>
        <time>2020-09-01T09:07:21.000Z</time>
      </trkpt>
      <trkpt lat="43.15466" lon="0.28995">
        <ele>362.13</ele>
        <time>2020-09-01T09:07:26.000Z</time>
      </trkpt>
      <trkpt lat="43.15491" lon="0.28971">
        <ele>360.57</ele>
        <time>2020-09-01T09:07:31.000Z</time>
      </trkpt>
      <trkpt lat="43.15514" lon="0.28951">
        <ele>359.45</ele>
        <time>2020-09-01T09:07:36.000Z</time>
      </trkpt>
      <trkpt lat="43.15535" lon="0.28931">
        <ele>358.66</ele>
        <time>2020-09-01T09:07:41.000Z</time>
      </trkpt>
      <trkpt lat="43.15556" lon="0.28911">
        <ele>357.8</ele>
        <time>2020-09-01T09:07:46.000Z</time>
      </trkpt>
      <trkpt lat="43.15575" lon="0.28891">
        <ele>357.35</ele>
        <time>2020-09-01T09:07:51.000Z</time>
      </trkpt>
      <trkpt lat="43.15594" lon="0.2887">
        <ele>356.69</ele>
        <time>2020-09-01T09:07:56.000Z</time>
      </trkpt>
      <trkpt lat="43.15613" lon="0.28853">
        <ele>356.69</ele>
        <time>2020-09-01T09:08:01.000Z</time>
      </trkpt>
      <trkpt lat="43.15633" lon="0.28833">
        <ele>357.3</ele>
        <time>2020-09-01T09:08:06.000Z</time>
      </trkpt>
      <trkpt lat="43.15659" lon="0.2881">
        <ele>357.9</ele>
        <time>2020-09-01T09:08:11.000Z</time>
      </trkpt>
      <trkpt lat="43.15686" lon="0.28787">
        <ele>357.85</ele>
        <time>2020-09-01T09:08:16.000Z</time>
      </trkpt>
      <trkpt lat="43.1571" lon="0.28756">
        <ele>357.25</ele>
        <time>2020-09-01T09:08:21.000Z</time>
      </trkpt>
      <trkpt lat="43.15729" lon="0.28724">
        <ele>356.5</ele>
        <time>2020-09-01T09:08:26.000Z</time>
      </trkpt>
      <trkpt lat="43.15744" lon="0.28694">
        <ele>355.73</ele>
        <time>2020-09-01T09:08:31.000Z</time>
      </trkpt>
      <trkpt lat="43.15764" lon="0.28662">
        <ele>355.16</ele>
        <time>2020-09-01T09:08:36.000Z</time>
      </trkpt>
      <trkpt lat="43.15782" lon="0.28626">
        <ele>354.51</ele>
        <time>2020-09-01T09:08:41.000Z</time>
      </trkpt>
      <trkpt lat="43.15802" lon="0.28585">
        <ele>353.54</ele>
        <time>2020-09-01T09:08:46.000Z</time>
      </trkpt>
      <trkpt lat="43.15824" lon="0.28548">
        <ele>352.7</ele>
        <time>2020-09-01T09:08:51.000Z</time>
      </trkpt>
      <trkpt lat="43.15849" lon="0.28514">
        <ele>351.99</ele>
        <time>2020-09-01T09:08:56.000Z</time>
      </trkpt>
      <trkpt lat="43.15869" lon="0.28474">
        <ele>351.63</ele>
        <time>2020-09-01T09:09:01.000Z</time>
      </trkpt>
      <trkpt lat="43.15891" lon="0.28438">
        <ele>350.74</ele>
        <time>2020-09-01T09:09:06.000Z</time>
      </trkpt>
      <trkpt lat="43.15911" lon="0.28407">
        <ele>349.81</ele>
        <time>2020-09-01T09:09:11.000Z</time>
      </trkpt>
      <trkpt lat="43.15931" lon="0.28374">
        <ele>348.94</ele>
        <time>2020-09-01T09:09:16.000Z</time>
      </trkpt>
      <trkpt lat="43.15952" lon="0.28335">
        <ele>347.34</ele>
        <time>2020-09-01T09:09:21.000Z</time>
      </trkpt>
      <trkpt lat="43.15974" lon="0.28288">
        <ele>346.56</ele>
        <time>2020-09-01T09:09:26.000Z</time>
      </trkpt>
      <trkpt lat="43.15998" lon="0.2824">
        <ele>346</ele>
        <time>2020-09-01T09:09:31.000Z</time>
      </trkpt>
      <trkpt lat="43.16029" lon="0.28198">
        <ele>344.63</ele>
        <time>2020-09-01T09:09:36.000Z</time>
      </trkpt>
      <trkpt lat="43.16061" lon="0.28156">
        <ele>342.75</ele>
        <time>2020-09-01T09:09:41.000Z</time>
      </trkpt>
      <trkpt lat="43.16068" lon="0.28096">
        <ele>340.77</ele>
        <time>2020-09-01T09:09:46.000Z</time>
      </trkpt>
      <trkpt lat="43.16071" lon="0.28037">
        <ele>339.47</ele>
        <time>2020-09-01T09:09:51.000Z</time>
      </trkpt>
      <trkpt lat="43.16088" lon="0.27989">
        <ele>340.48</ele>
        <time>2020-09-01T09:09:56.000Z</time>
      </trkpt>
      <trkpt lat="43.16103" lon="0.27949">
        <ele>340.32</ele>
        <time>2020-09-01T09:10:01.000Z</time>
      </trkpt>
      <trkpt lat="43.1612" lon="0.27915">
        <ele>339.27</ele>
        <time>2020-09-01T09:10:06.000Z</time>
      </trkpt>
      <trkpt lat="43.16139" lon="0.27884">
        <ele>337.62</ele>
        <time>2020-09-01T09:10:11.000Z</time>
      </trkpt>
      <trkpt lat="43.16155" lon="0.27855">
        <ele>335.98</ele>
        <time>2020-09-01T09:10:16.000Z</time>
      </trkpt>
      <trkpt lat="43.16171" lon="0.27823">
        <ele>334.47</ele>
        <time>2020-09-01T09:10:21.000Z</time>
      </trkpt>
      <trkpt lat="43.16189" lon="0.27792">
        <ele>333.6</ele>
        <time>2020-09-01T09:10:26.000Z</time>
      </trkpt>
      <trkpt lat="43.16211" lon="0.27757">
        <ele>332.54</ele>
        <time>2020-09-01T09:10:31.000Z</time>
      </trkpt>
      <trkpt lat="43.16238" lon="0.27718">
        <ele>330.98</ele>
        <time>2020-09-01T09:10:36.000Z</time>
      </trkpt>
      <trkpt lat="43.16263" lon="0.27674">
        <ele>329.73</ele>
        <time>2020-09-01T09:10:41.000Z</time>
      </trkpt>
      <trkpt lat="43.16282" lon="0.27632">
        <ele>329.4</ele>
        <time>2020-09-01T09:10:46.000Z</time>
      </trkpt>
      <trkpt lat="43.16299" lon="0.27598">
        <ele>329.21</ele>
        <time>2020-09-01T09:10:51.000Z</time>
      </trkpt>
      <trkpt lat="43.16313" lon="0.27571">
        <ele>328.91</ele>
        <time>2020-09-01T09:10:56.000Z</time>
      </trkpt>
      <trkpt lat="43.16322" lon="0.27551">
        <ele>328.74</ele>
        <time>2020-09-01T09:11:01.000Z</time>
      </trkpt>
      <trkpt lat="43.16333" lon="0.2753">
        <ele>328.64</ele>
        <time>2020-09-01T09:11:06.000Z</time>
      </trkpt>
      <trkpt lat="43.16342" lon="0.2751">
        <ele>328.51</ele>
        <time>2020-09-01T09:11:11.000Z</time>
      </trkpt>
      <trkpt lat="43.16351" lon="0.27491">
        <ele>328.36</ele>
        <time>2020-09-01T09:11:16.000Z</time>
      </trkpt>
      <trkpt lat="43.16359" lon="0.27472">
        <ele>328.17</ele>
        <time>2020-09-01T09:11:21.000Z</time>
      </trkpt>
      <trkpt lat="43.16368" lon="0.27454">
        <ele>327.97</ele>
        <time>2020-09-01T09:11:26.000Z</time>
      </trkpt>
      <trkpt lat="43.16377" lon="0.27435">
        <ele>327.78</ele>
        <time>2020-09-01T09:11:31.000Z</time>
      </trkpt>
      <trkpt lat="43.16386" lon="0.27416">
        <ele>327.59</ele>
        <time>2020-09-01T09:11:36.000Z</time>
      </trkpt>
      <trkpt lat="43.16395" lon="0.27396">
        <ele>327.38</ele>
        <time>2020-09-01T09:11:41.000Z</time>
      </trkpt>
      <trkpt lat="43.16404" lon="0.27377">
        <ele>327.15</ele>
        <time>2020-09-01T09:11:46.000Z</time>
      </trkpt>
      <trkpt lat="43.16413" lon="0.27356">
        <ele>326.92</ele>
        <time>2020-09-01T09:11:51.000Z</time>
      </trkpt>
      <trkpt lat="43.16422" lon="0.27336">
        <ele>326.69</ele>
        <time>2020-09-01T09:11:56.000Z</time>
      </trkpt>
      <trkpt lat="43.16432" lon="0.27316">
        <ele>326.14</ele>
        <time>2020-09-01T09:12:01.000Z</time>
      </trkpt>
      <trkpt lat="43.16442" lon="0.27294">
        <ele>324.91</ele>
        <time>2020-09-01T09:12:06.000Z</time>
      </trkpt>
      <trkpt lat="43.16453" lon="0.27269">
        <ele>324.11</ele>
        <time>2020-09-01T09:12:11.000Z</time>
      </trkpt>
      <trkpt lat="43.16465" lon="0.27244">
        <ele>323.65</ele>
        <time>2020-09-01T09:12:16.000Z</time>
      </trkpt>
      <trkpt lat="43.16476" lon="0.27221">
        <ele>323.45</ele>
        <time>2020-09-01T09:12:21.000Z</time>
      </trkpt>
      <trkpt lat="43.16488" lon="0.272">
        <ele>323.19</ele>
        <time>2020-09-01T09:12:26.000Z</time>
      </trkpt>
      <trkpt lat="43.165" lon="0.27179">
        <ele>322.93</ele>
        <time>2020-09-01T09:12:31.000Z</time>
      </trkpt>
      <trkpt lat="43.16511" lon="0.27159">
        <ele>322.74</ele>
        <time>2020-09-01T09:12:36.000Z</time>
      </trkpt>
      <trkpt lat="43.16524" lon="0.2714">
        <ele>322.68</ele>
        <time>2020-09-01T09:12:41.000Z</time>
      </trkpt>
      <trkpt lat="43.16541" lon="0.27132">
        <ele>322.62</ele>
        <time>2020-09-01T09:12:46.000Z</time>
      </trkpt>
      <trkpt lat="43.16558" lon="0.27119">
        <ele>322.36</ele>
        <time>2020-09-01T09:12:51.000Z</time>
      </trkpt>
      <trkpt lat="43.16573" lon="0.27095">
        <ele>322.09</ele>
        <time>2020-09-01T09:12:56.000Z</time>
      </trkpt>
      <trkpt lat="43.16584" lon="0.27064">
        <ele>321.85</ele>
        <time>2020-09-01T09:13:01.000Z</time>
      </trkpt>
      <trkpt lat="43.16595" lon="0.27025">
        <ele>321.54</ele>
        <time>2020-09-01T09:13:06.000Z</time>
      </trkpt>
      <trkpt lat="43.16609" lon="0.26983">
        <ele>320.99</ele>
        <time>2020-09-01T09:13:11.000Z</time>
      </trkpt>
      <trkpt lat="43.16622" lon="0.26939">
        <ele>320.12</ele>
        <time>2020-09-01T09:13:15.999Z</time>
      </trkpt>
      <trkpt lat="43.16636" lon="0.26892">
        <ele>319.44</ele>
        <time>2020-09-01T09:13:20.999Z</time>
      </trkpt>
      <trkpt lat="43.16651" lon="0.26847">
        <ele>319.04</ele>
        <time>2020-09-01T09:13:25.999Z</time>
      </trkpt>
      <trkpt lat="43.16667" lon="0.26805">
        <ele>319.09</ele>
        <time>2020-09-01T09:13:30.999Z</time>
      </trkpt>
      <trkpt lat="43.1668" lon="0.26768">
        <ele>318.96</ele>
        <time>2020-09-01T09:13:35.999Z</time>
      </trkpt>
      <trkpt lat="43.16689" lon="0.26735">
        <ele>318.55</ele>
        <time>2020-09-01T09:13:40.999Z</time>
      </trkpt>
      <trkpt lat="43.16698" lon="0.26704">
        <ele>318.24</ele>
        <time>2020-09-01T09:13:45.999Z</time>
      </trkpt>
      <trkpt lat="43.1671" lon="0.26672">
        <ele>317.94</ele>
        <time>2020-09-01T09:13:50.999Z</time>
      </trkpt>
      <trkpt lat="43.1672" lon="0.2664">
        <ele>318.04</ele>
        <time>2020-09-01T09:13:55.999Z</time>
      </trkpt>
      <trkpt lat="43.16731" lon="0.26609">
        <ele>318.02</ele>
        <time>2020-09-01T09:14:00.999Z</time>
      </trkpt>
      <trkpt lat="43.16742" lon="0.26574">
        <ele>317.78</ele>
        <time>2020-09-01T09:14:05.999Z</time>
      </trkpt>
      <trkpt lat="43.16755" lon="0.2654">
        <ele>317.4</ele>
        <time>2020-09-01T09:14:10.999Z</time>
      </trkpt>
      <trkpt lat="43.16769" lon="0.26506">
        <ele>316.69</ele>
        <time>2020-09-01T09:14:15.999Z</time>
      </trkpt>
      <trkpt lat="43.16781" lon="0.26474">
        <ele>315.72</ele>
        <time>2020-09-01T09:14:20.999Z</time>
      </trkpt>
      <trkpt lat="43.16793" lon="0.26437">
        <ele>314.72</ele>
        <time>2020-09-01T09:14:25.999Z</time>
      </trkpt>
      <trkpt lat="43.16806" lon="0.26399">
        <ele>313.74</ele>
        <time>2020-09-01T09:14:30.999Z</time>
      </trkpt>
      <trkpt lat="43.16818" lon="0.26361">
        <ele>312.91</ele>
        <time>2020-09-01T09:14:35.999Z</time>
      </trkpt>
      <trkpt lat="43.1683" lon="0.26326">
        <ele>312.39</ele>
        <time>2020-09-01T09:14:40.999Z</time>
      </trkpt>
      <trkpt lat="43.1684" lon="0.26297">
        <ele>312.35</ele>
        <time>2020-09-01T09:14:45.999Z</time>
      </trkpt>
      <trkpt lat="43.1685" lon="0.26269">
        <ele>312.74</ele>
        <time>2020-09-01T09:14:50.999Z</time>
      </trkpt>
      <trkpt lat="43.16858" lon="0.26245">
        <ele>313.09</ele>
        <time>2020-09-01T09:14:55.999Z</time>
      </trkpt>
      <trkpt lat="43.16866" lon="0.26223">
        <ele>313.13</ele>
        <time>2020-09-01T09:15:00.999Z</time>
      </trkpt>
      <trkpt lat="43.16871" lon="0.26204">
        <ele>313.21</ele>
        <time>2020-09-01T09:15:05.999Z</time>
      </trkpt>
      <trkpt lat="43.16878" lon="0.26186">
        <ele>313.29</ele>
        <time>2020-09-01T09:15:10.999Z</time>
      </trkpt>
      <trkpt lat="43.16884" lon="0.26168">
        <ele>313.36</ele>
        <time>2020-09-01T09:15:15.999Z</time>
      </trkpt>
      <trkpt lat="43.1689" lon="0.2615">
        <ele>313.4</ele>
        <time>2020-09-01T09:15:20.999Z</time>
      </trkpt>
      <trkpt lat="43.16894" lon="0.26135">
        <ele>313.39</ele>
        <time>2020-09-01T09:15:25.999Z</time>
      </trkpt>
      <trkpt lat="43.16898" lon="0.2612">
        <ele>313.31</ele>
        <time>2020-09-01T09:15:30.999Z</time>
      </trkpt>
      <trkpt lat="43.16905" lon="0.26103">
        <ele>313.13</ele>
        <time>2020-09-01T09:15:35.999Z</time>
      </trkpt>
      <trkpt lat="43.16912" lon="0.26081">
        <ele>312.93</ele>
        <time>2020-09-01T09:15:40.999Z</time>
      </trkpt>
      <trkpt lat="43.16919" lon="0.2606">
        <ele>312.74</ele>
        <time>2020-09-01T09:15:45.999Z</time>
      </trkpt>
      <trkpt lat="43.16927" lon="0.26038">
        <ele>312.61</ele>
        <time>2020-09-01T09:15:50.999Z</time>
      </trkpt>
      <trkpt lat="43.16932" lon="0.26016">
        <ele>312.55</ele>
        <time>2020-09-01T09:15:55.999Z</time>
      </trkpt>
      <trkpt lat="43.16938" lon="0.25995">
        <ele>312.52</ele>
        <time>2020-09-01T09:16:00.999Z</time>
      </trkpt>
      <trkpt lat="43.16945" lon="0.25974">
        <ele>312.47</ele>
        <time>2020-09-01T09:16:05.999Z</time>
      </trkpt>
      <trkpt lat="43.16952" lon="0.25951">
        <ele>312.4</ele>
        <time>2020-09-01T09:16:10.999Z</time>
      </trkpt>
      <trkpt lat="43.1696" lon="0.25928">
        <ele>311.96</ele>
        <time>2020-09-01T09:16:15.999Z</time>
      </trkpt>
      <trkpt lat="43.16969" lon="0.25902">
        <ele>311.48</ele>
        <time>2020-09-01T09:16:20.999Z</time>
      </trkpt>
      <trkpt lat="43.16979" lon="0.25874">
        <ele>310.95</ele>
        <time>2020-09-01T09:16:25.999Z</time>
      </trkpt>
      <trkpt lat="43.1699" lon="0.2584">
        <ele>310.51</ele>
        <time>2020-09-01T09:16:30.999Z</time>
      </trkpt>
      <trkpt lat="43.17003" lon="0.25803">
        <ele>309.93</ele>
        <time>2020-09-01T09:16:35.999Z</time>
      </trkpt>
      <trkpt lat="43.17016" lon="0.25763">
        <ele>309.38</ele>
        <time>2020-09-01T09:16:40.999Z</time>
      </trkpt>
      <trkpt lat="43.17029" lon="0.2573">
        <ele>309.21</ele>
        <time>2020-09-01T09:16:45.999Z</time>
      </trkpt>
      <trkpt lat="43.1704" lon="0.257">
        <ele>309.15</ele>
        <time>2020-09-01T09:16:50.999Z</time>
      </trkpt>
      <trkpt lat="43.1705" lon="0.25676">
        <ele>309.11</ele>
        <time>2020-09-01T09:16:55.999Z</time>
      </trkpt>
      <trkpt lat="43.17058" lon="0.25654">
        <ele>309.1</ele>
        <time>2020-09-01T09:17:00.999Z</time>
      </trkpt>
      <trkpt lat="43.17068" lon="0.25631">
        <ele>308.63</ele>
        <time>2020-09-01T09:17:05.999Z</time>
      </trkpt>
      <trkpt lat="43.17079" lon="0.25605">
        <ele>307.91</ele>
        <time>2020-09-01T09:17:10.999Z</time>
      </trkpt>
      <trkpt lat="43.17092" lon="0.25571">
        <ele>306.75</ele>
        <time>2020-09-01T09:17:15.999Z</time>
      </trkpt>
      <trkpt lat="43.17117" lon="0.25537">
        <ele>305.43</ele>
        <time>2020-09-01T09:17:20.999Z</time>
      </trkpt>
      <trkpt lat="43.17156" lon="0.25506">
        <ele>304.33</ele>
        <time>2020-09-01T09:17:25.999Z</time>
      </trkpt>
      <trkpt lat="43.17201" lon="0.25471">
        <ele>303.07</ele>
        <time>2020-09-01T09:17:30.999Z</time>
      </trkpt>
      <trkpt lat="43.17246" lon="0.25434">
        <ele>301.74</ele>
        <time>2020-09-01T09:17:35.999Z</time>
      </trkpt>
      <trkpt lat="43.17295" lon="0.25404">
        <ele>300.47</ele>
        <time>2020-09-01T09:17:40.999Z</time>
      </trkpt>
      <trkpt lat="43.17339" lon="0.25372">
        <ele>299.18</ele>
        <time>2020-09-01T09:17:45.999Z</time>
      </trkpt>
      <trkpt lat="43.1738" lon="0.25342">
        <ele>298.25</ele>
        <time>2020-09-01T09:17:50.999Z</time>
      </trkpt>
      <trkpt lat="43.17418" lon="0.25313">
        <ele>297.42</ele>
        <time>2020-09-01T09:17:55.999Z</time>
      </trkpt>
      <trkpt lat="43.17453" lon="0.25286">
        <ele>295.97</ele>
        <time>2020-09-01T09:18:00.999Z</time>
      </trkpt>
      <trkpt lat="43.17486" lon="0.25261">
        <ele>294.67</ele>
        <time>2020-09-01T09:18:05.999Z</time>
      </trkpt>
      <trkpt lat="43.17518" lon="0.25234">
        <ele>293.63</ele>
        <time>2020-09-01T09:18:10.999Z</time>
      </trkpt>
      <trkpt lat="43.17552" lon="0.2521">
        <ele>292.42</ele>
        <time>2020-09-01T09:18:15.999Z</time>
      </trkpt>
      <trkpt lat="43.17587" lon="0.25183">
        <ele>290.97</ele>
        <time>2020-09-01T09:18:20.999Z</time>
      </trkpt>
      <trkpt lat="43.17625" lon="0.25152">
        <ele>289.38</ele>
        <time>2020-09-01T09:18:25.999Z</time>
      </trkpt>
      <trkpt lat="43.17667" lon="0.2512">
        <ele>287.67</ele>
        <time>2020-09-01T09:18:30.999Z</time>
      </trkpt>
      <trkpt lat="43.1771" lon="0.2509">
        <ele>285.94</ele>
        <time>2020-09-01T09:18:35.999Z</time>
      </trkpt>
      <trkpt lat="43.17748" lon="0.25063">
        <ele>284.34</ele>
        <time>2020-09-01T09:18:40.999Z</time>
      </trkpt>
      <trkpt lat="43.17786" lon="0.25041">
        <ele>282.66</ele>
        <time>2020-09-01T09:18:45.999Z</time>
      </trkpt>
      <trkpt lat="43.17821" lon="0.25019">
        <ele>281.16</ele>
        <time>2020-09-01T09:18:50.999Z</time>
      </trkpt>
      <trkpt lat="43.17853" lon="0.24996">
        <ele>279.82</ele>
        <time>2020-09-01T09:18:55.999Z</time>
      </trkpt>
      <trkpt lat="43.17882" lon="0.24975">
        <ele>278.96</ele>
        <time>2020-09-01T09:19:00.999Z</time>
      </trkpt>
      <trkpt lat="43.17909" lon="0.24956">
        <ele>278.14</ele>
        <time>2020-09-01T09:19:05.999Z</time>
      </trkpt>
      <trkpt lat="43.17933" lon="0.2494">
        <ele>277.07</ele>
        <time>2020-09-01T09:19:10.999Z</time>
      </trkpt>
      <trkpt lat="43.17953" lon="0.24925">
        <ele>276.26</ele>
        <time>2020-09-01T09:19:15.999Z</time>
      </trkpt>
      <trkpt lat="43.17972" lon="0.24911">
        <ele>275.54</ele>
        <time>2020-09-01T09:19:20.999Z</time>
      </trkpt>
      <trkpt lat="43.17992" lon="0.24897">
        <ele>274.66</ele>
        <time>2020-09-01T09:19:25.999Z</time>
      </trkpt>
      <trkpt lat="43.18011" lon="0.24882">
        <ele>273.83</ele>
        <time>2020-09-01T09:19:30.999Z</time>
      </trkpt>
      <trkpt lat="43.18031" lon="0.24868">
        <ele>273.22</ele>
        <time>2020-09-01T09:19:35.999Z</time>
      </trkpt>
      <trkpt lat="43.1805" lon="0.24855">
        <ele>272.8</ele>
        <time>2020-09-01T09:19:40.999Z</time>
      </trkpt>
      <trkpt lat="43.1807" lon="0.2484">
        <ele>272.43</ele>
        <time>2020-09-01T09:19:45.999Z</time>
      </trkpt>
      <trkpt lat="43.18091" lon="0.24825">
        <ele>272.15</ele>
        <time>2020-09-01T09:19:50.999Z</time>
      </trkpt>
      <trkpt lat="43.18113" lon="0.2481">
        <ele>271.91</ele>
        <time>2020-09-01T09:19:55.999Z</time>
      </trkpt>
      <trkpt lat="43.18135" lon="0.24793">
        <ele>271.51</ele>
        <time>2020-09-01T09:20:00.999Z</time>
      </trkpt>
      <trkpt lat="43.18157" lon="0.24776">
        <ele>271.15</ele>
        <time>2020-09-01T09:20:05.999Z</time>
      </trkpt>
      <trkpt lat="43.1818" lon="0.24761">
        <ele>270.92</ele>
        <time>2020-09-01T09:20:10.999Z</time>
      </trkpt>
      <trkpt lat="43.18202" lon="0.24745">
        <ele>270.61</ele>
        <time>2020-09-01T09:20:15.999Z</time>
      </trkpt>
      <trkpt lat="43.18223" lon="0.24729">
        <ele>270.24</ele>
        <time>2020-09-01T09:20:20.999Z</time>
      </trkpt>
      <trkpt lat="43.18244" lon="0.24713">
        <ele>269.9</ele>
        <time>2020-09-01T09:20:25.999Z</time>
      </trkpt>
      <trkpt lat="43.18265" lon="0.24697">
        <ele>269.63</ele>
        <time>2020-09-01T09:20:30.999Z</time>
      </trkpt>
      <trkpt lat="43.18286" lon="0.24681">
        <ele>269.37</ele>
        <time>2020-09-01T09:20:35.999Z</time>
      </trkpt>
      <trkpt lat="43.18308" lon="0.24667">
        <ele>269.39</ele>
        <time>2020-09-01T09:20:40.999Z</time>
      </trkpt>
      <trkpt lat="43.18329" lon="0.24652">
        <ele>269.37</ele>
        <time>2020-09-01T09:20:45.999Z</time>
      </trkpt>
      <trkpt lat="43.1835" lon="0.24636">
        <ele>269.34</ele>
        <time>2020-09-01T09:20:50.999Z</time>
      </trkpt>
      <trkpt lat="43.1837" lon="0.24621">
        <ele>269.29</ele>
        <time>2020-09-01T09:20:55.999Z</time>
      </trkpt>
      <trkpt lat="43.18392" lon="0.24605">
        <ele>269.18</ele>
        <time>2020-09-01T09:21:00.999Z</time>
      </trkpt>
      <trkpt lat="43.18414" lon="0.2459">
        <ele>269.09</ele>
        <time>2020-09-01T09:21:05.999Z</time>
      </trkpt>
      <trkpt lat="43.18436" lon="0.24573">
        <ele>268.95</ele>
        <time>2020-09-01T09:21:10.999Z</time>
      </trkpt>
      <trkpt lat="43.18459" lon="0.24556">
        <ele>268.88</ele>
        <time>2020-09-01T09:21:15.999Z</time>
      </trkpt>
      <trkpt lat="43.18484" lon="0.24539">
        <ele>268.77</ele>
        <time>2020-09-01T09:21:20.999Z</time>
      </trkpt>
      <trkpt lat="43.185" lon="0.24515">
        <ele>268.66</ele>
        <time>2020-09-01T09:21:25.999Z</time>
      </trkpt>
      <trkpt lat="43.18496" lon="0.24487">
        <ele>268.57</ele>
        <time>2020-09-01T09:21:30.999Z</time>
      </trkpt>
      <trkpt lat="43.18487" lon="0.24451">
        <ele>268.32</ele>
        <time>2020-09-01T09:21:35.999Z</time>
      </trkpt>
      <trkpt lat="43.18479" lon="0.24414">
        <ele>268.02</ele>
        <time>2020-09-01T09:21:40.999Z</time>
      </trkpt>
      <trkpt lat="43.1847" lon="0.24384">
        <ele>267.77</ele>
        <time>2020-09-01T09:21:45.999Z</time>
      </trkpt>
      <trkpt lat="43.18464" lon="0.24359">
        <ele>267.66</ele>
        <time>2020-09-01T09:21:50.999Z</time>
      </trkpt>
      <trkpt lat="43.18457" lon="0.24334">
        <ele>267.39</ele>
        <time>2020-09-01T09:21:55.999Z</time>
      </trkpt>
      <trkpt lat="43.18451" lon="0.24307">
        <ele>267.14</ele>
        <time>2020-09-01T09:22:00.999Z</time>
      </trkpt>
      <trkpt lat="43.18444" lon="0.24278">
        <ele>266.9</ele>
        <time>2020-09-01T09:22:05.999Z</time>
      </trkpt>
      <trkpt lat="43.18438" lon="0.24249">
        <ele>266.67</ele>
        <time>2020-09-01T09:22:10.999Z</time>
      </trkpt>
      <trkpt lat="43.18432" lon="0.24221">
        <ele>266.44</ele>
        <time>2020-09-01T09:22:15.999Z</time>
      </trkpt>
      <trkpt lat="43.18428" lon="0.24197">
        <ele>266.3</ele>
        <time>2020-09-01T09:22:20.999Z</time>
      </trkpt>
      <trkpt lat="43.18422" lon="0.24174">
        <ele>266.26</ele>
        <time>2020-09-01T09:22:25.999Z</time>
      </trkpt>
      <trkpt lat="43.18416" lon="0.24153">
        <ele>266.21</ele>
        <time>2020-09-01T09:22:30.999Z</time>
      </trkpt>
      <trkpt lat="43.1841" lon="0.24131">
        <ele>266.14</ele>
        <time>2020-09-01T09:22:35.999Z</time>
      </trkpt>
      <trkpt lat="43.18405" lon="0.24109">
        <ele>266.06</ele>
        <time>2020-09-01T09:22:40.999Z</time>
      </trkpt>
      <trkpt lat="43.18402" lon="0.24086">
        <ele>265.84</ele>
        <time>2020-09-01T09:22:45.999Z</time>
      </trkpt>
      <trkpt lat="43.1841" lon="0.24056">
        <ele>265.28</ele>
        <time>2020-09-01T09:22:50.999Z</time>
      </trkpt>
      <trkpt lat="43.18428" lon="0.24033">
        <ele>265.01</ele>
        <time>2020-09-01T09:22:55.999Z</time>
      </trkpt>
      <trkpt lat="43.18445" lon="0.24011">
        <ele>264.81</ele>
        <time>2020-09-01T09:23:00.999Z</time>
      </trkpt>
      <trkpt lat="43.18462" lon="0.23987">
        <ele>264.66</ele>
        <time>2020-09-01T09:23:05.999Z</time>
      </trkpt>
      <trkpt lat="43.18481" lon="0.23965">
        <ele>264.52</ele>
        <time>2020-09-01T09:23:10.999Z</time>
      </trkpt>
      <trkpt lat="43.18498" lon="0.23942">
        <ele>264.41</ele>
        <time>2020-09-01T09:23:15.999Z</time>
      </trkpt>
      <trkpt lat="43.18515" lon="0.2392">
        <ele>264.32</ele>
        <time>2020-09-01T09:23:20.999Z</time>
      </trkpt>
      <trkpt lat="43.18532" lon="0.23897">
        <ele>264.24</ele>
        <time>2020-09-01T09:23:25.999Z</time>
      </trkpt>
      <trkpt lat="43.18548" lon="0.23874">
        <ele>264.19</ele>
        <time>2020-09-01T09:23:30.999Z</time>
      </trkpt>
      <trkpt lat="43.18564" lon="0.23852">
        <ele>264.13</ele>
        <time>2020-09-01T09:23:35.999Z</time>
      </trkpt>
      <trkpt lat="43.1858" lon="0.23832">
        <ele>264.05</ele>
        <time>2020-09-01T09:23:40.999Z</time>
      </trkpt>
      <trkpt lat="43.18597" lon="0.23811">
        <ele>263.96</ele>
        <time>2020-09-01T09:23:45.999Z</time>
      </trkpt>
      <trkpt lat="43.18612" lon="0.2379">
        <ele>263.86</ele>
        <time>2020-09-01T09:23:50.999Z</time>
      </trkpt>
      <trkpt lat="43.18628" lon="0.23769">
        <ele>263.75</ele>
        <time>2020-09-01T09:23:55.999Z</time>
      </trkpt>
      <trkpt lat="43.18644" lon="0.23749">
        <ele>263.63</ele>
        <time>2020-09-01T09:24:00.999Z</time>
      </trkpt>
      <trkpt lat="43.18661" lon="0.23728">
        <ele>263.51</ele>
        <time>2020-09-01T09:24:05.999Z</time>
      </trkpt>
      <trkpt lat="43.18678" lon="0.23706">
        <ele>263.36</ele>
        <time>2020-09-01T09:24:10.999Z</time>
      </trkpt>
      <trkpt lat="43.18694" lon="0.23685">
        <ele>263.2</ele>
        <time>2020-09-01T09:24:15.999Z</time>
      </trkpt>
      <trkpt lat="43.1871" lon="0.23665">
        <ele>263.02</ele>
        <time>2020-09-01T09:24:20.999Z</time>
      </trkpt>
      <trkpt lat="43.18725" lon="0.23645">
        <ele>262.87</ele>
        <time>2020-09-01T09:24:25.999Z</time>
      </trkpt>
      <trkpt lat="43.1874" lon="0.23624">
        <ele>262.72</ele>
        <time>2020-09-01T09:24:30.999Z</time>
      </trkpt>
      <trkpt lat="43.18756" lon="0.23604">
        <ele>262.57</ele>
        <time>2020-09-01T09:24:35.999Z</time>
      </trkpt>
      <trkpt lat="43.18771" lon="0.23582">
        <ele>262.42</ele>
        <time>2020-09-01T09:24:40.999Z</time>
      </trkpt>
      <trkpt lat="43.18787" lon="0.2356">
        <ele>262.29</ele>
        <time>2020-09-01T09:24:45.999Z</time>
      </trkpt>
      <trkpt lat="43.18802" lon="0.23541">
        <ele>262.2</ele>
        <time>2020-09-01T09:24:50.999Z</time>
      </trkpt>
      <trkpt lat="43.18818" lon="0.23522">
        <ele>262.08</ele>
        <time>2020-09-01T09:24:55.999Z</time>
      </trkpt>
      <trkpt lat="43.18833" lon="0.23501">
        <ele>261.95</ele>
        <time>2020-09-01T09:25:00.999Z</time>
      </trkpt>
      <trkpt lat="43.18847" lon="0.23482">
        <ele>261.83</ele>
        <time>2020-09-01T09:25:05.999Z</time>
      </trkpt>
      <trkpt lat="43.18862" lon="0.23462">
        <ele>261.72</ele>
        <time>2020-09-01T09:25:10.999Z</time>
      </trkpt>
      <trkpt lat="43.18877" lon="0.23445">
        <ele>261.58</ele>
        <time>2020-09-01T09:25:15.999Z</time>
      </trkpt>
      <trkpt lat="43.1889" lon="0.23427">
        <ele>261.53</ele>
        <time>2020-09-01T09:25:20.999Z</time>
      </trkpt>
      <trkpt lat="43.18902" lon="0.23413">
        <ele>261.51</ele>
        <time>2020-09-01T09:25:25.999Z</time>
      </trkpt>
      <trkpt lat="43.18914" lon="0.23396">
        <ele>261.48</ele>
        <time>2020-09-01T09:25:30.999Z</time>
      </trkpt>
      <trkpt lat="43.18926" lon="0.23378">
        <ele>261.45</ele>
        <time>2020-09-01T09:25:35.999Z</time>
      </trkpt>
      <trkpt lat="43.18938" lon="0.23362">
        <ele>261.42</ele>
        <time>2020-09-01T09:25:40.999Z</time>
      </trkpt>
      <trkpt lat="43.1895" lon="0.23346">
        <ele>261.38</ele>
        <time>2020-09-01T09:25:45.999Z</time>
      </trkpt>
      <trkpt lat="43.18963" lon="0.23331">
        <ele>261.33</ele>
        <time>2020-09-01T09:25:50.999Z</time>
      </trkpt>
      <trkpt lat="43.18975" lon="0.23316">
        <ele>261.28</ele>
        <time>2020-09-01T09:25:55.999Z</time>
      </trkpt>
      <trkpt lat="43.18988" lon="0.233">
        <ele>261.23</ele>
        <time>2020-09-01T09:26:00.999Z</time>
      </trkpt>
      <trkpt lat="43.18999" lon="0.23286">
        <ele>261.08</ele>
        <time>2020-09-01T09:26:05.000Z</time>
      </trkpt>
      <trkpt lat="43.19011" lon="0.23269">
        <ele>260.95</ele>
        <time>2020-09-01T09:26:10.000Z</time>
      </trkpt>
      <trkpt lat="43.19026" lon="0.23248">
        <ele>260.61</ele>
        <time>2020-09-01T09:26:15.000Z</time>
      </trkpt>
      <trkpt lat="43.19041" lon="0.23227">
        <ele>260.45</ele>
        <time>2020-09-01T09:26:20.000Z</time>
      </trkpt>
      <trkpt lat="43.19055" lon="0.23208">
        <ele>260.34</ele>
        <time>2020-09-01T09:26:25.000Z</time>
      </trkpt>
      <trkpt lat="43.1907" lon="0.23189">
        <ele>260.26</ele>
        <time>2020-09-01T09:26:30.000Z</time>
      </trkpt>
      <trkpt lat="43.19085" lon="0.2317">
        <ele>260.17</ele>
        <time>2020-09-01T09:26:35.000Z</time>
      </trkpt>
      <trkpt lat="43.191" lon="0.23152">
        <ele>260.1</ele>
        <time>2020-09-01T09:26:40.000Z</time>
      </trkpt>
      <trkpt lat="43.19113" lon="0.23135">
        <ele>260.09</ele>
        <time>2020-09-01T09:26:45.000Z</time>
      </trkpt>
      <trkpt lat="43.19126" lon="0.23118">
        <ele>260.07</ele>
        <time>2020-09-01T09:26:50.000Z</time>
      </trkpt>
      <trkpt lat="43.19139" lon="0.23101">
        <ele>260.05</ele>
        <time>2020-09-01T09:26:55.000Z</time>
      </trkpt>
      <trkpt lat="43.19152" lon="0.23083">
        <ele>260.01</ele>
        <time>2020-09-01T09:27:00.000Z</time>
      </trkpt>
      <trkpt lat="43.19164" lon="0.23067">
        <ele>259.96</ele>
        <time>2020-09-01T09:27:05.000Z</time>
      </trkpt>
      <trkpt lat="43.19176" lon="0.2305">
        <ele>259.9</ele>
        <time>2020-09-01T09:27:10.000Z</time>
      </trkpt>
      <trkpt lat="43.19189" lon="0.23035">
        <ele>259.84</ele>
        <time>2020-09-01T09:27:15.000Z</time>
      </trkpt>
      <trkpt lat="43.19201" lon="0.23018">
        <ele>259.78</ele>
        <time>2020-09-01T09:27:20.000Z</time>
      </trkpt>
      <trkpt lat="43.19214" lon="0.23001">
        <ele>259.72</ele>
        <time>2020-09-01T09:27:25.000Z</time>
      </trkpt>
      <trkpt lat="43.19226" lon="0.22984">
        <ele>259.67</ele>
        <time>2020-09-01T09:27:30.000Z</time>
      </trkpt>
      <trkpt lat="43.1924" lon="0.22964">
        <ele>259.42</ele>
        <time>2020-09-01T09:27:35.000Z</time>
      </trkpt>
      <trkpt lat="43.19256" lon="0.22944">
        <ele>259.17</ele>
        <time>2020-09-01T09:27:40.000Z</time>
      </trkpt>
      <trkpt lat="43.19271" lon="0.22923">
        <ele>259.01</ele>
        <time>2020-09-01T09:27:45.000Z</time>
      </trkpt>
      <trkpt lat="43.19287" lon="0.22902">
        <ele>258.9</ele>
        <time>2020-09-01T09:27:50.000Z</time>
      </trkpt>
      <trkpt lat="43.19303" lon="0.22881">
        <ele>258.81</ele>
        <time>2020-09-01T09:27:55.000Z</time>
      </trkpt>
      <trkpt lat="43.19318" lon="0.22861">
        <ele>258.73</ele>
        <time>2020-09-01T09:28:00.000Z</time>
      </trkpt>
      <trkpt lat="43.19332" lon="0.22842">
        <ele>258.65</ele>
        <time>2020-09-01T09:28:05.000Z</time>
      </trkpt>
      <trkpt lat="43.19347" lon="0.22824">
        <ele>258.56</ele>
        <time>2020-09-01T09:28:10.000Z</time>
      </trkpt>
      <trkpt lat="43.1936" lon="0.22806">
        <ele>258.51</ele>
        <time>2020-09-01T09:28:15.000Z</time>
      </trkpt>
      <trkpt lat="43.19373" lon="0.22787">
        <ele>258.43</ele>
        <time>2020-09-01T09:28:20.000Z</time>
      </trkpt>
      <trkpt lat="43.19388" lon="0.22769">
        <ele>258.34</ele>
        <time>2020-09-01T09:28:25.000Z</time>
      </trkpt>
      <trkpt lat="43.19402" lon="0.22751">
        <ele>258.29</ele>
        <time>2020-09-01T09:28:30.000Z</time>
      </trkpt>
      <trkpt lat="43.19416" lon="0.22734">
        <ele>258.28</ele>
        <time>2020-09-01T09:28:35.000Z</time>
      </trkpt>
      <trkpt lat="43.19428" lon="0.22717">
        <ele>258.25</ele>
        <time>2020-09-01T09:28:40.000Z</time>
      </trkpt>
      <trkpt lat="43.19441" lon="0.22699">
        <ele>258.22</ele>
        <time>2020-09-01T09:28:45.000Z</time>
      </trkpt>
      <trkpt lat="43.19454" lon="0.22683">
        <ele>258.19</ele>
        <time>2020-09-01T09:28:50.000Z</time>
      </trkpt>
      <trkpt lat="43.19467" lon="0.22667">
        <ele>258.15</ele>
        <time>2020-09-01T09:28:55.000Z</time>
      </trkpt>
      <trkpt lat="43.19479" lon="0.22651">
        <ele>258.1</ele>
        <time>2020-09-01T09:29:00.000Z</time>
      </trkpt>
      <trkpt lat="43.1949" lon="0.22636">
        <ele>258.05</ele>
        <time>2020-09-01T09:29:05.000Z</time>
      </trkpt>
      <trkpt lat="43.195" lon="0.22623">
        <ele>258.01</ele>
        <time>2020-09-01T09:29:10.000Z</time>
      </trkpt>
      <trkpt lat="43.1951" lon="0.22611">
        <ele>257.96</ele>
        <time>2020-09-01T09:29:15.000Z</time>
      </trkpt>
      <trkpt lat="43.19519" lon="0.22599">
        <ele>257.91</ele>
        <time>2020-09-01T09:29:20.000Z</time>
      </trkpt>
      <trkpt lat="43.19526" lon="0.2259">
        <ele>257.87</ele>
        <time>2020-09-01T09:29:25.000Z</time>
      </trkpt>
      <trkpt lat="43.19535" lon="0.22579">
        <ele>257.82</ele>
        <time>2020-09-01T09:29:30.000Z</time>
      </trkpt>
      <trkpt lat="43.19542" lon="0.22567">
        <ele>257.78</ele>
        <time>2020-09-01T09:29:35.000Z</time>
      </trkpt>
      <trkpt lat="43.19551" lon="0.22558">
        <ele>257.74</ele>
        <time>2020-09-01T09:29:40.000Z</time>
      </trkpt>
      <trkpt lat="43.19559" lon="0.22547">
        <ele>257.69</ele>
        <time>2020-09-01T09:29:45.000Z</time>
      </trkpt>
      <trkpt lat="43.19566" lon="0.22538">
        <ele>257.66</ele>
        <time>2020-09-01T09:29:50.000Z</time>
      </trkpt>
      <trkpt lat="43.19573" lon="0.22529">
        <ele>257.63</ele>
        <time>2020-09-01T09:29:55.000Z</time>
      </trkpt>
      <trkpt lat="43.1958" lon="0.22519">
        <ele>257.6</ele>
        <time>2020-09-01T09:30:00.000Z</time>
      </trkpt>
      <trkpt lat="43.19586" lon="0.22508">
        <ele>257.57</ele>
        <time>2020-09-01T09:30:05.000Z</time>
      </trkpt>
      <trkpt lat="43.19594" lon="0.22498">
        <ele>257.56</ele>
        <time>2020-09-01T09:30:10.000Z</time>
      </trkpt>
      <trkpt lat="43.19602" lon="0.22488">
        <ele>257.54</ele>
        <time>2020-09-01T09:30:15.000Z</time>
      </trkpt>
      <trkpt lat="43.1961" lon="0.2248">
        <ele>257.53</ele>
        <time>2020-09-01T09:30:20.000Z</time>
      </trkpt>
      <trkpt lat="43.19618" lon="0.2247">
        <ele>257.52</ele>
        <time>2020-09-01T09:30:25.000Z</time>
      </trkpt>
      <trkpt lat="43.19626" lon="0.2246">
        <ele>257.51</ele>
        <time>2020-09-01T09:30:30.000Z</time>
      </trkpt>
      <trkpt lat="43.19635" lon="0.22449">
        <ele>257.49</ele>
        <time>2020-09-01T09:30:35.000Z</time>
      </trkpt>
      <trkpt lat="43.19644" lon="0.22437">
        <ele>257.46</ele>
        <time>2020-09-01T09:30:40.000Z</time>
      </trkpt>
      <trkpt lat="43.19653" lon="0.22425">
        <ele>257.44</ele>
        <time>2020-09-01T09:30:45.000Z</time>
      </trkpt>
      <trkpt lat="43.1966" lon="0.22413">
        <ele>257.43</ele>
        <time>2020-09-01T09:30:50.000Z</time>
      </trkpt>
      <trkpt lat="43.1967" lon="0.22401">
        <ele>257.43</ele>
        <time>2020-09-01T09:30:55.000Z</time>
      </trkpt>
      <trkpt lat="43.19682" lon="0.22387">
        <ele>257.43</ele>
        <time>2020-09-01T09:31:00.000Z</time>
      </trkpt>
      <trkpt lat="43.1969" lon="0.22376">
        <ele>257.43</ele>
        <time>2020-09-01T09:31:05.000Z</time>
      </trkpt>
      <trkpt lat="43.197" lon="0.22363">
        <ele>257.44</ele>
        <time>2020-09-01T09:31:10.000Z</time>
      </trkpt>
      <trkpt lat="43.1971" lon="0.22351">
        <ele>257.45</ele>
        <time>2020-09-01T09:31:15.000Z</time>
      </trkpt>
      <trkpt lat="43.1972" lon="0.22342">
        <ele>257.47</ele>
        <time>2020-09-01T09:31:20.000Z</time>
      </trkpt>
      <trkpt lat="43.19732" lon="0.22331">
        <ele>257.49</ele>
        <time>2020-09-01T09:31:25.000Z</time>
      </trkpt>
      <trkpt lat="43.19742" lon="0.22321">
        <ele>257.52</ele>
        <time>2020-09-01T09:31:30.000Z</time>
      </trkpt>
      <trkpt lat="43.19755" lon="0.22312">
        <ele>257.56</ele>
        <time>2020-09-01T09:31:35.000Z</time>
      </trkpt>
      <trkpt lat="43.19768" lon="0.22304">
        <ele>257.61</ele>
        <time>2020-09-01T09:31:40.000Z</time>
      </trkpt>
      <trkpt lat="43.19781" lon="0.22296">
        <ele>257.65</ele>
        <time>2020-09-01T09:31:45.000Z</time>
      </trkpt>
      <trkpt lat="43.19792" lon="0.22287">
        <ele>257.7</ele>
        <time>2020-09-01T09:31:50.000Z</time>
      </trkpt>
      <trkpt lat="43.19804" lon="0.22281">
        <ele>257.76</ele>
        <time>2020-09-01T09:31:55.000Z</time>
      </trkpt>
      <trkpt lat="43.19816" lon="0.22272">
        <ele>257.82</ele>
        <time>2020-09-01T09:32:00.000Z</time>
      </trkpt>
      <trkpt lat="43.19828" lon="0.22264">
        <ele>257.9</ele>
        <time>2020-09-01T09:32:05.000Z</time>
      </trkpt>
      <trkpt lat="43.19841" lon="0.22257">
        <ele>257.97</ele>
        <time>2020-09-01T09:32:10.000Z</time>
      </trkpt>
      <trkpt lat="43.19854" lon="0.22249">
        <ele>258.04</ele>
        <time>2020-09-01T09:32:15.000Z</time>
      </trkpt>
      <trkpt lat="43.19865" lon="0.22241">
        <ele>258.11</ele>
        <time>2020-09-01T09:32:20.000Z</time>
      </trkpt>
      <trkpt lat="43.19878" lon="0.22234">
        <ele>258.18</ele>
        <time>2020-09-01T09:32:25.000Z</time>
      </trkpt>
      <trkpt lat="43.19891" lon="0.22225">
        <ele>258.24</ele>
        <time>2020-09-01T09:32:30.000Z</time>
      </trkpt>
      <trkpt lat="43.19903" lon="0.22217">
        <ele>258.3</ele>
        <time>2020-09-01T09:32:35.000Z</time>
      </trkpt>
      <trkpt lat="43.19917" lon="0.22209">
        <ele>258.36</ele>
        <time>2020-09-01T09:32:40.000Z</time>
      </trkpt>
      <trkpt lat="43.1993" lon="0.22201">
        <ele>258.42</ele>
        <time>2020-09-01T09:32:45.000Z</time>
      </trkpt>
      <trkpt lat="43.19942" lon="0.22193">
        <ele>258.48</ele>
        <time>2020-09-01T09:32:50.000Z</time>
      </trkpt>
      <trkpt lat="43.19955" lon="0.22186">
        <ele>258.53</ele>
        <time>2020-09-01T09:32:55.000Z</time>
      </trkpt>
      <trkpt lat="43.19966" lon="0.22179">
        <ele>258.58</ele>
        <time>2020-09-01T09:33:00.000Z</time>
      </trkpt>
      <trkpt lat="43.19978" lon="0.2217">
        <ele>258.64</ele>
        <time>2020-09-01T09:33:05.000Z</time>
      </trkpt>
      <trkpt lat="43.19992" lon="0.22162">
        <ele>258.71</ele>
        <time>2020-09-01T09:33:10.000Z</time>
      </trkpt>
      <trkpt lat="43.20005" lon="0.22154">
        <ele>258.79</ele>
        <time>2020-09-01T09:33:15.000Z</time>
      </trkpt>
      <trkpt lat="43.2002" lon="0.22143">
        <ele>258.87</ele>
        <time>2020-09-01T09:33:20.000Z</time>
      </trkpt>
      <trkpt lat="43.20034" lon="0.22133">
        <ele>258.94</ele>
        <time>2020-09-01T09:33:25.000Z</time>
      </trkpt>
      <trkpt lat="43.20047" lon="0.22123">
        <ele>259.03</ele>
        <time>2020-09-01T09:33:30.000Z</time>
      </trkpt>
      <trkpt lat="43.20062" lon="0.22114">
        <ele>259.12</ele>
        <time>2020-09-01T09:33:35.000Z</time>
      </trkpt>
      <trkpt lat="43.20075" lon="0.22107">
        <ele>259.21</ele>
        <time>2020-09-01T09:33:40.000Z</time>
      </trkpt>
      <trkpt lat="43.20088" lon="0.22099">
        <ele>259.29</ele>
        <time>2020-09-01T09:33:45.000Z</time>
      </trkpt>
      <trkpt lat="43.20101" lon="0.22091">
        <ele>259.36</ele>
        <time>2020-09-01T09:33:50.000Z</time>
      </trkpt>
      <trkpt lat="43.20113" lon="0.22081">
        <ele>259.42</ele>
        <time>2020-09-01T09:33:55.000Z</time>
      </trkpt>
      <trkpt lat="43.20125" lon="0.22073">
        <ele>259.5</ele>
        <time>2020-09-01T09:34:00.000Z</time>
      </trkpt>
      <trkpt lat="43.20138" lon="0.22064">
        <ele>259.59</ele>
        <time>2020-09-01T09:34:05.000Z</time>
      </trkpt>
      <trkpt lat="43.20152" lon="0.22056">
        <ele>259.67</ele>
        <time>2020-09-01T09:34:10.000Z</time>
      </trkpt>
      <trkpt lat="43.20164" lon="0.22047">
        <ele>259.74</ele>
        <time>2020-09-01T09:34:15.000Z</time>
      </trkpt>
      <trkpt lat="43.20179" lon="0.22039">
        <ele>259.82</ele>
        <time>2020-09-01T09:34:20.000Z</time>
      </trkpt>
      <trkpt lat="43.20193" lon="0.22031">
        <ele>259.91</ele>
        <time>2020-09-01T09:34:25.000Z</time>
      </trkpt>
      <trkpt lat="43.2021" lon="0.22023">
        <ele>260.01</ele>
        <time>2020-09-01T09:34:30.000Z</time>
      </trkpt>
      <trkpt lat="43.20228" lon="0.22014">
        <ele>260.59</ele>
        <time>2020-09-01T09:34:35.000Z</time>
      </trkpt>
      <trkpt lat="43.20244" lon="0.22007">
        <ele>260.86</ele>
        <time>2020-09-01T09:34:40.000Z</time>
      </trkpt>
      <trkpt lat="43.20265" lon="0.21998">
        <ele>261.09</ele>
        <time>2020-09-01T09:34:45.000Z</time>
      </trkpt>
      <trkpt lat="43.20284" lon="0.2199">
        <ele>261.14</ele>
        <time>2020-09-01T09:34:50.000Z</time>
      </trkpt>
      <trkpt lat="43.20304" lon="0.21981">
        <ele>261.14</ele>
        <time>2020-09-01T09:34:55.000Z</time>
      </trkpt>
      <trkpt lat="43.20322" lon="0.21973">
        <ele>261.11</ele>
        <time>2020-09-01T09:35:00.000Z</time>
      </trkpt>
      <trkpt lat="43.20341" lon="0.21964">
        <ele>261.11</ele>
        <time>2020-09-01T09:35:05.000Z</time>
      </trkpt>
      <trkpt lat="43.2036" lon="0.21954">
        <ele>261.11</ele>
        <time>2020-09-01T09:35:10.000Z</time>
      </trkpt>
      <trkpt lat="43.20378" lon="0.21946">
        <ele>261.07</ele>
        <time>2020-09-01T09:35:15.000Z</time>
      </trkpt>
      <trkpt lat="43.20394" lon="0.21939">
        <ele>261.08</ele>
        <time>2020-09-01T09:35:20.000Z</time>
      </trkpt>
      <trkpt lat="43.20411" lon="0.21931">
        <ele>261.09</ele>
        <time>2020-09-01T09:35:25.000Z</time>
      </trkpt>
      <trkpt lat="43.20429" lon="0.21922">
        <ele>261.1</ele>
        <time>2020-09-01T09:35:30.000Z</time>
      </trkpt>
      <trkpt lat="43.20444" lon="0.21913">
        <ele>261.11</ele>
        <time>2020-09-01T09:35:35.000Z</time>
      </trkpt>
      <trkpt lat="43.20457" lon="0.21905">
        <ele>261.12</ele>
        <time>2020-09-01T09:35:40.000Z</time>
      </trkpt>
      <trkpt lat="43.20469" lon="0.21894">
        <ele>261.16</ele>
        <time>2020-09-01T09:35:45.000Z</time>
      </trkpt>
      <trkpt lat="43.20482" lon="0.21885">
        <ele>261.21</ele>
        <time>2020-09-01T09:35:50.000Z</time>
      </trkpt>
      <trkpt lat="43.20492" lon="0.21877">
        <ele>261.27</ele>
        <time>2020-09-01T09:35:55.000Z</time>
      </trkpt>
      <trkpt lat="43.20501" lon="0.21869">
        <ele>261.33</ele>
        <time>2020-09-01T09:36:00.000Z</time>
      </trkpt>
      <trkpt lat="43.20513" lon="0.21861">
        <ele>261.41</ele>
        <time>2020-09-01T09:36:05.000Z</time>
      </trkpt>
      <trkpt lat="43.20525" lon="0.21853">
        <ele>261.49</ele>
        <time>2020-09-01T09:36:10.000Z</time>
      </trkpt>
      <trkpt lat="43.20533" lon="0.21844">
        <ele>261.58</ele>
        <time>2020-09-01T09:36:15.000Z</time>
      </trkpt>
      <trkpt lat="43.20543" lon="0.21836">
        <ele>261.69</ele>
        <time>2020-09-01T09:36:20.000Z</time>
      </trkpt>
      <trkpt lat="43.20553" lon="0.21829">
        <ele>261.82</ele>
        <time>2020-09-01T09:36:25.000Z</time>
      </trkpt>
      <trkpt lat="43.20565" lon="0.21819">
        <ele>261.95</ele>
        <time>2020-09-01T09:36:30.000Z</time>
      </trkpt>
      <trkpt lat="43.20575" lon="0.2181">
        <ele>262.09</ele>
        <time>2020-09-01T09:36:35.000Z</time>
      </trkpt>
      <trkpt lat="43.20586" lon="0.21801">
        <ele>262.24</ele>
        <time>2020-09-01T09:36:40.000Z</time>
      </trkpt>
      <trkpt lat="43.20595" lon="0.21794">
        <ele>262.39</ele>
        <time>2020-09-01T09:36:45.000Z</time>
      </trkpt>
      <trkpt lat="43.20606" lon="0.21786">
        <ele>262.56</ele>
        <time>2020-09-01T09:36:50.000Z</time>
      </trkpt>
      <trkpt lat="43.20615" lon="0.21778">
        <ele>262.73</ele>
        <time>2020-09-01T09:36:55.000Z</time>
      </trkpt>
      <trkpt lat="43.20623" lon="0.21771">
        <ele>263.3</ele>
        <time>2020-09-01T09:37:25.000Z</time>
      </trkpt>
      <trkpt lat="43.20614" lon="0.21772">
        <ele>265.43</ele>
        <time>2020-09-01T09:41:00.999Z</time>
      </trkpt>
      <trkpt lat="43.20623" lon="0.21764">
        <ele>266.17</ele>
        <time>2020-09-01T09:41:24.999Z</time>
      </trkpt>
      <trkpt lat="43.20633" lon="0.21755">
        <ele>266.61</ele>
        <time>2020-09-01T09:41:29.999Z</time>
      </trkpt>
      <trkpt lat="43.20645" lon="0.21744">
        <ele>267.01</ele>
        <time>2020-09-01T09:41:34.999Z</time>
      </trkpt>
      <trkpt lat="43.2066" lon="0.2173">
        <ele>267.4</ele>
        <time>2020-09-01T09:41:39.999Z</time>
      </trkpt>
      <trkpt lat="43.20674" lon="0.21716">
        <ele>267.75</ele>
        <time>2020-09-01T09:41:44.999Z</time>
      </trkpt>
      <trkpt lat="43.20688" lon="0.21701">
        <ele>268.07</ele>
        <time>2020-09-01T09:41:49.999Z</time>
      </trkpt>
      <trkpt lat="43.20703" lon="0.21682">
        <ele>270.08</ele>
        <time>2020-09-01T09:41:54.999Z</time>
      </trkpt>
      <trkpt lat="43.2072" lon="0.21659">
        <ele>270.89</ele>
        <time>2020-09-01T09:41:59.999Z</time>
      </trkpt>
      <trkpt lat="43.20737" lon="0.21634">
        <ele>271.18</ele>
        <time>2020-09-01T09:42:04.999Z</time>
      </trkpt>
      <trkpt lat="43.20754" lon="0.21605">
        <ele>271.26</ele>
        <time>2020-09-01T09:42:09.999Z</time>
      </trkpt>
      <trkpt lat="43.20768" lon="0.21577">
        <ele>271.28</ele>
        <time>2020-09-01T09:42:14.999Z</time>
      </trkpt>
      <trkpt lat="43.20779" lon="0.21551">
        <ele>271.26</ele>
        <time>2020-09-01T09:42:19.999Z</time>
      </trkpt>
      <trkpt lat="43.20789" lon="0.21527">
        <ele>271.24</ele>
        <time>2020-09-01T09:42:24.999Z</time>
      </trkpt>
      <trkpt lat="43.20795" lon="0.21505">
        <ele>271.24</ele>
        <time>2020-09-01T09:42:29.999Z</time>
      </trkpt>
      <trkpt lat="43.20801" lon="0.21486">
        <ele>271.24</ele>
        <time>2020-09-01T09:42:34.999Z</time>
      </trkpt>
      <trkpt lat="43.20806" lon="0.21466">
        <ele>271.24</ele>
        <time>2020-09-01T09:42:39.999Z</time>
      </trkpt>
      <trkpt lat="43.2081" lon="0.21448">
        <ele>271.23</ele>
        <time>2020-09-01T09:42:44.999Z</time>
      </trkpt>
      <trkpt lat="43.20814" lon="0.21429">
        <ele>271.23</ele>
        <time>2020-09-01T09:42:49.999Z</time>
      </trkpt>
      <trkpt lat="43.20817" lon="0.21412">
        <ele>271.24</ele>
        <time>2020-09-01T09:42:54.999Z</time>
      </trkpt>
      <trkpt lat="43.20819" lon="0.21397">
        <ele>271.24</ele>
        <time>2020-09-01T09:42:59.999Z</time>
      </trkpt>
      <trkpt lat="43.20821" lon="0.21381">
        <ele>271.24</ele>
        <time>2020-09-01T09:43:04.999Z</time>
      </trkpt>
      <trkpt lat="43.20823" lon="0.21364">
        <ele>271.25</ele>
        <time>2020-09-01T09:43:09.999Z</time>
      </trkpt>
      <trkpt lat="43.20824" lon="0.2135">
        <ele>271.25</ele>
        <time>2020-09-01T09:43:14.999Z</time>
      </trkpt>
      <trkpt lat="43.20826" lon="0.21336">
        <ele>271.26</ele>
        <time>2020-09-01T09:43:19.999Z</time>
      </trkpt>
      <trkpt lat="43.20827" lon="0.21321">
        <ele>271.27</ele>
        <time>2020-09-01T09:43:24.999Z</time>
      </trkpt>
      <trkpt lat="43.20828" lon="0.21303">
        <ele>271.28</ele>
        <time>2020-09-01T09:43:29.999Z</time>
      </trkpt>
      <trkpt lat="43.20827" lon="0.21288">
        <ele>271.29</ele>
        <time>2020-09-01T09:43:34.999Z</time>
      </trkpt>
      <trkpt lat="43.20827" lon="0.21273">
        <ele>271.3</ele>
        <time>2020-09-01T09:43:39.999Z</time>
      </trkpt>
      <trkpt lat="43.20827" lon="0.21257">
        <ele>271.33</ele>
        <time>2020-09-01T09:43:44.999Z</time>
      </trkpt>
      <trkpt lat="43.20827" lon="0.21242">
        <ele>271.35</ele>
        <time>2020-09-01T09:43:49.999Z</time>
      </trkpt>
      <trkpt lat="43.20828" lon="0.21225">
        <ele>271.37</ele>
        <time>2020-09-01T09:43:54.999Z</time>
      </trkpt>
      <trkpt lat="43.20828" lon="0.21207">
        <ele>271.4</ele>
        <time>2020-09-01T09:43:59.999Z</time>
      </trkpt>
      <trkpt lat="43.20827" lon="0.2119">
        <ele>271.44</ele>
        <time>2020-09-01T09:44:04.999Z</time>
      </trkpt>
      <trkpt lat="43.20826" lon="0.21174">
        <ele>271.47</ele>
        <time>2020-09-01T09:44:09.999Z</time>
      </trkpt>
      <trkpt lat="43.20826" lon="0.21157">
        <ele>271.5</ele>
        <time>2020-09-01T09:44:14.999Z</time>
      </trkpt>
      <trkpt lat="43.20826" lon="0.21141">
        <ele>271.54</ele>
        <time>2020-09-01T09:44:19.999Z</time>
      </trkpt>
      <trkpt lat="43.20825" lon="0.21125">
        <ele>271.58</ele>
        <time>2020-09-01T09:44:24.999Z</time>
      </trkpt>
      <trkpt lat="43.20826" lon="0.21109">
        <ele>271.62</ele>
        <time>2020-09-01T09:44:29.999Z</time>
      </trkpt>
      <trkpt lat="43.20826" lon="0.21093">
        <ele>271.67</ele>
        <time>2020-09-01T09:44:34.999Z</time>
      </trkpt>
      <trkpt lat="43.20826" lon="0.21076">
        <ele>271.72</ele>
        <time>2020-09-01T09:44:39.999Z</time>
      </trkpt>
      <trkpt lat="43.20826" lon="0.21063">
        <ele>271.78</ele>
        <time>2020-09-01T09:44:44.999Z</time>
      </trkpt>
      <trkpt lat="43.20826" lon="0.21048">
        <ele>271.84</ele>
        <time>2020-09-01T09:44:49.999Z</time>
      </trkpt>
      <trkpt lat="43.20826" lon="0.21033">
        <ele>271.9</ele>
        <time>2020-09-01T09:44:54.999Z</time>
      </trkpt>
      <trkpt lat="43.20824" lon="0.21016">
        <ele>271.95</ele>
        <time>2020-09-01T09:44:59.999Z</time>
      </trkpt>
      <trkpt lat="43.20824" lon="0.20999">
        <ele>272.01</ele>
        <time>2020-09-01T09:45:04.999Z</time>
      </trkpt>
      <trkpt lat="43.20823" lon="0.20983">
        <ele>272.07</ele>
        <time>2020-09-01T09:45:09.999Z</time>
      </trkpt>
      <trkpt lat="43.20822" lon="0.20966">
        <ele>272.13</ele>
        <time>2020-09-01T09:45:14.999Z</time>
      </trkpt>
      <trkpt lat="43.20822" lon="0.20951">
        <ele>272.2</ele>
        <time>2020-09-01T09:45:19.999Z</time>
      </trkpt>
      <trkpt lat="43.20823" lon="0.20937">
        <ele>272.26</ele>
        <time>2020-09-01T09:45:24.999Z</time>
      </trkpt>
      <trkpt lat="43.20823" lon="0.2092">
        <ele>272.33</ele>
        <time>2020-09-01T09:45:29.999Z</time>
      </trkpt>
      <trkpt lat="43.20824" lon="0.20905">
        <ele>272.4</ele>
        <time>2020-09-01T09:45:34.999Z</time>
      </trkpt>
      <trkpt lat="43.20823" lon="0.20889">
        <ele>272.48</ele>
        <time>2020-09-01T09:45:39.999Z</time>
      </trkpt>
      <trkpt lat="43.2082" lon="0.20872">
        <ele>272.55</ele>
        <time>2020-09-01T09:45:44.999Z</time>
      </trkpt>
      <trkpt lat="43.20818" lon="0.20856">
        <ele>272.63</ele>
        <time>2020-09-01T09:45:49.999Z</time>
      </trkpt>
      <trkpt lat="43.20817" lon="0.2084">
        <ele>272.71</ele>
        <time>2020-09-01T09:45:54.999Z</time>
      </trkpt>
      <trkpt lat="43.20816" lon="0.20825">
        <ele>272.8</ele>
        <time>2020-09-01T09:45:59.999Z</time>
      </trkpt>
      <trkpt lat="43.20817" lon="0.2081">
        <ele>272.89</ele>
        <time>2020-09-01T09:46:04.999Z</time>
      </trkpt>
      <trkpt lat="43.20817" lon="0.20793">
        <ele>272.98</ele>
        <time>2020-09-01T09:46:09.999Z</time>
      </trkpt>
      <trkpt lat="43.20816" lon="0.20778">
        <ele>273.09</ele>
        <time>2020-09-01T09:46:14.999Z</time>
      </trkpt>
      <trkpt lat="43.20815" lon="0.20761">
        <ele>273.2</ele>
        <time>2020-09-01T09:46:19.999Z</time>
      </trkpt>
      <trkpt lat="43.20816" lon="0.20746">
        <ele>273.31</ele>
        <time>2020-09-01T09:46:24.999Z</time>
      </trkpt>
      <trkpt lat="43.20815" lon="0.20732">
        <ele>273.43</ele>
        <time>2020-09-01T09:46:29.999Z</time>
      </trkpt>
      <trkpt lat="43.20813" lon="0.20719">
        <ele>273.56</ele>
        <time>2020-09-01T09:46:34.999Z</time>
      </trkpt>
      <trkpt lat="43.20812" lon="0.20705">
        <ele>273.7</ele>
        <time>2020-09-01T09:46:39.999Z</time>
      </trkpt>
      <trkpt lat="43.20811" lon="0.20693">
        <ele>273.84</ele>
        <time>2020-09-01T09:46:44.999Z</time>
      </trkpt>
      <trkpt lat="43.2081" lon="0.20678">
        <ele>274.03</ele>
        <time>2020-09-01T09:46:50.999Z</time>
      </trkpt>
      <trkpt lat="43.2081" lon="0.20662">
        <ele>274.2</ele>
        <time>2020-09-01T09:46:55.999Z</time>
      </trkpt>
      <trkpt lat="43.20812" lon="0.20647">
        <ele>274.36</ele>
        <time>2020-09-01T09:47:00.999Z</time>
      </trkpt>
      <trkpt lat="43.20812" lon="0.20634">
        <ele>274.53</ele>
        <time>2020-09-01T09:47:05.999Z</time>
      </trkpt>
      <trkpt lat="43.20812" lon="0.20621">
        <ele>274.69</ele>
        <time>2020-09-01T09:47:10.999Z</time>
      </trkpt>
      <trkpt lat="43.20812" lon="0.20608">
        <ele>274.85</ele>
        <time>2020-09-01T09:47:15.999Z</time>
      </trkpt>
      <trkpt lat="43.20811" lon="0.20594">
        <ele>275.03</ele>
        <time>2020-09-01T09:47:21.999Z</time>
      </trkpt>
      <trkpt lat="43.20811" lon="0.20581">
        <ele>275.19</ele>
        <time>2020-09-01T09:47:26.999Z</time>
      </trkpt>
      <trkpt lat="43.2081" lon="0.20568">
        <ele>275.34</ele>
        <time>2020-09-01T09:47:31.999Z</time>
      </trkpt>
      <trkpt lat="43.20811" lon="0.20556">
        <ele>275.48</ele>
        <time>2020-09-01T09:47:36.999Z</time>
      </trkpt>
      <trkpt lat="43.2081" lon="0.20543">
        <ele>275.67</ele>
        <time>2020-09-01T09:47:42.999Z</time>
      </trkpt>
      <trkpt lat="43.2081" lon="0.2053">
        <ele>275.84</ele>
        <time>2020-09-01T09:47:48.999Z</time>
      </trkpt>
      <trkpt lat="43.20813" lon="0.20517">
        <ele>276.02</ele>
        <time>2020-09-01T09:47:54.999Z</time>
      </trkpt>
      <trkpt lat="43.20813" lon="0.20503">
        <ele>276.16</ele>
        <time>2020-09-01T09:47:59.999Z</time>
      </trkpt>
      <trkpt lat="43.20811" lon="0.20489">
        <ele>276.3</ele>
        <time>2020-09-01T09:48:04.999Z</time>
      </trkpt>
      <trkpt lat="43.20811" lon="0.20475">
        <ele>276.47</ele>
        <time>2020-09-01T09:48:10.999Z</time>
      </trkpt>
      <trkpt lat="43.20811" lon="0.20461">
        <ele>276.62</ele>
        <time>2020-09-01T09:48:15.999Z</time>
      </trkpt>
      <trkpt lat="43.2081" lon="0.20448">
        <ele>276.76</ele>
        <time>2020-09-01T09:48:20.999Z</time>
      </trkpt>
      <trkpt lat="43.20809" lon="0.20436">
        <ele>276.9</ele>
        <time>2020-09-01T09:48:25.999Z</time>
      </trkpt>
      <trkpt lat="43.20806" lon="0.20423">
        <ele>277.05</ele>
        <time>2020-09-01T09:48:30.999Z</time>
      </trkpt>
      <trkpt lat="43.20806" lon="0.2041">
        <ele>277.2</ele>
        <time>2020-09-01T09:48:35.999Z</time>
      </trkpt>
      <trkpt lat="43.20807" lon="0.20396">
        <ele>277.38</ele>
        <time>2020-09-01T09:48:41.999Z</time>
      </trkpt>
      <trkpt lat="43.20807" lon="0.20383">
        <ele>277.54</ele>
        <time>2020-09-01T09:48:46.999Z</time>
      </trkpt>
      <trkpt lat="43.20807" lon="0.2037">
        <ele>277.7</ele>
        <time>2020-09-01T09:48:51.999Z</time>
      </trkpt>
      <trkpt lat="43.20807" lon="0.20357">
        <ele>277.85</ele>
        <time>2020-09-01T09:48:56.999Z</time>
      </trkpt>
      <trkpt lat="43.20807" lon="0.20344">
        <ele>278.01</ele>
        <time>2020-09-01T09:49:01.999Z</time>
      </trkpt>
      <trkpt lat="43.20806" lon="0.20329">
        <ele>278.19</ele>
        <time>2020-09-01T09:49:07.999Z</time>
      </trkpt>
      <trkpt lat="43.20804" lon="0.20315">
        <ele>278.35</ele>
        <time>2020-09-01T09:49:12.999Z</time>
      </trkpt>
      <trkpt lat="43.20798" lon="0.20299">
        <ele>278.5</ele>
        <time>2020-09-01T09:49:17.999Z</time>
      </trkpt>
      <trkpt lat="43.20788" lon="0.20286">
        <ele>278.65</ele>
        <time>2020-09-01T09:49:22.999Z</time>
      </trkpt>
      <trkpt lat="43.20775" lon="0.20275">
        <ele>278.81</ele>
        <time>2020-09-01T09:49:27.999Z</time>
      </trkpt>
      <trkpt lat="43.20758" lon="0.20266">
        <ele>278.97</ele>
        <time>2020-09-01T09:49:32.999Z</time>
      </trkpt>
      <trkpt lat="43.2074" lon="0.20257">
        <ele>279.15</ele>
        <time>2020-09-01T09:49:37.999Z</time>
      </trkpt>
      <trkpt lat="43.20724" lon="0.20246">
        <ele>279.33</ele>
        <time>2020-09-01T09:49:42.999Z</time>
      </trkpt>
      <trkpt lat="43.20711" lon="0.20233">
        <ele>279.52</ele>
        <time>2020-09-01T09:49:47.999Z</time>
      </trkpt>
      <trkpt lat="43.20702" lon="0.2022">
        <ele>279.71</ele>
        <time>2020-09-01T09:49:52.999Z</time>
      </trkpt>
      <trkpt lat="43.20693" lon="0.20209">
        <ele>279.9</ele>
        <time>2020-09-01T09:49:57.999Z</time>
      </trkpt>
      <trkpt lat="43.20685" lon="0.202">
        <ele>280.2</ele>
        <time>2020-09-01T09:50:04.999Z</time>
      </trkpt>
      <trkpt lat="43.20678" lon="0.2019">
        <ele>280.44</ele>
        <time>2020-09-01T09:50:09.999Z</time>
      </trkpt>
      <trkpt lat="43.20671" lon="0.20178">
        <ele>280.69</ele>
        <time>2020-09-01T09:50:14.999Z</time>
      </trkpt>
      <trkpt lat="43.20663" lon="0.20168">
        <ele>280.93</ele>
        <time>2020-09-01T09:50:19.999Z</time>
      </trkpt>
      <trkpt lat="43.20656" lon="0.20155">
        <ele>281.18</ele>
        <time>2020-09-01T09:50:24.999Z</time>
      </trkpt>
      <trkpt lat="43.2065" lon="0.20146">
        <ele>281.43</ele>
        <time>2020-09-01T09:50:29.999Z</time>
      </trkpt>
      <trkpt lat="43.20644" lon="0.20137">
        <ele>281.69</ele>
        <time>2020-09-01T09:50:34.999Z</time>
      </trkpt>
      <trkpt lat="43.20637" lon="0.20129">
        <ele>281.95</ele>
        <time>2020-09-01T09:50:39.999Z</time>
      </trkpt>
      <trkpt lat="43.2063" lon="0.2012">
        <ele>282.22</ele>
        <time>2020-09-01T09:50:44.999Z</time>
      </trkpt>
      <trkpt lat="43.20622" lon="0.20109">
        <ele>282.5</ele>
        <time>2020-09-01T09:50:49.999Z</time>
      </trkpt>
      <trkpt lat="43.20616" lon="0.20099">
        <ele>282.79</ele>
        <time>2020-09-01T09:50:54.999Z</time>
      </trkpt>
      <trkpt lat="43.2061" lon="0.20087">
        <ele>283.07</ele>
        <time>2020-09-01T09:51:00.000Z</time>
      </trkpt>
      <trkpt lat="43.20604" lon="0.20075">
        <ele>283.36</ele>
        <time>2020-09-01T09:51:05.000Z</time>
      </trkpt>
      <trkpt lat="43.20598" lon="0.20065">
        <ele>283.7</ele>
        <time>2020-09-01T09:51:11.000Z</time>
      </trkpt>
      <trkpt lat="43.20591" lon="0.20056">
        <ele>283.98</ele>
        <time>2020-09-01T09:51:16.000Z</time>
      </trkpt>
      <trkpt lat="43.20585" lon="0.20047">
        <ele>284.26</ele>
        <time>2020-09-01T09:51:21.000Z</time>
      </trkpt>
      <trkpt lat="43.20579" lon="0.20038">
        <ele>284.55</ele>
        <time>2020-09-01T09:51:26.000Z</time>
      </trkpt>
      <trkpt lat="43.20572" lon="0.20028">
        <ele>284.83</ele>
        <time>2020-09-01T09:51:31.000Z</time>
      </trkpt>
      <trkpt lat="43.20565" lon="0.20018">
        <ele>285.12</ele>
        <time>2020-09-01T09:51:36.000Z</time>
      </trkpt>
      <trkpt lat="43.20559" lon="0.20009">
        <ele>285.41</ele>
        <time>2020-09-01T09:51:41.000Z</time>
      </trkpt>
      <trkpt lat="43.20551" lon="0.19999">
        <ele>285.75</ele>
        <time>2020-09-01T09:51:47.000Z</time>
      </trkpt>
      <trkpt lat="43.20543" lon="0.1999">
        <ele>286.04</ele>
        <time>2020-09-01T09:51:52.000Z</time>
      </trkpt>
      <trkpt lat="43.20535" lon="0.19983">
        <ele>286.32</ele>
        <time>2020-09-01T09:51:57.000Z</time>
      </trkpt>
      <trkpt lat="43.20526" lon="0.19975">
        <ele>286.6</ele>
        <time>2020-09-01T09:52:02.000Z</time>
      </trkpt>
      <trkpt lat="43.20516" lon="0.19966">
        <ele>286.89</ele>
        <time>2020-09-01T09:52:07.000Z</time>
      </trkpt>
      <trkpt lat="43.20507" lon="0.19959">
        <ele>287.25</ele>
        <time>2020-09-01T09:52:13.000Z</time>
      </trkpt>
      <trkpt lat="43.20497" lon="0.19956">
        <ele>287.82</ele>
        <time>2020-09-01T09:52:22.000Z</time>
      </trkpt>
      <trkpt lat="43.20489" lon="0.19952">
        <ele>288.23</ele>
        <time>2020-09-01T09:52:28.000Z</time>
      </trkpt>
      <trkpt lat="43.20479" lon="0.19944">
        <ele>288.75</ele>
        <time>2020-09-01T09:52:35.000Z</time>
      </trkpt>
      <trkpt lat="43.2047" lon="0.19936">
        <ele>289.22</ele>
        <time>2020-09-01T09:52:41.000Z</time>
      </trkpt>
      <trkpt lat="43.20461" lon="0.19928">
        <ele>289.6</ele>
        <time>2020-09-01T09:52:46.000Z</time>
      </trkpt>
      <trkpt lat="43.20453" lon="0.19918">
        <ele>289.99</ele>
        <time>2020-09-01T09:52:51.000Z</time>
      </trkpt>
      <trkpt lat="43.20445" lon="0.1991">
        <ele>290.46</ele>
        <time>2020-09-01T09:52:57.000Z</time>
      </trkpt>
      <trkpt lat="43.20437" lon="0.19905">
        <ele>291.01</ele>
        <time>2020-09-01T09:53:04.000Z</time>
      </trkpt>
      <trkpt lat="43.20429" lon="0.19898">
        <ele>291.42</ele>
        <time>2020-09-01T09:53:09.000Z</time>
      </trkpt>
      <trkpt lat="43.2042" lon="0.19891">
        <ele>291.91</ele>
        <time>2020-09-01T09:53:15.000Z</time>
      </trkpt>
      <trkpt lat="43.20408" lon="0.19885">
        <ele>292.33</ele>
        <time>2020-09-01T09:53:20.000Z</time>
      </trkpt>
      <trkpt lat="43.20399" lon="0.19878">
        <ele>292.77</ele>
        <time>2020-09-01T09:53:25.000Z</time>
      </trkpt>
      <trkpt lat="43.2039" lon="0.19871">
        <ele>293.21</ele>
        <time>2020-09-01T09:53:30.000Z</time>
      </trkpt>
      <trkpt lat="43.20379" lon="0.19864">
        <ele>293.65</ele>
        <time>2020-09-01T09:53:35.000Z</time>
      </trkpt>
      <trkpt lat="43.2037" lon="0.19859">
        <ele>294.09</ele>
        <time>2020-09-01T09:53:40.000Z</time>
      </trkpt>
      <trkpt lat="43.2036" lon="0.19853">
        <ele>294.52</ele>
        <time>2020-09-01T09:53:45.000Z</time>
      </trkpt>
      <trkpt lat="43.20352" lon="0.19848">
        <ele>294.95</ele>
        <time>2020-09-01T09:53:50.000Z</time>
      </trkpt>
      <trkpt lat="43.20342" lon="0.19843">
        <ele>295.37</ele>
        <time>2020-09-01T09:53:55.000Z</time>
      </trkpt>
      <trkpt lat="43.20334" lon="0.19837">
        <ele>295.95</ele>
        <time>2020-09-01T09:54:02.000Z</time>
      </trkpt>
      <trkpt lat="43.20325" lon="0.19831">
        <ele>296.37</ele>
        <time>2020-09-01T09:54:07.000Z</time>
      </trkpt>
      <trkpt lat="43.20316" lon="0.19826">
        <ele>296.79</ele>
        <time>2020-09-01T09:54:12.000Z</time>
      </trkpt>
      <trkpt lat="43.20307" lon="0.19821">
        <ele>297.21</ele>
        <time>2020-09-01T09:54:17.000Z</time>
      </trkpt>
      <trkpt lat="43.20298" lon="0.19813">
        <ele>297.64</ele>
        <time>2020-09-01T09:54:22.000Z</time>
      </trkpt>
      <trkpt lat="43.20288" lon="0.19805">
        <ele>298.06</ele>
        <time>2020-09-01T09:54:27.000Z</time>
      </trkpt>
      <trkpt lat="43.20279" lon="0.19798">
        <ele>298.47</ele>
        <time>2020-09-01T09:54:32.000Z</time>
      </trkpt>
      <trkpt lat="43.20268" lon="0.19788">
        <ele>298.87</ele>
        <time>2020-09-01T09:54:37.000Z</time>
      </trkpt>
      <trkpt lat="43.20259" lon="0.19782">
        <ele>299.34</ele>
        <time>2020-09-01T09:54:43.000Z</time>
      </trkpt>
      <trkpt lat="43.2025" lon="0.19777">
        <ele>299.72</ele>
        <time>2020-09-01T09:54:48.000Z</time>
      </trkpt>
      <trkpt lat="43.20241" lon="0.1977">
        <ele>300.16</ele>
        <time>2020-09-01T09:54:54.000Z</time>
      </trkpt>
      <trkpt lat="43.20231" lon="0.19765">
        <ele>300.59</ele>
        <time>2020-09-01T09:55:00.000Z</time>
      </trkpt>
      <trkpt lat="43.20221" lon="0.19758">
        <ele>301.01</ele>
        <time>2020-09-01T09:55:06.000Z</time>
      </trkpt>
      <trkpt lat="43.20213" lon="0.19754">
        <ele>301.34</ele>
        <time>2020-09-01T09:55:11.000Z</time>
      </trkpt>
      <trkpt lat="43.20204" lon="0.19748">
        <ele>301.73</ele>
        <time>2020-09-01T09:55:17.000Z</time>
      </trkpt>
      <trkpt lat="43.20196" lon="0.19742">
        <ele>302.04</ele>
        <time>2020-09-01T09:55:22.000Z</time>
      </trkpt>
      <trkpt lat="43.20188" lon="0.19736">
        <ele>302.37</ele>
        <time>2020-09-01T09:55:27.000Z</time>
      </trkpt>
      <trkpt lat="43.20179" lon="0.1973">
        <ele>302.79</ele>
        <time>2020-09-01T09:55:33.000Z</time>
      </trkpt>
      <trkpt lat="43.20171" lon="0.19725">
        <ele>303.14</ele>
        <time>2020-09-01T09:55:38.000Z</time>
      </trkpt>
      <trkpt lat="43.20161" lon="0.1972">
        <ele>303.57</ele>
        <time>2020-09-01T09:55:44.000Z</time>
      </trkpt>
      <trkpt lat="43.20152" lon="0.19714">
        <ele>303.94</ele>
        <time>2020-09-01T09:55:49.000Z</time>
      </trkpt>
      <trkpt lat="43.20143" lon="0.19708">
        <ele>304.32</ele>
        <time>2020-09-01T09:55:54.000Z</time>
      </trkpt>
      <trkpt lat="43.20134" lon="0.19702">
        <ele>304.68</ele>
        <time>2020-09-01T09:55:59.000Z</time>
      </trkpt>
      <trkpt lat="43.20125" lon="0.19694">
        <ele>305.04</ele>
        <time>2020-09-01T09:56:04.000Z</time>
      </trkpt>
      <trkpt lat="43.20116" lon="0.19686">
        <ele>305.4</ele>
        <time>2020-09-01T09:56:09.000Z</time>
      </trkpt>
      <trkpt lat="43.20108" lon="0.19679">
        <ele>305.76</ele>
        <time>2020-09-01T09:56:14.000Z</time>
      </trkpt>
      <trkpt lat="43.201" lon="0.19671">
        <ele>306.12</ele>
        <time>2020-09-01T09:56:19.000Z</time>
      </trkpt>
      <trkpt lat="43.20093" lon="0.1966">
        <ele>306.47</ele>
        <time>2020-09-01T09:56:24.000Z</time>
      </trkpt>
      <trkpt lat="43.20086" lon="0.19649">
        <ele>306.82</ele>
        <time>2020-09-01T09:56:29.000Z</time>
      </trkpt>
      <trkpt lat="43.20079" lon="0.19637">
        <ele>307.16</ele>
        <time>2020-09-01T09:56:34.000Z</time>
      </trkpt>
      <trkpt lat="43.20072" lon="0.19625">
        <ele>307.51</ele>
        <time>2020-09-01T09:56:39.000Z</time>
      </trkpt>
      <trkpt lat="43.20063" lon="0.19611">
        <ele>307.87</ele>
        <time>2020-09-01T09:56:44.000Z</time>
      </trkpt>
      <trkpt lat="43.20054" lon="0.19597">
        <ele>308.22</ele>
        <time>2020-09-01T09:56:49.000Z</time>
      </trkpt>
      <trkpt lat="43.20059" lon="0.19585">
        <ele>309.14</ele>
        <time>2020-09-01T09:57:26.000Z</time>
      </trkpt>
      <trkpt lat="43.2005" lon="0.19568">
        <ele>309.62</ele>
        <time>2020-09-01T09:57:31.000Z</time>
      </trkpt>
      <trkpt lat="43.20037" lon="0.19547">
        <ele>312.38</ele>
        <time>2020-09-01T09:57:36.000Z</time>
      </trkpt>
      <trkpt lat="43.20021" lon="0.19523">
        <ele>313.94</ele>
        <time>2020-09-01T09:57:41.000Z</time>
      </trkpt>
      <trkpt lat="43.19996" lon="0.19498">
        <ele>314.58</ele>
        <time>2020-09-01T09:57:46.000Z</time>
      </trkpt>
      <trkpt lat="43.19962" lon="0.19476">
        <ele>315</ele>
        <time>2020-09-01T09:57:51.000Z</time>
      </trkpt>
      <trkpt lat="43.19924" lon="0.19449">
        <ele>315.14</ele>
        <time>2020-09-01T09:57:56.000Z</time>
      </trkpt>
      <trkpt lat="43.19888" lon="0.19406">
        <ele>315.13</ele>
        <time>2020-09-01T09:58:01.000Z</time>
      </trkpt>
      <trkpt lat="43.1985" lon="0.19367">
        <ele>315.21</ele>
        <time>2020-09-01T09:58:06.000Z</time>
      </trkpt>
      <trkpt lat="43.19807" lon="0.19339">
        <ele>315.35</ele>
        <time>2020-09-01T09:58:11.000Z</time>
      </trkpt>
      <trkpt lat="43.19762" lon="0.19315">
        <ele>314.08</ele>
        <time>2020-09-01T09:58:16.000Z</time>
      </trkpt>
      <trkpt lat="43.19717" lon="0.19287">
        <ele>313.4</ele>
        <time>2020-09-01T09:58:21.000Z</time>
      </trkpt>
      <trkpt lat="43.19679" lon="0.19249">
        <ele>314.49</ele>
        <time>2020-09-01T09:58:26.000Z</time>
      </trkpt>
      <trkpt lat="43.19643" lon="0.19208">
        <ele>314.3</ele>
        <time>2020-09-01T09:58:31.000Z</time>
      </trkpt>
      <trkpt lat="43.19606" lon="0.19173">
        <ele>312.34</ele>
        <time>2020-09-01T09:58:36.000Z</time>
      </trkpt>
      <trkpt lat="43.19568" lon="0.19146">
        <ele>310.03</ele>
        <time>2020-09-01T09:58:41.000Z</time>
      </trkpt>
      <trkpt lat="43.19527" lon="0.19115">
        <ele>306.73</ele>
        <time>2020-09-01T09:58:46.000Z</time>
      </trkpt>
      <trkpt lat="43.19489" lon="0.19067">
        <ele>304.41</ele>
        <time>2020-09-01T09:58:51.000Z</time>
      </trkpt>
      <trkpt lat="43.19464" lon="0.19004">
        <ele>303.24</ele>
        <time>2020-09-01T09:58:56.000Z</time>
      </trkpt>
      <trkpt lat="43.19447" lon="0.18932">
        <ele>302.15</ele>
        <time>2020-09-01T09:59:01.000Z</time>
      </trkpt>
      <trkpt lat="43.19432" lon="0.1886">
        <ele>302.8</ele>
        <time>2020-09-01T09:59:06.000Z</time>
      </trkpt>
      <trkpt lat="43.1942" lon="0.188">
        <ele>303.56</ele>
        <time>2020-09-01T09:59:11.000Z</time>
      </trkpt>
      <trkpt lat="43.19411" lon="0.18757">
        <ele>303.8</ele>
        <time>2020-09-01T09:59:16.000Z</time>
      </trkpt>
      <trkpt lat="43.19404" lon="0.18728">
        <ele>303.79</ele>
        <time>2020-09-01T09:59:21.000Z</time>
      </trkpt>
      <trkpt lat="43.194" lon="0.18708">
        <ele>303.74</ele>
        <time>2020-09-01T09:59:26.000Z</time>
      </trkpt>
      <trkpt lat="43.19397" lon="0.18692">
        <ele>303.61</ele>
        <time>2020-09-01T09:59:31.000Z</time>
      </trkpt>
      <trkpt lat="43.19394" lon="0.18675">
        <ele>303.49</ele>
        <time>2020-09-01T09:59:36.000Z</time>
      </trkpt>
      <trkpt lat="43.19391" lon="0.18661">
        <ele>303.41</ele>
        <time>2020-09-01T09:59:41.000Z</time>
      </trkpt>
      <trkpt lat="43.19388" lon="0.18648">
        <ele>303.33</ele>
        <time>2020-09-01T09:59:46.000Z</time>
      </trkpt>
      <trkpt lat="43.19388" lon="0.18635">
        <ele>303.25</ele>
        <time>2020-09-01T09:59:51.000Z</time>
      </trkpt>
      <trkpt lat="43.19388" lon="0.18623">
        <ele>303.12</ele>
        <time>2020-09-01T09:59:57.000Z</time>
      </trkpt>
      <trkpt lat="43.1939" lon="0.1861">
        <ele>303</ele>
        <time>2020-09-01T10:00:05.000Z</time>
      </trkpt>
      <trkpt lat="43.19393" lon="0.18598">
        <ele>302.98</ele>
        <time>2020-09-01T10:00:11.000Z</time>
      </trkpt>
      <trkpt lat="43.19396" lon="0.18584">
        <ele>302.89</ele>
        <time>2020-09-01T10:00:17.000Z</time>
      </trkpt>
      <trkpt lat="43.19398" lon="0.1857">
        <ele>302.76</ele>
        <time>2020-09-01T10:00:23.000Z</time>
      </trkpt>
      <trkpt lat="43.194" lon="0.18557">
        <ele>302.59</ele>
        <time>2020-09-01T10:00:30.000Z</time>
      </trkpt>
      <trkpt lat="43.19403" lon="0.18544">
        <ele>302.41</ele>
        <time>2020-09-01T10:00:36.000Z</time>
      </trkpt>
      <trkpt lat="43.19406" lon="0.18531">
        <ele>302.2</ele>
        <time>2020-09-01T10:00:42.000Z</time>
      </trkpt>
      <trkpt lat="43.19411" lon="0.18518">
        <ele>301.98</ele>
        <time>2020-09-01T10:00:48.000Z</time>
      </trkpt>
      <trkpt lat="43.19416" lon="0.18506">
        <ele>301.76</ele>
        <time>2020-09-01T10:00:54.000Z</time>
      </trkpt>
      <trkpt lat="43.1942" lon="0.18496">
        <ele>301.57</ele>
        <time>2020-09-01T10:01:00.000Z</time>
      </trkpt>
      <trkpt lat="43.19424" lon="0.18482">
        <ele>301.55</ele>
        <time>2020-09-01T10:01:08.000Z</time>
      </trkpt>
      <trkpt lat="43.19429" lon="0.18471">
        <ele>301.69</ele>
        <time>2020-09-01T10:01:14.000Z</time>
      </trkpt>
      <trkpt lat="43.19431" lon="0.18458">
        <ele>301.93</ele>
        <time>2020-09-01T10:01:20.000Z</time>
      </trkpt>
      <trkpt lat="43.19434" lon="0.18445">
        <ele>302.2</ele>
        <time>2020-09-01T10:01:26.000Z</time>
      </trkpt>
      <trkpt lat="43.19437" lon="0.18432">
        <ele>302.48</ele>
        <time>2020-09-01T10:01:32.000Z</time>
      </trkpt>
      <trkpt lat="43.19439" lon="0.18418">
        <ele>302.77</ele>
        <time>2020-09-01T10:01:38.000Z</time>
      </trkpt>
      <trkpt lat="43.19442" lon="0.18406">
        <ele>303.05</ele>
        <time>2020-09-01T10:01:44.000Z</time>
      </trkpt>
      <trkpt lat="43.19444" lon="0.18394">
        <ele>303.31</ele>
        <time>2020-09-01T10:01:50.000Z</time>
      </trkpt>
      <trkpt lat="43.19445" lon="0.1838">
        <ele>303.63</ele>
        <time>2020-09-01T10:01:56.000Z</time>
      </trkpt>
      <trkpt lat="43.19448" lon="0.18365">
        <ele>303.95</ele>
        <time>2020-09-01T10:02:01.000Z</time>
      </trkpt>
      <trkpt lat="43.19449" lon="0.1835">
        <ele>304.28</ele>
        <time>2020-09-01T10:02:07.000Z</time>
      </trkpt>
      <trkpt lat="43.19448" lon="0.18337">
        <ele>304.54</ele>
        <time>2020-09-01T10:02:13.000Z</time>
      </trkpt>
      <trkpt lat="43.19452" lon="0.18323">
        <ele>304.79</ele>
        <time>2020-09-01T10:02:20.000Z</time>
      </trkpt>
      <trkpt lat="43.19453" lon="0.1831">
        <ele>304.98</ele>
        <time>2020-09-01T10:02:25.000Z</time>
      </trkpt>
      <trkpt lat="43.19454" lon="0.18296">
        <ele>305.22</ele>
        <time>2020-09-01T10:02:30.000Z</time>
      </trkpt>
      <trkpt lat="43.19455" lon="0.18283">
        <ele>305.57</ele>
        <time>2020-09-01T10:02:36.000Z</time>
      </trkpt>
      <trkpt lat="43.19455" lon="0.18269">
        <ele>305.91</ele>
        <time>2020-09-01T10:02:41.000Z</time>
      </trkpt>
      <trkpt lat="43.19456" lon="0.18256">
        <ele>306.34</ele>
        <time>2020-09-01T10:02:46.000Z</time>
      </trkpt>
      <trkpt lat="43.19456" lon="0.18243">
        <ele>306.9</ele>
        <time>2020-09-01T10:02:52.000Z</time>
      </trkpt>
      <trkpt lat="43.19457" lon="0.18229">
        <ele>307.5</ele>
        <time>2020-09-01T10:02:58.000Z</time>
      </trkpt>
      <trkpt lat="43.19458" lon="0.18216">
        <ele>308.15</ele>
        <time>2020-09-01T10:03:04.000Z</time>
      </trkpt>
      <trkpt lat="43.1946" lon="0.18202">
        <ele>308.83</ele>
        <time>2020-09-01T10:03:10.000Z</time>
      </trkpt>
      <trkpt lat="43.19462" lon="0.18188">
        <ele>309.56</ele>
        <time>2020-09-01T10:03:16.000Z</time>
      </trkpt>
      <trkpt lat="43.19464" lon="0.18175">
        <ele>310.3</ele>
        <time>2020-09-01T10:03:21.999Z</time>
      </trkpt>
      <trkpt lat="43.19465" lon="0.18162">
        <ele>310.95</ele>
        <time>2020-09-01T10:03:26.999Z</time>
      </trkpt>
      <trkpt lat="43.19465" lon="0.18148">
        <ele>311.61</ele>
        <time>2020-09-01T10:03:31.999Z</time>
      </trkpt>
      <trkpt lat="43.19467" lon="0.18133">
        <ele>312.25</ele>
        <time>2020-09-01T10:03:36.999Z</time>
      </trkpt>
      <trkpt lat="43.19469" lon="0.18119">
        <ele>312.83</ele>
        <time>2020-09-01T10:03:41.999Z</time>
      </trkpt>
      <trkpt lat="43.19474" lon="0.18108">
        <ele>313.39</ele>
        <time>2020-09-01T10:03:46.999Z</time>
      </trkpt>
      <trkpt lat="43.19476" lon="0.18095">
        <ele>313.99</ele>
        <time>2020-09-01T10:03:52.999Z</time>
      </trkpt>
      <trkpt lat="43.19476" lon="0.18082">
        <ele>314.4</ele>
        <time>2020-09-01T10:03:57.999Z</time>
      </trkpt>
      <trkpt lat="43.19477" lon="0.18069">
        <ele>314.74</ele>
        <time>2020-09-01T10:04:02.999Z</time>
      </trkpt>
      <trkpt lat="43.19477" lon="0.18054">
        <ele>315.11</ele>
        <time>2020-09-01T10:04:08.999Z</time>
      </trkpt>
      <trkpt lat="43.19478" lon="0.18041">
        <ele>315.52</ele>
        <time>2020-09-01T10:04:13.999Z</time>
      </trkpt>
      <trkpt lat="43.19479" lon="0.18025">
        <ele>315.94</ele>
        <time>2020-09-01T10:04:18.999Z</time>
      </trkpt>
      <trkpt lat="43.19479" lon="0.18009">
        <ele>316.36</ele>
        <time>2020-09-01T10:04:23.999Z</time>
      </trkpt>
      <trkpt lat="43.19481" lon="0.17996">
        <ele>316.78</ele>
        <time>2020-09-01T10:04:28.999Z</time>
      </trkpt>
      <trkpt lat="43.19482" lon="0.17981">
        <ele>317.17</ele>
        <time>2020-09-01T10:04:33.999Z</time>
      </trkpt>
      <trkpt lat="43.19484" lon="0.17967">
        <ele>317.56</ele>
        <time>2020-09-01T10:04:38.999Z</time>
      </trkpt>
      <trkpt lat="43.19486" lon="0.17953">
        <ele>317.95</ele>
        <time>2020-09-01T10:04:43.999Z</time>
      </trkpt>
      <trkpt lat="43.19488" lon="0.17937">
        <ele>318.31</ele>
        <time>2020-09-01T10:04:48.999Z</time>
      </trkpt>
      <trkpt lat="43.19489" lon="0.17921">
        <ele>318.63</ele>
        <time>2020-09-01T10:04:53.999Z</time>
      </trkpt>
      <trkpt lat="43.19492" lon="0.17905">
        <ele>318.94</ele>
        <time>2020-09-01T10:04:58.999Z</time>
      </trkpt>
      <trkpt lat="43.19492" lon="0.1789">
        <ele>319.25</ele>
        <time>2020-09-01T10:05:03.999Z</time>
      </trkpt>
      <trkpt lat="43.19494" lon="0.17875">
        <ele>319.54</ele>
        <time>2020-09-01T10:05:08.999Z</time>
      </trkpt>
      <trkpt lat="43.19496" lon="0.17859">
        <ele>319.83</ele>
        <time>2020-09-01T10:05:13.999Z</time>
      </trkpt>
      <trkpt lat="43.19498" lon="0.17845">
        <ele>320.09</ele>
        <time>2020-09-01T10:05:18.999Z</time>
      </trkpt>
      <trkpt lat="43.195" lon="0.1783">
        <ele>320.33</ele>
        <time>2020-09-01T10:05:23.999Z</time>
      </trkpt>
      <trkpt lat="43.19502" lon="0.17813">
        <ele>320.55</ele>
        <time>2020-09-01T10:05:28.999Z</time>
      </trkpt>
      <trkpt lat="43.19503" lon="0.17797">
        <ele>320.78</ele>
        <time>2020-09-01T10:05:33.999Z</time>
      </trkpt>
      <trkpt lat="43.19504" lon="0.17783">
        <ele>320.99</ele>
        <time>2020-09-01T10:05:38.999Z</time>
      </trkpt>
      <trkpt lat="43.19505" lon="0.17766">
        <ele>321.21</ele>
        <time>2020-09-01T10:05:43.999Z</time>
      </trkpt>
      <trkpt lat="43.19507" lon="0.1775">
        <ele>321.43</ele>
        <time>2020-09-01T10:05:48.999Z</time>
      </trkpt>
      <trkpt lat="43.19509" lon="0.17735">
        <ele>321.65</ele>
        <time>2020-09-01T10:05:53.999Z</time>
      </trkpt>
      <trkpt lat="43.1951" lon="0.17719">
        <ele>321.88</ele>
        <time>2020-09-01T10:05:58.999Z</time>
      </trkpt>
      <trkpt lat="43.19512" lon="0.17704">
        <ele>322.13</ele>
        <time>2020-09-01T10:06:03.999Z</time>
      </trkpt>
      <trkpt lat="43.19515" lon="0.1769">
        <ele>322.38</ele>
        <time>2020-09-01T10:06:08.999Z</time>
      </trkpt>
      <trkpt lat="43.19515" lon="0.17675">
        <ele>322.62</ele>
        <time>2020-09-01T10:06:13.999Z</time>
      </trkpt>
      <trkpt lat="43.19517" lon="0.1766">
        <ele>322.86</ele>
        <time>2020-09-01T10:06:18.999Z</time>
      </trkpt>
      <trkpt lat="43.19518" lon="0.17645">
        <ele>323.09</ele>
        <time>2020-09-01T10:06:23.999Z</time>
      </trkpt>
      <trkpt lat="43.19519" lon="0.1763">
        <ele>323.32</ele>
        <time>2020-09-01T10:06:28.999Z</time>
      </trkpt>
      <trkpt lat="43.19521" lon="0.17613">
        <ele>323.54</ele>
        <time>2020-09-01T10:06:33.999Z</time>
      </trkpt>
      <trkpt lat="43.19522" lon="0.17596">
        <ele>323.78</ele>
        <time>2020-09-01T10:06:38.999Z</time>
      </trkpt>
      <trkpt lat="43.19524" lon="0.1758">
        <ele>324.01</ele>
        <time>2020-09-01T10:06:43.999Z</time>
      </trkpt>
      <trkpt lat="43.19526" lon="0.17565">
        <ele>324.25</ele>
        <time>2020-09-01T10:06:48.999Z</time>
      </trkpt>
      <trkpt lat="43.19529" lon="0.1755">
        <ele>324.49</ele>
        <time>2020-09-01T10:06:53.999Z</time>
      </trkpt>
      <trkpt lat="43.19528" lon="0.17533">
        <ele>324.73</ele>
        <time>2020-09-01T10:06:58.999Z</time>
      </trkpt>
      <trkpt lat="43.19529" lon="0.17517">
        <ele>324.97</ele>
        <time>2020-09-01T10:07:03.999Z</time>
      </trkpt>
      <trkpt lat="43.1953" lon="0.175">
        <ele>325.21</ele>
        <time>2020-09-01T10:07:08.999Z</time>
      </trkpt>
      <trkpt lat="43.19532" lon="0.17484">
        <ele>325.43</ele>
        <time>2020-09-01T10:07:13.999Z</time>
      </trkpt>
      <trkpt lat="43.19534" lon="0.17466">
        <ele>325.65</ele>
        <time>2020-09-01T10:07:18.999Z</time>
      </trkpt>
      <trkpt lat="43.19538" lon="0.17448">
        <ele>325.87</ele>
        <time>2020-09-01T10:07:23.999Z</time>
      </trkpt>
      <trkpt lat="43.1954" lon="0.17429">
        <ele>326.1</ele>
        <time>2020-09-01T10:07:28.999Z</time>
      </trkpt>
      <trkpt lat="43.19541" lon="0.17411">
        <ele>326.32</ele>
        <time>2020-09-01T10:07:33.999Z</time>
      </trkpt>
      <trkpt lat="43.19543" lon="0.17393">
        <ele>326.53</ele>
        <time>2020-09-01T10:07:38.999Z</time>
      </trkpt>
      <trkpt lat="43.19544" lon="0.17373">
        <ele>326.74</ele>
        <time>2020-09-01T10:07:43.999Z</time>
      </trkpt>
      <trkpt lat="43.19544" lon="0.17355">
        <ele>326.97</ele>
        <time>2020-09-01T10:07:48.999Z</time>
      </trkpt>
      <trkpt lat="43.19545" lon="0.17338">
        <ele>327.22</ele>
        <time>2020-09-01T10:07:53.999Z</time>
      </trkpt>
      <trkpt lat="43.19547" lon="0.1732">
        <ele>327.46</ele>
        <time>2020-09-01T10:07:58.999Z</time>
      </trkpt>
      <trkpt lat="43.19549" lon="0.17303">
        <ele>327.7</ele>
        <time>2020-09-01T10:08:03.999Z</time>
      </trkpt>
      <trkpt lat="43.1955" lon="0.17285">
        <ele>327.93</ele>
        <time>2020-09-01T10:08:08.999Z</time>
      </trkpt>
      <trkpt lat="43.19551" lon="0.17266">
        <ele>328.15</ele>
        <time>2020-09-01T10:08:13.999Z</time>
      </trkpt>
      <trkpt lat="43.19553" lon="0.17248">
        <ele>328.38</ele>
        <time>2020-09-01T10:08:18.999Z</time>
      </trkpt>
      <trkpt lat="43.19554" lon="0.1723">
        <ele>328.61</ele>
        <time>2020-09-01T10:08:23.999Z</time>
      </trkpt>
      <trkpt lat="43.19557" lon="0.17213">
        <ele>328.85</ele>
        <time>2020-09-01T10:08:28.999Z</time>
      </trkpt>
      <trkpt lat="43.19558" lon="0.17197">
        <ele>329.08</ele>
        <time>2020-09-01T10:08:33.999Z</time>
      </trkpt>
      <trkpt lat="43.1956" lon="0.1718">
        <ele>329.3</ele>
        <time>2020-09-01T10:08:38.999Z</time>
      </trkpt>
      <trkpt lat="43.19561" lon="0.17161">
        <ele>329.52</ele>
        <time>2020-09-01T10:08:43.999Z</time>
      </trkpt>
      <trkpt lat="43.19563" lon="0.17145">
        <ele>329.73</ele>
        <time>2020-09-01T10:08:48.999Z</time>
      </trkpt>
      <trkpt lat="43.19564" lon="0.17128">
        <ele>329.94</ele>
        <time>2020-09-01T10:08:53.999Z</time>
      </trkpt>
      <trkpt lat="43.19566" lon="0.17111">
        <ele>330.13</ele>
        <time>2020-09-01T10:08:58.999Z</time>
      </trkpt>
      <trkpt lat="43.19568" lon="0.17095">
        <ele>330.31</ele>
        <time>2020-09-01T10:09:03.999Z</time>
      </trkpt>
      <trkpt lat="43.1957" lon="0.17078">
        <ele>330.49</ele>
        <time>2020-09-01T10:09:08.999Z</time>
      </trkpt>
      <trkpt lat="43.19572" lon="0.17062">
        <ele>330.66</ele>
        <time>2020-09-01T10:09:13.999Z</time>
      </trkpt>
      <trkpt lat="43.19574" lon="0.17046">
        <ele>330.83</ele>
        <time>2020-09-01T10:09:18.999Z</time>
      </trkpt>
      <trkpt lat="43.19575" lon="0.17029">
        <ele>330.99</ele>
        <time>2020-09-01T10:09:23.999Z</time>
      </trkpt>
      <trkpt lat="43.19577" lon="0.17013">
        <ele>331.16</ele>
        <time>2020-09-01T10:09:28.999Z</time>
      </trkpt>
      <trkpt lat="43.19578" lon="0.16997">
        <ele>331.32</ele>
        <time>2020-09-01T10:09:33.999Z</time>
      </trkpt>
      <trkpt lat="43.1958" lon="0.16981">
        <ele>331.48</ele>
        <time>2020-09-01T10:09:38.999Z</time>
      </trkpt>
      <trkpt lat="43.19582" lon="0.16964">
        <ele>331.64</ele>
        <time>2020-09-01T10:09:43.999Z</time>
      </trkpt>
      <trkpt lat="43.19583" lon="0.16948">
        <ele>331.8</ele>
        <time>2020-09-01T10:09:48.999Z</time>
      </trkpt>
      <trkpt lat="43.19586" lon="0.16931">
        <ele>331.95</ele>
        <time>2020-09-01T10:09:53.999Z</time>
      </trkpt>
      <trkpt lat="43.19589" lon="0.16914">
        <ele>332.11</ele>
        <time>2020-09-01T10:09:58.999Z</time>
      </trkpt>
      <trkpt lat="43.19592" lon="0.16898">
        <ele>332.26</ele>
        <time>2020-09-01T10:10:03.999Z</time>
      </trkpt>
      <trkpt lat="43.19595" lon="0.16884">
        <ele>332.41</ele>
        <time>2020-09-01T10:10:08.999Z</time>
      </trkpt>
      <trkpt lat="43.196" lon="0.16866">
        <ele>332.57</ele>
        <time>2020-09-01T10:10:13.999Z</time>
      </trkpt>
      <trkpt lat="43.19604" lon="0.16849">
        <ele>332.72</ele>
        <time>2020-09-01T10:10:18.999Z</time>
      </trkpt>
      <trkpt lat="43.19609" lon="0.1683">
        <ele>332.88</ele>
        <time>2020-09-01T10:10:23.999Z</time>
      </trkpt>
      <trkpt lat="43.19615" lon="0.16812">
        <ele>333.03</ele>
        <time>2020-09-01T10:10:28.999Z</time>
      </trkpt>
      <trkpt lat="43.19619" lon="0.16793">
        <ele>333.19</ele>
        <time>2020-09-01T10:10:33.999Z</time>
      </trkpt>
      <trkpt lat="43.19623" lon="0.16772">
        <ele>333.34</ele>
        <time>2020-09-01T10:10:38.999Z</time>
      </trkpt>
      <trkpt lat="43.19628" lon="0.16753">
        <ele>333.5</ele>
        <time>2020-09-01T10:10:43.999Z</time>
      </trkpt>
      <trkpt lat="43.19633" lon="0.16734">
        <ele>333.65</ele>
        <time>2020-09-01T10:10:48.999Z</time>
      </trkpt>
      <trkpt lat="43.19637" lon="0.16714">
        <ele>333.82</ele>
        <time>2020-09-01T10:10:53.999Z</time>
      </trkpt>
      <trkpt lat="43.19642" lon="0.16697">
        <ele>333.98</ele>
        <time>2020-09-01T10:10:58.999Z</time>
      </trkpt>
      <trkpt lat="43.19648" lon="0.16676">
        <ele>334.38</ele>
        <time>2020-09-01T10:11:03.999Z</time>
      </trkpt>
      <trkpt lat="43.19654" lon="0.16653">
        <ele>335.45</ele>
        <time>2020-09-01T10:11:08.999Z</time>
      </trkpt>
      <trkpt lat="43.19659" lon="0.16624">
        <ele>335.97</ele>
        <time>2020-09-01T10:11:13.999Z</time>
      </trkpt>
      <trkpt lat="43.19661" lon="0.1659">
        <ele>336.31</ele>
        <time>2020-09-01T10:11:18.999Z</time>
      </trkpt>
      <trkpt lat="43.19662" lon="0.16548">
        <ele>336.57</ele>
        <time>2020-09-01T10:11:23.999Z</time>
      </trkpt>
      <trkpt lat="43.19661" lon="0.16501">
        <ele>336.74</ele>
        <time>2020-09-01T10:11:28.999Z</time>
      </trkpt>
      <trkpt lat="43.19656" lon="0.16439">
        <ele>336.94</ele>
        <time>2020-09-01T10:11:33.999Z</time>
      </trkpt>
      <trkpt lat="43.19648" lon="0.1638">
        <ele>337.04</ele>
        <time>2020-09-01T10:11:38.999Z</time>
      </trkpt>
      <trkpt lat="43.19647" lon="0.16318">
        <ele>337.17</ele>
        <time>2020-09-01T10:11:43.999Z</time>
      </trkpt>
      <trkpt lat="43.1965" lon="0.16266">
        <ele>338.08</ele>
        <time>2020-09-01T10:11:48.999Z</time>
      </trkpt>
      <trkpt lat="43.19653" lon="0.16226">
        <ele>338.82</ele>
        <time>2020-09-01T10:11:53.999Z</time>
      </trkpt>
      <trkpt lat="43.19657" lon="0.16195">
        <ele>339.67</ele>
        <time>2020-09-01T10:11:58.999Z</time>
      </trkpt>
      <trkpt lat="43.19661" lon="0.16168">
        <ele>340.26</ele>
        <time>2020-09-01T10:12:03.999Z</time>
      </trkpt>
      <trkpt lat="43.19663" lon="0.16145">
        <ele>340.38</ele>
        <time>2020-09-01T10:12:08.999Z</time>
      </trkpt>
      <trkpt lat="43.19665" lon="0.16124">
        <ele>340.5</ele>
        <time>2020-09-01T10:12:13.999Z</time>
      </trkpt>
      <trkpt lat="43.19666" lon="0.16106">
        <ele>340.58</ele>
        <time>2020-09-01T10:12:18.999Z</time>
      </trkpt>
      <trkpt lat="43.19668" lon="0.16089">
        <ele>340.62</ele>
        <time>2020-09-01T10:12:23.999Z</time>
      </trkpt>
      <trkpt lat="43.1967" lon="0.16073">
        <ele>340.63</ele>
        <time>2020-09-01T10:12:28.999Z</time>
      </trkpt>
      <trkpt lat="43.19671" lon="0.16055">
        <ele>340.64</ele>
        <time>2020-09-01T10:12:33.999Z</time>
      </trkpt>
      <trkpt lat="43.19672" lon="0.1604">
        <ele>340.65</ele>
        <time>2020-09-01T10:12:38.999Z</time>
      </trkpt>
      <trkpt lat="43.19674" lon="0.16024">
        <ele>340.66</ele>
        <time>2020-09-01T10:12:43.999Z</time>
      </trkpt>
      <trkpt lat="43.19675" lon="0.16009">
        <ele>340.68</ele>
        <time>2020-09-01T10:12:48.999Z</time>
      </trkpt>
      <trkpt lat="43.19676" lon="0.15993">
        <ele>340.7</ele>
        <time>2020-09-01T10:12:53.999Z</time>
      </trkpt>
      <trkpt lat="43.19679" lon="0.15977">
        <ele>340.73</ele>
        <time>2020-09-01T10:12:58.999Z</time>
      </trkpt>
      <trkpt lat="43.19681" lon="0.15961">
        <ele>340.77</ele>
        <time>2020-09-01T10:13:03.999Z</time>
      </trkpt>
      <trkpt lat="43.19683" lon="0.15945">
        <ele>340.82</ele>
        <time>2020-09-01T10:13:08.999Z</time>
      </trkpt>
      <trkpt lat="43.19685" lon="0.15929">
        <ele>340.85</ele>
        <time>2020-09-01T10:13:13.999Z</time>
      </trkpt>
      <trkpt lat="43.19687" lon="0.15914">
        <ele>340.89</ele>
        <time>2020-09-01T10:13:18.999Z</time>
      </trkpt>
      <trkpt lat="43.19688" lon="0.15897">
        <ele>340.94</ele>
        <time>2020-09-01T10:13:23.999Z</time>
      </trkpt>
      <trkpt lat="43.19689" lon="0.15882">
        <ele>341.06</ele>
        <time>2020-09-01T10:13:28.999Z</time>
      </trkpt>
      <trkpt lat="43.19692" lon="0.15865">
        <ele>341.17</ele>
        <time>2020-09-01T10:13:33.999Z</time>
      </trkpt>
      <trkpt lat="43.19693" lon="0.15849">
        <ele>341.27</ele>
        <time>2020-09-01T10:13:38.999Z</time>
      </trkpt>
      <trkpt lat="43.19694" lon="0.15831">
        <ele>341.36</ele>
        <time>2020-09-01T10:13:43.999Z</time>
      </trkpt>
      <trkpt lat="43.19695" lon="0.15815">
        <ele>341.5</ele>
        <time>2020-09-01T10:13:48.999Z</time>
      </trkpt>
      <trkpt lat="43.19697" lon="0.15799">
        <ele>341.67</ele>
        <time>2020-09-01T10:13:53.999Z</time>
      </trkpt>
      <trkpt lat="43.19698" lon="0.15783">
        <ele>341.85</ele>
        <time>2020-09-01T10:13:58.999Z</time>
      </trkpt>
      <trkpt lat="43.197" lon="0.1577">
        <ele>342.07</ele>
        <time>2020-09-01T10:14:03.999Z</time>
      </trkpt>
      <trkpt lat="43.19701" lon="0.15756">
        <ele>342.28</ele>
        <time>2020-09-01T10:14:08.999Z</time>
      </trkpt>
      <trkpt lat="43.19702" lon="0.15743">
        <ele>342.51</ele>
        <time>2020-09-01T10:14:13.999Z</time>
      </trkpt>
      <trkpt lat="43.19704" lon="0.15728">
        <ele>342.8</ele>
        <time>2020-09-01T10:14:19.999Z</time>
      </trkpt>
      <trkpt lat="43.19705" lon="0.15715">
        <ele>343.03</ele>
        <time>2020-09-01T10:14:24.999Z</time>
      </trkpt>
      <trkpt lat="43.19706" lon="0.15703">
        <ele>343.27</ele>
        <time>2020-09-01T10:14:29.999Z</time>
      </trkpt>
      <trkpt lat="43.19708" lon="0.1569">
        <ele>343.54</ele>
        <time>2020-09-01T10:14:34.999Z</time>
      </trkpt>
      <trkpt lat="43.1971" lon="0.15676">
        <ele>343.83</ele>
        <time>2020-09-01T10:14:39.999Z</time>
      </trkpt>
      <trkpt lat="43.19711" lon="0.15663">
        <ele>344.12</ele>
        <time>2020-09-01T10:14:44.999Z</time>
      </trkpt>
      <trkpt lat="43.19713" lon="0.1565">
        <ele>344.4</ele>
        <time>2020-09-01T10:14:49.999Z</time>
      </trkpt>
      <trkpt lat="43.19714" lon="0.15637">
        <ele>344.67</ele>
        <time>2020-09-01T10:14:54.999Z</time>
      </trkpt>
      <trkpt lat="43.19706" lon="0.15643">
        <ele>345.08</ele>
        <time>2020-09-01T10:15:17.999Z</time>
      </trkpt>
      <trkpt lat="43.19689" lon="0.15641">
        <ele>345.34</ele>
        <time>2020-09-01T10:15:22.999Z</time>
      </trkpt>
      <trkpt lat="43.19668" lon="0.15638">
        <ele>346</ele>
        <time>2020-09-01T10:15:27.999Z</time>
      </trkpt>
      <trkpt lat="43.19648" lon="0.15632">
        <ele>346.35</ele>
        <time>2020-09-01T10:15:32.999Z</time>
      </trkpt>
      <trkpt lat="43.19647" lon="0.15619">
        <ele>346.42</ele>
        <time>2020-09-01T10:15:37.000Z</time>
      </trkpt>
      <trkpt lat="43.19653" lon="0.1561">
        <ele>348.81</ele>
        <time>2020-09-01T10:22:22.000Z</time>
      </trkpt>
      <trkpt lat="43.19645" lon="0.15616">
        <ele>349.01</ele>
        <time>2020-09-01T10:26:27.000Z</time>
      </trkpt>
      <trkpt lat="43.19638" lon="0.1561">
        <ele>349.88</ele>
        <time>2020-09-01T10:48:25.000Z</time>
      </trkpt>
      <trkpt lat="43.19643" lon="0.1562">
        <ele>354.04</ele>
        <time>2020-09-01T11:17:49.000Z</time>
      </trkpt>
      <trkpt lat="43.19644" lon="0.15635">
        <ele>354.87</ele>
        <time>2020-09-01T11:24:00.999Z</time>
      </trkpt>
      <trkpt lat="43.19661" lon="0.1564">
        <ele>354.89</ele>
        <time>2020-09-01T11:24:05.999Z</time>
      </trkpt>
      <trkpt lat="43.19676" lon="0.15642">
        <ele>354.92</ele>
        <time>2020-09-01T11:24:10.999Z</time>
      </trkpt>
      <trkpt lat="43.1969" lon="0.15647">
        <ele>354.94</ele>
        <time>2020-09-01T11:24:15.999Z</time>
      </trkpt>
      <trkpt lat="43.19701" lon="0.15652">
        <ele>354.97</ele>
        <time>2020-09-01T11:24:20.999Z</time>
      </trkpt>
      <trkpt lat="43.1971" lon="0.15647">
        <ele>355.04</ele>
        <time>2020-09-01T11:24:33.999Z</time>
      </trkpt>
      <trkpt lat="43.19711" lon="0.1563">
        <ele>355.09</ele>
        <time>2020-09-01T11:24:38.999Z</time>
      </trkpt>
      <trkpt lat="43.19713" lon="0.15614">
        <ele>355.14</ele>
        <time>2020-09-01T11:24:43.999Z</time>
      </trkpt>
      <trkpt lat="43.19714" lon="0.15599">
        <ele>355.2</ele>
        <time>2020-09-01T11:24:48.999Z</time>
      </trkpt>
      <trkpt lat="43.19715" lon="0.15585">
        <ele>355.27</ele>
        <time>2020-09-01T11:24:53.999Z</time>
      </trkpt>
      <trkpt lat="43.19716" lon="0.1557">
        <ele>355.33</ele>
        <time>2020-09-01T11:24:58.999Z</time>
      </trkpt>
      <trkpt lat="43.19717" lon="0.15556">
        <ele>355.4</ele>
        <time>2020-09-01T11:25:03.999Z</time>
      </trkpt>
      <trkpt lat="43.19719" lon="0.15541">
        <ele>355.47</ele>
        <time>2020-09-01T11:25:08.999Z</time>
      </trkpt>
      <trkpt lat="43.19719" lon="0.15527">
        <ele>355.54</ele>
        <time>2020-09-01T11:25:13.999Z</time>
      </trkpt>
      <trkpt lat="43.19722" lon="0.15513">
        <ele>355.61</ele>
        <time>2020-09-01T11:25:18.999Z</time>
      </trkpt>
      <trkpt lat="43.19723" lon="0.15499">
        <ele>355.68</ele>
        <time>2020-09-01T11:25:23.999Z</time>
      </trkpt>
      <trkpt lat="43.19724" lon="0.15485">
        <ele>355.77</ele>
        <time>2020-09-01T11:25:29.999Z</time>
      </trkpt>
      <trkpt lat="43.19726" lon="0.15472">
        <ele>355.85</ele>
        <time>2020-09-01T11:25:34.999Z</time>
      </trkpt>
      <trkpt lat="43.19727" lon="0.15458">
        <ele>355.94</ele>
        <time>2020-09-01T11:25:40.999Z</time>
      </trkpt>
      <trkpt lat="43.19728" lon="0.15445">
        <ele>356.02</ele>
        <time>2020-09-01T11:25:45.999Z</time>
      </trkpt>
      <trkpt lat="43.19729" lon="0.15433">
        <ele>356.1</ele>
        <time>2020-09-01T11:25:50.999Z</time>
      </trkpt>
      <trkpt lat="43.19731" lon="0.15419">
        <ele>356.2</ele>
        <time>2020-09-01T11:25:56.999Z</time>
      </trkpt>
      <trkpt lat="43.19732" lon="0.15405">
        <ele>356.31</ele>
        <time>2020-09-01T11:26:02.999Z</time>
      </trkpt>
      <trkpt lat="43.19734" lon="0.15392">
        <ele>356.4</ele>
        <time>2020-09-01T11:26:07.999Z</time>
      </trkpt>
      <trkpt lat="43.19735" lon="0.1538">
        <ele>356.5</ele>
        <time>2020-09-01T11:26:12.999Z</time>
      </trkpt>
      <trkpt lat="43.19736" lon="0.15367">
        <ele>356.62</ele>
        <time>2020-09-01T11:26:18.999Z</time>
      </trkpt>
      <trkpt lat="43.19737" lon="0.15353">
        <ele>356.75</ele>
        <time>2020-09-01T11:26:24.999Z</time>
      </trkpt>
      <trkpt lat="43.19739" lon="0.15339">
        <ele>356.88</ele>
        <time>2020-09-01T11:26:30.999Z</time>
      </trkpt>
      <trkpt lat="43.1974" lon="0.15326">
        <ele>357.02</ele>
        <time>2020-09-01T11:26:36.999Z</time>
      </trkpt>
      <trkpt lat="43.19741" lon="0.15312">
        <ele>357.16</ele>
        <time>2020-09-01T11:26:42.999Z</time>
      </trkpt>
      <trkpt lat="43.19742" lon="0.15298">
        <ele>357.32</ele>
        <time>2020-09-01T11:26:49.999Z</time>
      </trkpt>
      <trkpt lat="43.19743" lon="0.15285">
        <ele>357.47</ele>
        <time>2020-09-01T11:26:55.999Z</time>
      </trkpt>
      <trkpt lat="43.19745" lon="0.15273">
        <ele>357.62</ele>
        <time>2020-09-01T11:27:01.999Z</time>
      </trkpt>
      <trkpt lat="43.19746" lon="0.1526">
        <ele>357.77</ele>
        <time>2020-09-01T11:27:07.999Z</time>
      </trkpt>
      <trkpt lat="43.19748" lon="0.15247">
        <ele>357.93</ele>
        <time>2020-09-01T11:27:13.999Z</time>
      </trkpt>
      <trkpt lat="43.19749" lon="0.15233">
        <ele>358.09</ele>
        <time>2020-09-01T11:27:19.999Z</time>
      </trkpt>
      <trkpt lat="43.19751" lon="0.15219">
        <ele>358.26</ele>
        <time>2020-09-01T11:27:25.999Z</time>
      </trkpt>
      <trkpt lat="43.19752" lon="0.15206">
        <ele>358.41</ele>
        <time>2020-09-01T11:27:30.999Z</time>
      </trkpt>
      <trkpt lat="43.19752" lon="0.15193">
        <ele>358.6</ele>
        <time>2020-09-01T11:27:36.999Z</time>
      </trkpt>
      <trkpt lat="43.19754" lon="0.15181">
        <ele>358.79</ele>
        <time>2020-09-01T11:27:42.999Z</time>
      </trkpt>
      <trkpt lat="43.19756" lon="0.15167">
        <ele>358.99</ele>
        <time>2020-09-01T11:27:48.999Z</time>
      </trkpt>
      <trkpt lat="43.19758" lon="0.15153">
        <ele>359.2</ele>
        <time>2020-09-01T11:27:54.999Z</time>
      </trkpt>
      <trkpt lat="43.19759" lon="0.1514">
        <ele>359.38</ele>
        <time>2020-09-01T11:27:59.999Z</time>
      </trkpt>
      <trkpt lat="43.19761" lon="0.15126">
        <ele>359.65</ele>
        <time>2020-09-01T11:28:06.999Z</time>
      </trkpt>
      <trkpt lat="43.19762" lon="0.15114">
        <ele>359.88</ele>
        <time>2020-09-01T11:28:12.999Z</time>
      </trkpt>
      <trkpt lat="43.19762" lon="0.15101">
        <ele>360.08</ele>
        <time>2020-09-01T11:28:17.999Z</time>
      </trkpt>
      <trkpt lat="43.19764" lon="0.15085">
        <ele>360.29</ele>
        <time>2020-09-01T11:28:22.999Z</time>
      </trkpt>
      <trkpt lat="43.19766" lon="0.15071">
        <ele>360.59</ele>
        <time>2020-09-01T11:28:29.999Z</time>
      </trkpt>
      <trkpt lat="43.19768" lon="0.15059">
        <ele>360.8</ele>
        <time>2020-09-01T11:28:34.999Z</time>
      </trkpt>
      <trkpt lat="43.1977" lon="0.15045">
        <ele>361.11</ele>
        <time>2020-09-01T11:28:41.999Z</time>
      </trkpt>
      <trkpt lat="43.19772" lon="0.1503">
        <ele>361.37</ele>
        <time>2020-09-01T11:28:47.999Z</time>
      </trkpt>
      <trkpt lat="43.19774" lon="0.1501">
        <ele>361.59</ele>
        <time>2020-09-01T11:28:52.999Z</time>
      </trkpt>
      <trkpt lat="43.19777" lon="0.14996">
        <ele>361.85</ele>
        <time>2020-09-01T11:28:58.999Z</time>
      </trkpt>
      <trkpt lat="43.1978" lon="0.14984">
        <ele>362.07</ele>
        <time>2020-09-01T11:29:03.999Z</time>
      </trkpt>
      <trkpt lat="43.19782" lon="0.14969">
        <ele>362.32</ele>
        <time>2020-09-01T11:29:09.999Z</time>
      </trkpt>
      <trkpt lat="43.19784" lon="0.14956">
        <ele>362.56</ele>
        <time>2020-09-01T11:29:15.999Z</time>
      </trkpt>
      <trkpt lat="43.19785" lon="0.14944">
        <ele>362.81</ele>
        <time>2020-09-01T11:29:21.999Z</time>
      </trkpt>
      <trkpt lat="43.19786" lon="0.14929">
        <ele>363.04</ele>
        <time>2020-09-01T11:29:27.999Z</time>
      </trkpt>
      <trkpt lat="43.19787" lon="0.14917">
        <ele>363.24</ele>
        <time>2020-09-01T11:29:32.999Z</time>
      </trkpt>
      <trkpt lat="43.19787" lon="0.14904">
        <ele>363.48</ele>
        <time>2020-09-01T11:29:38.999Z</time>
      </trkpt>
      <trkpt lat="43.19789" lon="0.1489">
        <ele>363.77</ele>
        <time>2020-09-01T11:29:45.999Z</time>
      </trkpt>
      <trkpt lat="43.1979" lon="0.14877">
        <ele>364.01</ele>
        <time>2020-09-01T11:29:51.999Z</time>
      </trkpt>
      <trkpt lat="43.19791" lon="0.14864">
        <ele>364.25</ele>
        <time>2020-09-01T11:29:57.999Z</time>
      </trkpt>
      <trkpt lat="43.19792" lon="0.14851">
        <ele>364.5</ele>
        <time>2020-09-01T11:30:03.999Z</time>
      </trkpt>
      <trkpt lat="43.19793" lon="0.14836">
        <ele>364.75</ele>
        <time>2020-09-01T11:30:09.999Z</time>
      </trkpt>
      <trkpt lat="43.19794" lon="0.14822">
        <ele>364.96</ele>
        <time>2020-09-01T11:30:14.999Z</time>
      </trkpt>
      <trkpt lat="43.19795" lon="0.14809">
        <ele>365.22</ele>
        <time>2020-09-01T11:30:20.999Z</time>
      </trkpt>
      <trkpt lat="43.19797" lon="0.14796">
        <ele>365.48</ele>
        <time>2020-09-01T11:30:26.999Z</time>
      </trkpt>
      <trkpt lat="43.19799" lon="0.14782">
        <ele>365.79</ele>
        <time>2020-09-01T11:30:33.999Z</time>
      </trkpt>
      <trkpt lat="43.19802" lon="0.14768">
        <ele>366.06</ele>
        <time>2020-09-01T11:30:39.999Z</time>
      </trkpt>
      <trkpt lat="43.19804" lon="0.14755">
        <ele>366.36</ele>
        <time>2020-09-01T11:30:46.999Z</time>
      </trkpt>
      <trkpt lat="43.19805" lon="0.1474">
        <ele>366.62</ele>
        <time>2020-09-01T11:30:53.000Z</time>
      </trkpt>
      <trkpt lat="43.19806" lon="0.14726">
        <ele>366.88</ele>
        <time>2020-09-01T11:30:59.000Z</time>
      </trkpt>
      <trkpt lat="43.19807" lon="0.14711">
        <ele>367.1</ele>
        <time>2020-09-01T11:31:04.000Z</time>
      </trkpt>
      <trkpt lat="43.19809" lon="0.14697">
        <ele>367.34</ele>
        <time>2020-09-01T11:31:09.000Z</time>
      </trkpt>
      <trkpt lat="43.19812" lon="0.14682">
        <ele>367.67</ele>
        <time>2020-09-01T11:31:16.000Z</time>
      </trkpt>
      <trkpt lat="43.19814" lon="0.1467">
        <ele>367.9</ele>
        <time>2020-09-01T11:31:21.000Z</time>
      </trkpt>
      <trkpt lat="43.19814" lon="0.14657">
        <ele>368.2</ele>
        <time>2020-09-01T11:31:27.000Z</time>
      </trkpt>
      <trkpt lat="43.19814" lon="0.14644">
        <ele>368.49</ele>
        <time>2020-09-01T11:31:33.000Z</time>
      </trkpt>
      <trkpt lat="43.19817" lon="0.14632">
        <ele>368.97</ele>
        <time>2020-09-01T11:31:43.000Z</time>
      </trkpt>
      <trkpt lat="43.19814" lon="0.14619">
        <ele>369.44</ele>
        <time>2020-09-01T11:31:53.000Z</time>
      </trkpt>
      <trkpt lat="43.19814" lon="0.14606">
        <ele>369.7</ele>
        <time>2020-09-01T11:31:58.000Z</time>
      </trkpt>
      <trkpt lat="43.19814" lon="0.14593">
        <ele>369.96</ele>
        <time>2020-09-01T11:32:03.000Z</time>
      </trkpt>
      <trkpt lat="43.19815" lon="0.14579">
        <ele>370.23</ele>
        <time>2020-09-01T11:32:08.000Z</time>
      </trkpt>
      <trkpt lat="43.19817" lon="0.14561">
        <ele>370.51</ele>
        <time>2020-09-01T11:32:13.000Z</time>
      </trkpt>
      <trkpt lat="43.19819" lon="0.1454">
        <ele>370.8</ele>
        <time>2020-09-01T11:32:18.000Z</time>
      </trkpt>
      <trkpt lat="43.19825" lon="0.14511">
        <ele>372.22</ele>
        <time>2020-09-01T11:32:23.000Z</time>
      </trkpt>
      <trkpt lat="43.19833" lon="0.14477">
        <ele>373.45</ele>
        <time>2020-09-01T11:32:28.000Z</time>
      </trkpt>
      <trkpt lat="43.19839" lon="0.1444">
        <ele>374.04</ele>
        <time>2020-09-01T11:32:33.000Z</time>
      </trkpt>
      <trkpt lat="43.19846" lon="0.14397">
        <ele>374.49</ele>
        <time>2020-09-01T11:32:38.000Z</time>
      </trkpt>
      <trkpt lat="43.19849" lon="0.14345">
        <ele>374.69</ele>
        <time>2020-09-01T11:32:43.000Z</time>
      </trkpt>
      <trkpt lat="43.19858" lon="0.14291">
        <ele>374.86</ele>
        <time>2020-09-01T11:32:48.000Z</time>
      </trkpt>
      <trkpt lat="43.1987" lon="0.14238">
        <ele>375.22</ele>
        <time>2020-09-01T11:32:53.000Z</time>
      </trkpt>
      <trkpt lat="43.19881" lon="0.14188">
        <ele>375.93</ele>
        <time>2020-09-01T11:32:58.000Z</time>
      </trkpt>
      <trkpt lat="43.19888" lon="0.14144">
        <ele>376.94</ele>
        <time>2020-09-01T11:33:03.000Z</time>
      </trkpt>
      <trkpt lat="43.19895" lon="0.14108">
        <ele>377.9</ele>
        <time>2020-09-01T11:33:08.000Z</time>
      </trkpt>
      <trkpt lat="43.19901" lon="0.1408">
        <ele>378.87</ele>
        <time>2020-09-01T11:33:13.000Z</time>
      </trkpt>
      <trkpt lat="43.19907" lon="0.14057">
        <ele>379.23</ele>
        <time>2020-09-01T11:33:18.000Z</time>
      </trkpt>
      <trkpt lat="43.1991" lon="0.14037">
        <ele>379.42</ele>
        <time>2020-09-01T11:33:23.000Z</time>
      </trkpt>
      <trkpt lat="43.19914" lon="0.1402">
        <ele>379.65</ele>
        <time>2020-09-01T11:33:28.000Z</time>
      </trkpt>
      <trkpt lat="43.19917" lon="0.14004">
        <ele>379.95</ele>
        <time>2020-09-01T11:33:33.000Z</time>
      </trkpt>
      <trkpt lat="43.1992" lon="0.13987">
        <ele>380.31</ele>
        <time>2020-09-01T11:33:38.000Z</time>
      </trkpt>
      <trkpt lat="43.19923" lon="0.13973">
        <ele>380.71</ele>
        <time>2020-09-01T11:33:43.000Z</time>
      </trkpt>
      <trkpt lat="43.19925" lon="0.1396">
        <ele>381.17</ele>
        <time>2020-09-01T11:33:48.000Z</time>
      </trkpt>
      <trkpt lat="43.19928" lon="0.13946">
        <ele>381.76</ele>
        <time>2020-09-01T11:33:54.000Z</time>
      </trkpt>
      <trkpt lat="43.19931" lon="0.13933">
        <ele>382.38</ele>
        <time>2020-09-01T11:34:00.000Z</time>
      </trkpt>
      <trkpt lat="43.19933" lon="0.1392">
        <ele>383.03</ele>
        <time>2020-09-01T11:34:06.000Z</time>
      </trkpt>
      <trkpt lat="43.19936" lon="0.13907">
        <ele>383.72</ele>
        <time>2020-09-01T11:34:12.000Z</time>
      </trkpt>
      <trkpt lat="43.19938" lon="0.13894">
        <ele>384.39</ele>
        <time>2020-09-01T11:34:18.000Z</time>
      </trkpt>
      <trkpt lat="43.19941" lon="0.13881">
        <ele>385.08</ele>
        <time>2020-09-01T11:34:24.000Z</time>
      </trkpt>
      <trkpt lat="43.19943" lon="0.13868">
        <ele>385.8</ele>
        <time>2020-09-01T11:34:30.000Z</time>
      </trkpt>
      <trkpt lat="43.19945" lon="0.13855">
        <ele>386.54</ele>
        <time>2020-09-01T11:34:36.000Z</time>
      </trkpt>
      <trkpt lat="43.19948" lon="0.13843">
        <ele>387.3</ele>
        <time>2020-09-01T11:34:42.000Z</time>
      </trkpt>
      <trkpt lat="43.19952" lon="0.1383">
        <ele>388.09</ele>
        <time>2020-09-01T11:34:48.000Z</time>
      </trkpt>
      <trkpt lat="43.19955" lon="0.13817">
        <ele>388.91</ele>
        <time>2020-09-01T11:34:54.000Z</time>
      </trkpt>
      <trkpt lat="43.19958" lon="0.13803">
        <ele>389.73</ele>
        <time>2020-09-01T11:35:00.000Z</time>
      </trkpt>
      <trkpt lat="43.19961" lon="0.13789">
        <ele>390.56</ele>
        <time>2020-09-01T11:35:06.000Z</time>
      </trkpt>
      <trkpt lat="43.19963" lon="0.13777">
        <ele>391.25</ele>
        <time>2020-09-01T11:35:11.000Z</time>
      </trkpt>
      <trkpt lat="43.19966" lon="0.13763">
        <ele>392.07</ele>
        <time>2020-09-01T11:35:17.000Z</time>
      </trkpt>
      <trkpt lat="43.19968" lon="0.1375">
        <ele>392.89</ele>
        <time>2020-09-01T11:35:23.000Z</time>
      </trkpt>
      <trkpt lat="43.19971" lon="0.13737">
        <ele>393.72</ele>
        <time>2020-09-01T11:35:29.000Z</time>
      </trkpt>
      <trkpt lat="43.19973" lon="0.13725">
        <ele>394.55</ele>
        <time>2020-09-01T11:35:35.000Z</time>
      </trkpt>
      <trkpt lat="43.19976" lon="0.13713">
        <ele>395.37</ele>
        <time>2020-09-01T11:35:41.000Z</time>
      </trkpt>
      <trkpt lat="43.19978" lon="0.13699">
        <ele>396.34</ele>
        <time>2020-09-01T11:35:48.000Z</time>
      </trkpt>
      <trkpt lat="43.1998" lon="0.13686">
        <ele>397.18</ele>
        <time>2020-09-01T11:35:54.000Z</time>
      </trkpt>
      <trkpt lat="43.19983" lon="0.13672">
        <ele>398.03</ele>
        <time>2020-09-01T11:36:00.000Z</time>
      </trkpt>
      <trkpt lat="43.19986" lon="0.13659">
        <ele>399.01</ele>
        <time>2020-09-01T11:36:07.000Z</time>
      </trkpt>
      <trkpt lat="43.19988" lon="0.13646">
        <ele>399.83</ele>
        <time>2020-09-01T11:36:13.000Z</time>
      </trkpt>
      <trkpt lat="43.1999" lon="0.13633">
        <ele>400.62</ele>
        <time>2020-09-01T11:36:19.000Z</time>
      </trkpt>
      <trkpt lat="43.19992" lon="0.1362">
        <ele>401.36</ele>
        <time>2020-09-01T11:36:25.000Z</time>
      </trkpt>
      <trkpt lat="43.19995" lon="0.13606">
        <ele>402.08</ele>
        <time>2020-09-01T11:36:31.000Z</time>
      </trkpt>
      <trkpt lat="43.19997" lon="0.13594">
        <ele>402.67</ele>
        <time>2020-09-01T11:36:36.000Z</time>
      </trkpt>
      <trkpt lat="43.19999" lon="0.13581">
        <ele>403.27</ele>
        <time>2020-09-01T11:36:41.000Z</time>
      </trkpt>
      <trkpt lat="43.20002" lon="0.13567">
        <ele>403.95</ele>
        <time>2020-09-01T11:36:47.000Z</time>
      </trkpt>
      <trkpt lat="43.20004" lon="0.13553">
        <ele>404.6</ele>
        <time>2020-09-01T11:36:53.000Z</time>
      </trkpt>
      <trkpt lat="43.20007" lon="0.1354">
        <ele>405.18</ele>
        <time>2020-09-01T11:36:59.000Z</time>
      </trkpt>
      <trkpt lat="43.20009" lon="0.13528">
        <ele>405.64</ele>
        <time>2020-09-01T11:37:04.000Z</time>
      </trkpt>
      <trkpt lat="43.20011" lon="0.13514">
        <ele>406.05</ele>
        <time>2020-09-01T11:37:09.000Z</time>
      </trkpt>
      <trkpt lat="43.20014" lon="0.13498">
        <ele>406.42</ele>
        <time>2020-09-01T11:37:14.000Z</time>
      </trkpt>
      <trkpt lat="43.20017" lon="0.13483">
        <ele>406.76</ele>
        <time>2020-09-01T11:37:19.000Z</time>
      </trkpt>
      <trkpt lat="43.20019" lon="0.13469">
        <ele>407.08</ele>
        <time>2020-09-01T11:37:24.000Z</time>
      </trkpt>
      <trkpt lat="43.20022" lon="0.13451">
        <ele>407.38</ele>
        <time>2020-09-01T11:37:29.000Z</time>
      </trkpt>
      <trkpt lat="43.20026" lon="0.13434">
        <ele>407.67</ele>
        <time>2020-09-01T11:37:34.000Z</time>
      </trkpt>
      <trkpt lat="43.20029" lon="0.13415">
        <ele>407.94</ele>
        <time>2020-09-01T11:37:39.000Z</time>
      </trkpt>
      <trkpt lat="43.20033" lon="0.13395">
        <ele>408.19</ele>
        <time>2020-09-01T11:37:44.000Z</time>
      </trkpt>
      <trkpt lat="43.20037" lon="0.13375">
        <ele>408.43</ele>
        <time>2020-09-01T11:37:49.000Z</time>
      </trkpt>
      <trkpt lat="43.20041" lon="0.13355">
        <ele>408.66</ele>
        <time>2020-09-01T11:37:54.000Z</time>
      </trkpt>
      <trkpt lat="43.20045" lon="0.13336">
        <ele>408.87</ele>
        <time>2020-09-01T11:37:59.000Z</time>
      </trkpt>
      <trkpt lat="43.20049" lon="0.13317">
        <ele>409.07</ele>
        <time>2020-09-01T11:38:04.000Z</time>
      </trkpt>
      <trkpt lat="43.20052" lon="0.133">
        <ele>409.24</ele>
        <time>2020-09-01T11:38:09.000Z</time>
      </trkpt>
      <trkpt lat="43.20057" lon="0.1328">
        <ele>409.44</ele>
        <time>2020-09-01T11:38:14.000Z</time>
      </trkpt>
      <trkpt lat="43.2006" lon="0.13263">
        <ele>409.64</ele>
        <time>2020-09-01T11:38:19.000Z</time>
      </trkpt>
      <trkpt lat="43.20064" lon="0.13248">
        <ele>409.86</ele>
        <time>2020-09-01T11:38:24.000Z</time>
      </trkpt>
      <trkpt lat="43.20066" lon="0.13231">
        <ele>410.08</ele>
        <time>2020-09-01T11:38:29.000Z</time>
      </trkpt>
      <trkpt lat="43.20069" lon="0.13215">
        <ele>410.34</ele>
        <time>2020-09-01T11:38:34.000Z</time>
      </trkpt>
      <trkpt lat="43.20072" lon="0.13199">
        <ele>410.59</ele>
        <time>2020-09-01T11:38:39.000Z</time>
      </trkpt>
      <trkpt lat="43.20072" lon="0.13184">
        <ele>410.84</ele>
        <time>2020-09-01T11:38:44.000Z</time>
      </trkpt>
      <trkpt lat="43.20073" lon="0.13166">
        <ele>411.09</ele>
        <time>2020-09-01T11:38:49.000Z</time>
      </trkpt>
      <trkpt lat="43.20074" lon="0.13149">
        <ele>411.37</ele>
        <time>2020-09-01T11:38:54.000Z</time>
      </trkpt>
      <trkpt lat="43.20074" lon="0.13134">
        <ele>411.65</ele>
        <time>2020-09-01T11:38:59.000Z</time>
      </trkpt>
      <trkpt lat="43.20074" lon="0.13118">
        <ele>411.93</ele>
        <time>2020-09-01T11:39:04.000Z</time>
      </trkpt>
      <trkpt lat="43.20073" lon="0.13103">
        <ele>412.22</ele>
        <time>2020-09-01T11:39:09.000Z</time>
      </trkpt>
      <trkpt lat="43.20071" lon="0.13086">
        <ele>412.51</ele>
        <time>2020-09-01T11:39:14.000Z</time>
      </trkpt>
      <trkpt lat="43.20066" lon="0.13062">
        <ele>414</ele>
        <time>2020-09-01T11:39:19.000Z</time>
      </trkpt>
      <trkpt lat="43.20059" lon="0.13029">
        <ele>415.21</ele>
        <time>2020-09-01T11:39:24.000Z</time>
      </trkpt>
      <trkpt lat="43.20051" lon="0.12987">
        <ele>415.72</ele>
        <time>2020-09-01T11:39:29.000Z</time>
      </trkpt>
      <trkpt lat="43.2004" lon="0.12939">
        <ele>416.07</ele>
        <time>2020-09-01T11:39:34.000Z</time>
      </trkpt>
      <trkpt lat="43.20031" lon="0.12888">
        <ele>416.11</ele>
        <time>2020-09-01T11:39:39.000Z</time>
      </trkpt>
      <trkpt lat="43.20021" lon="0.12834">
        <ele>415.53</ele>
        <time>2020-09-01T11:39:44.000Z</time>
      </trkpt>
      <trkpt lat="43.20001" lon="0.12783">
        <ele>415.18</ele>
        <time>2020-09-01T11:39:49.000Z</time>
      </trkpt>
      <trkpt lat="43.19978" lon="0.12725">
        <ele>414.53</ele>
        <time>2020-09-01T11:39:54.000Z</time>
      </trkpt>
      <trkpt lat="43.1998" lon="0.12658">
        <ele>414.2</ele>
        <time>2020-09-01T11:39:59.000Z</time>
      </trkpt>
      <trkpt lat="43.20016" lon="0.12615">
        <ele>413.64</ele>
        <time>2020-09-01T11:40:04.000Z</time>
      </trkpt>
      <trkpt lat="43.20064" lon="0.12602">
        <ele>413.48</ele>
        <time>2020-09-01T11:40:09.000Z</time>
      </trkpt>
      <trkpt lat="43.20109" lon="0.12603">
        <ele>413.02</ele>
        <time>2020-09-01T11:40:14.000Z</time>
      </trkpt>
      <trkpt lat="43.20141" lon="0.12647">
        <ele>412.12</ele>
        <time>2020-09-01T11:40:19.000Z</time>
      </trkpt>
      <trkpt lat="43.20137" lon="0.12712">
        <ele>410.71</ele>
        <time>2020-09-01T11:40:24.000Z</time>
      </trkpt>
      <trkpt lat="43.20116" lon="0.12768">
        <ele>408.81</ele>
        <time>2020-09-01T11:40:29.000Z</time>
      </trkpt>
      <trkpt lat="43.20102" lon="0.12822">
        <ele>407.54</ele>
        <time>2020-09-01T11:40:34.000Z</time>
      </trkpt>
      <trkpt lat="43.20119" lon="0.1287">
        <ele>405.33</ele>
        <time>2020-09-01T11:40:39.000Z</time>
      </trkpt>
      <trkpt lat="43.20159" lon="0.12871">
        <ele>402.64</ele>
        <time>2020-09-01T11:40:44.000Z</time>
      </trkpt>
      <trkpt lat="43.20189" lon="0.12824">
        <ele>400.06</ele>
        <time>2020-09-01T11:40:49.000Z</time>
      </trkpt>
      <trkpt lat="43.20224" lon="0.12777">
        <ele>397</ele>
        <time>2020-09-01T11:40:54.000Z</time>
      </trkpt>
      <trkpt lat="43.20268" lon="0.1275">
        <ele>394.12</ele>
        <time>2020-09-01T11:40:59.000Z</time>
      </trkpt>
      <trkpt lat="43.20308" lon="0.12788">
        <ele>391.83</ele>
        <time>2020-09-01T11:41:04.000Z</time>
      </trkpt>
      <trkpt lat="43.20352" lon="0.12794">
        <ele>388.9</ele>
        <time>2020-09-01T11:41:09.000Z</time>
      </trkpt>
      <trkpt lat="43.20365" lon="0.12738">
        <ele>386.52</ele>
        <time>2020-09-01T11:41:14.000Z</time>
      </trkpt>
      <trkpt lat="43.20365" lon="0.12671">
        <ele>386.33</ele>
        <time>2020-09-01T11:41:19.000Z</time>
      </trkpt>
      <trkpt lat="43.20372" lon="0.12606">
        <ele>385.97</ele>
        <time>2020-09-01T11:41:24.000Z</time>
      </trkpt>
      <trkpt lat="43.20378" lon="0.1254">
        <ele>386.26</ele>
        <time>2020-09-01T11:41:29.000Z</time>
      </trkpt>
      <trkpt lat="43.20385" lon="0.12476">
        <ele>385.69</ele>
        <time>2020-09-01T11:41:34.000Z</time>
      </trkpt>
      <trkpt lat="43.204" lon="0.1241">
        <ele>381.92</ele>
        <time>2020-09-01T11:41:39.000Z</time>
      </trkpt>
      <trkpt lat="43.20421" lon="0.12353">
        <ele>375.92</ele>
        <time>2020-09-01T11:41:44.000Z</time>
      </trkpt>
      <trkpt lat="43.20446" lon="0.12319">
        <ele>372.51</ele>
        <time>2020-09-01T11:41:49.000Z</time>
      </trkpt>
      <trkpt lat="43.20459" lon="0.12294">
        <ele>371.32</ele>
        <time>2020-09-01T11:41:54.000Z</time>
      </trkpt>
      <trkpt lat="43.20459" lon="0.1228">
        <ele>371.32</ele>
        <time>2020-09-01T11:42:14.000Z</time>
      </trkpt>
      <trkpt lat="43.20463" lon="0.12245">
        <ele>370.67</ele>
        <time>2020-09-01T11:42:19.000Z</time>
      </trkpt>
      <trkpt lat="43.2047" lon="0.12201">
        <ele>369.79</ele>
        <time>2020-09-01T11:42:24.000Z</time>
      </trkpt>
      <trkpt lat="43.20478" lon="0.12156">
        <ele>368.58</ele>
        <time>2020-09-01T11:42:29.000Z</time>
      </trkpt>
      <trkpt lat="43.20489" lon="0.1211">
        <ele>367.76</ele>
        <time>2020-09-01T11:42:34.000Z</time>
      </trkpt>
      <trkpt lat="43.20501" lon="0.12069">
        <ele>366.88</ele>
        <time>2020-09-01T11:42:39.000Z</time>
      </trkpt>
      <trkpt lat="43.20511" lon="0.12027">
        <ele>366.08</ele>
        <time>2020-09-01T11:42:44.000Z</time>
      </trkpt>
      <trkpt lat="43.20521" lon="0.11986">
        <ele>365.51</ele>
        <time>2020-09-01T11:42:49.000Z</time>
      </trkpt>
      <trkpt lat="43.2053" lon="0.11946">
        <ele>365.18</ele>
        <time>2020-09-01T11:42:54.000Z</time>
      </trkpt>
      <trkpt lat="43.20541" lon="0.11905">
        <ele>364.78</ele>
        <time>2020-09-01T11:42:59.000Z</time>
      </trkpt>
      <trkpt lat="43.20554" lon="0.11864">
        <ele>364.28</ele>
        <time>2020-09-01T11:43:04.000Z</time>
      </trkpt>
      <trkpt lat="43.20564" lon="0.11824">
        <ele>363.46</ele>
        <time>2020-09-01T11:43:09.000Z</time>
      </trkpt>
      <trkpt lat="43.20571" lon="0.11788">
        <ele>362.72</ele>
        <time>2020-09-01T11:43:13.999Z</time>
      </trkpt>
      <trkpt lat="43.20574" lon="0.11752">
        <ele>362.07</ele>
        <time>2020-09-01T11:43:18.999Z</time>
      </trkpt>
      <trkpt lat="43.20573" lon="0.11719">
        <ele>361.32</ele>
        <time>2020-09-01T11:43:23.999Z</time>
      </trkpt>
      <trkpt lat="43.20567" lon="0.11683">
        <ele>360.49</ele>
        <time>2020-09-01T11:43:28.999Z</time>
      </trkpt>
      <trkpt lat="43.2056" lon="0.1165">
        <ele>360.85</ele>
        <time>2020-09-01T11:43:33.999Z</time>
      </trkpt>
      <trkpt lat="43.20547" lon="0.11622">
        <ele>361.97</ele>
        <time>2020-09-01T11:43:38.999Z</time>
      </trkpt>
      <trkpt lat="43.20532" lon="0.11598">
        <ele>362.46</ele>
        <time>2020-09-01T11:43:43.999Z</time>
      </trkpt>
      <trkpt lat="43.20519" lon="0.11574">
        <ele>362.5</ele>
        <time>2020-09-01T11:43:48.999Z</time>
      </trkpt>
      <trkpt lat="43.2051" lon="0.11546">
        <ele>362.06</ele>
        <time>2020-09-01T11:43:53.999Z</time>
      </trkpt>
      <trkpt lat="43.20503" lon="0.11516">
        <ele>361.51</ele>
        <time>2020-09-01T11:43:58.999Z</time>
      </trkpt>
      <trkpt lat="43.20498" lon="0.11485">
        <ele>360.87</ele>
        <time>2020-09-01T11:44:03.999Z</time>
      </trkpt>
      <trkpt lat="43.205" lon="0.11456">
        <ele>360.55</ele>
        <time>2020-09-01T11:44:08.999Z</time>
      </trkpt>
      <trkpt lat="43.20489" lon="0.11435">
        <ele>360.46</ele>
        <time>2020-09-01T11:44:13.999Z</time>
      </trkpt>
      <trkpt lat="43.20483" lon="0.11408">
        <ele>359.85</ele>
        <time>2020-09-01T11:44:18.999Z</time>
      </trkpt>
      <trkpt lat="43.2048" lon="0.1138">
        <ele>358.79</ele>
        <time>2020-09-01T11:44:23.999Z</time>
      </trkpt>
      <trkpt lat="43.20477" lon="0.11353">
        <ele>358.32</ele>
        <time>2020-09-01T11:44:28.999Z</time>
      </trkpt>
      <trkpt lat="43.20472" lon="0.11328">
        <ele>357.43</ele>
        <time>2020-09-01T11:44:33.999Z</time>
      </trkpt>
      <trkpt lat="43.20469" lon="0.11303">
        <ele>356.83</ele>
        <time>2020-09-01T11:44:38.999Z</time>
      </trkpt>
      <trkpt lat="43.20464" lon="0.11277">
        <ele>356.69</ele>
        <time>2020-09-01T11:44:43.999Z</time>
      </trkpt>
      <trkpt lat="43.2046" lon="0.1125">
        <ele>356.71</ele>
        <time>2020-09-01T11:44:48.999Z</time>
      </trkpt>
      <trkpt lat="43.20455" lon="0.11223">
        <ele>356.51</ele>
        <time>2020-09-01T11:44:53.999Z</time>
      </trkpt>
      <trkpt lat="43.20452" lon="0.11198">
        <ele>356.48</ele>
        <time>2020-09-01T11:44:58.999Z</time>
      </trkpt>
      <trkpt lat="43.20448" lon="0.11172">
        <ele>356.25</ele>
        <time>2020-09-01T11:45:03.999Z</time>
      </trkpt>
      <trkpt lat="43.20445" lon="0.11144">
        <ele>356.02</ele>
        <time>2020-09-01T11:45:08.999Z</time>
      </trkpt>
      <trkpt lat="43.20442" lon="0.11117">
        <ele>355.87</ele>
        <time>2020-09-01T11:45:13.999Z</time>
      </trkpt>
      <trkpt lat="43.20439" lon="0.11089">
        <ele>355.84</ele>
        <time>2020-09-01T11:45:18.999Z</time>
      </trkpt>
      <trkpt lat="43.20435" lon="0.11062">
        <ele>355.73</ele>
        <time>2020-09-01T11:45:23.999Z</time>
      </trkpt>
      <trkpt lat="43.20432" lon="0.11034">
        <ele>355.68</ele>
        <time>2020-09-01T11:45:28.999Z</time>
      </trkpt>
      <trkpt lat="43.20429" lon="0.11006">
        <ele>355.75</ele>
        <time>2020-09-01T11:45:33.999Z</time>
      </trkpt>
      <trkpt lat="43.20427" lon="0.10979">
        <ele>356.02</ele>
        <time>2020-09-01T11:45:38.999Z</time>
      </trkpt>
      <trkpt lat="43.20424" lon="0.10952">
        <ele>356.25</ele>
        <time>2020-09-01T11:45:43.999Z</time>
      </trkpt>
      <trkpt lat="43.20421" lon="0.10925">
        <ele>356.3</ele>
        <time>2020-09-01T11:45:48.999Z</time>
      </trkpt>
      <trkpt lat="43.20418" lon="0.10896">
        <ele>356.38</ele>
        <time>2020-09-01T11:45:53.999Z</time>
      </trkpt>
      <trkpt lat="43.20415" lon="0.10866">
        <ele>356.39</ele>
        <time>2020-09-01T11:45:58.999Z</time>
      </trkpt>
      <trkpt lat="43.20412" lon="0.10835">
        <ele>356.31</ele>
        <time>2020-09-01T11:46:03.999Z</time>
      </trkpt>
      <trkpt lat="43.20408" lon="0.10805">
        <ele>355.97</ele>
        <time>2020-09-01T11:46:08.999Z</time>
      </trkpt>
      <trkpt lat="43.20405" lon="0.10775">
        <ele>355.57</ele>
        <time>2020-09-01T11:46:13.999Z</time>
      </trkpt>
      <trkpt lat="43.204" lon="0.10745">
        <ele>355.14</ele>
        <time>2020-09-01T11:46:18.999Z</time>
      </trkpt>
      <trkpt lat="43.20398" lon="0.10714">
        <ele>354.78</ele>
        <time>2020-09-01T11:46:23.999Z</time>
      </trkpt>
      <trkpt lat="43.20395" lon="0.10682">
        <ele>354.35</ele>
        <time>2020-09-01T11:46:28.999Z</time>
      </trkpt>
      <trkpt lat="43.20391" lon="0.10652">
        <ele>353.13</ele>
        <time>2020-09-01T11:46:33.999Z</time>
      </trkpt>
      <trkpt lat="43.20387" lon="0.10622">
        <ele>352.08</ele>
        <time>2020-09-01T11:46:38.999Z</time>
      </trkpt>
      <trkpt lat="43.20383" lon="0.10592">
        <ele>351.45</ele>
        <time>2020-09-01T11:46:43.999Z</time>
      </trkpt>
      <trkpt lat="43.2038" lon="0.10564">
        <ele>351.08</ele>
        <time>2020-09-01T11:46:48.999Z</time>
      </trkpt>
      <trkpt lat="43.20378" lon="0.10536">
        <ele>350.78</ele>
        <time>2020-09-01T11:46:53.999Z</time>
      </trkpt>
      <trkpt lat="43.20375" lon="0.10507">
        <ele>350.64</ele>
        <time>2020-09-01T11:46:58.999Z</time>
      </trkpt>
      <trkpt lat="43.20372" lon="0.10478">
        <ele>350.68</ele>
        <time>2020-09-01T11:47:03.999Z</time>
      </trkpt>
      <trkpt lat="43.20368" lon="0.1045">
        <ele>350.87</ele>
        <time>2020-09-01T11:47:08.999Z</time>
      </trkpt>
      <trkpt lat="43.20364" lon="0.10423">
        <ele>351.04</ele>
        <time>2020-09-01T11:47:13.999Z</time>
      </trkpt>
      <trkpt lat="43.20362" lon="0.10395">
        <ele>350.91</ele>
        <time>2020-09-01T11:47:18.999Z</time>
      </trkpt>
      <trkpt lat="43.2036" lon="0.10366">
        <ele>350.76</ele>
        <time>2020-09-01T11:47:23.999Z</time>
      </trkpt>
      <trkpt lat="43.2036" lon="0.10338">
        <ele>350.78</ele>
        <time>2020-09-01T11:47:28.999Z</time>
      </trkpt>
      <trkpt lat="43.20363" lon="0.10311">
        <ele>350.81</ele>
        <time>2020-09-01T11:47:33.999Z</time>
      </trkpt>
      <trkpt lat="43.20363" lon="0.10281">
        <ele>350.87</ele>
        <time>2020-09-01T11:47:38.999Z</time>
      </trkpt>
      <trkpt lat="43.20363" lon="0.10252">
        <ele>350.79</ele>
        <time>2020-09-01T11:47:43.999Z</time>
      </trkpt>
      <trkpt lat="43.20362" lon="0.10223">
        <ele>350.58</ele>
        <time>2020-09-01T11:47:48.999Z</time>
      </trkpt>
      <trkpt lat="43.20361" lon="0.10194">
        <ele>350.1</ele>
        <time>2020-09-01T11:47:53.999Z</time>
      </trkpt>
      <trkpt lat="43.2036" lon="0.10166">
        <ele>349.45</ele>
        <time>2020-09-01T11:47:58.999Z</time>
      </trkpt>
      <trkpt lat="43.2036" lon="0.10139">
        <ele>348.94</ele>
        <time>2020-09-01T11:48:03.999Z</time>
      </trkpt>
      <trkpt lat="43.20357" lon="0.10111">
        <ele>348.82</ele>
        <time>2020-09-01T11:48:08.999Z</time>
      </trkpt>
      <trkpt lat="43.20355" lon="0.10085">
        <ele>348.75</ele>
        <time>2020-09-01T11:48:13.999Z</time>
      </trkpt>
      <trkpt lat="43.20352" lon="0.10059">
        <ele>348.56</ele>
        <time>2020-09-01T11:48:18.999Z</time>
      </trkpt>
      <trkpt lat="43.20351" lon="0.10031">
        <ele>348.18</ele>
        <time>2020-09-01T11:48:23.999Z</time>
      </trkpt>
      <trkpt lat="43.20359" lon="0.10005">
        <ele>347.8</ele>
        <time>2020-09-01T11:48:28.999Z</time>
      </trkpt>
      <trkpt lat="43.20379" lon="0.09988">
        <ele>347.55</ele>
        <time>2020-09-01T11:48:33.999Z</time>
      </trkpt>
      <trkpt lat="43.20399" lon="0.09975">
        <ele>347.28</ele>
        <time>2020-09-01T11:48:38.999Z</time>
      </trkpt>
      <trkpt lat="43.20407" lon="0.09952">
        <ele>346.9</ele>
        <time>2020-09-01T11:48:43.999Z</time>
      </trkpt>
      <trkpt lat="43.204" lon="0.09928">
        <ele>346.69</ele>
        <time>2020-09-01T11:48:48.999Z</time>
      </trkpt>
      <trkpt lat="43.20397" lon="0.09903">
        <ele>346.39</ele>
        <time>2020-09-01T11:48:53.999Z</time>
      </trkpt>
      <trkpt lat="43.20395" lon="0.09871">
        <ele>346.03</ele>
        <time>2020-09-01T11:48:58.999Z</time>
      </trkpt>
      <trkpt lat="43.20395" lon="0.09838">
        <ele>345.77</ele>
        <time>2020-09-01T11:49:03.999Z</time>
      </trkpt>
      <trkpt lat="43.20399" lon="0.09803">
        <ele>345.47</ele>
        <time>2020-09-01T11:49:08.999Z</time>
      </trkpt>
      <trkpt lat="43.20409" lon="0.09761">
        <ele>345.1</ele>
        <time>2020-09-01T11:49:13.999Z</time>
      </trkpt>
      <trkpt lat="43.2042" lon="0.09716">
        <ele>344.78</ele>
        <time>2020-09-01T11:49:18.999Z</time>
      </trkpt>
      <trkpt lat="43.20428" lon="0.09677">
        <ele>344.67</ele>
        <time>2020-09-01T11:49:23.999Z</time>
      </trkpt>
      <trkpt lat="43.20432" lon="0.09645">
        <ele>344.87</ele>
        <time>2020-09-01T11:49:28.999Z</time>
      </trkpt>
      <trkpt lat="43.20435" lon="0.09614">
        <ele>344.6</ele>
        <time>2020-09-01T11:49:33.999Z</time>
      </trkpt>
      <trkpt lat="43.20422" lon="0.09584">
        <ele>344.02</ele>
        <time>2020-09-01T11:49:38.999Z</time>
      </trkpt>
      <trkpt lat="43.20417" lon="0.09552">
        <ele>343.34</ele>
        <time>2020-09-01T11:49:43.999Z</time>
      </trkpt>
      <trkpt lat="43.20412" lon="0.09522">
        <ele>343.28</ele>
        <time>2020-09-01T11:49:48.999Z</time>
      </trkpt>
      <trkpt lat="43.20404" lon="0.09495">
        <ele>343.18</ele>
        <time>2020-09-01T11:49:53.999Z</time>
      </trkpt>
      <trkpt lat="43.20394" lon="0.0947">
        <ele>343.19</ele>
        <time>2020-09-01T11:49:58.999Z</time>
      </trkpt>
      <trkpt lat="43.20385" lon="0.09445">
        <ele>343.12</ele>
        <time>2020-09-01T11:50:03.999Z</time>
      </trkpt>
      <trkpt lat="43.20377" lon="0.09421">
        <ele>343.08</ele>
        <time>2020-09-01T11:50:08.999Z</time>
      </trkpt>
      <trkpt lat="43.20371" lon="0.094">
        <ele>343.07</ele>
        <time>2020-09-01T11:50:13.999Z</time>
      </trkpt>
      <trkpt lat="43.20365" lon="0.0938">
        <ele>343.04</ele>
        <time>2020-09-01T11:50:18.999Z</time>
      </trkpt>
      <trkpt lat="43.2036" lon="0.09361">
        <ele>343</ele>
        <time>2020-09-01T11:50:23.999Z</time>
      </trkpt>
      <trkpt lat="43.20356" lon="0.09342">
        <ele>342.96</ele>
        <time>2020-09-01T11:50:28.999Z</time>
      </trkpt>
      <trkpt lat="43.20353" lon="0.09323">
        <ele>342.9</ele>
        <time>2020-09-01T11:50:33.999Z</time>
      </trkpt>
      <trkpt lat="43.2035" lon="0.09303">
        <ele>342.86</ele>
        <time>2020-09-01T11:50:38.999Z</time>
      </trkpt>
      <trkpt lat="43.20349" lon="0.09281">
        <ele>342.84</ele>
        <time>2020-09-01T11:50:43.999Z</time>
      </trkpt>
      <trkpt lat="43.2035" lon="0.0926">
        <ele>342.79</ele>
        <time>2020-09-01T11:50:48.999Z</time>
      </trkpt>
      <trkpt lat="43.20349" lon="0.09237">
        <ele>342.75</ele>
        <time>2020-09-01T11:50:53.999Z</time>
      </trkpt>
      <trkpt lat="43.20349" lon="0.09213">
        <ele>342.68</ele>
        <time>2020-09-01T11:50:58.999Z</time>
      </trkpt>
      <trkpt lat="43.2035" lon="0.09188">
        <ele>342.1</ele>
        <time>2020-09-01T11:51:03.999Z</time>
      </trkpt>
      <trkpt lat="43.20352" lon="0.09157">
        <ele>341.56</ele>
        <time>2020-09-01T11:51:08.999Z</time>
      </trkpt>
      <trkpt lat="43.20354" lon="0.09123">
        <ele>341.2</ele>
        <time>2020-09-01T11:51:13.999Z</time>
      </trkpt>
      <trkpt lat="43.20354" lon="0.0909">
        <ele>341.02</ele>
        <time>2020-09-01T11:51:18.999Z</time>
      </trkpt>
      <trkpt lat="43.20354" lon="0.09058">
        <ele>340.92</ele>
        <time>2020-09-01T11:51:23.999Z</time>
      </trkpt>
      <trkpt lat="43.20353" lon="0.09026">
        <ele>340.94</ele>
        <time>2020-09-01T11:51:28.999Z</time>
      </trkpt>
      <trkpt lat="43.20353" lon="0.08997">
        <ele>341.12</ele>
        <time>2020-09-01T11:51:33.999Z</time>
      </trkpt>
      <trkpt lat="43.20353" lon="0.08969">
        <ele>341.23</ele>
        <time>2020-09-01T11:51:38.999Z</time>
      </trkpt>
      <trkpt lat="43.20354" lon="0.08942">
        <ele>341.2</ele>
        <time>2020-09-01T11:51:43.999Z</time>
      </trkpt>
      <trkpt lat="43.20357" lon="0.08913">
        <ele>341.09</ele>
        <time>2020-09-01T11:51:48.999Z</time>
      </trkpt>
      <trkpt lat="43.2036" lon="0.08884">
        <ele>341.07</ele>
        <time>2020-09-01T11:51:53.999Z</time>
      </trkpt>
      <trkpt lat="43.20363" lon="0.08855">
        <ele>341.01</ele>
        <time>2020-09-01T11:51:58.999Z</time>
      </trkpt>
      <trkpt lat="43.20364" lon="0.08826">
        <ele>341.03</ele>
        <time>2020-09-01T11:52:03.999Z</time>
      </trkpt>
      <trkpt lat="43.2036" lon="0.08798">
        <ele>341.03</ele>
        <time>2020-09-01T11:52:08.999Z</time>
      </trkpt>
      <trkpt lat="43.20355" lon="0.0877">
        <ele>340.92</ele>
        <time>2020-09-01T11:52:13.999Z</time>
      </trkpt>
      <trkpt lat="43.2035" lon="0.08741">
        <ele>340.66</ele>
        <time>2020-09-01T11:52:18.999Z</time>
      </trkpt>
      <trkpt lat="43.20345" lon="0.08713">
        <ele>340.47</ele>
        <time>2020-09-01T11:52:23.999Z</time>
      </trkpt>
      <trkpt lat="43.20341" lon="0.08685">
        <ele>340.33</ele>
        <time>2020-09-01T11:52:28.999Z</time>
      </trkpt>
      <trkpt lat="43.20337" lon="0.08658">
        <ele>340.08</ele>
        <time>2020-09-01T11:52:33.999Z</time>
      </trkpt>
      <trkpt lat="43.20333" lon="0.0863">
        <ele>339.92</ele>
        <time>2020-09-01T11:52:38.999Z</time>
      </trkpt>
      <trkpt lat="43.20328" lon="0.08601">
        <ele>339.79</ele>
        <time>2020-09-01T11:52:43.999Z</time>
      </trkpt>
      <trkpt lat="43.20324" lon="0.08573">
        <ele>339.66</ele>
        <time>2020-09-01T11:52:48.999Z</time>
      </trkpt>
      <trkpt lat="43.2032" lon="0.08545">
        <ele>339.52</ele>
        <time>2020-09-01T11:52:53.999Z</time>
      </trkpt>
      <trkpt lat="43.20317" lon="0.08516">
        <ele>339.41</ele>
        <time>2020-09-01T11:52:58.999Z</time>
      </trkpt>
      <trkpt lat="43.20316" lon="0.08486">
        <ele>339.27</ele>
        <time>2020-09-01T11:53:03.999Z</time>
      </trkpt>
      <trkpt lat="43.20314" lon="0.08456">
        <ele>339.15</ele>
        <time>2020-09-01T11:53:08.999Z</time>
      </trkpt>
      <trkpt lat="43.20314" lon="0.08426">
        <ele>339.07</ele>
        <time>2020-09-01T11:53:13.999Z</time>
      </trkpt>
      <trkpt lat="43.20313" lon="0.08397">
        <ele>338.93</ele>
        <time>2020-09-01T11:53:18.999Z</time>
      </trkpt>
      <trkpt lat="43.2032" lon="0.08369">
        <ele>338.89</ele>
        <time>2020-09-01T11:53:23.999Z</time>
      </trkpt>
      <trkpt lat="43.20333" lon="0.08343">
        <ele>338.95</ele>
        <time>2020-09-01T11:53:28.999Z</time>
      </trkpt>
      <trkpt lat="43.20326" lon="0.08316">
        <ele>339.07</ele>
        <time>2020-09-01T11:53:33.999Z</time>
      </trkpt>
      <trkpt lat="43.20317" lon="0.08292">
        <ele>339.06</ele>
        <time>2020-09-01T11:53:38.999Z</time>
      </trkpt>
      <trkpt lat="43.20313" lon="0.08263">
        <ele>339.13</ele>
        <time>2020-09-01T11:53:43.999Z</time>
      </trkpt>
      <trkpt lat="43.20309" lon="0.08234">
        <ele>339.1</ele>
        <time>2020-09-01T11:53:48.999Z</time>
      </trkpt>
      <trkpt lat="43.20306" lon="0.08206">
        <ele>339.14</ele>
        <time>2020-09-01T11:53:53.999Z</time>
      </trkpt>
      <trkpt lat="43.20302" lon="0.0818">
        <ele>339.14</ele>
        <time>2020-09-01T11:53:58.999Z</time>
      </trkpt>
      <trkpt lat="43.20299" lon="0.08153">
        <ele>339.06</ele>
        <time>2020-09-01T11:54:03.999Z</time>
      </trkpt>
      <trkpt lat="43.20294" lon="0.08124">
        <ele>339.06</ele>
        <time>2020-09-01T11:54:08.999Z</time>
      </trkpt>
      <trkpt lat="43.20289" lon="0.08096">
        <ele>339.02</ele>
        <time>2020-09-01T11:54:13.999Z</time>
      </trkpt>
      <trkpt lat="43.20285" lon="0.08068">
        <ele>338.95</ele>
        <time>2020-09-01T11:54:18.999Z</time>
      </trkpt>
      <trkpt lat="43.20279" lon="0.08039">
        <ele>338.97</ele>
        <time>2020-09-01T11:54:23.999Z</time>
      </trkpt>
      <trkpt lat="43.20276" lon="0.08008">
        <ele>338.98</ele>
        <time>2020-09-01T11:54:28.999Z</time>
      </trkpt>
      <trkpt lat="43.20271" lon="0.07977">
        <ele>338.99</ele>
        <time>2020-09-01T11:54:33.999Z</time>
      </trkpt>
      <trkpt lat="43.20268" lon="0.07945">
        <ele>339.02</ele>
        <time>2020-09-01T11:54:38.999Z</time>
      </trkpt>
      <trkpt lat="43.20265" lon="0.07913">
        <ele>338.97</ele>
        <time>2020-09-01T11:54:43.999Z</time>
      </trkpt>
      <trkpt lat="43.20261" lon="0.07882">
        <ele>338.97</ele>
        <time>2020-09-01T11:54:48.999Z</time>
      </trkpt>
      <trkpt lat="43.20257" lon="0.07849">
        <ele>338.96</ele>
        <time>2020-09-01T11:54:53.999Z</time>
      </trkpt>
      <trkpt lat="43.20251" lon="0.07818">
        <ele>338.94</ele>
        <time>2020-09-01T11:54:58.999Z</time>
      </trkpt>
      <trkpt lat="43.20244" lon="0.0779">
        <ele>338.96</ele>
        <time>2020-09-01T11:55:03.999Z</time>
      </trkpt>
      <trkpt lat="43.20236" lon="0.07761">
        <ele>338.96</ele>
        <time>2020-09-01T11:55:08.999Z</time>
      </trkpt>
      <trkpt lat="43.20227" lon="0.07731">
        <ele>338.97</ele>
        <time>2020-09-01T11:55:13.999Z</time>
      </trkpt>
      <trkpt lat="43.20219" lon="0.07702">
        <ele>338.96</ele>
        <time>2020-09-01T11:55:18.999Z</time>
      </trkpt>
      <trkpt lat="43.20212" lon="0.07674">
        <ele>338.94</ele>
        <time>2020-09-01T11:55:23.999Z</time>
      </trkpt>
      <trkpt lat="43.20206" lon="0.07654">
        <ele>338.92</ele>
        <time>2020-09-01T11:55:28.000Z</time>
      </trkpt>
      <trkpt lat="43.202" lon="0.07629">
        <ele>338.89</ele>
        <time>2020-09-01T11:55:33.000Z</time>
      </trkpt>
      <trkpt lat="43.20195" lon="0.07604">
        <ele>338.86</ele>
        <time>2020-09-01T11:55:38.000Z</time>
      </trkpt>
      <trkpt lat="43.20197" lon="0.07579">
        <ele>338.85</ele>
        <time>2020-09-01T11:55:43.000Z</time>
      </trkpt>
      <trkpt lat="43.20216" lon="0.07569">
        <ele>338.73</ele>
        <time>2020-09-01T11:55:48.000Z</time>
      </trkpt>
      <trkpt lat="43.20238" lon="0.07556">
        <ele>338.7</ele>
        <time>2020-09-01T11:55:53.000Z</time>
      </trkpt>
      <trkpt lat="43.2026" lon="0.07544">
        <ele>338.61</ele>
        <time>2020-09-01T11:55:58.000Z</time>
      </trkpt>
      <trkpt lat="43.20283" lon="0.07531">
        <ele>338.56</ele>
        <time>2020-09-01T11:56:03.000Z</time>
      </trkpt>
      <trkpt lat="43.20306" lon="0.07518">
        <ele>338.51</ele>
        <time>2020-09-01T11:56:08.000Z</time>
      </trkpt>
      <trkpt lat="43.20329" lon="0.07505">
        <ele>338.44</ele>
        <time>2020-09-01T11:56:13.000Z</time>
      </trkpt>
      <trkpt lat="43.20351" lon="0.07493">
        <ele>338.37</ele>
        <time>2020-09-01T11:56:18.000Z</time>
      </trkpt>
      <trkpt lat="43.20374" lon="0.07481">
        <ele>338.29</ele>
        <time>2020-09-01T11:56:23.000Z</time>
      </trkpt>
      <trkpt lat="43.20396" lon="0.07469">
        <ele>338.16</ele>
        <time>2020-09-01T11:56:28.000Z</time>
      </trkpt>
      <trkpt lat="43.20419" lon="0.07457">
        <ele>338.07</ele>
        <time>2020-09-01T11:56:33.000Z</time>
      </trkpt>
      <trkpt lat="43.20443" lon="0.07441">
        <ele>337.95</ele>
        <time>2020-09-01T11:56:38.000Z</time>
      </trkpt>
      <trkpt lat="43.20464" lon="0.07419">
        <ele>337.85</ele>
        <time>2020-09-01T11:56:43.000Z</time>
      </trkpt>
      <trkpt lat="43.20477" lon="0.07395">
        <ele>337.75</ele>
        <time>2020-09-01T11:56:48.000Z</time>
      </trkpt>
      <trkpt lat="43.20468" lon="0.07369">
        <ele>337.71</ele>
        <time>2020-09-01T11:56:53.000Z</time>
      </trkpt>
      <trkpt lat="43.20457" lon="0.07338">
        <ele>337.65</ele>
        <time>2020-09-01T11:56:58.000Z</time>
      </trkpt>
      <trkpt lat="43.20445" lon="0.07307">
        <ele>337.59</ele>
        <time>2020-09-01T11:57:03.000Z</time>
      </trkpt>
      <trkpt lat="43.20434" lon="0.07277">
        <ele>337.52</ele>
        <time>2020-09-01T11:57:08.000Z</time>
      </trkpt>
      <trkpt lat="43.20424" lon="0.07246">
        <ele>337.44</ele>
        <time>2020-09-01T11:57:13.000Z</time>
      </trkpt>
      <trkpt lat="43.20413" lon="0.07217">
        <ele>337.37</ele>
        <time>2020-09-01T11:57:18.000Z</time>
      </trkpt>
      <trkpt lat="43.20403" lon="0.07187">
        <ele>337.35</ele>
        <time>2020-09-01T11:57:23.000Z</time>
      </trkpt>
      <trkpt lat="43.20393" lon="0.07159">
        <ele>337.32</ele>
        <time>2020-09-01T11:57:28.000Z</time>
      </trkpt>
      <trkpt lat="43.20385" lon="0.07133">
        <ele>337.32</ele>
        <time>2020-09-01T11:57:33.000Z</time>
      </trkpt>
      <trkpt lat="43.20377" lon="0.07109">
        <ele>337.32</ele>
        <time>2020-09-01T11:57:38.000Z</time>
      </trkpt>
      <trkpt lat="43.20372" lon="0.07091">
        <ele>337.32</ele>
        <time>2020-09-01T11:57:43.000Z</time>
      </trkpt>
      <trkpt lat="43.20378" lon="0.07081">
        <ele>337.31</ele>
        <time>2020-09-01T11:57:48.000Z</time>
      </trkpt>
      <trkpt lat="43.20394" lon="0.07072">
        <ele>337.3</ele>
        <time>2020-09-01T11:57:53.000Z</time>
      </trkpt>
      <trkpt lat="43.20413" lon="0.07062">
        <ele>337.23</ele>
        <time>2020-09-01T11:57:58.000Z</time>
      </trkpt>
      <trkpt lat="43.20432" lon="0.07052">
        <ele>337.13</ele>
        <time>2020-09-01T11:58:03.000Z</time>
      </trkpt>
      <trkpt lat="43.20451" lon="0.0704">
        <ele>337.1</ele>
        <time>2020-09-01T11:58:08.000Z</time>
      </trkpt>
      <trkpt lat="43.20469" lon="0.07029">
        <ele>337.03</ele>
        <time>2020-09-01T11:58:13.000Z</time>
      </trkpt>
      <trkpt lat="43.20488" lon="0.07018">
        <ele>336.97</ele>
        <time>2020-09-01T11:58:18.000Z</time>
      </trkpt>
      <trkpt lat="43.20508" lon="0.07007">
        <ele>336.93</ele>
        <time>2020-09-01T11:58:23.000Z</time>
      </trkpt>
      <trkpt lat="43.20527" lon="0.06995">
        <ele>336.9</ele>
        <time>2020-09-01T11:58:28.000Z</time>
      </trkpt>
      <trkpt lat="43.20545" lon="0.06984">
        <ele>336.85</ele>
        <time>2020-09-01T11:58:33.000Z</time>
      </trkpt>
      <trkpt lat="43.20562" lon="0.06976">
        <ele>336.83</ele>
        <time>2020-09-01T11:58:38.000Z</time>
      </trkpt>
      <trkpt lat="43.20561" lon="0.06955">
        <ele>336.83</ele>
        <time>2020-09-01T11:58:43.000Z</time>
      </trkpt>
      <trkpt lat="43.20556" lon="0.06928">
        <ele>336.8</ele>
        <time>2020-09-01T11:58:48.000Z</time>
      </trkpt>
      <trkpt lat="43.20552" lon="0.06904">
        <ele>336.78</ele>
        <time>2020-09-01T11:58:53.000Z</time>
      </trkpt>
      <trkpt lat="43.20549" lon="0.06883">
        <ele>336.77</ele>
        <time>2020-09-01T11:58:58.000Z</time>
      </trkpt>
      <trkpt lat="43.20544" lon="0.06859">
        <ele>336.75</ele>
        <time>2020-09-01T11:59:03.000Z</time>
      </trkpt>
      <trkpt lat="43.20538" lon="0.06835">
        <ele>336.74</ele>
        <time>2020-09-01T11:59:08.000Z</time>
      </trkpt>
      <trkpt lat="43.20534" lon="0.06813">
        <ele>336.72</ele>
        <time>2020-09-01T11:59:13.000Z</time>
      </trkpt>
      <trkpt lat="43.20528" lon="0.0679">
        <ele>336.62</ele>
        <time>2020-09-01T11:59:18.000Z</time>
      </trkpt>
      <trkpt lat="43.20523" lon="0.06764">
        <ele>336.41</ele>
        <time>2020-09-01T11:59:23.000Z</time>
      </trkpt>
      <trkpt lat="43.2052" lon="0.06741">
        <ele>336.33</ele>
        <time>2020-09-01T11:59:28.000Z</time>
      </trkpt>
      <trkpt lat="43.20516" lon="0.06715">
        <ele>336.28</ele>
        <time>2020-09-01T11:59:33.000Z</time>
      </trkpt>
      <trkpt lat="43.2051" lon="0.0669">
        <ele>336.25</ele>
        <time>2020-09-01T11:59:38.000Z</time>
      </trkpt>
      <trkpt lat="43.20505" lon="0.06663">
        <ele>336.19</ele>
        <time>2020-09-01T11:59:43.000Z</time>
      </trkpt>
      <trkpt lat="43.20498" lon="0.06633">
        <ele>336.02</ele>
        <time>2020-09-01T11:59:48.000Z</time>
      </trkpt>
      <trkpt lat="43.20491" lon="0.06604">
        <ele>335.95</ele>
        <time>2020-09-01T11:59:53.000Z</time>
      </trkpt>
      <trkpt lat="43.20485" lon="0.06576">
        <ele>335.92</ele>
        <time>2020-09-01T11:59:58.000Z</time>
      </trkpt>
      <trkpt lat="43.20479" lon="0.06548">
        <ele>335.87</ele>
        <time>2020-09-01T12:00:03.000Z</time>
      </trkpt>
      <trkpt lat="43.20472" lon="0.0652">
        <ele>335.78</ele>
        <time>2020-09-01T12:00:08.000Z</time>
      </trkpt>
      <trkpt lat="43.20463" lon="0.06493">
        <ele>335.72</ele>
        <time>2020-09-01T12:00:13.000Z</time>
      </trkpt>
      <trkpt lat="43.2045" lon="0.06466">
        <ele>335.7</ele>
        <time>2020-09-01T12:00:18.000Z</time>
      </trkpt>
      <trkpt lat="43.20435" lon="0.06439">
        <ele>335.66</ele>
        <time>2020-09-01T12:00:23.000Z</time>
      </trkpt>
      <trkpt lat="43.20419" lon="0.06413">
        <ele>335.63</ele>
        <time>2020-09-01T12:00:28.000Z</time>
      </trkpt>
      <trkpt lat="43.20402" lon="0.06387">
        <ele>335.56</ele>
        <time>2020-09-01T12:00:33.000Z</time>
      </trkpt>
      <trkpt lat="43.20384" lon="0.06363">
        <ele>335.49</ele>
        <time>2020-09-01T12:00:38.000Z</time>
      </trkpt>
      <trkpt lat="43.20364" lon="0.06341">
        <ele>335.43</ele>
        <time>2020-09-01T12:00:43.000Z</time>
      </trkpt>
      <trkpt lat="43.20345" lon="0.06319">
        <ele>335.37</ele>
        <time>2020-09-01T12:00:48.000Z</time>
      </trkpt>
      <trkpt lat="43.20326" lon="0.06296">
        <ele>335.34</ele>
        <time>2020-09-01T12:00:53.000Z</time>
      </trkpt>
      <trkpt lat="43.20307" lon="0.06274">
        <ele>335.32</ele>
        <time>2020-09-01T12:00:58.000Z</time>
      </trkpt>
      <trkpt lat="43.20289" lon="0.06253">
        <ele>335.29</ele>
        <time>2020-09-01T12:01:03.000Z</time>
      </trkpt>
      <trkpt lat="43.2027" lon="0.06231">
        <ele>335.27</ele>
        <time>2020-09-01T12:01:08.000Z</time>
      </trkpt>
      <trkpt lat="43.20252" lon="0.06209">
        <ele>335.27</ele>
        <time>2020-09-01T12:01:13.000Z</time>
      </trkpt>
      <trkpt lat="43.20234" lon="0.06188">
        <ele>335.27</ele>
        <time>2020-09-01T12:01:18.000Z</time>
      </trkpt>
      <trkpt lat="43.20216" lon="0.0617">
        <ele>335.29</ele>
        <time>2020-09-01T12:01:23.000Z</time>
      </trkpt>
      <trkpt lat="43.20197" lon="0.06157">
        <ele>335.29</ele>
        <time>2020-09-01T12:01:28.000Z</time>
      </trkpt>
      <trkpt lat="43.20175" lon="0.06149">
        <ele>335.3</ele>
        <time>2020-09-01T12:01:33.000Z</time>
      </trkpt>
      <trkpt lat="43.20153" lon="0.06145">
        <ele>335.28</ele>
        <time>2020-09-01T12:01:38.000Z</time>
      </trkpt>
      <trkpt lat="43.20131" lon="0.06143">
        <ele>335.28</ele>
        <time>2020-09-01T12:01:43.000Z</time>
      </trkpt>
      <trkpt lat="43.2011" lon="0.06137">
        <ele>335.27</ele>
        <time>2020-09-01T12:01:48.000Z</time>
      </trkpt>
      <trkpt lat="43.20092" lon="0.06121">
        <ele>335.27</ele>
        <time>2020-09-01T12:01:53.000Z</time>
      </trkpt>
      <trkpt lat="43.20082" lon="0.06094">
        <ele>335.27</ele>
        <time>2020-09-01T12:01:58.000Z</time>
      </trkpt>
      <trkpt lat="43.20097" lon="0.06065">
        <ele>335.25</ele>
        <time>2020-09-01T12:02:03.000Z</time>
      </trkpt>
      <trkpt lat="43.20114" lon="0.0604">
        <ele>335.22</ele>
        <time>2020-09-01T12:02:08.000Z</time>
      </trkpt>
      <trkpt lat="43.20132" lon="0.06017">
        <ele>335.18</ele>
        <time>2020-09-01T12:02:13.000Z</time>
      </trkpt>
      <trkpt lat="43.2015" lon="0.05994">
        <ele>335.15</ele>
        <time>2020-09-01T12:02:18.000Z</time>
      </trkpt>
      <trkpt lat="43.20167" lon="0.05968">
        <ele>335.13</ele>
        <time>2020-09-01T12:02:23.000Z</time>
      </trkpt>
      <trkpt lat="43.20182" lon="0.05941">
        <ele>335.1</ele>
        <time>2020-09-01T12:02:28.000Z</time>
      </trkpt>
      <trkpt lat="43.20195" lon="0.05912">
        <ele>335.06</ele>
        <time>2020-09-01T12:02:33.000Z</time>
      </trkpt>
      <trkpt lat="43.20206" lon="0.05881">
        <ele>335.04</ele>
        <time>2020-09-01T12:02:38.000Z</time>
      </trkpt>
      <trkpt lat="43.20216" lon="0.0585">
        <ele>335.04</ele>
        <time>2020-09-01T12:02:43.000Z</time>
      </trkpt>
      <trkpt lat="43.20231" lon="0.05827">
        <ele>335.04</ele>
        <time>2020-09-01T12:02:48.000Z</time>
      </trkpt>
      <trkpt lat="43.20237" lon="0.05798">
        <ele>335.02</ele>
        <time>2020-09-01T12:02:53.000Z</time>
      </trkpt>
      <trkpt lat="43.20232" lon="0.05767">
        <ele>335.02</ele>
        <time>2020-09-01T12:02:58.000Z</time>
      </trkpt>
      <trkpt lat="43.20232" lon="0.05731">
        <ele>335</ele>
        <time>2020-09-01T12:03:03.000Z</time>
      </trkpt>
      <trkpt lat="43.20232" lon="0.05696">
        <ele>334.95</ele>
        <time>2020-09-01T12:03:08.000Z</time>
      </trkpt>
      <trkpt lat="43.20228" lon="0.0566">
        <ele>334.9</ele>
        <time>2020-09-01T12:03:13.000Z</time>
      </trkpt>
      <trkpt lat="43.20222" lon="0.05626">
        <ele>334.87</ele>
        <time>2020-09-01T12:03:18.000Z</time>
      </trkpt>
      <trkpt lat="43.20215" lon="0.05591">
        <ele>334.86</ele>
        <time>2020-09-01T12:03:23.000Z</time>
      </trkpt>
      <trkpt lat="43.20205" lon="0.05558">
        <ele>334.83</ele>
        <time>2020-09-01T12:03:28.000Z</time>
      </trkpt>
      <trkpt lat="43.20195" lon="0.05524">
        <ele>334.79</ele>
        <time>2020-09-01T12:03:33.000Z</time>
      </trkpt>
      <trkpt lat="43.20185" lon="0.05491">
        <ele>334.72</ele>
        <time>2020-09-01T12:03:38.000Z</time>
      </trkpt>
      <trkpt lat="43.20174" lon="0.05459">
        <ele>334.64</ele>
        <time>2020-09-01T12:03:43.000Z</time>
      </trkpt>
      <trkpt lat="43.20164" lon="0.05427">
        <ele>334.56</ele>
        <time>2020-09-01T12:03:48.000Z</time>
      </trkpt>
      <trkpt lat="43.20154" lon="0.05395">
        <ele>334.49</ele>
        <time>2020-09-01T12:03:53.000Z</time>
      </trkpt>
      <trkpt lat="43.20143" lon="0.05365">
        <ele>334.42</ele>
        <time>2020-09-01T12:03:58.000Z</time>
      </trkpt>
      <trkpt lat="43.20134" lon="0.05333">
        <ele>334.35</ele>
        <time>2020-09-01T12:04:03.000Z</time>
      </trkpt>
      <trkpt lat="43.20124" lon="0.05302">
        <ele>334.3</ele>
        <time>2020-09-01T12:04:08.000Z</time>
      </trkpt>
      <trkpt lat="43.20114" lon="0.05271">
        <ele>334.25</ele>
        <time>2020-09-01T12:04:13.000Z</time>
      </trkpt>
      <trkpt lat="43.20104" lon="0.05242">
        <ele>334.18</ele>
        <time>2020-09-01T12:04:18.000Z</time>
      </trkpt>
      <trkpt lat="43.20094" lon="0.05211">
        <ele>334.11</ele>
        <time>2020-09-01T12:04:23.000Z</time>
      </trkpt>
      <trkpt lat="43.20085" lon="0.05181">
        <ele>334.07</ele>
        <time>2020-09-01T12:04:28.000Z</time>
      </trkpt>
      <trkpt lat="43.20078" lon="0.0515">
        <ele>334.01</ele>
        <time>2020-09-01T12:04:33.000Z</time>
      </trkpt>
      <trkpt lat="43.20074" lon="0.05121">
        <ele>333.97</ele>
        <time>2020-09-01T12:04:38.000Z</time>
      </trkpt>
      <trkpt lat="43.20073" lon="0.05089">
        <ele>333.91</ele>
        <time>2020-09-01T12:04:43.000Z</time>
      </trkpt>
      <trkpt lat="43.20074" lon="0.05059">
        <ele>333.84</ele>
        <time>2020-09-01T12:04:48.000Z</time>
      </trkpt>
      <trkpt lat="43.20075" lon="0.05028">
        <ele>333.77</ele>
        <time>2020-09-01T12:04:53.000Z</time>
      </trkpt>
      <trkpt lat="43.20076" lon="0.04997">
        <ele>333.7</ele>
        <time>2020-09-01T12:04:58.000Z</time>
      </trkpt>
      <trkpt lat="43.20077" lon="0.04964">
        <ele>333.64</ele>
        <time>2020-09-01T12:05:03.000Z</time>
      </trkpt>
      <trkpt lat="43.20079" lon="0.04932">
        <ele>333.6</ele>
        <time>2020-09-01T12:05:08.000Z</time>
      </trkpt>
      <trkpt lat="43.20081" lon="0.049">
        <ele>333.56</ele>
        <time>2020-09-01T12:05:13.000Z</time>
      </trkpt>
      <trkpt lat="43.20084" lon="0.04871">
        <ele>333.53</ele>
        <time>2020-09-01T12:05:18.000Z</time>
      </trkpt>
      <trkpt lat="43.20089" lon="0.04845">
        <ele>333.52</ele>
        <time>2020-09-01T12:05:23.000Z</time>
      </trkpt>
      <trkpt lat="43.20095" lon="0.0482">
        <ele>333.47</ele>
        <time>2020-09-01T12:05:28.000Z</time>
      </trkpt>
      <trkpt lat="43.20102" lon="0.04796">
        <ele>333.41</ele>
        <time>2020-09-01T12:05:33.000Z</time>
      </trkpt>
      <trkpt lat="43.20111" lon="0.04772">
        <ele>333.37</ele>
        <time>2020-09-01T12:05:38.000Z</time>
      </trkpt>
      <trkpt lat="43.20123" lon="0.04752">
        <ele>333.33</ele>
        <time>2020-09-01T12:05:43.000Z</time>
      </trkpt>
      <trkpt lat="43.20135" lon="0.04732">
        <ele>333.32</ele>
        <time>2020-09-01T12:05:48.000Z</time>
      </trkpt>
      <trkpt lat="43.20146" lon="0.04713">
        <ele>333.32</ele>
        <time>2020-09-01T12:05:53.000Z</time>
      </trkpt>
      <trkpt lat="43.20156" lon="0.04691">
        <ele>333.28</ele>
        <time>2020-09-01T12:05:58.000Z</time>
      </trkpt>
      <trkpt lat="43.20166" lon="0.04666">
        <ele>333.25</ele>
        <time>2020-09-01T12:06:03.000Z</time>
      </trkpt>
      <trkpt lat="43.20172" lon="0.0464">
        <ele>333.23</ele>
        <time>2020-09-01T12:06:08.000Z</time>
      </trkpt>
      <trkpt lat="43.20177" lon="0.04614">
        <ele>333.2</ele>
        <time>2020-09-01T12:06:13.000Z</time>
      </trkpt>
      <trkpt lat="43.20181" lon="0.04589">
        <ele>333.18</ele>
        <time>2020-09-01T12:06:18.000Z</time>
      </trkpt>
      <trkpt lat="43.20185" lon="0.04565">
        <ele>333.17</ele>
        <time>2020-09-01T12:06:23.000Z</time>
      </trkpt>
      <trkpt lat="43.20188" lon="0.04542">
        <ele>333.16</ele>
        <time>2020-09-01T12:06:28.000Z</time>
      </trkpt>
      <trkpt lat="43.20192" lon="0.04519">
        <ele>333.16</ele>
        <time>2020-09-01T12:06:33.000Z</time>
      </trkpt>
      <trkpt lat="43.20195" lon="0.04496">
        <ele>333.15</ele>
        <time>2020-09-01T12:06:38.000Z</time>
      </trkpt>
      <trkpt lat="43.20199" lon="0.04472">
        <ele>333.15</ele>
        <time>2020-09-01T12:06:43.000Z</time>
      </trkpt>
      <trkpt lat="43.20203" lon="0.04448">
        <ele>333.14</ele>
        <time>2020-09-01T12:06:48.000Z</time>
      </trkpt>
      <trkpt lat="43.20205" lon="0.04425">
        <ele>333.13</ele>
        <time>2020-09-01T12:06:53.000Z</time>
      </trkpt>
      <trkpt lat="43.20207" lon="0.04403">
        <ele>333.13</ele>
        <time>2020-09-01T12:06:58.000Z</time>
      </trkpt>
      <trkpt lat="43.20207" lon="0.04381">
        <ele>333.12</ele>
        <time>2020-09-01T12:07:03.000Z</time>
      </trkpt>
      <trkpt lat="43.20206" lon="0.04358">
        <ele>333.12</ele>
        <time>2020-09-01T12:07:08.000Z</time>
      </trkpt>
      <trkpt lat="43.20204" lon="0.04336">
        <ele>333.11</ele>
        <time>2020-09-01T12:07:13.000Z</time>
      </trkpt>
      <trkpt lat="43.20201" lon="0.04314">
        <ele>333.11</ele>
        <time>2020-09-01T12:07:18.000Z</time>
      </trkpt>
      <trkpt lat="43.20197" lon="0.04292">
        <ele>333.1</ele>
        <time>2020-09-01T12:07:23.000Z</time>
      </trkpt>
      <trkpt lat="43.20192" lon="0.0427">
        <ele>333.1</ele>
        <time>2020-09-01T12:07:28.000Z</time>
      </trkpt>
      <trkpt lat="43.20186" lon="0.04247">
        <ele>333.09</ele>
        <time>2020-09-01T12:07:33.000Z</time>
      </trkpt>
      <trkpt lat="43.20181" lon="0.04224">
        <ele>333.08</ele>
        <time>2020-09-01T12:07:38.000Z</time>
      </trkpt>
      <trkpt lat="43.20176" lon="0.04202">
        <ele>333.07</ele>
        <time>2020-09-01T12:07:42.999Z</time>
      </trkpt>
      <trkpt lat="43.20171" lon="0.04179">
        <ele>333.07</ele>
        <time>2020-09-01T12:07:47.999Z</time>
      </trkpt>
      <trkpt lat="43.20167" lon="0.04156">
        <ele>333.06</ele>
        <time>2020-09-01T12:07:52.999Z</time>
      </trkpt>
      <trkpt lat="43.20163" lon="0.04131">
        <ele>333.04</ele>
        <time>2020-09-01T12:07:57.999Z</time>
      </trkpt>
      <trkpt lat="43.20161" lon="0.04108">
        <ele>333.04</ele>
        <time>2020-09-01T12:08:02.999Z</time>
      </trkpt>
      <trkpt lat="43.2016" lon="0.04082">
        <ele>333</ele>
        <time>2020-09-01T12:08:07.999Z</time>
      </trkpt>
      <trkpt lat="43.2016" lon="0.04056">
        <ele>332.96</ele>
        <time>2020-09-01T12:08:12.999Z</time>
      </trkpt>
      <trkpt lat="43.20159" lon="0.04028">
        <ele>332.92</ele>
        <time>2020-09-01T12:08:17.999Z</time>
      </trkpt>
      <trkpt lat="43.20157" lon="0.04">
        <ele>332.88</ele>
        <time>2020-09-01T12:08:22.999Z</time>
      </trkpt>
      <trkpt lat="43.20153" lon="0.03969">
        <ele>332.83</ele>
        <time>2020-09-01T12:08:27.999Z</time>
      </trkpt>
      <trkpt lat="43.20146" lon="0.03935">
        <ele>332.76</ele>
        <time>2020-09-01T12:08:32.999Z</time>
      </trkpt>
      <trkpt lat="43.20134" lon="0.039">
        <ele>332.7</ele>
        <time>2020-09-01T12:08:37.999Z</time>
      </trkpt>
      <trkpt lat="43.20117" lon="0.03866">
        <ele>332.6</ele>
        <time>2020-09-01T12:08:42.999Z</time>
      </trkpt>
      <trkpt lat="43.20098" lon="0.03833">
        <ele>332.42</ele>
        <time>2020-09-01T12:08:47.999Z</time>
      </trkpt>
      <trkpt lat="43.20074" lon="0.03798">
        <ele>332.14</ele>
        <time>2020-09-01T12:08:52.999Z</time>
      </trkpt>
      <trkpt lat="43.20046" lon="0.03761">
        <ele>331.54</ele>
        <time>2020-09-01T12:08:57.999Z</time>
      </trkpt>
      <trkpt lat="43.20024" lon="0.03715">
        <ele>330.78</ele>
        <time>2020-09-01T12:09:02.999Z</time>
      </trkpt>
      <trkpt lat="43.20013" lon="0.03663">
        <ele>330.14</ele>
        <time>2020-09-01T12:09:07.999Z</time>
      </trkpt>
      <trkpt lat="43.20004" lon="0.03616">
        <ele>329.69</ele>
        <time>2020-09-01T12:09:12.999Z</time>
      </trkpt>
      <trkpt lat="43.19993" lon="0.03576">
        <ele>329.48</ele>
        <time>2020-09-01T12:09:17.999Z</time>
      </trkpt>
      <trkpt lat="43.19989" lon="0.03545">
        <ele>329.57</ele>
        <time>2020-09-01T12:09:22.999Z</time>
      </trkpt>
      <trkpt lat="43.19987" lon="0.03528">
        <ele>329.61</ele>
        <time>2020-09-01T12:09:27.999Z</time>
      </trkpt>
      <trkpt lat="43.19983" lon="0.03508">
        <ele>329.5</ele>
        <time>2020-09-01T12:09:32.999Z</time>
      </trkpt>
      <trkpt lat="43.19978" lon="0.03482">
        <ele>328.69</ele>
        <time>2020-09-01T12:09:37.999Z</time>
      </trkpt>
      <trkpt lat="43.19973" lon="0.03457">
        <ele>327.86</ele>
        <time>2020-09-01T12:09:42.999Z</time>
      </trkpt>
      <trkpt lat="43.19966" lon="0.03431">
        <ele>327.24</ele>
        <time>2020-09-01T12:09:47.999Z</time>
      </trkpt>
      <trkpt lat="43.19964" lon="0.03405">
        <ele>327.01</ele>
        <time>2020-09-01T12:09:52.999Z</time>
      </trkpt>
      <trkpt lat="43.19969" lon="0.03396">
        <ele>326.56</ele>
        <time>2020-09-01T12:10:06.999Z</time>
      </trkpt>
      <trkpt lat="43.19963" lon="0.03381">
        <ele>326.33</ele>
        <time>2020-09-01T12:10:11.999Z</time>
      </trkpt>
      <trkpt lat="43.19951" lon="0.03366">
        <ele>326.1</ele>
        <time>2020-09-01T12:10:16.999Z</time>
      </trkpt>
      <trkpt lat="43.19939" lon="0.03351">
        <ele>325.86</ele>
        <time>2020-09-01T12:10:21.999Z</time>
      </trkpt>
      <trkpt lat="43.19929" lon="0.03336">
        <ele>325.66</ele>
        <time>2020-09-01T12:10:26.999Z</time>
      </trkpt>
      <trkpt lat="43.19921" lon="0.03324">
        <ele>325.47</ele>
        <time>2020-09-01T12:10:31.999Z</time>
      </trkpt>
      <trkpt lat="43.19913" lon="0.03316">
        <ele>325.26</ele>
        <time>2020-09-01T12:10:37.999Z</time>
      </trkpt>
      <trkpt lat="43.19906" lon="0.03307">
        <ele>324.96</ele>
        <time>2020-09-01T12:10:58.999Z</time>
      </trkpt>
      <trkpt lat="43.19896" lon="0.03294">
        <ele>324.82</ele>
        <time>2020-09-01T12:11:03.999Z</time>
      </trkpt>
      <trkpt lat="43.19885" lon="0.03278">
        <ele>324.68</ele>
        <time>2020-09-01T12:11:08.999Z</time>
      </trkpt>
      <trkpt lat="43.19884" lon="0.03256">
        <ele>324.57</ele>
        <time>2020-09-01T12:11:13.999Z</time>
      </trkpt>
      <trkpt lat="43.19889" lon="0.0323">
        <ele>324</ele>
        <time>2020-09-01T12:11:18.999Z</time>
      </trkpt>
      <trkpt lat="43.19897" lon="0.03203">
        <ele>323.66</ele>
        <time>2020-09-01T12:11:23.999Z</time>
      </trkpt>
      <trkpt lat="43.1991" lon="0.03179">
        <ele>323.61</ele>
        <time>2020-09-01T12:11:28.999Z</time>
      </trkpt>
      <trkpt lat="43.19924" lon="0.03162">
        <ele>323.61</ele>
        <time>2020-09-01T12:11:33.999Z</time>
      </trkpt>
      <trkpt lat="43.19938" lon="0.03142">
        <ele>323.61</ele>
        <time>2020-09-01T12:11:38.999Z</time>
      </trkpt>
      <trkpt lat="43.19954" lon="0.03118">
        <ele>323.61</ele>
        <time>2020-09-01T12:11:43.999Z</time>
      </trkpt>
      <trkpt lat="43.19964" lon="0.03087">
        <ele>323.41</ele>
        <time>2020-09-01T12:11:48.999Z</time>
      </trkpt>
      <trkpt lat="43.19975" lon="0.03055">
        <ele>323.11</ele>
        <time>2020-09-01T12:11:53.999Z</time>
      </trkpt>
      <trkpt lat="43.19985" lon="0.03024">
        <ele>322.96</ele>
        <time>2020-09-01T12:11:58.999Z</time>
      </trkpt>
      <trkpt lat="43.19994" lon="0.02997">
        <ele>323.01</ele>
        <time>2020-09-01T12:12:03.999Z</time>
      </trkpt>
      <trkpt lat="43.20002" lon="0.02972">
        <ele>323.09</ele>
        <time>2020-09-01T12:12:08.999Z</time>
      </trkpt>
      <trkpt lat="43.20011" lon="0.02945">
        <ele>323.23</ele>
        <time>2020-09-01T12:12:13.999Z</time>
      </trkpt>
      <trkpt lat="43.20019" lon="0.0292">
        <ele>323.13</ele>
        <time>2020-09-01T12:12:18.999Z</time>
      </trkpt>
      <trkpt lat="43.20027" lon="0.02895">
        <ele>323</ele>
        <time>2020-09-01T12:12:23.999Z</time>
      </trkpt>
      <trkpt lat="43.20035" lon="0.02869">
        <ele>323.06</ele>
        <time>2020-09-01T12:12:28.999Z</time>
      </trkpt>
      <trkpt lat="43.20043" lon="0.02841">
        <ele>323.19</ele>
        <time>2020-09-01T12:12:33.999Z</time>
      </trkpt>
      <trkpt lat="43.20052" lon="0.02812">
        <ele>323.2</ele>
        <time>2020-09-01T12:12:38.999Z</time>
      </trkpt>
      <trkpt lat="43.20061" lon="0.02783">
        <ele>323.2</ele>
        <time>2020-09-01T12:12:43.999Z</time>
      </trkpt>
      <trkpt lat="43.20071" lon="0.02761">
        <ele>323.1</ele>
        <time>2020-09-01T12:12:48.999Z</time>
      </trkpt>
      <trkpt lat="43.2008" lon="0.02743">
        <ele>323.08</ele>
        <time>2020-09-01T12:12:53.999Z</time>
      </trkpt>
      <trkpt lat="43.20088" lon="0.02727">
        <ele>323.1</ele>
        <time>2020-09-01T12:12:58.999Z</time>
      </trkpt>
      <trkpt lat="43.20096" lon="0.02713">
        <ele>323.15</ele>
        <time>2020-09-01T12:13:03.999Z</time>
      </trkpt>
      <trkpt lat="43.20102" lon="0.02699">
        <ele>323.2</ele>
        <time>2020-09-01T12:13:08.999Z</time>
      </trkpt>
      <trkpt lat="43.20104" lon="0.02684">
        <ele>323.26</ele>
        <time>2020-09-01T12:13:13.999Z</time>
      </trkpt>
      <trkpt lat="43.20104" lon="0.02667">
        <ele>323.31</ele>
        <time>2020-09-01T12:13:18.999Z</time>
      </trkpt>
      <trkpt lat="43.20102" lon="0.0265">
        <ele>323.32</ele>
        <time>2020-09-01T12:13:23.999Z</time>
      </trkpt>
      <trkpt lat="43.20105" lon="0.02635">
        <ele>323.57</ele>
        <time>2020-09-01T12:14:25.999Z</time>
      </trkpt>
      <trkpt lat="43.20107" lon="0.02615">
        <ele>324.07</ele>
        <time>2020-09-01T12:14:30.999Z</time>
      </trkpt>
      <trkpt lat="43.20107" lon="0.02603">
        <ele>325.33</ele>
        <time>2020-09-01T12:14:37.999Z</time>
      </trkpt>
      <trkpt lat="43.20108" lon="0.0259">
        <ele>326.21</ele>
        <time>2020-09-01T12:14:42.999Z</time>
      </trkpt>
      <trkpt lat="43.20102" lon="0.0258">
        <ele>327.93</ele>
        <time>2020-09-01T12:14:47.999Z</time>
      </trkpt>
      <trkpt lat="43.20101" lon="0.02558">
        <ele>328.68</ele>
        <time>2020-09-01T12:14:52.999Z</time>
      </trkpt>
      <trkpt lat="43.201" lon="0.02537">
        <ele>329</ele>
        <time>2020-09-01T12:14:57.999Z</time>
      </trkpt>
      <trkpt lat="43.20097" lon="0.02512">
        <ele>329.2</ele>
        <time>2020-09-01T12:15:02.999Z</time>
      </trkpt>
      <trkpt lat="43.20094" lon="0.02489">
        <ele>329.34</ele>
        <time>2020-09-01T12:15:07.999Z</time>
      </trkpt>
      <trkpt lat="43.20091" lon="0.02465">
        <ele>329.58</ele>
        <time>2020-09-01T12:15:12.999Z</time>
      </trkpt>
      <trkpt lat="43.20086" lon="0.02435">
        <ele>329.71</ele>
        <time>2020-09-01T12:15:17.999Z</time>
      </trkpt>
      <trkpt lat="43.20082" lon="0.02406">
        <ele>329.71</ele>
        <time>2020-09-01T12:15:22.999Z</time>
      </trkpt>
      <trkpt lat="43.20077" lon="0.02385">
        <ele>329.66</ele>
        <time>2020-09-01T12:15:27.999Z</time>
      </trkpt>
      <trkpt lat="43.20075" lon="0.02365">
        <ele>329.57</ele>
        <time>2020-09-01T12:15:32.999Z</time>
      </trkpt>
      <trkpt lat="43.20076" lon="0.02344">
        <ele>329.46</ele>
        <time>2020-09-01T12:15:37.999Z</time>
      </trkpt>
      <trkpt lat="43.20079" lon="0.02318">
        <ele>329.33</ele>
        <time>2020-09-01T12:15:42.999Z</time>
      </trkpt>
      <trkpt lat="43.20084" lon="0.02294">
        <ele>328.76</ele>
        <time>2020-09-01T12:15:47.999Z</time>
      </trkpt>
      <trkpt lat="43.2009" lon="0.02268">
        <ele>328.2</ele>
        <time>2020-09-01T12:15:52.999Z</time>
      </trkpt>
      <trkpt lat="43.20094" lon="0.02242">
        <ele>328.07</ele>
        <time>2020-09-01T12:15:57.999Z</time>
      </trkpt>
      <trkpt lat="43.201" lon="0.02217">
        <ele>328.03</ele>
        <time>2020-09-01T12:16:02.999Z</time>
      </trkpt>
      <trkpt lat="43.20107" lon="0.02189">
        <ele>327.92</ele>
        <time>2020-09-01T12:16:07.999Z</time>
      </trkpt>
      <trkpt lat="43.20114" lon="0.02163">
        <ele>328.11</ele>
        <time>2020-09-01T12:16:12.999Z</time>
      </trkpt>
      <trkpt lat="43.2012" lon="0.02135">
        <ele>328.29</ele>
        <time>2020-09-01T12:16:17.999Z</time>
      </trkpt>
      <trkpt lat="43.20124" lon="0.02108">
        <ele>328.27</ele>
        <time>2020-09-01T12:16:22.999Z</time>
      </trkpt>
      <trkpt lat="43.20125" lon="0.02085">
        <ele>328.17</ele>
        <time>2020-09-01T12:16:27.999Z</time>
      </trkpt>
      <trkpt lat="43.20121" lon="0.02066">
        <ele>328.04</ele>
        <time>2020-09-01T12:16:32.999Z</time>
      </trkpt>
      <trkpt lat="43.20117" lon="0.02043">
        <ele>327.72</ele>
        <time>2020-09-01T12:16:37.999Z</time>
      </trkpt>
      <trkpt lat="43.20113" lon="0.02021">
        <ele>327.52</ele>
        <time>2020-09-01T12:16:42.999Z</time>
      </trkpt>
      <trkpt lat="43.20108" lon="0.01997">
        <ele>327.41</ele>
        <time>2020-09-01T12:16:47.999Z</time>
      </trkpt>
      <trkpt lat="43.20103" lon="0.01976">
        <ele>327.31</ele>
        <time>2020-09-01T12:16:52.999Z</time>
      </trkpt>
      <trkpt lat="43.201" lon="0.01953">
        <ele>327.23</ele>
        <time>2020-09-01T12:16:57.999Z</time>
      </trkpt>
      <trkpt lat="43.20097" lon="0.01934">
        <ele>327.18</ele>
        <time>2020-09-01T12:17:02.999Z</time>
      </trkpt>
      <trkpt lat="43.20093" lon="0.01912">
        <ele>327.15</ele>
        <time>2020-09-01T12:17:07.999Z</time>
      </trkpt>
      <trkpt lat="43.20088" lon="0.0189">
        <ele>327.14</ele>
        <time>2020-09-01T12:17:12.999Z</time>
      </trkpt>
      <trkpt lat="43.20084" lon="0.01866">
        <ele>327.13</ele>
        <time>2020-09-01T12:17:17.999Z</time>
      </trkpt>
      <trkpt lat="43.2008" lon="0.01841">
        <ele>327.2</ele>
        <time>2020-09-01T12:17:22.999Z</time>
      </trkpt>
      <trkpt lat="43.20074" lon="0.01812">
        <ele>327.41</ele>
        <time>2020-09-01T12:17:27.999Z</time>
      </trkpt>
      <trkpt lat="43.20068" lon="0.01783">
        <ele>327.23</ele>
        <time>2020-09-01T12:17:32.999Z</time>
      </trkpt>
      <trkpt lat="43.20062" lon="0.01757">
        <ele>327.08</ele>
        <time>2020-09-01T12:17:37.999Z</time>
      </trkpt>
      <trkpt lat="43.20056" lon="0.01727">
        <ele>327.04</ele>
        <time>2020-09-01T12:17:42.999Z</time>
      </trkpt>
      <trkpt lat="43.20049" lon="0.01699">
        <ele>326.96</ele>
        <time>2020-09-01T12:17:47.999Z</time>
      </trkpt>
      <trkpt lat="43.20043" lon="0.01671">
        <ele>326.87</ele>
        <time>2020-09-01T12:17:52.999Z</time>
      </trkpt>
      <trkpt lat="43.20033" lon="0.01643">
        <ele>326.78</ele>
        <time>2020-09-01T12:17:57.999Z</time>
      </trkpt>
      <trkpt lat="43.20019" lon="0.01619">
        <ele>326.75</ele>
        <time>2020-09-01T12:18:02.999Z</time>
      </trkpt>
      <trkpt lat="43.20007" lon="0.01598">
        <ele>326.81</ele>
        <time>2020-09-01T12:18:07.999Z</time>
      </trkpt>
      <trkpt lat="43.19991" lon="0.01574">
        <ele>326.75</ele>
        <time>2020-09-01T12:18:12.999Z</time>
      </trkpt>
      <trkpt lat="43.19977" lon="0.0155">
        <ele>326.68</ele>
        <time>2020-09-01T12:18:17.999Z</time>
      </trkpt>
      <trkpt lat="43.19963" lon="0.01525">
        <ele>326.36</ele>
        <time>2020-09-01T12:18:22.999Z</time>
      </trkpt>
      <trkpt lat="43.19953" lon="0.015">
        <ele>325.95</ele>
        <time>2020-09-01T12:18:27.999Z</time>
      </trkpt>
      <trkpt lat="43.19956" lon="0.01472">
        <ele>325.61</ele>
        <time>2020-09-01T12:18:32.999Z</time>
      </trkpt>
      <trkpt lat="43.19968" lon="0.01455">
        <ele>325.58</ele>
        <time>2020-09-01T12:18:37.999Z</time>
      </trkpt>
      <trkpt lat="43.19982" lon="0.01439">
        <ele>325.56</ele>
        <time>2020-09-01T12:18:42.999Z</time>
      </trkpt>
      <trkpt lat="43.19988" lon="0.01411">
        <ele>325.85</ele>
        <time>2020-09-01T12:18:47.999Z</time>
      </trkpt>
      <trkpt lat="43.19984" lon="0.01382">
        <ele>326.13</ele>
        <time>2020-09-01T12:18:52.999Z</time>
      </trkpt>
      <trkpt lat="43.19977" lon="0.01351">
        <ele>326.27</ele>
        <time>2020-09-01T12:18:57.999Z</time>
      </trkpt>
      <trkpt lat="43.19972" lon="0.01322">
        <ele>326.23</ele>
        <time>2020-09-01T12:19:02.999Z</time>
      </trkpt>
      <trkpt lat="43.19967" lon="0.01293">
        <ele>326.13</ele>
        <time>2020-09-01T12:19:07.999Z</time>
      </trkpt>
      <trkpt lat="43.1996" lon="0.01263">
        <ele>326.13</ele>
        <time>2020-09-01T12:19:12.999Z</time>
      </trkpt>
      <trkpt lat="43.19955" lon="0.01236">
        <ele>326.18</ele>
        <time>2020-09-01T12:19:17.999Z</time>
      </trkpt>
      <trkpt lat="43.19949" lon="0.01208">
        <ele>326.34</ele>
        <time>2020-09-01T12:19:22.999Z</time>
      </trkpt>
      <trkpt lat="43.19945" lon="0.0118">
        <ele>326.6</ele>
        <time>2020-09-01T12:19:27.999Z</time>
      </trkpt>
      <trkpt lat="43.1994" lon="0.01154">
        <ele>326.75</ele>
        <time>2020-09-01T12:19:32.999Z</time>
      </trkpt>
      <trkpt lat="43.19934" lon="0.01126">
        <ele>326.96</ele>
        <time>2020-09-01T12:19:37.999Z</time>
      </trkpt>
      <trkpt lat="43.19929" lon="0.01098">
        <ele>327.03</ele>
        <time>2020-09-01T12:19:42.999Z</time>
      </trkpt>
      <trkpt lat="43.19923" lon="0.01071">
        <ele>327.07</ele>
        <time>2020-09-01T12:19:47.999Z</time>
      </trkpt>
      <trkpt lat="43.19917" lon="0.01043">
        <ele>327.21</ele>
        <time>2020-09-01T12:19:53.000Z</time>
      </trkpt>
      <trkpt lat="43.19913" lon="0.01021">
        <ele>327.23</ele>
        <time>2020-09-01T12:19:58.000Z</time>
      </trkpt>
      <trkpt lat="43.19908" lon="0.01004">
        <ele>327.27</ele>
        <time>2020-09-01T12:20:03.000Z</time>
      </trkpt>
      <trkpt lat="43.19903" lon="0.00991">
        <ele>327.33</ele>
        <time>2020-09-01T12:20:08.000Z</time>
      </trkpt>
      <trkpt lat="43.19898" lon="0.00981">
        <ele>327.42</ele>
        <time>2020-09-01T12:20:14.000Z</time>
      </trkpt>
      <trkpt lat="43.19889" lon="0.00972">
        <ele>327.53</ele>
        <time>2020-09-01T12:20:20.000Z</time>
      </trkpt>
      <trkpt lat="43.1988" lon="0.00966">
        <ele>327.63</ele>
        <time>2020-09-01T12:20:25.000Z</time>
      </trkpt>
      <trkpt lat="43.19872" lon="0.0096">
        <ele>327.75</ele>
        <time>2020-09-01T12:20:30.000Z</time>
      </trkpt>
      <trkpt lat="43.19863" lon="0.00954">
        <ele>327.88</ele>
        <time>2020-09-01T12:20:35.000Z</time>
      </trkpt>
      <trkpt lat="43.19854" lon="0.00949">
        <ele>328.01</ele>
        <time>2020-09-01T12:20:40.000Z</time>
      </trkpt>
      <trkpt lat="43.19844" lon="0.00943">
        <ele>328.19</ele>
        <time>2020-09-01T12:20:46.000Z</time>
      </trkpt>
      <trkpt lat="43.19835" lon="0.00939">
        <ele>328.37</ele>
        <time>2020-09-01T12:20:52.000Z</time>
      </trkpt>
      <trkpt lat="43.19825" lon="0.00933">
        <ele>328.51</ele>
        <time>2020-09-01T12:20:57.000Z</time>
      </trkpt>
      <trkpt lat="43.19817" lon="0.00928">
        <ele>328.64</ele>
        <time>2020-09-01T12:21:02.000Z</time>
      </trkpt>
      <trkpt lat="43.19808" lon="0.00924">
        <ele>328.81</ele>
        <time>2020-09-01T12:21:08.000Z</time>
      </trkpt>
      <trkpt lat="43.19799" lon="0.00917">
        <ele>328.97</ele>
        <time>2020-09-01T12:21:14.000Z</time>
      </trkpt>
      <trkpt lat="43.19791" lon="0.0091">
        <ele>329.14</ele>
        <time>2020-09-01T12:21:20.000Z</time>
      </trkpt>
      <trkpt lat="43.19784" lon="0.009">
        <ele>329.32</ele>
        <time>2020-09-01T12:21:26.000Z</time>
      </trkpt>
      <trkpt lat="43.19777" lon="0.0089">
        <ele>329.5</ele>
        <time>2020-09-01T12:21:32.000Z</time>
      </trkpt>
      <trkpt lat="43.19771" lon="0.00878">
        <ele>329.69</ele>
        <time>2020-09-01T12:21:38.000Z</time>
      </trkpt>
      <trkpt lat="43.19765" lon="0.00868">
        <ele>329.89</ele>
        <time>2020-09-01T12:21:44.000Z</time>
      </trkpt>
      <trkpt lat="43.19758" lon="0.00857">
        <ele>330.08</ele>
        <time>2020-09-01T12:21:50.000Z</time>
      </trkpt>
      <trkpt lat="43.19753" lon="0.00846">
        <ele>330.27</ele>
        <time>2020-09-01T12:21:56.000Z</time>
      </trkpt>
      <trkpt lat="43.19747" lon="0.00836">
        <ele>330.42</ele>
        <time>2020-09-01T12:22:01.000Z</time>
      </trkpt>
      <trkpt lat="43.19742" lon="0.00823">
        <ele>330.56</ele>
        <time>2020-09-01T12:22:06.000Z</time>
      </trkpt>
      <trkpt lat="43.19736" lon="0.00811">
        <ele>330.7</ele>
        <time>2020-09-01T12:22:11.000Z</time>
      </trkpt>
      <trkpt lat="43.19729" lon="0.00798">
        <ele>330.84</ele>
        <time>2020-09-01T12:22:16.000Z</time>
      </trkpt>
      <trkpt lat="43.19722" lon="0.0078">
        <ele>330.96</ele>
        <time>2020-09-01T12:22:21.000Z</time>
      </trkpt>
      <trkpt lat="43.19718" lon="0.00766">
        <ele>331.08</ele>
        <time>2020-09-01T12:22:26.000Z</time>
      </trkpt>
      <trkpt lat="43.19711" lon="0.00746">
        <ele>331.2</ele>
        <time>2020-09-01T12:22:31.000Z</time>
      </trkpt>
      <trkpt lat="43.19706" lon="0.00727">
        <ele>331.31</ele>
        <time>2020-09-01T12:22:36.000Z</time>
      </trkpt>
      <trkpt lat="43.19702" lon="0.00709">
        <ele>331.43</ele>
        <time>2020-09-01T12:22:41.000Z</time>
      </trkpt>
      <trkpt lat="43.19698" lon="0.00692">
        <ele>331.55</ele>
        <time>2020-09-01T12:22:46.000Z</time>
      </trkpt>
      <trkpt lat="43.19695" lon="0.00675">
        <ele>331.66</ele>
        <time>2020-09-01T12:22:51.000Z</time>
      </trkpt>
      <trkpt lat="43.19692" lon="0.00661">
        <ele>331.78</ele>
        <time>2020-09-01T12:22:56.000Z</time>
      </trkpt>
      <trkpt lat="43.1969" lon="0.00648">
        <ele>331.89</ele>
        <time>2020-09-01T12:23:01.000Z</time>
      </trkpt>
      <trkpt lat="43.19689" lon="0.00635">
        <ele>332.01</ele>
        <time>2020-09-01T12:23:06.000Z</time>
      </trkpt>
      <trkpt lat="43.19687" lon="0.00623">
        <ele>332.13</ele>
        <time>2020-09-01T12:23:11.000Z</time>
      </trkpt>
      <trkpt lat="43.19686" lon="0.0061">
        <ele>332.25</ele>
        <time>2020-09-01T12:23:16.000Z</time>
      </trkpt>
      <trkpt lat="43.19684" lon="0.00596">
        <ele>332.39</ele>
        <time>2020-09-01T12:23:22.000Z</time>
      </trkpt>
      <trkpt lat="43.19683" lon="0.00582">
        <ele>332.51</ele>
        <time>2020-09-01T12:23:27.000Z</time>
      </trkpt>
      <trkpt lat="43.19682" lon="0.00566">
        <ele>332.63</ele>
        <time>2020-09-01T12:23:32.000Z</time>
      </trkpt>
      <trkpt lat="43.19685" lon="0.0055">
        <ele>332.75</ele>
        <time>2020-09-01T12:23:37.000Z</time>
      </trkpt>
      <trkpt lat="43.19689" lon="0.00532">
        <ele>332.87</ele>
        <time>2020-09-01T12:23:42.000Z</time>
      </trkpt>
      <trkpt lat="43.1968" lon="0.00515">
        <ele>332.99</ele>
        <time>2020-09-01T12:23:47.000Z</time>
      </trkpt>
      <trkpt lat="43.1967" lon="0.00498">
        <ele>333.11</ele>
        <time>2020-09-01T12:23:52.000Z</time>
      </trkpt>
      <trkpt lat="43.19664" lon="0.00475">
        <ele>333.73</ele>
        <time>2020-09-01T12:23:57.000Z</time>
      </trkpt>
      <trkpt lat="43.19658" lon="0.0045">
        <ele>333.96</ele>
        <time>2020-09-01T12:24:02.000Z</time>
      </trkpt>
      <trkpt lat="43.19653" lon="0.00426">
        <ele>334.03</ele>
        <time>2020-09-01T12:24:07.000Z</time>
      </trkpt>
      <trkpt lat="43.19646" lon="0.00401">
        <ele>334.26</ele>
        <time>2020-09-01T12:24:12.000Z</time>
      </trkpt>
      <trkpt lat="43.1964" lon="0.00374">
        <ele>334.59</ele>
        <time>2020-09-01T12:24:17.000Z</time>
      </trkpt>
      <trkpt lat="43.19633" lon="0.00347">
        <ele>334.76</ele>
        <time>2020-09-01T12:24:22.000Z</time>
      </trkpt>
      <trkpt lat="43.19626" lon="0.00319">
        <ele>334.86</ele>
        <time>2020-09-01T12:24:27.000Z</time>
      </trkpt>
      <trkpt lat="43.19621" lon="0.0029">
        <ele>334.97</ele>
        <time>2020-09-01T12:24:32.000Z</time>
      </trkpt>
      <trkpt lat="43.19615" lon="0.00261">
        <ele>335.08</ele>
        <time>2020-09-01T12:24:37.000Z</time>
      </trkpt>
      <trkpt lat="43.19609" lon="0.00232">
        <ele>335.19</ele>
        <time>2020-09-01T12:24:42.000Z</time>
      </trkpt>
      <trkpt lat="43.19603" lon="0.00204">
        <ele>335.27</ele>
        <time>2020-09-01T12:24:47.000Z</time>
      </trkpt>
      <trkpt lat="43.19596" lon="0.00176">
        <ele>335.35</ele>
        <time>2020-09-01T12:24:52.000Z</time>
      </trkpt>
      <trkpt lat="43.1959" lon="0.00149">
        <ele>335.43</ele>
        <time>2020-09-01T12:24:57.000Z</time>
      </trkpt>
      <trkpt lat="43.19585" lon="0.00122">
        <ele>335.52</ele>
        <time>2020-09-01T12:25:02.000Z</time>
      </trkpt>
      <trkpt lat="43.19579" lon="0.00094">
        <ele>335.6</ele>
        <time>2020-09-01T12:25:07.000Z</time>
      </trkpt>
      <trkpt lat="43.19574" lon="0.00069">
        <ele>335.7</ele>
        <time>2020-09-01T12:25:12.000Z</time>
      </trkpt>
      <trkpt lat="43.19568" lon="0.00043">
        <ele>335.78</ele>
        <time>2020-09-01T12:25:17.000Z</time>
      </trkpt>
      <trkpt lat="43.19563" lon="0.00018">
        <ele>335.87</ele>
        <time>2020-09-01T12:25:22.000Z</time>
      </trkpt>
      <trkpt lat="43.19557" lon="-7.0E-5">
        <ele>334.52</ele>
        <time>2020-09-01T12:25:27.000Z</time>
      </trkpt>
      <trkpt lat="43.19551" lon="-0.00034">
        <ele>334.49</ele>
        <time>2020-09-01T12:25:32.000Z</time>
      </trkpt>
      <trkpt lat="43.19546" lon="-0.00058">
        <ele>334.5</ele>
        <time>2020-09-01T12:25:37.000Z</time>
      </trkpt>
      <trkpt lat="43.19541" lon="-0.00082">
        <ele>334.52</ele>
        <time>2020-09-01T12:25:42.000Z</time>
      </trkpt>
      <trkpt lat="43.19535" lon="-0.00105">
        <ele>334.54</ele>
        <time>2020-09-01T12:25:47.000Z</time>
      </trkpt>
      <trkpt lat="43.19531" lon="-0.00127">
        <ele>334.57</ele>
        <time>2020-09-01T12:25:52.000Z</time>
      </trkpt>
      <trkpt lat="43.19526" lon="-0.00149">
        <ele>334.6</ele>
        <time>2020-09-01T12:25:57.000Z</time>
      </trkpt>
      <trkpt lat="43.19521" lon="-0.00172">
        <ele>334.65</ele>
        <time>2020-09-01T12:26:02.000Z</time>
      </trkpt>
      <trkpt lat="43.19515" lon="-0.00197">
        <ele>334.77</ele>
        <time>2020-09-01T12:26:07.000Z</time>
      </trkpt>
      <trkpt lat="43.19509" lon="-0.00224">
        <ele>335.08</ele>
        <time>2020-09-01T12:26:12.000Z</time>
      </trkpt>
      <trkpt lat="43.19502" lon="-0.00254">
        <ele>335.24</ele>
        <time>2020-09-01T12:26:17.000Z</time>
      </trkpt>
      <trkpt lat="43.19496" lon="-0.00282">
        <ele>335.36</ele>
        <time>2020-09-01T12:26:22.000Z</time>
      </trkpt>
      <trkpt lat="43.1949" lon="-0.0031">
        <ele>335.48</ele>
        <time>2020-09-01T12:26:27.000Z</time>
      </trkpt>
      <trkpt lat="43.19485" lon="-0.00336">
        <ele>335.57</ele>
        <time>2020-09-01T12:26:32.000Z</time>
      </trkpt>
      <trkpt lat="43.19479" lon="-0.00364">
        <ele>335.66</ele>
        <time>2020-09-01T12:26:37.000Z</time>
      </trkpt>
      <trkpt lat="43.19473" lon="-0.00391">
        <ele>335.74</ele>
        <time>2020-09-01T12:26:42.000Z</time>
      </trkpt>
      <trkpt lat="43.19467" lon="-0.00419">
        <ele>335.84</ele>
        <time>2020-09-01T12:26:47.000Z</time>
      </trkpt>
      <trkpt lat="43.1946" lon="-0.00446">
        <ele>335.92</ele>
        <time>2020-09-01T12:26:52.000Z</time>
      </trkpt>
      <trkpt lat="43.19455" lon="-0.00472">
        <ele>336</ele>
        <time>2020-09-01T12:26:57.000Z</time>
      </trkpt>
      <trkpt lat="43.19449" lon="-0.00498">
        <ele>336.07</ele>
        <time>2020-09-01T12:27:02.000Z</time>
      </trkpt>
      <trkpt lat="43.19443" lon="-0.00526">
        <ele>336.14</ele>
        <time>2020-09-01T12:27:07.000Z</time>
      </trkpt>
      <trkpt lat="43.19437" lon="-0.00554">
        <ele>336.22</ele>
        <time>2020-09-01T12:27:12.000Z</time>
      </trkpt>
      <trkpt lat="43.19431" lon="-0.0058">
        <ele>336.29</ele>
        <time>2020-09-01T12:27:17.000Z</time>
      </trkpt>
      <trkpt lat="43.19425" lon="-0.00609">
        <ele>336.35</ele>
        <time>2020-09-01T12:27:22.000Z</time>
      </trkpt>
      <trkpt lat="43.19418" lon="-0.00638">
        <ele>336.43</ele>
        <time>2020-09-01T12:27:27.000Z</time>
      </trkpt>
      <trkpt lat="43.19412" lon="-0.00667">
        <ele>336.5</ele>
        <time>2020-09-01T12:27:32.000Z</time>
      </trkpt>
      <trkpt lat="43.19405" lon="-0.00696">
        <ele>336.57</ele>
        <time>2020-09-01T12:27:37.000Z</time>
      </trkpt>
      <trkpt lat="43.19399" lon="-0.00725">
        <ele>336.65</ele>
        <time>2020-09-01T12:27:42.000Z</time>
      </trkpt>
      <trkpt lat="43.19393" lon="-0.00754">
        <ele>336.72</ele>
        <time>2020-09-01T12:27:47.000Z</time>
      </trkpt>
      <trkpt lat="43.19386" lon="-0.00783">
        <ele>336.79</ele>
        <time>2020-09-01T12:27:52.000Z</time>
      </trkpt>
      <trkpt lat="43.1938" lon="-0.00814">
        <ele>336.87</ele>
        <time>2020-09-01T12:27:57.000Z</time>
      </trkpt>
      <trkpt lat="43.19373" lon="-0.00844">
        <ele>336.95</ele>
        <time>2020-09-01T12:28:02.000Z</time>
      </trkpt>
      <trkpt lat="43.19367" lon="-0.00875">
        <ele>337.02</ele>
        <time>2020-09-01T12:28:07.000Z</time>
      </trkpt>
      <trkpt lat="43.1936" lon="-0.00907">
        <ele>337.09</ele>
        <time>2020-09-01T12:28:12.000Z</time>
      </trkpt>
      <trkpt lat="43.19354" lon="-0.00938">
        <ele>337.17</ele>
        <time>2020-09-01T12:28:17.000Z</time>
      </trkpt>
      <trkpt lat="43.19347" lon="-0.00967">
        <ele>337.23</ele>
        <time>2020-09-01T12:28:22.000Z</time>
      </trkpt>
      <trkpt lat="43.19341" lon="-0.00998">
        <ele>337.31</ele>
        <time>2020-09-01T12:28:27.000Z</time>
      </trkpt>
      <trkpt lat="43.19335" lon="-0.01029">
        <ele>337.38</ele>
        <time>2020-09-01T12:28:32.000Z</time>
      </trkpt>
      <trkpt lat="43.19329" lon="-0.01059">
        <ele>337.45</ele>
        <time>2020-09-01T12:28:37.000Z</time>
      </trkpt>
      <trkpt lat="43.19322" lon="-0.0109">
        <ele>337.55</ele>
        <time>2020-09-01T12:28:42.000Z</time>
      </trkpt>
      <trkpt lat="43.19316" lon="-0.0112">
        <ele>337.62</ele>
        <time>2020-09-01T12:28:47.000Z</time>
      </trkpt>
      <trkpt lat="43.19309" lon="-0.01151">
        <ele>337.68</ele>
        <time>2020-09-01T12:28:52.000Z</time>
      </trkpt>
      <trkpt lat="43.19303" lon="-0.0118">
        <ele>337.72</ele>
        <time>2020-09-01T12:28:57.000Z</time>
      </trkpt>
      <trkpt lat="43.19295" lon="-0.01209">
        <ele>337.79</ele>
        <time>2020-09-01T12:29:02.000Z</time>
      </trkpt>
      <trkpt lat="43.19288" lon="-0.01237">
        <ele>337.85</ele>
        <time>2020-09-01T12:29:07.000Z</time>
      </trkpt>
      <trkpt lat="43.19281" lon="-0.01267">
        <ele>337.89</ele>
        <time>2020-09-01T12:29:12.000Z</time>
      </trkpt>
      <trkpt lat="43.19275" lon="-0.01295">
        <ele>337.95</ele>
        <time>2020-09-01T12:29:17.000Z</time>
      </trkpt>
      <trkpt lat="43.19268" lon="-0.01325">
        <ele>338.04</ele>
        <time>2020-09-01T12:29:22.000Z</time>
      </trkpt>
      <trkpt lat="43.19262" lon="-0.01353">
        <ele>338.1</ele>
        <time>2020-09-01T12:29:27.000Z</time>
      </trkpt>
      <trkpt lat="43.19256" lon="-0.01381">
        <ele>338.15</ele>
        <time>2020-09-01T12:29:32.000Z</time>
      </trkpt>
      <trkpt lat="43.19251" lon="-0.01408">
        <ele>338.2</ele>
        <time>2020-09-01T12:29:37.000Z</time>
      </trkpt>
      <trkpt lat="43.19245" lon="-0.01436">
        <ele>338.24</ele>
        <time>2020-09-01T12:29:42.000Z</time>
      </trkpt>
      <trkpt lat="43.19239" lon="-0.01464">
        <ele>338.3</ele>
        <time>2020-09-01T12:29:47.000Z</time>
      </trkpt>
      <trkpt lat="43.19233" lon="-0.01491">
        <ele>338.35</ele>
        <time>2020-09-01T12:29:52.000Z</time>
      </trkpt>
      <trkpt lat="43.19226" lon="-0.01522">
        <ele>338.42</ele>
        <time>2020-09-01T12:29:57.000Z</time>
      </trkpt>
      <trkpt lat="43.1922" lon="-0.01551">
        <ele>338.48</ele>
        <time>2020-09-01T12:30:02.000Z</time>
      </trkpt>
      <trkpt lat="43.19213" lon="-0.01581">
        <ele>338.54</ele>
        <time>2020-09-01T12:30:07.000Z</time>
      </trkpt>
      <trkpt lat="43.19206" lon="-0.01611">
        <ele>338.58</ele>
        <time>2020-09-01T12:30:12.000Z</time>
      </trkpt>
      <trkpt lat="43.192" lon="-0.01642">
        <ele>338.64</ele>
        <time>2020-09-01T12:30:17.000Z</time>
      </trkpt>
      <trkpt lat="43.19194" lon="-0.0167">
        <ele>338.7</ele>
        <time>2020-09-01T12:30:22.000Z</time>
      </trkpt>
      <trkpt lat="43.19187" lon="-0.01697">
        <ele>338.83</ele>
        <time>2020-09-01T12:30:27.000Z</time>
      </trkpt>
      <trkpt lat="43.19182" lon="-0.01725">
        <ele>338.92</ele>
        <time>2020-09-01T12:30:32.000Z</time>
      </trkpt>
      <trkpt lat="43.19175" lon="-0.01755">
        <ele>338.98</ele>
        <time>2020-09-01T12:30:37.000Z</time>
      </trkpt>
      <trkpt lat="43.19168" lon="-0.01786">
        <ele>339.03</ele>
        <time>2020-09-01T12:30:42.000Z</time>
      </trkpt>
      <trkpt lat="43.19161" lon="-0.01816">
        <ele>339.11</ele>
        <time>2020-09-01T12:30:47.000Z</time>
      </trkpt>
      <trkpt lat="43.19154" lon="-0.01846">
        <ele>339.18</ele>
        <time>2020-09-01T12:30:52.000Z</time>
      </trkpt>
      <trkpt lat="43.19147" lon="-0.01876">
        <ele>339.35</ele>
        <time>2020-09-01T12:30:57.000Z</time>
      </trkpt>
      <trkpt lat="43.1914" lon="-0.01904">
        <ele>339.56</ele>
        <time>2020-09-01T12:31:02.000Z</time>
      </trkpt>
      <trkpt lat="43.19136" lon="-0.01931">
        <ele>339.69</ele>
        <time>2020-09-01T12:31:07.000Z</time>
      </trkpt>
      <trkpt lat="43.19129" lon="-0.01959">
        <ele>339.76</ele>
        <time>2020-09-01T12:31:12.000Z</time>
      </trkpt>
      <trkpt lat="43.19121" lon="-0.01987">
        <ele>339.82</ele>
        <time>2020-09-01T12:31:17.000Z</time>
      </trkpt>
      <trkpt lat="43.19121" lon="-0.02015">
        <ele>339.9</ele>
        <time>2020-09-01T12:31:22.000Z</time>
      </trkpt>
      <trkpt lat="43.19112" lon="-0.02041">
        <ele>340</ele>
        <time>2020-09-01T12:31:27.000Z</time>
      </trkpt>
      <trkpt lat="43.19107" lon="-0.02069">
        <ele>340.06</ele>
        <time>2020-09-01T12:31:32.000Z</time>
      </trkpt>
      <trkpt lat="43.19102" lon="-0.02096">
        <ele>340.15</ele>
        <time>2020-09-01T12:31:37.000Z</time>
      </trkpt>
      <trkpt lat="43.19096" lon="-0.02123">
        <ele>340.23</ele>
        <time>2020-09-01T12:31:42.000Z</time>
      </trkpt>
      <trkpt lat="43.19088" lon="-0.02151">
        <ele>340.36</ele>
        <time>2020-09-01T12:31:47.000Z</time>
      </trkpt>
      <trkpt lat="43.19075" lon="-0.02179">
        <ele>340.43</ele>
        <time>2020-09-01T12:31:52.000Z</time>
      </trkpt>
      <trkpt lat="43.19058" lon="-0.02204">
        <ele>340.49</ele>
        <time>2020-09-01T12:31:57.000Z</time>
      </trkpt>
      <trkpt lat="43.19039" lon="-0.02225">
        <ele>340.53</ele>
        <time>2020-09-01T12:32:02.000Z</time>
      </trkpt>
      <trkpt lat="43.19019" lon="-0.02239">
        <ele>340.58</ele>
        <time>2020-09-01T12:32:06.999Z</time>
      </trkpt>
      <trkpt lat="43.18997" lon="-0.0225">
        <ele>340.64</ele>
        <time>2020-09-01T12:32:11.999Z</time>
      </trkpt>
      <trkpt lat="43.18975" lon="-0.02261">
        <ele>340.72</ele>
        <time>2020-09-01T12:32:16.999Z</time>
      </trkpt>
      <trkpt lat="43.18953" lon="-0.02271">
        <ele>340.78</ele>
        <time>2020-09-01T12:32:21.999Z</time>
      </trkpt>
      <trkpt lat="43.18935" lon="-0.02281">
        <ele>340.87</ele>
        <time>2020-09-01T12:32:26.999Z</time>
      </trkpt>
      <trkpt lat="43.18914" lon="-0.02291">
        <ele>340.97</ele>
        <time>2020-09-01T12:32:31.999Z</time>
      </trkpt>
      <trkpt lat="43.18895" lon="-0.02301">
        <ele>341.05</ele>
        <time>2020-09-01T12:32:36.999Z</time>
      </trkpt>
      <trkpt lat="43.18876" lon="-0.02311">
        <ele>341.14</ele>
        <time>2020-09-01T12:32:41.999Z</time>
      </trkpt>
      <trkpt lat="43.18857" lon="-0.02319">
        <ele>341.22</ele>
        <time>2020-09-01T12:32:46.999Z</time>
      </trkpt>
      <trkpt lat="43.18838" lon="-0.02328">
        <ele>341.3</ele>
        <time>2020-09-01T12:32:51.999Z</time>
      </trkpt>
      <trkpt lat="43.1882" lon="-0.02339">
        <ele>341.34</ele>
        <time>2020-09-01T12:32:56.999Z</time>
      </trkpt>
      <trkpt lat="43.18801" lon="-0.0235">
        <ele>341.42</ele>
        <time>2020-09-01T12:33:01.999Z</time>
      </trkpt>
      <trkpt lat="43.18781" lon="-0.02358">
        <ele>341.51</ele>
        <time>2020-09-01T12:33:06.999Z</time>
      </trkpt>
      <trkpt lat="43.18761" lon="-0.02368">
        <ele>341.6</ele>
        <time>2020-09-01T12:33:11.999Z</time>
      </trkpt>
      <trkpt lat="43.18745" lon="-0.0238">
        <ele>341.63</ele>
        <time>2020-09-01T12:33:16.999Z</time>
      </trkpt>
      <trkpt lat="43.1873" lon="-0.02394">
        <ele>341.65</ele>
        <time>2020-09-01T12:33:21.999Z</time>
      </trkpt>
      <trkpt lat="43.18716" lon="-0.02408">
        <ele>341.66</ele>
        <time>2020-09-01T12:33:26.999Z</time>
      </trkpt>
      <trkpt lat="43.18701" lon="-0.02421">
        <ele>341.69</ele>
        <time>2020-09-01T12:33:31.999Z</time>
      </trkpt>
      <trkpt lat="43.18685" lon="-0.02433">
        <ele>341.72</ele>
        <time>2020-09-01T12:33:36.999Z</time>
      </trkpt>
      <trkpt lat="43.1867" lon="-0.02447">
        <ele>341.78</ele>
        <time>2020-09-01T12:33:41.999Z</time>
      </trkpt>
      <trkpt lat="43.18655" lon="-0.02464">
        <ele>341.85</ele>
        <time>2020-09-01T12:33:46.999Z</time>
      </trkpt>
      <trkpt lat="43.1864" lon="-0.02479">
        <ele>341.89</ele>
        <time>2020-09-01T12:33:51.999Z</time>
      </trkpt>
      <trkpt lat="43.18625" lon="-0.02495">
        <ele>341.94</ele>
        <time>2020-09-01T12:33:56.999Z</time>
      </trkpt>
      <trkpt lat="43.18612" lon="-0.02511">
        <ele>341.98</ele>
        <time>2020-09-01T12:34:01.999Z</time>
      </trkpt>
      <trkpt lat="43.18598" lon="-0.02526">
        <ele>342</ele>
        <time>2020-09-01T12:34:06.999Z</time>
      </trkpt>
      <trkpt lat="43.18584" lon="-0.0254">
        <ele>342.08</ele>
        <time>2020-09-01T12:34:11.999Z</time>
      </trkpt>
      <trkpt lat="43.1857" lon="-0.02554">
        <ele>342.1</ele>
        <time>2020-09-01T12:34:16.999Z</time>
      </trkpt>
      <trkpt lat="43.18555" lon="-0.02569">
        <ele>342.14</ele>
        <time>2020-09-01T12:34:21.999Z</time>
      </trkpt>
      <trkpt lat="43.18541" lon="-0.02581">
        <ele>342.19</ele>
        <time>2020-09-01T12:34:26.999Z</time>
      </trkpt>
      <trkpt lat="43.18528" lon="-0.02591">
        <ele>342.25</ele>
        <time>2020-09-01T12:34:31.999Z</time>
      </trkpt>
      <trkpt lat="43.18533" lon="-0.02603">
        <ele>342.63</ele>
        <time>2020-09-01T12:34:54.999Z</time>
      </trkpt>
      <trkpt lat="43.18539" lon="-0.02625">
        <ele>343.25</ele>
        <time>2020-09-01T12:34:59.999Z</time>
      </trkpt>
      <trkpt lat="43.18543" lon="-0.0265">
        <ele>343.89</ele>
        <time>2020-09-01T12:35:04.999Z</time>
      </trkpt>
      <trkpt lat="43.18538" lon="-0.02674">
        <ele>344.3</ele>
        <time>2020-09-01T12:35:09.999Z</time>
      </trkpt>
      <trkpt lat="43.18529" lon="-0.02695">
        <ele>344.51</ele>
        <time>2020-09-01T12:35:14.999Z</time>
      </trkpt>
      <trkpt lat="43.18524" lon="-0.0272">
        <ele>344.73</ele>
        <time>2020-09-01T12:35:19.999Z</time>
      </trkpt>
      <trkpt lat="43.18513" lon="-0.02743">
        <ele>344.96</ele>
        <time>2020-09-01T12:35:24.999Z</time>
      </trkpt>
      <trkpt lat="43.185" lon="-0.02765">
        <ele>345.02</ele>
        <time>2020-09-01T12:35:29.999Z</time>
      </trkpt>
      <trkpt lat="43.18484" lon="-0.02782">
        <ele>345.09</ele>
        <time>2020-09-01T12:35:34.999Z</time>
      </trkpt>
      <trkpt lat="43.18473" lon="-0.02799">
        <ele>345.11</ele>
        <time>2020-09-01T12:35:39.999Z</time>
      </trkpt>
      <trkpt lat="43.1846" lon="-0.02816">
        <ele>345.22</ele>
        <time>2020-09-01T12:35:44.999Z</time>
      </trkpt>
      <trkpt lat="43.18445" lon="-0.02832">
        <ele>345.28</ele>
        <time>2020-09-01T12:35:49.999Z</time>
      </trkpt>
      <trkpt lat="43.18429" lon="-0.0285">
        <ele>345.36</ele>
        <time>2020-09-01T12:35:54.999Z</time>
      </trkpt>
      <trkpt lat="43.18416" lon="-0.02866">
        <ele>345.68</ele>
        <time>2020-09-01T12:35:59.999Z</time>
      </trkpt>
      <trkpt lat="43.18405" lon="-0.02886">
        <ele>346.18</ele>
        <time>2020-09-01T12:36:04.999Z</time>
      </trkpt>
      <trkpt lat="43.18407" lon="-0.02913">
        <ele>346.86</ele>
        <time>2020-09-01T12:36:09.999Z</time>
      </trkpt>
      <trkpt lat="43.18412" lon="-0.02939">
        <ele>347.05</ele>
        <time>2020-09-01T12:36:14.999Z</time>
      </trkpt>
      <trkpt lat="43.18419" lon="-0.02966">
        <ele>347.48</ele>
        <time>2020-09-01T12:36:19.999Z</time>
      </trkpt>
      <trkpt lat="43.18429" lon="-0.0299">
        <ele>347.96</ele>
        <time>2020-09-01T12:36:24.999Z</time>
      </trkpt>
      <trkpt lat="43.18444" lon="-0.0301">
        <ele>348.44</ele>
        <time>2020-09-01T12:36:29.999Z</time>
      </trkpt>
      <trkpt lat="43.18457" lon="-0.03029">
        <ele>348.75</ele>
        <time>2020-09-01T12:36:34.999Z</time>
      </trkpt>
      <trkpt lat="43.18469" lon="-0.03049">
        <ele>348.85</ele>
        <time>2020-09-01T12:36:39.999Z</time>
      </trkpt>
      <trkpt lat="43.18479" lon="-0.03069">
        <ele>348.96</ele>
        <time>2020-09-01T12:36:44.999Z</time>
      </trkpt>
      <trkpt lat="43.18488" lon="-0.03088">
        <ele>349.08</ele>
        <time>2020-09-01T12:36:49.999Z</time>
      </trkpt>
      <trkpt lat="43.18498" lon="-0.03106">
        <ele>349.22</ele>
        <time>2020-09-01T12:36:54.999Z</time>
      </trkpt>
      <trkpt lat="43.18507" lon="-0.03122">
        <ele>349.37</ele>
        <time>2020-09-01T12:36:59.999Z</time>
      </trkpt>
      <trkpt lat="43.18516" lon="-0.0314">
        <ele>349.54</ele>
        <time>2020-09-01T12:37:04.999Z</time>
      </trkpt>
      <trkpt lat="43.18526" lon="-0.03158">
        <ele>349.73</ele>
        <time>2020-09-01T12:37:09.999Z</time>
      </trkpt>
      <trkpt lat="43.18535" lon="-0.03176">
        <ele>349.93</ele>
        <time>2020-09-01T12:37:14.999Z</time>
      </trkpt>
      <trkpt lat="43.18543" lon="-0.03192">
        <ele>350.15</ele>
        <time>2020-09-01T12:37:19.999Z</time>
      </trkpt>
      <trkpt lat="43.18552" lon="-0.03209">
        <ele>350.37</ele>
        <time>2020-09-01T12:37:24.999Z</time>
      </trkpt>
      <trkpt lat="43.1856" lon="-0.03226">
        <ele>350.59</ele>
        <time>2020-09-01T12:37:29.999Z</time>
      </trkpt>
      <trkpt lat="43.18568" lon="-0.03239">
        <ele>350.82</ele>
        <time>2020-09-01T12:37:34.999Z</time>
      </trkpt>
      <trkpt lat="43.18575" lon="-0.03255">
        <ele>351.06</ele>
        <time>2020-09-01T12:37:39.999Z</time>
      </trkpt>
      <trkpt lat="43.18582" lon="-0.03269">
        <ele>351.3</ele>
        <time>2020-09-01T12:37:44.999Z</time>
      </trkpt>
      <trkpt lat="43.18589" lon="-0.0328">
        <ele>351.54</ele>
        <time>2020-09-01T12:37:49.999Z</time>
      </trkpt>
      <trkpt lat="43.18598" lon="-0.03292">
        <ele>351.78</ele>
        <time>2020-09-01T12:37:54.999Z</time>
      </trkpt>
      <trkpt lat="43.18605" lon="-0.03302">
        <ele>352.02</ele>
        <time>2020-09-01T12:37:59.999Z</time>
      </trkpt>
      <trkpt lat="43.18611" lon="-0.03312">
        <ele>352.3</ele>
        <time>2020-09-01T12:38:05.999Z</time>
      </trkpt>
      <trkpt lat="43.18617" lon="-0.03324">
        <ele>352.52</ele>
        <time>2020-09-01T12:38:10.999Z</time>
      </trkpt>
      <trkpt lat="43.18625" lon="-0.03336">
        <ele>352.74</ele>
        <time>2020-09-01T12:38:15.999Z</time>
      </trkpt>
      <trkpt lat="43.1863" lon="-0.03349">
        <ele>352.95</ele>
        <time>2020-09-01T12:38:20.999Z</time>
      </trkpt>
      <trkpt lat="43.18636" lon="-0.03359">
        <ele>353.16</ele>
        <time>2020-09-01T12:38:25.999Z</time>
      </trkpt>
      <trkpt lat="43.18643" lon="-0.0337">
        <ele>353.36</ele>
        <time>2020-09-01T12:38:30.999Z</time>
      </trkpt>
      <trkpt lat="43.1865" lon="-0.03383">
        <ele>353.56</ele>
        <time>2020-09-01T12:38:35.999Z</time>
      </trkpt>
      <trkpt lat="43.18658" lon="-0.03396">
        <ele>353.76</ele>
        <time>2020-09-01T12:38:40.999Z</time>
      </trkpt>
      <trkpt lat="43.18666" lon="-0.03412">
        <ele>353.96</ele>
        <time>2020-09-01T12:38:45.999Z</time>
      </trkpt>
      <trkpt lat="43.18677" lon="-0.03429">
        <ele>354.17</ele>
        <time>2020-09-01T12:38:50.999Z</time>
      </trkpt>
      <trkpt lat="43.18689" lon="-0.03451">
        <ele>355.31</ele>
        <time>2020-09-01T12:38:55.999Z</time>
      </trkpt>
      <trkpt lat="43.187" lon="-0.03475">
        <ele>355.93</ele>
        <time>2020-09-01T12:39:00.999Z</time>
      </trkpt>
      <trkpt lat="43.18711" lon="-0.03496">
        <ele>356.26</ele>
        <time>2020-09-01T12:39:05.999Z</time>
      </trkpt>
      <trkpt lat="43.18719" lon="-0.03516">
        <ele>356.3</ele>
        <time>2020-09-01T12:39:10.999Z</time>
      </trkpt>
      <trkpt lat="43.18725" lon="-0.03532">
        <ele>356.35</ele>
        <time>2020-09-01T12:39:15.999Z</time>
      </trkpt>
      <trkpt lat="43.18729" lon="-0.03548">
        <ele>356.4</ele>
        <time>2020-09-01T12:39:20.999Z</time>
      </trkpt>
      <trkpt lat="43.18731" lon="-0.03562">
        <ele>356.47</ele>
        <time>2020-09-01T12:39:25.999Z</time>
      </trkpt>
      <trkpt lat="43.18733" lon="-0.03576">
        <ele>356.55</ele>
        <time>2020-09-01T12:39:30.999Z</time>
      </trkpt>
      <trkpt lat="43.18735" lon="-0.0359">
        <ele>356.64</ele>
        <time>2020-09-01T12:39:35.999Z</time>
      </trkpt>
      <trkpt lat="43.18739" lon="-0.03603">
        <ele>356.75</ele>
        <time>2020-09-01T12:39:40.999Z</time>
      </trkpt>
      <trkpt lat="43.18742" lon="-0.03615">
        <ele>356.89</ele>
        <time>2020-09-01T12:39:46.999Z</time>
      </trkpt>
      <trkpt lat="43.18746" lon="-0.03629">
        <ele>357.01</ele>
        <time>2020-09-01T12:39:51.999Z</time>
      </trkpt>
      <trkpt lat="43.18749" lon="-0.03643">
        <ele>357.13</ele>
        <time>2020-09-01T12:39:56.999Z</time>
      </trkpt>
      <trkpt lat="43.18753" lon="-0.03657">
        <ele>357.27</ele>
        <time>2020-09-01T12:40:01.999Z</time>
      </trkpt>
      <trkpt lat="43.18756" lon="-0.03671">
        <ele>357.4</ele>
        <time>2020-09-01T12:40:06.999Z</time>
      </trkpt>
      <trkpt lat="43.18761" lon="-0.0369">
        <ele>357.56</ele>
        <time>2020-09-01T12:40:11.999Z</time>
      </trkpt>
      <trkpt lat="43.18764" lon="-0.03715">
        <ele>358.13</ele>
        <time>2020-09-01T12:40:16.999Z</time>
      </trkpt>
      <trkpt lat="43.18765" lon="-0.03748">
        <ele>358.89</ele>
        <time>2020-09-01T12:40:21.999Z</time>
      </trkpt>
      <trkpt lat="43.18765" lon="-0.03783">
        <ele>359.22</ele>
        <time>2020-09-01T12:40:26.999Z</time>
      </trkpt>
      <trkpt lat="43.18764" lon="-0.03821">
        <ele>359.4</ele>
        <time>2020-09-01T12:40:31.999Z</time>
      </trkpt>
      <trkpt lat="43.18765" lon="-0.03864">
        <ele>359.57</ele>
        <time>2020-09-01T12:40:36.999Z</time>
      </trkpt>
      <trkpt lat="43.18765" lon="-0.03908">
        <ele>359.73</ele>
        <time>2020-09-01T12:40:41.999Z</time>
      </trkpt>
      <trkpt lat="43.18763" lon="-0.0395">
        <ele>359.92</ele>
        <time>2020-09-01T12:40:46.999Z</time>
      </trkpt>
      <trkpt lat="43.18761" lon="-0.03994">
        <ele>360.2</ele>
        <time>2020-09-01T12:40:51.999Z</time>
      </trkpt>
      <trkpt lat="43.18762" lon="-0.04039">
        <ele>361.05</ele>
        <time>2020-09-01T12:40:56.999Z</time>
      </trkpt>
      <trkpt lat="43.18762" lon="-0.04083">
        <ele>361.07</ele>
        <time>2020-09-01T12:41:01.999Z</time>
      </trkpt>
      <trkpt lat="43.18762" lon="-0.04125">
        <ele>362.01</ele>
        <time>2020-09-01T12:41:06.999Z</time>
      </trkpt>
      <trkpt lat="43.18762" lon="-0.04163">
        <ele>361.04</ele>
        <time>2020-09-01T12:41:11.999Z</time>
      </trkpt>
      <trkpt lat="43.18761" lon="-0.042">
        <ele>361.06</ele>
        <time>2020-09-01T12:41:16.999Z</time>
      </trkpt>
      <trkpt lat="43.18761" lon="-0.04235">
        <ele>360.95</ele>
        <time>2020-09-01T12:41:21.999Z</time>
      </trkpt>
      <trkpt lat="43.1876" lon="-0.04269">
        <ele>361.3</ele>
        <time>2020-09-01T12:41:26.999Z</time>
      </trkpt>
      <trkpt lat="43.18761" lon="-0.04301">
        <ele>361.58</ele>
        <time>2020-09-01T12:41:31.999Z</time>
      </trkpt>
      <trkpt lat="43.18761" lon="-0.04332">
        <ele>361.71</ele>
        <time>2020-09-01T12:41:36.999Z</time>
      </trkpt>
      <trkpt lat="43.18761" lon="-0.0436">
        <ele>361.74</ele>
        <time>2020-09-01T12:41:41.999Z</time>
      </trkpt>
      <trkpt lat="43.18762" lon="-0.04384">
        <ele>361.81</ele>
        <time>2020-09-01T12:41:46.999Z</time>
      </trkpt>
      <trkpt lat="43.18762" lon="-0.04403">
        <ele>361.84</ele>
        <time>2020-09-01T12:41:51.999Z</time>
      </trkpt>
      <trkpt lat="43.18762" lon="-0.04421">
        <ele>361.93</ele>
        <time>2020-09-01T12:41:56.999Z</time>
      </trkpt>
      <trkpt lat="43.18761" lon="-0.04435">
        <ele>362.07</ele>
        <time>2020-09-01T12:42:01.999Z</time>
      </trkpt>
      <trkpt lat="43.18762" lon="-0.04448">
        <ele>362.29</ele>
        <time>2020-09-01T12:42:06.999Z</time>
      </trkpt>
      <trkpt lat="43.18762" lon="-0.04462">
        <ele>362.6</ele>
        <time>2020-09-01T12:42:12.999Z</time>
      </trkpt>
      <trkpt lat="43.18763" lon="-0.04475">
        <ele>362.91</ele>
        <time>2020-09-01T12:42:18.999Z</time>
      </trkpt>
      <trkpt lat="43.18762" lon="-0.04488">
        <ele>363.32</ele>
        <time>2020-09-01T12:42:25.999Z</time>
      </trkpt>
      <trkpt lat="43.18763" lon="-0.045">
        <ele>363.79</ele>
        <time>2020-09-01T12:42:32.999Z</time>
      </trkpt>
      <trkpt lat="43.18762" lon="-0.04514">
        <ele>364.26</ele>
        <time>2020-09-01T12:42:38.999Z</time>
      </trkpt>
      <trkpt lat="43.18761" lon="-0.0453">
        <ele>364.68</ele>
        <time>2020-09-01T12:42:43.999Z</time>
      </trkpt>
      <trkpt lat="43.18762" lon="-0.04543">
        <ele>365.05</ele>
        <time>2020-09-01T12:42:48.999Z</time>
      </trkpt>
      <trkpt lat="43.18762" lon="-0.04563">
        <ele>365.4</ele>
        <time>2020-09-01T12:42:53.999Z</time>
      </trkpt>
      <trkpt lat="43.18763" lon="-0.04581">
        <ele>365.73</ele>
        <time>2020-09-01T12:42:58.999Z</time>
      </trkpt>
      <trkpt lat="43.18762" lon="-0.04599">
        <ele>366.06</ele>
        <time>2020-09-01T12:43:03.999Z</time>
      </trkpt>
      <trkpt lat="43.18762" lon="-0.04616">
        <ele>366.4</ele>
        <time>2020-09-01T12:43:08.999Z</time>
      </trkpt>
      <trkpt lat="43.18762" lon="-0.04631">
        <ele>366.74</ele>
        <time>2020-09-01T12:43:13.999Z</time>
      </trkpt>
      <trkpt lat="43.18762" lon="-0.04645">
        <ele>367.07</ele>
        <time>2020-09-01T12:43:18.999Z</time>
      </trkpt>
      <trkpt lat="43.18762" lon="-0.04661">
        <ele>367.41</ele>
        <time>2020-09-01T12:43:23.999Z</time>
      </trkpt>
      <trkpt lat="43.18762" lon="-0.04675">
        <ele>367.74</ele>
        <time>2020-09-01T12:43:28.999Z</time>
      </trkpt>
      <trkpt lat="43.18762" lon="-0.04688">
        <ele>368.03</ele>
        <time>2020-09-01T12:43:33.999Z</time>
      </trkpt>
      <trkpt lat="43.18762" lon="-0.04703">
        <ele>368.3</ele>
        <time>2020-09-01T12:43:38.999Z</time>
      </trkpt>
      <trkpt lat="43.18762" lon="-0.04687">
        <ele>368.86</ele>
        <time>2020-09-01T12:43:48.999Z</time>
      </trkpt>
      <trkpt lat="43.1877" lon="-0.04682">
        <ele>372.41</ele>
        <time>2020-09-01T12:49:03.000Z</time>
      </trkpt>
      <trkpt lat="43.18763" lon="-0.04691">
        <ele>373.51</ele>
        <time>2020-09-01T12:52:24.000Z</time>
      </trkpt>
      <trkpt lat="43.18763" lon="-0.04706">
        <ele>373.53</ele>
        <time>2020-09-01T12:52:30.000Z</time>
      </trkpt>
      <trkpt lat="43.18762" lon="-0.04719">
        <ele>373.55</ele>
        <time>2020-09-01T12:52:36.000Z</time>
      </trkpt>
      <trkpt lat="43.18762" lon="-0.04732">
        <ele>373.58</ele>
        <time>2020-09-01T12:52:42.000Z</time>
      </trkpt>
      <trkpt lat="43.18762" lon="-0.04747">
        <ele>373.61</ele>
        <time>2020-09-01T12:52:47.000Z</time>
      </trkpt>
      <trkpt lat="43.18761" lon="-0.04759">
        <ele>373.64</ele>
        <time>2020-09-01T12:52:52.000Z</time>
      </trkpt>
      <trkpt lat="43.18761" lon="-0.04772">
        <ele>373.67</ele>
        <time>2020-09-01T12:52:58.000Z</time>
      </trkpt>
      <trkpt lat="43.18761" lon="-0.04786">
        <ele>373.72</ele>
        <time>2020-09-01T12:53:04.000Z</time>
      </trkpt>
      <trkpt lat="43.1876" lon="-0.04799">
        <ele>373.78</ele>
        <time>2020-09-01T12:53:11.000Z</time>
      </trkpt>
      <trkpt lat="43.18758" lon="-0.04812">
        <ele>373.85</ele>
        <time>2020-09-01T12:53:17.000Z</time>
      </trkpt>
      <trkpt lat="43.18758" lon="-0.04826">
        <ele>373.93</ele>
        <time>2020-09-01T12:53:24.000Z</time>
      </trkpt>
      <trkpt lat="43.18757" lon="-0.04839">
        <ele>374</ele>
        <time>2020-09-01T12:53:30.000Z</time>
      </trkpt>
      <trkpt lat="43.18757" lon="-0.04851">
        <ele>374.07</ele>
        <time>2020-09-01T12:53:36.000Z</time>
      </trkpt>
      <trkpt lat="43.18756" lon="-0.04864">
        <ele>374.14</ele>
        <time>2020-09-01T12:53:42.000Z</time>
      </trkpt>
      <trkpt lat="43.18756" lon="-0.04877">
        <ele>374.22</ele>
        <time>2020-09-01T12:53:48.000Z</time>
      </trkpt>
      <trkpt lat="43.18754" lon="-0.04889">
        <ele>374.3</ele>
        <time>2020-09-01T12:53:54.000Z</time>
      </trkpt>
      <trkpt lat="43.18754" lon="-0.04903">
        <ele>374.4</ele>
        <time>2020-09-01T12:54:01.000Z</time>
      </trkpt>
      <trkpt lat="43.18752" lon="-0.04915">
        <ele>374.49</ele>
        <time>2020-09-01T12:54:07.000Z</time>
      </trkpt>
      <trkpt lat="43.1875" lon="-0.04929">
        <ele>374.59</ele>
        <time>2020-09-01T12:54:14.000Z</time>
      </trkpt>
      <trkpt lat="43.18748" lon="-0.04942">
        <ele>374.7</ele>
        <time>2020-09-01T12:54:21.000Z</time>
      </trkpt>
      <trkpt lat="43.18746" lon="-0.04955">
        <ele>374.8</ele>
        <time>2020-09-01T12:54:27.000Z</time>
      </trkpt>
      <trkpt lat="43.18744" lon="-0.04969">
        <ele>374.93</ele>
        <time>2020-09-01T12:54:34.000Z</time>
      </trkpt>
      <trkpt lat="43.18741" lon="-0.04982">
        <ele>375.09</ele>
        <time>2020-09-01T12:54:42.000Z</time>
      </trkpt>
      <trkpt lat="43.18738" lon="-0.04994">
        <ele>375.23</ele>
        <time>2020-09-01T12:54:48.000Z</time>
      </trkpt>
      <trkpt lat="43.18735" lon="-0.05006">
        <ele>375.38</ele>
        <time>2020-09-01T12:54:54.000Z</time>
      </trkpt>
      <trkpt lat="43.18732" lon="-0.05018">
        <ele>375.54</ele>
        <time>2020-09-01T12:55:00.000Z</time>
      </trkpt>
      <trkpt lat="43.18728" lon="-0.05031">
        <ele>375.72</ele>
        <time>2020-09-01T12:55:07.000Z</time>
      </trkpt>
      <trkpt lat="43.18724" lon="-0.05042">
        <ele>375.88</ele>
        <time>2020-09-01T12:55:13.000Z</time>
      </trkpt>
      <trkpt lat="43.18719" lon="-0.05053">
        <ele>376.06</ele>
        <time>2020-09-01T12:55:19.000Z</time>
      </trkpt>
      <trkpt lat="43.18714" lon="-0.05063">
        <ele>376.24</ele>
        <time>2020-09-01T12:55:25.000Z</time>
      </trkpt>
      <trkpt lat="43.18708" lon="-0.05075">
        <ele>376.42</ele>
        <time>2020-09-01T12:55:31.000Z</time>
      </trkpt>
      <trkpt lat="43.18701" lon="-0.05083">
        <ele>376.62</ele>
        <time>2020-09-01T12:55:37.000Z</time>
      </trkpt>
      <trkpt lat="43.18694" lon="-0.05091">
        <ele>376.81</ele>
        <time>2020-09-01T12:55:43.000Z</time>
      </trkpt>
      <trkpt lat="43.18685" lon="-0.05101">
        <ele>377.05</ele>
        <time>2020-09-01T12:55:50.000Z</time>
      </trkpt>
      <trkpt lat="43.18678" lon="-0.05108">
        <ele>377.26</ele>
        <time>2020-09-01T12:55:56.000Z</time>
      </trkpt>
      <trkpt lat="43.18671" lon="-0.05118">
        <ele>377.43</ele>
        <time>2020-09-01T12:56:01.000Z</time>
      </trkpt>
      <trkpt lat="43.18665" lon="-0.05128">
        <ele>377.63</ele>
        <time>2020-09-01T12:56:07.000Z</time>
      </trkpt>
      <trkpt lat="43.18657" lon="-0.05138">
        <ele>377.85</ele>
        <time>2020-09-01T12:56:14.000Z</time>
      </trkpt>
      <trkpt lat="43.18649" lon="-0.05147">
        <ele>378.06</ele>
        <time>2020-09-01T12:56:20.000Z</time>
      </trkpt>
      <trkpt lat="43.18644" lon="-0.05159">
        <ele>378.33</ele>
        <time>2020-09-01T12:56:27.000Z</time>
      </trkpt>
      <trkpt lat="43.18639" lon="-0.05172">
        <ele>378.65</ele>
        <time>2020-09-01T12:56:34.999Z</time>
      </trkpt>
      <trkpt lat="43.18637" lon="-0.05187">
        <ele>378.9</ele>
        <time>2020-09-01T12:56:40.999Z</time>
      </trkpt>
      <trkpt lat="43.18634" lon="-0.052">
        <ele>379.17</ele>
        <time>2020-09-01T12:56:46.999Z</time>
      </trkpt>
      <trkpt lat="43.18632" lon="-0.05213">
        <ele>379.45</ele>
        <time>2020-09-01T12:56:52.999Z</time>
      </trkpt>
      <trkpt lat="43.18632" lon="-0.05227">
        <ele>379.84</ele>
        <time>2020-09-01T12:57:00.999Z</time>
      </trkpt>
      <trkpt lat="43.18632" lon="-0.0524">
        <ele>380.15</ele>
        <time>2020-09-01T12:57:06.999Z</time>
      </trkpt>
      <trkpt lat="43.18634" lon="-0.05255">
        <ele>380.54</ele>
        <time>2020-09-01T12:57:13.999Z</time>
      </trkpt>
      <trkpt lat="43.18638" lon="-0.0527">
        <ele>380.83</ele>
        <time>2020-09-01T12:57:18.999Z</time>
      </trkpt>
      <trkpt lat="43.18642" lon="-0.05284">
        <ele>381.1</ele>
        <time>2020-09-01T12:57:23.999Z</time>
      </trkpt>
      <trkpt lat="43.18646" lon="-0.05295">
        <ele>381.36</ele>
        <time>2020-09-01T12:57:28.999Z</time>
      </trkpt>
      <trkpt lat="43.1865" lon="-0.05308">
        <ele>381.66</ele>
        <time>2020-09-01T12:57:34.999Z</time>
      </trkpt>
      <trkpt lat="43.18657" lon="-0.05317">
        <ele>382.1</ele>
        <time>2020-09-01T12:57:43.999Z</time>
      </trkpt>
      <trkpt lat="43.18661" lon="-0.05329">
        <ele>382.44</ele>
        <time>2020-09-01T12:57:49.999Z</time>
      </trkpt>
      <trkpt lat="43.18666" lon="-0.0534">
        <ele>382.82</ele>
        <time>2020-09-01T12:57:55.999Z</time>
      </trkpt>
      <trkpt lat="43.18672" lon="-0.05351">
        <ele>383.46</ele>
        <time>2020-09-01T12:58:02.999Z</time>
      </trkpt>
      <trkpt lat="43.18677" lon="-0.05362">
        <ele>384.46</ele>
        <time>2020-09-01T12:58:09.999Z</time>
      </trkpt>
      <trkpt lat="43.18681" lon="-0.05374">
        <ele>385.75</ele>
        <time>2020-09-01T12:58:16.999Z</time>
      </trkpt>
      <trkpt lat="43.18684" lon="-0.05388">
        <ele>387.04</ele>
        <time>2020-09-01T12:58:22.999Z</time>
      </trkpt>
      <trkpt lat="43.18687" lon="-0.05403">
        <ele>388.12</ele>
        <time>2020-09-01T12:58:27.999Z</time>
      </trkpt>
      <trkpt lat="43.18689" lon="-0.05417">
        <ele>389.34</ele>
        <time>2020-09-01T12:58:33.999Z</time>
      </trkpt>
      <trkpt lat="43.18688" lon="-0.0543">
        <ele>390.71</ele>
        <time>2020-09-01T12:58:40.999Z</time>
      </trkpt>
      <trkpt lat="43.18685" lon="-0.05443">
        <ele>391.71</ele>
        <time>2020-09-01T12:58:45.999Z</time>
      </trkpt>
      <trkpt lat="43.1868" lon="-0.05457">
        <ele>392.7</ele>
        <time>2020-09-01T12:58:50.999Z</time>
      </trkpt>
      <trkpt lat="43.18677" lon="-0.05472">
        <ele>393.63</ele>
        <time>2020-09-01T12:58:55.999Z</time>
      </trkpt>
      <trkpt lat="43.18672" lon="-0.05484">
        <ele>394.5</ele>
        <time>2020-09-01T12:59:00.999Z</time>
      </trkpt>
      <trkpt lat="43.18669" lon="-0.05496">
        <ele>395.5</ele>
        <time>2020-09-01T12:59:06.999Z</time>
      </trkpt>
      <trkpt lat="43.18665" lon="-0.05509">
        <ele>396.42</ele>
        <time>2020-09-01T12:59:12.999Z</time>
      </trkpt>
      <trkpt lat="43.18662" lon="-0.05523">
        <ele>397.43</ele>
        <time>2020-09-01T12:59:19.999Z</time>
      </trkpt>
      <trkpt lat="43.18659" lon="-0.05536">
        <ele>398.45</ele>
        <time>2020-09-01T12:59:26.999Z</time>
      </trkpt>
      <trkpt lat="43.18657" lon="-0.0555">
        <ele>399.35</ele>
        <time>2020-09-01T12:59:32.999Z</time>
      </trkpt>
      <trkpt lat="43.18656" lon="-0.05563">
        <ele>400.41</ele>
        <time>2020-09-01T12:59:39.999Z</time>
      </trkpt>
      <trkpt lat="43.18653" lon="-0.05576">
        <ele>401.72</ele>
        <time>2020-09-01T12:59:47.999Z</time>
      </trkpt>
      <trkpt lat="43.18649" lon="-0.05588">
        <ele>403.27</ele>
        <time>2020-09-01T12:59:55.999Z</time>
      </trkpt>
      <trkpt lat="43.18649" lon="-0.05601">
        <ele>404.86</ele>
        <time>2020-09-01T13:00:02.999Z</time>
      </trkpt>
      <trkpt lat="43.18648" lon="-0.05616">
        <ele>406.48</ele>
        <time>2020-09-01T13:00:08.999Z</time>
      </trkpt>
      <trkpt lat="43.18649" lon="-0.05637">
        <ele>407.97</ele>
        <time>2020-09-01T13:00:13.999Z</time>
      </trkpt>
      <trkpt lat="43.18651" lon="-0.0565">
        <ele>409.42</ele>
        <time>2020-09-01T13:00:18.999Z</time>
      </trkpt>
      <trkpt lat="43.18656" lon="-0.0566">
        <ele>412.28</ele>
        <time>2020-09-01T13:00:28.999Z</time>
      </trkpt>
      <trkpt lat="43.18662" lon="-0.05671">
        <ele>414.02</ele>
        <time>2020-09-01T13:00:34.999Z</time>
      </trkpt>
      <trkpt lat="43.18666" lon="-0.05687">
        <ele>415.68</ele>
        <time>2020-09-01T13:00:40.999Z</time>
      </trkpt>
      <trkpt lat="43.18664" lon="-0.05701">
        <ele>416.95</ele>
        <time>2020-09-01T13:00:45.999Z</time>
      </trkpt>
      <trkpt lat="43.18658" lon="-0.05711">
        <ele>418.65</ele>
        <time>2020-09-01T13:00:52.999Z</time>
      </trkpt>
      <trkpt lat="43.18649" lon="-0.05718">
        <ele>420.11</ele>
        <time>2020-09-01T13:00:58.999Z</time>
      </trkpt>
      <trkpt lat="43.18643" lon="-0.05727">
        <ele>421.54</ele>
        <time>2020-09-01T13:01:04.999Z</time>
      </trkpt>
      <trkpt lat="43.18637" lon="-0.05737">
        <ele>422.67</ele>
        <time>2020-09-01T13:01:09.999Z</time>
      </trkpt>
      <trkpt lat="43.1863" lon="-0.05747">
        <ele>423.93</ele>
        <time>2020-09-01T13:01:15.999Z</time>
      </trkpt>
      <trkpt lat="43.18623" lon="-0.05756">
        <ele>424.92</ele>
        <time>2020-09-01T13:01:20.999Z</time>
      </trkpt>
      <trkpt lat="43.18615" lon="-0.05766">
        <ele>426.18</ele>
        <time>2020-09-01T13:01:27.999Z</time>
      </trkpt>
      <trkpt lat="43.1861" lon="-0.05776">
        <ele>427.17</ele>
        <time>2020-09-01T13:01:33.999Z</time>
      </trkpt>
      <trkpt lat="43.18606" lon="-0.05788">
        <ele>428.24</ele>
        <time>2020-09-01T13:01:40.999Z</time>
      </trkpt>
      <trkpt lat="43.18605" lon="-0.058">
        <ele>429.35</ele>
        <time>2020-09-01T13:01:48.999Z</time>
      </trkpt>
      <trkpt lat="43.18603" lon="-0.05815">
        <ele>430.13</ele>
        <time>2020-09-01T13:01:54.999Z</time>
      </trkpt>
      <trkpt lat="43.18602" lon="-0.05827">
        <ele>430.97</ele>
        <time>2020-09-01T13:02:01.999Z</time>
      </trkpt>
      <trkpt lat="43.18602" lon="-0.05842">
        <ele>431.56</ele>
        <time>2020-09-01T13:02:06.999Z</time>
      </trkpt>
      <trkpt lat="43.18601" lon="-0.05855">
        <ele>432.26</ele>
        <time>2020-09-01T13:02:12.999Z</time>
      </trkpt>
      <trkpt lat="43.18601" lon="-0.05868">
        <ele>433.14</ele>
        <time>2020-09-01T13:02:19.999Z</time>
      </trkpt>
      <trkpt lat="43.18601" lon="-0.05881">
        <ele>433.8</ele>
        <time>2020-09-01T13:02:24.999Z</time>
      </trkpt>
      <trkpt lat="43.18599" lon="-0.05895">
        <ele>434.48</ele>
        <time>2020-09-01T13:02:29.999Z</time>
      </trkpt>
      <trkpt lat="43.18597" lon="-0.05909">
        <ele>435.46</ele>
        <time>2020-09-01T13:02:36.999Z</time>
      </trkpt>
      <trkpt lat="43.18594" lon="-0.05921">
        <ele>436.16</ele>
        <time>2020-09-01T13:02:41.999Z</time>
      </trkpt>
      <trkpt lat="43.1859" lon="-0.05933">
        <ele>436.87</ele>
        <time>2020-09-01T13:02:46.999Z</time>
      </trkpt>
      <trkpt lat="43.18584" lon="-0.05944">
        <ele>437.72</ele>
        <time>2020-09-01T13:02:52.999Z</time>
      </trkpt>
      <trkpt lat="43.18577" lon="-0.05955">
        <ele>438.57</ele>
        <time>2020-09-01T13:02:58.999Z</time>
      </trkpt>
      <trkpt lat="43.18571" lon="-0.05964">
        <ele>439.28</ele>
        <time>2020-09-01T13:03:03.999Z</time>
      </trkpt>
      <trkpt lat="43.18562" lon="-0.05973">
        <ele>439.98</ele>
        <time>2020-09-01T13:03:08.999Z</time>
      </trkpt>
      <trkpt lat="43.18554" lon="-0.05983">
        <ele>440.67</ele>
        <time>2020-09-01T13:03:13.999Z</time>
      </trkpt>
      <trkpt lat="43.18547" lon="-0.05993">
        <ele>441.34</ele>
        <time>2020-09-01T13:03:18.999Z</time>
      </trkpt>
      <trkpt lat="43.18542" lon="-0.06006">
        <ele>442</ele>
        <time>2020-09-01T13:03:23.999Z</time>
      </trkpt>
      <trkpt lat="43.18539" lon="-0.06018">
        <ele>442.65</ele>
        <time>2020-09-01T13:03:28.999Z</time>
      </trkpt>
      <trkpt lat="43.18537" lon="-0.06033">
        <ele>443.29</ele>
        <time>2020-09-01T13:03:33.999Z</time>
      </trkpt>
      <trkpt lat="43.18534" lon="-0.06046">
        <ele>443.94</ele>
        <time>2020-09-01T13:03:38.999Z</time>
      </trkpt>
      <trkpt lat="43.18533" lon="-0.06058">
        <ele>444.57</ele>
        <time>2020-09-01T13:03:43.999Z</time>
      </trkpt>
      <trkpt lat="43.18533" lon="-0.06074">
        <ele>445.3</ele>
        <time>2020-09-01T13:03:49.999Z</time>
      </trkpt>
      <trkpt lat="43.18532" lon="-0.06086">
        <ele>445.89</ele>
        <time>2020-09-01T13:03:54.999Z</time>
      </trkpt>
      <trkpt lat="43.1853" lon="-0.061">
        <ele>446.47</ele>
        <time>2020-09-01T13:03:59.999Z</time>
      </trkpt>
      <trkpt lat="43.18527" lon="-0.06115">
        <ele>447.02</ele>
        <time>2020-09-01T13:04:04.999Z</time>
      </trkpt>
      <trkpt lat="43.18523" lon="-0.06135">
        <ele>447.55</ele>
        <time>2020-09-01T13:04:09.999Z</time>
      </trkpt>
      <trkpt lat="43.18517" lon="-0.06155">
        <ele>448.07</ele>
        <time>2020-09-01T13:04:14.999Z</time>
      </trkpt>
      <trkpt lat="43.18511" lon="-0.06177">
        <ele>448.57</ele>
        <time>2020-09-01T13:04:19.999Z</time>
      </trkpt>
      <trkpt lat="43.18503" lon="-0.062">
        <ele>451.4</ele>
        <time>2020-09-01T13:04:24.999Z</time>
      </trkpt>
      <trkpt lat="43.18496" lon="-0.06226">
        <ele>453.03</ele>
        <time>2020-09-01T13:04:29.999Z</time>
      </trkpt>
      <trkpt lat="43.18488" lon="-0.06252">
        <ele>453.77</ele>
        <time>2020-09-01T13:04:34.999Z</time>
      </trkpt>
      <trkpt lat="43.1848" lon="-0.06278">
        <ele>454.14</ele>
        <time>2020-09-01T13:04:39.999Z</time>
      </trkpt>
      <trkpt lat="43.18472" lon="-0.06306">
        <ele>454.41</ele>
        <time>2020-09-01T13:04:44.999Z</time>
      </trkpt>
      <trkpt lat="43.18463" lon="-0.06337">
        <ele>454.63</ele>
        <time>2020-09-01T13:04:49.999Z</time>
      </trkpt>
      <trkpt lat="43.18454" lon="-0.06367">
        <ele>454.82</ele>
        <time>2020-09-01T13:04:54.999Z</time>
      </trkpt>
      <trkpt lat="43.18444" lon="-0.06399">
        <ele>455.04</ele>
        <time>2020-09-01T13:04:59.999Z</time>
      </trkpt>
      <trkpt lat="43.18434" lon="-0.06432">
        <ele>455.31</ele>
        <time>2020-09-01T13:05:04.999Z</time>
      </trkpt>
      <trkpt lat="43.18424" lon="-0.06462">
        <ele>455.6</ele>
        <time>2020-09-01T13:05:09.999Z</time>
      </trkpt>
      <trkpt lat="43.18416" lon="-0.06492">
        <ele>455.94</ele>
        <time>2020-09-01T13:05:14.999Z</time>
      </trkpt>
      <trkpt lat="43.18408" lon="-0.0652">
        <ele>456.29</ele>
        <time>2020-09-01T13:05:19.999Z</time>
      </trkpt>
      <trkpt lat="43.184" lon="-0.06545">
        <ele>456.6</ele>
        <time>2020-09-01T13:05:24.999Z</time>
      </trkpt>
      <trkpt lat="43.18392" lon="-0.06572">
        <ele>456.83</ele>
        <time>2020-09-01T13:05:29.999Z</time>
      </trkpt>
      <trkpt lat="43.18385" lon="-0.066">
        <ele>457.04</ele>
        <time>2020-09-01T13:05:34.999Z</time>
      </trkpt>
      <trkpt lat="43.18377" lon="-0.06627">
        <ele>457.26</ele>
        <time>2020-09-01T13:05:39.999Z</time>
      </trkpt>
      <trkpt lat="43.18367" lon="-0.06657">
        <ele>457.45</ele>
        <time>2020-09-01T13:05:44.999Z</time>
      </trkpt>
      <trkpt lat="43.18357" lon="-0.06694">
        <ele>457.61</ele>
        <time>2020-09-01T13:05:49.999Z</time>
      </trkpt>
      <trkpt lat="43.18346" lon="-0.06732">
        <ele>457.76</ele>
        <time>2020-09-01T13:05:54.999Z</time>
      </trkpt>
      <trkpt lat="43.18334" lon="-0.06771">
        <ele>457.85</ele>
        <time>2020-09-01T13:05:59.999Z</time>
      </trkpt>
      <trkpt lat="43.18322" lon="-0.06812">
        <ele>457.87</ele>
        <time>2020-09-01T13:06:04.999Z</time>
      </trkpt>
      <trkpt lat="43.1831" lon="-0.06851">
        <ele>458.14</ele>
        <time>2020-09-01T13:06:09.999Z</time>
      </trkpt>
      <trkpt lat="43.183" lon="-0.06885">
        <ele>458.56</ele>
        <time>2020-09-01T13:06:14.999Z</time>
      </trkpt>
      <trkpt lat="43.18291" lon="-0.06917">
        <ele>458.84</ele>
        <time>2020-09-01T13:06:19.999Z</time>
      </trkpt>
      <trkpt lat="43.18283" lon="-0.06944">
        <ele>459.35</ele>
        <time>2020-09-01T13:06:24.999Z</time>
      </trkpt>
      <trkpt lat="43.18277" lon="-0.06967">
        <ele>459.42</ele>
        <time>2020-09-01T13:06:29.999Z</time>
      </trkpt>
      <trkpt lat="43.18271" lon="-0.06985">
        <ele>459.54</ele>
        <time>2020-09-01T13:06:34.999Z</time>
      </trkpt>
      <trkpt lat="43.18267" lon="-0.07">
        <ele>459.67</ele>
        <time>2020-09-01T13:06:39.999Z</time>
      </trkpt>
      <trkpt lat="43.18263" lon="-0.07015">
        <ele>459.83</ele>
        <time>2020-09-01T13:06:44.999Z</time>
      </trkpt>
      <trkpt lat="43.18258" lon="-0.07032">
        <ele>460.05</ele>
        <time>2020-09-01T13:06:49.999Z</time>
      </trkpt>
      <trkpt lat="43.18253" lon="-0.07048">
        <ele>460.31</ele>
        <time>2020-09-01T13:06:54.999Z</time>
      </trkpt>
      <trkpt lat="43.18248" lon="-0.07065">
        <ele>460.54</ele>
        <time>2020-09-01T13:06:59.999Z</time>
      </trkpt>
      <trkpt lat="43.18244" lon="-0.07081">
        <ele>460.74</ele>
        <time>2020-09-01T13:07:04.999Z</time>
      </trkpt>
      <trkpt lat="43.18238" lon="-0.07099">
        <ele>460.89</ele>
        <time>2020-09-01T13:07:09.999Z</time>
      </trkpt>
      <trkpt lat="43.18232" lon="-0.07121">
        <ele>461.01</ele>
        <time>2020-09-01T13:07:14.999Z</time>
      </trkpt>
      <trkpt lat="43.18225" lon="-0.07144">
        <ele>461.06</ele>
        <time>2020-09-01T13:07:19.999Z</time>
      </trkpt>
      <trkpt lat="43.18218" lon="-0.07166">
        <ele>461.08</ele>
        <time>2020-09-01T13:07:24.999Z</time>
      </trkpt>
      <trkpt lat="43.18211" lon="-0.07189">
        <ele>461.11</ele>
        <time>2020-09-01T13:07:29.999Z</time>
      </trkpt>
      <trkpt lat="43.18204" lon="-0.07211">
        <ele>461.12</ele>
        <time>2020-09-01T13:07:34.999Z</time>
      </trkpt>
      <trkpt lat="43.18197" lon="-0.07231">
        <ele>461.17</ele>
        <time>2020-09-01T13:07:39.999Z</time>
      </trkpt>
      <trkpt lat="43.18191" lon="-0.0725">
        <ele>461.27</ele>
        <time>2020-09-01T13:07:44.999Z</time>
      </trkpt>
      <trkpt lat="43.18187" lon="-0.07265">
        <ele>461.42</ele>
        <time>2020-09-01T13:07:49.999Z</time>
      </trkpt>
      <trkpt lat="43.18184" lon="-0.07279">
        <ele>461.52</ele>
        <time>2020-09-01T13:09:03.000Z</time>
      </trkpt>
      <trkpt lat="43.18179" lon="-0.07299">
        <ele>461.59</ele>
        <time>2020-09-01T13:09:08.000Z</time>
      </trkpt>
      <trkpt lat="43.18174" lon="-0.07318">
        <ele>461.7</ele>
        <time>2020-09-01T13:09:13.000Z</time>
      </trkpt>
      <trkpt lat="43.18168" lon="-0.07338">
        <ele>461.84</ele>
        <time>2020-09-01T13:09:18.000Z</time>
      </trkpt>
      <trkpt lat="43.18162" lon="-0.07358">
        <ele>461.99</ele>
        <time>2020-09-01T13:09:23.000Z</time>
      </trkpt>
      <trkpt lat="43.18157" lon="-0.07378">
        <ele>462.15</ele>
        <time>2020-09-01T13:09:28.000Z</time>
      </trkpt>
      <trkpt lat="43.18152" lon="-0.07397">
        <ele>462.34</ele>
        <time>2020-09-01T13:09:33.000Z</time>
      </trkpt>
      <trkpt lat="43.18146" lon="-0.07416">
        <ele>462.56</ele>
        <time>2020-09-01T13:09:38.000Z</time>
      </trkpt>
      <trkpt lat="43.18142" lon="-0.07432">
        <ele>462.8</ele>
        <time>2020-09-01T13:09:43.000Z</time>
      </trkpt>
      <trkpt lat="43.18137" lon="-0.07448">
        <ele>463.04</ele>
        <time>2020-09-01T13:09:48.000Z</time>
      </trkpt>
      <trkpt lat="43.18132" lon="-0.07464">
        <ele>463.27</ele>
        <time>2020-09-01T13:09:53.000Z</time>
      </trkpt>
      <trkpt lat="43.18127" lon="-0.07478">
        <ele>463.51</ele>
        <time>2020-09-01T13:09:58.000Z</time>
      </trkpt>
      <trkpt lat="43.18122" lon="-0.07494">
        <ele>463.75</ele>
        <time>2020-09-01T13:10:03.000Z</time>
      </trkpt>
      <trkpt lat="43.18117" lon="-0.0751">
        <ele>464.01</ele>
        <time>2020-09-01T13:10:08.000Z</time>
      </trkpt>
      <trkpt lat="43.18113" lon="-0.07527">
        <ele>464.27</ele>
        <time>2020-09-01T13:10:13.000Z</time>
      </trkpt>
      <trkpt lat="43.18109" lon="-0.07542">
        <ele>464.53</ele>
        <time>2020-09-01T13:10:18.000Z</time>
      </trkpt>
      <trkpt lat="43.18104" lon="-0.07557">
        <ele>464.76</ele>
        <time>2020-09-01T13:10:23.000Z</time>
      </trkpt>
      <trkpt lat="43.18099" lon="-0.07574">
        <ele>464.98</ele>
        <time>2020-09-01T13:10:28.000Z</time>
      </trkpt>
      <trkpt lat="43.18094" lon="-0.0759">
        <ele>465.22</ele>
        <time>2020-09-01T13:10:33.000Z</time>
      </trkpt>
      <trkpt lat="43.18089" lon="-0.07608">
        <ele>465.44</ele>
        <time>2020-09-01T13:10:38.000Z</time>
      </trkpt>
      <trkpt lat="43.18083" lon="-0.07629">
        <ele>465.64</ele>
        <time>2020-09-01T13:10:43.000Z</time>
      </trkpt>
      <trkpt lat="43.18075" lon="-0.07654">
        <ele>466.4</ele>
        <time>2020-09-01T13:10:48.000Z</time>
      </trkpt>
      <trkpt lat="43.18067" lon="-0.07682">
        <ele>466.62</ele>
        <time>2020-09-01T13:10:53.000Z</time>
      </trkpt>
      <trkpt lat="43.18057" lon="-0.07715">
        <ele>466.39</ele>
        <time>2020-09-01T13:10:58.000Z</time>
      </trkpt>
      <trkpt lat="43.18047" lon="-0.07749">
        <ele>466.31</ele>
        <time>2020-09-01T13:11:03.000Z</time>
      </trkpt>
      <trkpt lat="43.18038" lon="-0.0778">
        <ele>466.35</ele>
        <time>2020-09-01T13:11:08.000Z</time>
      </trkpt>
      <trkpt lat="43.18029" lon="-0.07811">
        <ele>466.57</ele>
        <time>2020-09-01T13:11:13.000Z</time>
      </trkpt>
      <trkpt lat="43.1802" lon="-0.07841">
        <ele>466.72</ele>
        <time>2020-09-01T13:11:18.000Z</time>
      </trkpt>
      <trkpt lat="43.18011" lon="-0.07872">
        <ele>466.89</ele>
        <time>2020-09-01T13:11:23.000Z</time>
      </trkpt>
      <trkpt lat="43.18002" lon="-0.07901">
        <ele>467.08</ele>
        <time>2020-09-01T13:11:28.000Z</time>
      </trkpt>
      <trkpt lat="43.17995" lon="-0.07928">
        <ele>467.29</ele>
        <time>2020-09-01T13:11:33.000Z</time>
      </trkpt>
      <trkpt lat="43.17987" lon="-0.07953">
        <ele>467.46</ele>
        <time>2020-09-01T13:11:38.000Z</time>
      </trkpt>
      <trkpt lat="43.17981" lon="-0.07976">
        <ele>467.5</ele>
        <time>2020-09-01T13:11:43.000Z</time>
      </trkpt>
      <trkpt lat="43.17975" lon="-0.07997">
        <ele>467.54</ele>
        <time>2020-09-01T13:11:48.000Z</time>
      </trkpt>
      <trkpt lat="43.17969" lon="-0.08018">
        <ele>467.61</ele>
        <time>2020-09-01T13:11:53.000Z</time>
      </trkpt>
      <trkpt lat="43.17962" lon="-0.08039">
        <ele>467.69</ele>
        <time>2020-09-01T13:11:58.000Z</time>
      </trkpt>
      <trkpt lat="43.17957" lon="-0.08058">
        <ele>467.78</ele>
        <time>2020-09-01T13:12:03.000Z</time>
      </trkpt>
      <trkpt lat="43.17951" lon="-0.08077">
        <ele>467.88</ele>
        <time>2020-09-01T13:12:08.000Z</time>
      </trkpt>
      <trkpt lat="43.17945" lon="-0.08098">
        <ele>467.99</ele>
        <time>2020-09-01T13:12:13.000Z</time>
      </trkpt>
      <trkpt lat="43.17938" lon="-0.08121">
        <ele>468.45</ele>
        <time>2020-09-01T13:12:18.000Z</time>
      </trkpt>
      <trkpt lat="43.1793" lon="-0.08149">
        <ele>469.08</ele>
        <time>2020-09-01T13:12:23.000Z</time>
      </trkpt>
      <trkpt lat="43.17922" lon="-0.0818">
        <ele>469.36</ele>
        <time>2020-09-01T13:12:28.000Z</time>
      </trkpt>
      <trkpt lat="43.17912" lon="-0.08214">
        <ele>469.55</ele>
        <time>2020-09-01T13:12:33.000Z</time>
      </trkpt>
      <trkpt lat="43.17902" lon="-0.0825">
        <ele>469.7</ele>
        <time>2020-09-01T13:12:38.000Z</time>
      </trkpt>
      <trkpt lat="43.1789" lon="-0.0829">
        <ele>469.81</ele>
        <time>2020-09-01T13:12:43.000Z</time>
      </trkpt>
      <trkpt lat="43.17878" lon="-0.08335">
        <ele>469.94</ele>
        <time>2020-09-01T13:12:48.000Z</time>
      </trkpt>
      <trkpt lat="43.17866" lon="-0.08376">
        <ele>470.03</ele>
        <time>2020-09-01T13:12:53.000Z</time>
      </trkpt>
      <trkpt lat="43.17855" lon="-0.08415">
        <ele>470.05</ele>
        <time>2020-09-01T13:12:58.000Z</time>
      </trkpt>
      <trkpt lat="43.17842" lon="-0.08453">
        <ele>469.75</ele>
        <time>2020-09-01T13:13:03.000Z</time>
      </trkpt>
      <trkpt lat="43.17831" lon="-0.08491">
        <ele>469.6</ele>
        <time>2020-09-01T13:13:08.000Z</time>
      </trkpt>
      <trkpt lat="43.17818" lon="-0.0853">
        <ele>469.64</ele>
        <time>2020-09-01T13:13:13.000Z</time>
      </trkpt>
      <trkpt lat="43.17804" lon="-0.08573">
        <ele>469.77</ele>
        <time>2020-09-01T13:13:18.000Z</time>
      </trkpt>
      <trkpt lat="43.17771" lon="-0.0863">
        <ele>465.68</ele>
        <time>2020-09-01T13:13:23.000Z</time>
      </trkpt>
      <trkpt lat="43.17736" lon="-0.08689">
        <ele>462.41</ele>
        <time>2020-09-01T13:13:28.000Z</time>
      </trkpt>
      <trkpt lat="43.17701" lon="-0.08747">
        <ele>460.74</ele>
        <time>2020-09-01T13:13:33.000Z</time>
      </trkpt>
      <trkpt lat="43.17682" lon="-0.08815">
        <ele>459.24</ele>
        <time>2020-09-01T13:13:38.000Z</time>
      </trkpt>
      <trkpt lat="43.17693" lon="-0.08887">
        <ele>458.02</ele>
        <time>2020-09-01T13:13:43.000Z</time>
      </trkpt>
      <trkpt lat="43.17717" lon="-0.08954">
        <ele>456.97</ele>
        <time>2020-09-01T13:13:48.000Z</time>
      </trkpt>
      <trkpt lat="43.17743" lon="-0.09022">
        <ele>455.35</ele>
        <time>2020-09-01T13:13:53.000Z</time>
      </trkpt>
      <trkpt lat="43.17778" lon="-0.09086">
        <ele>452.94</ele>
        <time>2020-09-01T13:13:58.000Z</time>
      </trkpt>
      <trkpt lat="43.17823" lon="-0.09135">
        <ele>449.87</ele>
        <time>2020-09-01T13:14:03.000Z</time>
      </trkpt>
      <trkpt lat="43.17863" lon="-0.09194">
        <ele>445.96</ele>
        <time>2020-09-01T13:14:08.000Z</time>
      </trkpt>
      <trkpt lat="43.17907" lon="-0.09252">
        <ele>442.44</ele>
        <time>2020-09-01T13:14:13.000Z</time>
      </trkpt>
      <trkpt lat="43.17938" lon="-0.09319">
        <ele>439.82</ele>
        <time>2020-09-01T13:14:18.000Z</time>
      </trkpt>
      <trkpt lat="43.17962" lon="-0.09378">
        <ele>437.59</ele>
        <time>2020-09-01T13:14:23.000Z</time>
      </trkpt>
      <trkpt lat="43.17991" lon="-0.09426">
        <ele>434.41</ele>
        <time>2020-09-01T13:14:28.000Z</time>
      </trkpt>
      <trkpt lat="43.18022" lon="-0.09468">
        <ele>432.15</ele>
        <time>2020-09-01T13:14:33.000Z</time>
      </trkpt>
      <trkpt lat="43.1805" lon="-0.09511">
        <ele>429.83</ele>
        <time>2020-09-01T13:14:38.000Z</time>
      </trkpt>
      <trkpt lat="43.1807" lon="-0.09562">
        <ele>428.14</ele>
        <time>2020-09-01T13:14:43.000Z</time>
      </trkpt>
      <trkpt lat="43.18088" lon="-0.09609">
        <ele>426.87</ele>
        <time>2020-09-01T13:14:48.000Z</time>
      </trkpt>
      <trkpt lat="43.18103" lon="-0.09658">
        <ele>425.16</ele>
        <time>2020-09-01T13:14:53.000Z</time>
      </trkpt>
      <trkpt lat="43.18118" lon="-0.09707">
        <ele>422.37</ele>
        <time>2020-09-01T13:14:58.000Z</time>
      </trkpt>
      <trkpt lat="43.18131" lon="-0.09756">
        <ele>420.06</ele>
        <time>2020-09-01T13:15:03.000Z</time>
      </trkpt>
      <trkpt lat="43.18141" lon="-0.09806">
        <ele>418.39</ele>
        <time>2020-09-01T13:15:08.000Z</time>
      </trkpt>
      <trkpt lat="43.18153" lon="-0.0985">
        <ele>416.75</ele>
        <time>2020-09-01T13:15:13.000Z</time>
      </trkpt>
      <trkpt lat="43.18163" lon="-0.09894">
        <ele>415.05</ele>
        <time>2020-09-01T13:15:18.000Z</time>
      </trkpt>
      <trkpt lat="43.18178" lon="-0.09938">
        <ele>413.11</ele>
        <time>2020-09-01T13:15:23.000Z</time>
      </trkpt>
      <trkpt lat="43.18192" lon="-0.09986">
        <ele>411.5</ele>
        <time>2020-09-01T13:15:28.000Z</time>
      </trkpt>
      <trkpt lat="43.18211" lon="-0.10031">
        <ele>409.88</ele>
        <time>2020-09-01T13:15:33.000Z</time>
      </trkpt>
      <trkpt lat="43.18228" lon="-0.10077">
        <ele>408.51</ele>
        <time>2020-09-01T13:15:38.000Z</time>
      </trkpt>
      <trkpt lat="43.18245" lon="-0.10126">
        <ele>407.11</ele>
        <time>2020-09-01T13:15:43.000Z</time>
      </trkpt>
      <trkpt lat="43.18263" lon="-0.10177">
        <ele>405.91</ele>
        <time>2020-09-01T13:15:48.000Z</time>
      </trkpt>
      <trkpt lat="43.18281" lon="-0.10226">
        <ele>404.2</ele>
        <time>2020-09-01T13:15:53.000Z</time>
      </trkpt>
      <trkpt lat="43.18292" lon="-0.10277">
        <ele>402.49</ele>
        <time>2020-09-01T13:15:58.000Z</time>
      </trkpt>
      <trkpt lat="43.18306" lon="-0.10329">
        <ele>400.63</ele>
        <time>2020-09-01T13:16:03.000Z</time>
      </trkpt>
      <trkpt lat="43.18321" lon="-0.10384">
        <ele>398.73</ele>
        <time>2020-09-01T13:16:08.000Z</time>
      </trkpt>
      <trkpt lat="43.18336" lon="-0.10443">
        <ele>396.91</ele>
        <time>2020-09-01T13:16:13.000Z</time>
      </trkpt>
      <trkpt lat="43.18348" lon="-0.10503">
        <ele>395.32</ele>
        <time>2020-09-01T13:16:18.000Z</time>
      </trkpt>
      <trkpt lat="43.18361" lon="-0.10555">
        <ele>393.57</ele>
        <time>2020-09-01T13:16:23.000Z</time>
      </trkpt>
      <trkpt lat="43.18372" lon="-0.10604">
        <ele>391.23</ele>
        <time>2020-09-01T13:16:28.000Z</time>
      </trkpt>
      <trkpt lat="43.1838" lon="-0.1065">
        <ele>388.99</ele>
        <time>2020-09-01T13:16:33.000Z</time>
      </trkpt>
      <trkpt lat="43.18388" lon="-0.10695">
        <ele>386.67</ele>
        <time>2020-09-01T13:16:38.000Z</time>
      </trkpt>
      <trkpt lat="43.18398" lon="-0.10736">
        <ele>384.24</ele>
        <time>2020-09-01T13:16:43.000Z</time>
      </trkpt>
      <trkpt lat="43.18402" lon="-0.10775">
        <ele>382.28</ele>
        <time>2020-09-01T13:16:48.000Z</time>
      </trkpt>
      <trkpt lat="43.18407" lon="-0.10812">
        <ele>381.16</ele>
        <time>2020-09-01T13:16:53.000Z</time>
      </trkpt>
      <trkpt lat="43.18412" lon="-0.10845">
        <ele>379.93</ele>
        <time>2020-09-01T13:16:58.000Z</time>
      </trkpt>
      <trkpt lat="43.18413" lon="-0.1088">
        <ele>378.45</ele>
        <time>2020-09-01T13:17:03.000Z</time>
      </trkpt>
      <trkpt lat="43.18413" lon="-0.10914">
        <ele>377.11</ele>
        <time>2020-09-01T13:17:08.000Z</time>
      </trkpt>
      <trkpt lat="43.18415" lon="-0.10944">
        <ele>375.97</ele>
        <time>2020-09-01T13:17:13.000Z</time>
      </trkpt>
      <trkpt lat="43.18415" lon="-0.10974">
        <ele>374.84</ele>
        <time>2020-09-01T13:17:18.000Z</time>
      </trkpt>
      <trkpt lat="43.18404" lon="-0.11002">
        <ele>373.99</ele>
        <time>2020-09-01T13:17:23.000Z</time>
      </trkpt>
      <trkpt lat="43.18396" lon="-0.11029">
        <ele>372.95</ele>
        <time>2020-09-01T13:17:28.000Z</time>
      </trkpt>
      <trkpt lat="43.18392" lon="-0.11057">
        <ele>372.08</ele>
        <time>2020-09-01T13:17:33.000Z</time>
      </trkpt>
      <trkpt lat="43.18393" lon="-0.11086">
        <ele>371.35</ele>
        <time>2020-09-01T13:17:38.000Z</time>
      </trkpt>
      <trkpt lat="43.18394" lon="-0.11118">
        <ele>370.73</ele>
        <time>2020-09-01T13:17:43.000Z</time>
      </trkpt>
      <trkpt lat="43.1839" lon="-0.11148">
        <ele>370.31</ele>
        <time>2020-09-01T13:17:48.000Z</time>
      </trkpt>
      <trkpt lat="43.18386" lon="-0.11176">
        <ele>370.12</ele>
        <time>2020-09-01T13:17:53.000Z</time>
      </trkpt>
      <trkpt lat="43.18387" lon="-0.11208">
        <ele>370.11</ele>
        <time>2020-09-01T13:17:58.000Z</time>
      </trkpt>
      <trkpt lat="43.18399" lon="-0.11235">
        <ele>369.71</ele>
        <time>2020-09-01T13:18:03.000Z</time>
      </trkpt>
      <trkpt lat="43.18409" lon="-0.11261">
        <ele>369.36</ele>
        <time>2020-09-01T13:18:08.000Z</time>
      </trkpt>
      <trkpt lat="43.18412" lon="-0.11287">
        <ele>369.07</ele>
        <time>2020-09-01T13:18:13.000Z</time>
      </trkpt>
      <trkpt lat="43.18413" lon="-0.11311">
        <ele>369.08</ele>
        <time>2020-09-01T13:18:18.000Z</time>
      </trkpt>
      <trkpt lat="43.18416" lon="-0.1133">
        <ele>369.01</ele>
        <time>2020-09-01T13:18:23.000Z</time>
      </trkpt>
      <trkpt lat="43.18418" lon="-0.11355">
        <ele>368.4</ele>
        <time>2020-09-01T13:18:28.000Z</time>
      </trkpt>
      <trkpt lat="43.18429" lon="-0.11376">
        <ele>367.7</ele>
        <time>2020-09-01T13:18:33.000Z</time>
      </trkpt>
      <trkpt lat="43.18448" lon="-0.11378">
        <ele>367.18</ele>
        <time>2020-09-01T13:18:38.000Z</time>
      </trkpt>
      <trkpt lat="43.18467" lon="-0.11383">
        <ele>366.93</ele>
        <time>2020-09-01T13:18:43.000Z</time>
      </trkpt>
      <trkpt lat="43.18487" lon="-0.1139">
        <ele>366.81</ele>
        <time>2020-09-01T13:18:48.000Z</time>
      </trkpt>
      <trkpt lat="43.18505" lon="-0.114">
        <ele>366.68</ele>
        <time>2020-09-01T13:18:53.000Z</time>
      </trkpt>
      <trkpt lat="43.18517" lon="-0.11418">
        <ele>366.68</ele>
        <time>2020-09-01T13:18:58.000Z</time>
      </trkpt>
      <trkpt lat="43.18527" lon="-0.11436">
        <ele>366.68</ele>
        <time>2020-09-01T13:19:03.000Z</time>
      </trkpt>
      <trkpt lat="43.18539" lon="-0.11453">
        <ele>366.7</ele>
        <time>2020-09-01T13:19:08.000Z</time>
      </trkpt>
      <trkpt lat="43.18551" lon="-0.11471">
        <ele>366.71</ele>
        <time>2020-09-01T13:19:13.000Z</time>
      </trkpt>
      <trkpt lat="43.18565" lon="-0.11486">
        <ele>366.75</ele>
        <time>2020-09-01T13:19:18.000Z</time>
      </trkpt>
      <trkpt lat="43.18581" lon="-0.11502">
        <ele>366.87</ele>
        <time>2020-09-01T13:19:23.000Z</time>
      </trkpt>
      <trkpt lat="43.18597" lon="-0.11515">
        <ele>366.89</ele>
        <time>2020-09-01T13:19:28.000Z</time>
      </trkpt>
      <trkpt lat="43.18611" lon="-0.1153">
        <ele>366.91</ele>
        <time>2020-09-01T13:19:33.000Z</time>
      </trkpt>
      <trkpt lat="43.18625" lon="-0.11542">
        <ele>366.94</ele>
        <time>2020-09-01T13:19:38.000Z</time>
      </trkpt>
      <trkpt lat="43.18639" lon="-0.11555">
        <ele>366.97</ele>
        <time>2020-09-01T13:19:43.000Z</time>
      </trkpt>
      <trkpt lat="43.18647" lon="-0.11563">
        <ele>366.99</ele>
        <time>2020-09-01T13:19:48.000Z</time>
      </trkpt>
      <trkpt lat="43.18637" lon="-0.11562">
        <ele>367.16</ele>
        <time>2020-09-01T13:20:23.000Z</time>
      </trkpt>
      <trkpt lat="43.18632" lon="-0.11576">
        <ele>367.49</ele>
        <time>2020-09-01T13:20:29.000Z</time>
      </trkpt>
      <trkpt lat="43.18628" lon="-0.11602">
        <ele>367.58</ele>
        <time>2020-09-01T13:20:34.000Z</time>
      </trkpt>
      <trkpt lat="43.18625" lon="-0.11624">
        <ele>367.61</ele>
        <time>2020-09-01T13:20:39.000Z</time>
      </trkpt>
      <trkpt lat="43.18622" lon="-0.11651">
        <ele>367.61</ele>
        <time>2020-09-01T13:20:44.000Z</time>
      </trkpt>
      <trkpt lat="43.1862" lon="-0.1167">
        <ele>367.59</ele>
        <time>2020-09-01T13:20:49.000Z</time>
      </trkpt>
      <trkpt lat="43.1862" lon="-0.11685">
        <ele>367.56</ele>
        <time>2020-09-01T13:20:54.000Z</time>
      </trkpt>
      <trkpt lat="43.18624" lon="-0.117">
        <ele>367.53</ele>
        <time>2020-09-01T13:20:58.999Z</time>
      </trkpt>
      <trkpt lat="43.18627" lon="-0.11713">
        <ele>367.49</ele>
        <time>2020-09-01T13:21:03.999Z</time>
      </trkpt>
      <trkpt lat="43.18631" lon="-0.11726">
        <ele>367.47</ele>
        <time>2020-09-01T13:21:08.999Z</time>
      </trkpt>
      <trkpt lat="43.18636" lon="-0.11739">
        <ele>367.46</ele>
        <time>2020-09-01T13:21:13.999Z</time>
      </trkpt>
      <trkpt lat="43.18639" lon="-0.11753">
        <ele>367.47</ele>
        <time>2020-09-01T13:21:18.999Z</time>
      </trkpt>
      <trkpt lat="43.18643" lon="-0.11771">
        <ele>367.49</ele>
        <time>2020-09-01T13:21:23.999Z</time>
      </trkpt>
      <trkpt lat="43.18647" lon="-0.1179">
        <ele>367.5</ele>
        <time>2020-09-01T13:21:28.999Z</time>
      </trkpt>
      <trkpt lat="43.1865" lon="-0.11808">
        <ele>367.49</ele>
        <time>2020-09-01T13:21:33.999Z</time>
      </trkpt>
      <trkpt lat="43.18653" lon="-0.11829">
        <ele>367.43</ele>
        <time>2020-09-01T13:21:38.999Z</time>
      </trkpt>
      <trkpt lat="43.18655" lon="-0.1185">
        <ele>367.38</ele>
        <time>2020-09-01T13:21:43.999Z</time>
      </trkpt>
      <trkpt lat="43.18656" lon="-0.11872">
        <ele>367.33</ele>
        <time>2020-09-01T13:21:48.999Z</time>
      </trkpt>
      <trkpt lat="43.18659" lon="-0.11895">
        <ele>367.27</ele>
        <time>2020-09-01T13:21:53.999Z</time>
      </trkpt>
      <trkpt lat="43.18663" lon="-0.11916">
        <ele>367.22</ele>
        <time>2020-09-01T13:21:58.999Z</time>
      </trkpt>
      <trkpt lat="43.18667" lon="-0.11938">
        <ele>367.17</ele>
        <time>2020-09-01T13:22:03.999Z</time>
      </trkpt>
      <trkpt lat="43.1867" lon="-0.11959">
        <ele>367.12</ele>
        <time>2020-09-01T13:22:08.999Z</time>
      </trkpt>
      <trkpt lat="43.18672" lon="-0.11982">
        <ele>367.06</ele>
        <time>2020-09-01T13:22:13.999Z</time>
      </trkpt>
      <trkpt lat="43.18672" lon="-0.12004">
        <ele>366.97</ele>
        <time>2020-09-01T13:22:18.999Z</time>
      </trkpt>
      <trkpt lat="43.1867" lon="-0.12025">
        <ele>366.89</ele>
        <time>2020-09-01T13:22:23.999Z</time>
      </trkpt>
      <trkpt lat="43.18669" lon="-0.12048">
        <ele>366.81</ele>
        <time>2020-09-01T13:22:28.999Z</time>
      </trkpt>
      <trkpt lat="43.18668" lon="-0.12069">
        <ele>366.75</ele>
        <time>2020-09-01T13:22:33.999Z</time>
      </trkpt>
      <trkpt lat="43.18668" lon="-0.1209">
        <ele>366.71</ele>
        <time>2020-09-01T13:22:38.999Z</time>
      </trkpt>
      <trkpt lat="43.18667" lon="-0.12112">
        <ele>366.69</ele>
        <time>2020-09-01T13:22:43.999Z</time>
      </trkpt>
      <trkpt lat="43.18668" lon="-0.12134">
        <ele>366.66</ele>
        <time>2020-09-01T13:22:48.999Z</time>
      </trkpt>
      <trkpt lat="43.1867" lon="-0.12156">
        <ele>366.64</ele>
        <time>2020-09-01T13:22:53.999Z</time>
      </trkpt>
      <trkpt lat="43.18673" lon="-0.12177">
        <ele>366.64</ele>
        <time>2020-09-01T13:22:58.999Z</time>
      </trkpt>
      <trkpt lat="43.18674" lon="-0.12199">
        <ele>366.66</ele>
        <time>2020-09-01T13:23:03.999Z</time>
      </trkpt>
      <trkpt lat="43.18677" lon="-0.12221">
        <ele>366.7</ele>
        <time>2020-09-01T13:23:08.999Z</time>
      </trkpt>
      <trkpt lat="43.1868" lon="-0.12247">
        <ele>366.78</ele>
        <time>2020-09-01T13:23:13.999Z</time>
      </trkpt>
      <trkpt lat="43.18682" lon="-0.12273">
        <ele>366.96</ele>
        <time>2020-09-01T13:23:18.999Z</time>
      </trkpt>
      <trkpt lat="43.18685" lon="-0.12302">
        <ele>367.12</ele>
        <time>2020-09-01T13:23:23.999Z</time>
      </trkpt>
      <trkpt lat="43.18687" lon="-0.12332">
        <ele>367.3</ele>
        <time>2020-09-01T13:23:28.999Z</time>
      </trkpt>
      <trkpt lat="43.18686" lon="-0.12365">
        <ele>367.55</ele>
        <time>2020-09-01T13:23:33.999Z</time>
      </trkpt>
      <trkpt lat="43.18682" lon="-0.12393">
        <ele>367.65</ele>
        <time>2020-09-01T13:23:38.999Z</time>
      </trkpt>
      <trkpt lat="43.18679" lon="-0.12421">
        <ele>367.68</ele>
        <time>2020-09-01T13:23:43.999Z</time>
      </trkpt>
      <trkpt lat="43.18675" lon="-0.12448">
        <ele>367.84</ele>
        <time>2020-09-01T13:23:48.999Z</time>
      </trkpt>
      <trkpt lat="43.18669" lon="-0.12474">
        <ele>368.06</ele>
        <time>2020-09-01T13:23:53.999Z</time>
      </trkpt>
      <trkpt lat="43.18667" lon="-0.12502">
        <ele>367.92</ele>
        <time>2020-09-01T13:23:58.999Z</time>
      </trkpt>
      <trkpt lat="43.18663" lon="-0.12532">
        <ele>367.85</ele>
        <time>2020-09-01T13:24:03.999Z</time>
      </trkpt>
      <trkpt lat="43.18659" lon="-0.12564">
        <ele>367.76</ele>
        <time>2020-09-01T13:24:08.999Z</time>
      </trkpt>
      <trkpt lat="43.18653" lon="-0.12595">
        <ele>367.66</ele>
        <time>2020-09-01T13:24:13.999Z</time>
      </trkpt>
      <trkpt lat="43.1865" lon="-0.12625">
        <ele>367.87</ele>
        <time>2020-09-01T13:24:18.999Z</time>
      </trkpt>
      <trkpt lat="43.18646" lon="-0.12654">
        <ele>368.05</ele>
        <time>2020-09-01T13:24:23.999Z</time>
      </trkpt>
      <trkpt lat="43.18644" lon="-0.12678">
        <ele>368.22</ele>
        <time>2020-09-01T13:24:28.999Z</time>
      </trkpt>
      <trkpt lat="43.1864" lon="-0.12699">
        <ele>368.3</ele>
        <time>2020-09-01T13:24:33.999Z</time>
      </trkpt>
      <trkpt lat="43.18636" lon="-0.12722">
        <ele>368.36</ele>
        <time>2020-09-01T13:24:38.999Z</time>
      </trkpt>
      <trkpt lat="43.18633" lon="-0.12744">
        <ele>368.43</ele>
        <time>2020-09-01T13:24:43.999Z</time>
      </trkpt>
      <trkpt lat="43.18628" lon="-0.12764">
        <ele>368.54</ele>
        <time>2020-09-01T13:24:48.999Z</time>
      </trkpt>
      <trkpt lat="43.18627" lon="-0.12784">
        <ele>368.69</ele>
        <time>2020-09-01T13:24:53.999Z</time>
      </trkpt>
      <trkpt lat="43.18625" lon="-0.12805">
        <ele>368.86</ele>
        <time>2020-09-01T13:24:58.999Z</time>
      </trkpt>
      <trkpt lat="43.18621" lon="-0.12829">
        <ele>369.19</ele>
        <time>2020-09-01T13:25:03.999Z</time>
      </trkpt>
      <trkpt lat="43.18617" lon="-0.12855">
        <ele>369.77</ele>
        <time>2020-09-01T13:25:08.999Z</time>
      </trkpt>
      <trkpt lat="43.18614" lon="-0.12881">
        <ele>369.97</ele>
        <time>2020-09-01T13:25:13.999Z</time>
      </trkpt>
      <trkpt lat="43.18611" lon="-0.12905">
        <ele>369.96</ele>
        <time>2020-09-01T13:25:18.999Z</time>
      </trkpt>
      <trkpt lat="43.18607" lon="-0.1293">
        <ele>369.91</ele>
        <time>2020-09-01T13:25:23.999Z</time>
      </trkpt>
      <trkpt lat="43.18604" lon="-0.12955">
        <ele>369.84</ele>
        <time>2020-09-01T13:25:28.999Z</time>
      </trkpt>
      <trkpt lat="43.186" lon="-0.12982">
        <ele>369.66</ele>
        <time>2020-09-01T13:25:33.999Z</time>
      </trkpt>
      <trkpt lat="43.18597" lon="-0.13011">
        <ele>369.31</ele>
        <time>2020-09-01T13:25:38.999Z</time>
      </trkpt>
      <trkpt lat="43.18599" lon="-0.13042">
        <ele>369.02</ele>
        <time>2020-09-01T13:25:43.999Z</time>
      </trkpt>
      <trkpt lat="43.18588" lon="-0.13072">
        <ele>368.7</ele>
        <time>2020-09-01T13:25:48.999Z</time>
      </trkpt>
      <trkpt lat="43.18582" lon="-0.13103">
        <ele>368.43</ele>
        <time>2020-09-01T13:25:53.999Z</time>
      </trkpt>
      <trkpt lat="43.1858" lon="-0.13133">
        <ele>368.31</ele>
        <time>2020-09-01T13:25:58.999Z</time>
      </trkpt>
      <trkpt lat="43.18575" lon="-0.13164">
        <ele>368.3</ele>
        <time>2020-09-01T13:26:03.999Z</time>
      </trkpt>
      <trkpt lat="43.1857" lon="-0.13194">
        <ele>368.34</ele>
        <time>2020-09-01T13:26:08.999Z</time>
      </trkpt>
      <trkpt lat="43.18565" lon="-0.13226">
        <ele>368.42</ele>
        <time>2020-09-01T13:26:13.999Z</time>
      </trkpt>
      <trkpt lat="43.1856" lon="-0.13258">
        <ele>368.51</ele>
        <time>2020-09-01T13:26:18.999Z</time>
      </trkpt>
      <trkpt lat="43.18555" lon="-0.13289">
        <ele>368.62</ele>
        <time>2020-09-01T13:26:23.999Z</time>
      </trkpt>
      <trkpt lat="43.1855" lon="-0.13318">
        <ele>368.71</ele>
        <time>2020-09-01T13:26:28.999Z</time>
      </trkpt>
      <trkpt lat="43.18546" lon="-0.13347">
        <ele>368.83</ele>
        <time>2020-09-01T13:26:33.999Z</time>
      </trkpt>
      <trkpt lat="43.18542" lon="-0.13373">
        <ele>368.92</ele>
        <time>2020-09-01T13:26:38.999Z</time>
      </trkpt>
      <trkpt lat="43.18539" lon="-0.13397">
        <ele>368.94</ele>
        <time>2020-09-01T13:26:43.999Z</time>
      </trkpt>
      <trkpt lat="43.18535" lon="-0.13418">
        <ele>368.95</ele>
        <time>2020-09-01T13:26:48.999Z</time>
      </trkpt>
      <trkpt lat="43.18532" lon="-0.13437">
        <ele>368.98</ele>
        <time>2020-09-01T13:26:53.999Z</time>
      </trkpt>
      <trkpt lat="43.18529" lon="-0.13456">
        <ele>369.02</ele>
        <time>2020-09-01T13:26:58.999Z</time>
      </trkpt>
      <trkpt lat="43.18528" lon="-0.13476">
        <ele>369.06</ele>
        <time>2020-09-01T13:27:03.999Z</time>
      </trkpt>
      <trkpt lat="43.18527" lon="-0.13496">
        <ele>369.1</ele>
        <time>2020-09-01T13:27:08.999Z</time>
      </trkpt>
      <trkpt lat="43.18529" lon="-0.13517">
        <ele>369.16</ele>
        <time>2020-09-01T13:27:13.999Z</time>
      </trkpt>
      <trkpt lat="43.18531" lon="-0.13538">
        <ele>369.21</ele>
        <time>2020-09-01T13:27:18.999Z</time>
      </trkpt>
      <trkpt lat="43.18534" lon="-0.1356">
        <ele>369.26</ele>
        <time>2020-09-01T13:27:23.999Z</time>
      </trkpt>
      <trkpt lat="43.18537" lon="-0.13586">
        <ele>369.59</ele>
        <time>2020-09-01T13:27:28.999Z</time>
      </trkpt>
      <trkpt lat="43.1854" lon="-0.13613">
        <ele>369.92</ele>
        <time>2020-09-01T13:27:33.999Z</time>
      </trkpt>
      <trkpt lat="43.18544" lon="-0.13644">
        <ele>370.13</ele>
        <time>2020-09-01T13:27:38.999Z</time>
      </trkpt>
      <trkpt lat="43.18547" lon="-0.13671">
        <ele>370.27</ele>
        <time>2020-09-01T13:27:43.999Z</time>
      </trkpt>
      <trkpt lat="43.18551" lon="-0.13705">
        <ele>370.39</ele>
        <time>2020-09-01T13:27:48.999Z</time>
      </trkpt>
      <trkpt lat="43.18555" lon="-0.13736">
        <ele>370.46</ele>
        <time>2020-09-01T13:27:53.999Z</time>
      </trkpt>
      <trkpt lat="43.18558" lon="-0.13764">
        <ele>370.49</ele>
        <time>2020-09-01T13:27:58.999Z</time>
      </trkpt>
      <trkpt lat="43.18561" lon="-0.13793">
        <ele>370.56</ele>
        <time>2020-09-01T13:28:03.999Z</time>
      </trkpt>
      <trkpt lat="43.18565" lon="-0.13822">
        <ele>370.61</ele>
        <time>2020-09-01T13:28:08.999Z</time>
      </trkpt>
      <trkpt lat="43.18569" lon="-0.13852">
        <ele>370.63</ele>
        <time>2020-09-01T13:28:13.999Z</time>
      </trkpt>
      <trkpt lat="43.18572" lon="-0.13881">
        <ele>370.66</ele>
        <time>2020-09-01T13:28:18.999Z</time>
      </trkpt>
      <trkpt lat="43.18576" lon="-0.13911">
        <ele>370.71</ele>
        <time>2020-09-01T13:28:23.999Z</time>
      </trkpt>
      <trkpt lat="43.1858" lon="-0.13941">
        <ele>370.72</ele>
        <time>2020-09-01T13:28:28.999Z</time>
      </trkpt>
      <trkpt lat="43.18584" lon="-0.1397">
        <ele>370.74</ele>
        <time>2020-09-01T13:28:33.999Z</time>
      </trkpt>
      <trkpt lat="43.18588" lon="-0.14003">
        <ele>370.71</ele>
        <time>2020-09-01T13:28:38.999Z</time>
      </trkpt>
      <trkpt lat="43.18592" lon="-0.14036">
        <ele>370.67</ele>
        <time>2020-09-01T13:28:43.999Z</time>
      </trkpt>
      <trkpt lat="43.18596" lon="-0.14067">
        <ele>370.64</ele>
        <time>2020-09-01T13:28:48.999Z</time>
      </trkpt>
      <trkpt lat="43.186" lon="-0.14099">
        <ele>370.61</ele>
        <time>2020-09-01T13:28:53.999Z</time>
      </trkpt>
      <trkpt lat="43.18604" lon="-0.14131">
        <ele>370.59</ele>
        <time>2020-09-01T13:28:58.999Z</time>
      </trkpt>
      <trkpt lat="43.18608" lon="-0.14163">
        <ele>370.59</ele>
        <time>2020-09-01T13:29:03.999Z</time>
      </trkpt>
      <trkpt lat="43.18608" lon="-0.14199">
        <ele>370.58</ele>
        <time>2020-09-01T13:29:08.999Z</time>
      </trkpt>
      <trkpt lat="43.18604" lon="-0.14238">
        <ele>370.55</ele>
        <time>2020-09-01T13:29:13.999Z</time>
      </trkpt>
      <trkpt lat="43.18594" lon="-0.1428">
        <ele>370.48</ele>
        <time>2020-09-01T13:29:18.999Z</time>
      </trkpt>
      <trkpt lat="43.18584" lon="-0.14318">
        <ele>370.4</ele>
        <time>2020-09-01T13:29:23.999Z</time>
      </trkpt>
      <trkpt lat="43.18575" lon="-0.1435">
        <ele>370.34</ele>
        <time>2020-09-01T13:29:28.999Z</time>
      </trkpt>
      <trkpt lat="43.18568" lon="-0.1438">
        <ele>370.3</ele>
        <time>2020-09-01T13:29:33.999Z</time>
      </trkpt>
      <trkpt lat="43.18561" lon="-0.14407">
        <ele>370.27</ele>
        <time>2020-09-01T13:29:38.999Z</time>
      </trkpt>
      <trkpt lat="43.18554" lon="-0.14433">
        <ele>370.24</ele>
        <time>2020-09-01T13:29:43.999Z</time>
      </trkpt>
      <trkpt lat="43.18548" lon="-0.14458">
        <ele>370.23</ele>
        <time>2020-09-01T13:29:48.999Z</time>
      </trkpt>
      <trkpt lat="43.18542" lon="-0.14482">
        <ele>370.21</ele>
        <time>2020-09-01T13:29:53.999Z</time>
      </trkpt>
      <trkpt lat="43.18535" lon="-0.14506">
        <ele>370.21</ele>
        <time>2020-09-01T13:29:58.999Z</time>
      </trkpt>
      <trkpt lat="43.1853" lon="-0.14528">
        <ele>370.21</ele>
        <time>2020-09-01T13:30:03.999Z</time>
      </trkpt>
      <trkpt lat="43.18524" lon="-0.14549">
        <ele>370.21</ele>
        <time>2020-09-01T13:30:08.999Z</time>
      </trkpt>
      <trkpt lat="43.18518" lon="-0.14571">
        <ele>370.22</ele>
        <time>2020-09-01T13:30:13.999Z</time>
      </trkpt>
      <trkpt lat="43.18513" lon="-0.14592">
        <ele>370.23</ele>
        <time>2020-09-01T13:30:18.999Z</time>
      </trkpt>
      <trkpt lat="43.18505" lon="-0.14611">
        <ele>370.24</ele>
        <time>2020-09-01T13:30:23.999Z</time>
      </trkpt>
      <trkpt lat="43.18495" lon="-0.1463">
        <ele>370.25</ele>
        <time>2020-09-01T13:30:28.999Z</time>
      </trkpt>
      <trkpt lat="43.18487" lon="-0.14648">
        <ele>370.27</ele>
        <time>2020-09-01T13:30:33.999Z</time>
      </trkpt>
      <trkpt lat="43.18478" lon="-0.14665">
        <ele>370.29</ele>
        <time>2020-09-01T13:30:38.999Z</time>
      </trkpt>
      <trkpt lat="43.18468" lon="-0.14682">
        <ele>370.31</ele>
        <time>2020-09-01T13:30:43.999Z</time>
      </trkpt>
      <trkpt lat="43.1846" lon="-0.14698">
        <ele>370.34</ele>
        <time>2020-09-01T13:30:48.999Z</time>
      </trkpt>
      <trkpt lat="43.18451" lon="-0.14716">
        <ele>370.37</ele>
        <time>2020-09-01T13:30:53.999Z</time>
      </trkpt>
      <trkpt lat="43.18444" lon="-0.14735">
        <ele>370.39</ele>
        <time>2020-09-01T13:30:58.999Z</time>
      </trkpt>
      <trkpt lat="43.18438" lon="-0.14753">
        <ele>370.42</ele>
        <time>2020-09-01T13:31:03.999Z</time>
      </trkpt>
      <trkpt lat="43.18432" lon="-0.14772">
        <ele>370.45</ele>
        <time>2020-09-01T13:31:08.999Z</time>
      </trkpt>
      <trkpt lat="43.18427" lon="-0.14791">
        <ele>370.48</ele>
        <time>2020-09-01T13:31:13.999Z</time>
      </trkpt>
      <trkpt lat="43.18421" lon="-0.1481">
        <ele>370.51</ele>
        <time>2020-09-01T13:31:18.999Z</time>
      </trkpt>
      <trkpt lat="43.18415" lon="-0.14829">
        <ele>370.54</ele>
        <time>2020-09-01T13:31:23.999Z</time>
      </trkpt>
      <trkpt lat="43.18411" lon="-0.14848">
        <ele>370.57</ele>
        <time>2020-09-01T13:31:28.999Z</time>
      </trkpt>
      <trkpt lat="43.18406" lon="-0.14866">
        <ele>370.6</ele>
        <time>2020-09-01T13:31:33.999Z</time>
      </trkpt>
      <trkpt lat="43.18402" lon="-0.14882">
        <ele>370.64</ele>
        <time>2020-09-01T13:31:38.999Z</time>
      </trkpt>
      <trkpt lat="43.18397" lon="-0.14899">
        <ele>370.67</ele>
        <time>2020-09-01T13:31:43.999Z</time>
      </trkpt>
      <trkpt lat="43.18393" lon="-0.14917">
        <ele>370.7</ele>
        <time>2020-09-01T13:31:48.999Z</time>
      </trkpt>
      <trkpt lat="43.18389" lon="-0.14934">
        <ele>370.74</ele>
        <time>2020-09-01T13:31:53.999Z</time>
      </trkpt>
      <trkpt lat="43.18384" lon="-0.14949">
        <ele>370.78</ele>
        <time>2020-09-01T13:31:58.999Z</time>
      </trkpt>
      <trkpt lat="43.18381" lon="-0.14964">
        <ele>370.81</ele>
        <time>2020-09-01T13:32:03.999Z</time>
      </trkpt>
      <trkpt lat="43.18377" lon="-0.14979">
        <ele>370.85</ele>
        <time>2020-09-01T13:32:08.999Z</time>
      </trkpt>
      <trkpt lat="43.18373" lon="-0.14996">
        <ele>370.89</ele>
        <time>2020-09-01T13:32:13.999Z</time>
      </trkpt>
      <trkpt lat="43.18369" lon="-0.15012">
        <ele>370.93</ele>
        <time>2020-09-01T13:32:18.999Z</time>
      </trkpt>
      <trkpt lat="43.18365" lon="-0.15028">
        <ele>370.97</ele>
        <time>2020-09-01T13:32:23.999Z</time>
      </trkpt>
      <trkpt lat="43.18361" lon="-0.15042">
        <ele>371.01</ele>
        <time>2020-09-01T13:32:28.999Z</time>
      </trkpt>
      <trkpt lat="43.18358" lon="-0.15055">
        <ele>371.06</ele>
        <time>2020-09-01T13:32:34.999Z</time>
      </trkpt>
      <trkpt lat="43.18355" lon="-0.15067">
        <ele>371.11</ele>
        <time>2020-09-01T13:32:39.999Z</time>
      </trkpt>
      <trkpt lat="43.1835" lon="-0.1508">
        <ele>371.17</ele>
        <time>2020-09-01T13:32:45.999Z</time>
      </trkpt>
      <trkpt lat="43.18344" lon="-0.15092">
        <ele>371.22</ele>
        <time>2020-09-01T13:32:51.999Z</time>
      </trkpt>
      <trkpt lat="43.18339" lon="-0.15102">
        <ele>371.27</ele>
        <time>2020-09-01T13:32:56.999Z</time>
      </trkpt>
      <trkpt lat="43.18333" lon="-0.15114">
        <ele>371.32</ele>
        <time>2020-09-01T13:33:01.999Z</time>
      </trkpt>
      <trkpt lat="43.18328" lon="-0.15125">
        <ele>371.38</ele>
        <time>2020-09-01T13:33:06.999Z</time>
      </trkpt>
      <trkpt lat="43.18323" lon="-0.15136">
        <ele>371.43</ele>
        <time>2020-09-01T13:33:12.000Z</time>
      </trkpt>
      <trkpt lat="43.18318" lon="-0.15147">
        <ele>371.49</ele>
        <time>2020-09-01T13:33:17.000Z</time>
      </trkpt>
      <trkpt lat="43.18313" lon="-0.15158">
        <ele>371.55</ele>
        <time>2020-09-01T13:33:22.000Z</time>
      </trkpt>
      <trkpt lat="43.18308" lon="-0.15169">
        <ele>371.62</ele>
        <time>2020-09-01T13:33:28.000Z</time>
      </trkpt>
      <trkpt lat="43.18303" lon="-0.1518">
        <ele>371.88</ele>
        <time>2020-09-01T13:34:39.000Z</time>
      </trkpt>
      <trkpt lat="43.18296" lon="-0.15188">
        <ele>372.47</ele>
        <time>2020-09-01T13:36:31.000Z</time>
      </trkpt>
      <trkpt lat="43.1829" lon="-0.152">
        <ele>372.61</ele>
        <time>2020-09-01T13:36:36.000Z</time>
      </trkpt>
      <trkpt lat="43.18286" lon="-0.15212">
        <ele>372.75</ele>
        <time>2020-09-01T13:36:41.000Z</time>
      </trkpt>
      <trkpt lat="43.18281" lon="-0.15223">
        <ele>372.89</ele>
        <time>2020-09-01T13:36:46.000Z</time>
      </trkpt>
      <trkpt lat="43.18276" lon="-0.15235">
        <ele>373.08</ele>
        <time>2020-09-01T13:36:53.000Z</time>
      </trkpt>
      <trkpt lat="43.1827" lon="-0.15246">
        <ele>373.24</ele>
        <time>2020-09-01T13:36:59.000Z</time>
      </trkpt>
      <trkpt lat="43.18266" lon="-0.15258">
        <ele>373.39</ele>
        <time>2020-09-01T13:37:05.000Z</time>
      </trkpt>
      <trkpt lat="43.18261" lon="-0.1527">
        <ele>373.57</ele>
        <time>2020-09-01T13:37:12.000Z</time>
      </trkpt>
      <trkpt lat="43.18258" lon="-0.15282">
        <ele>373.74</ele>
        <time>2020-09-01T13:37:19.000Z</time>
      </trkpt>
      <trkpt lat="43.18253" lon="-0.15294">
        <ele>373.88</ele>
        <time>2020-09-01T13:37:25.000Z</time>
      </trkpt>
      <trkpt lat="43.18247" lon="-0.15306">
        <ele>374.05</ele>
        <time>2020-09-01T13:37:32.000Z</time>
      </trkpt>
      <trkpt lat="43.18245" lon="-0.15319">
        <ele>374.2</ele>
        <time>2020-09-01T13:37:38.000Z</time>
      </trkpt>
      <trkpt lat="43.18243" lon="-0.15331">
        <ele>374.34</ele>
        <time>2020-09-01T13:37:44.000Z</time>
      </trkpt>
      <trkpt lat="43.18243" lon="-0.15344">
        <ele>374.5</ele>
        <time>2020-09-01T13:37:51.000Z</time>
      </trkpt>
      <trkpt lat="43.18244" lon="-0.15357">
        <ele>374.67</ele>
        <time>2020-09-01T13:37:58.000Z</time>
      </trkpt>
      <trkpt lat="43.18246" lon="-0.15371">
        <ele>374.85</ele>
        <time>2020-09-01T13:38:05.000Z</time>
      </trkpt>
      <trkpt lat="43.18249" lon="-0.15384">
        <ele>375</ele>
        <time>2020-09-01T13:38:11.000Z</time>
      </trkpt>
      <trkpt lat="43.18254" lon="-0.15396">
        <ele>375.19</ele>
        <time>2020-09-01T13:38:18.000Z</time>
      </trkpt>
      <trkpt lat="43.18256" lon="-0.15408">
        <ele>375.39</ele>
        <time>2020-09-01T13:38:25.000Z</time>
      </trkpt>
      <trkpt lat="43.18259" lon="-0.1542">
        <ele>375.61</ele>
        <time>2020-09-01T13:38:32.000Z</time>
      </trkpt>
      <trkpt lat="43.18262" lon="-0.15432">
        <ele>375.9</ele>
        <time>2020-09-01T13:38:41.000Z</time>
      </trkpt>
      <trkpt lat="43.18267" lon="-0.15443">
        <ele>376.3</ele>
        <time>2020-09-01T13:38:59.000Z</time>
      </trkpt>
      <trkpt lat="43.18272" lon="-0.15454">
        <ele>376.61</ele>
        <time>2020-09-01T13:39:08.000Z</time>
      </trkpt>
      <trkpt lat="43.18278" lon="-0.15464">
        <ele>376.91</ele>
        <time>2020-09-01T13:39:17.000Z</time>
      </trkpt>
      <trkpt lat="43.18282" lon="-0.15475">
        <ele>377.18</ele>
        <time>2020-09-01T13:39:25.000Z</time>
      </trkpt>
      <trkpt lat="43.18288" lon="-0.15486">
        <ele>377.5</ele>
        <time>2020-09-01T13:39:34.000Z</time>
      </trkpt>
      <trkpt lat="43.18294" lon="-0.15497">
        <ele>377.87</ele>
        <time>2020-09-01T13:39:44.000Z</time>
      </trkpt>
      <trkpt lat="43.18302" lon="-0.15505">
        <ele>378.27</ele>
        <time>2020-09-01T13:39:54.000Z</time>
      </trkpt>
      <trkpt lat="43.18311" lon="-0.15512">
        <ele>378.71</ele>
        <time>2020-09-01T13:40:05.000Z</time>
      </trkpt>
      <trkpt lat="43.1832" lon="-0.15516">
        <ele>379.02</ele>
        <time>2020-09-01T13:40:13.000Z</time>
      </trkpt>
      <trkpt lat="43.18329" lon="-0.15517">
        <ele>379.51</ele>
        <time>2020-09-01T13:40:25.000Z</time>
      </trkpt>
      <trkpt lat="43.18338" lon="-0.15518">
        <ele>379.97</ele>
        <time>2020-09-01T13:40:40.000Z</time>
      </trkpt>
      <trkpt lat="43.1835" lon="-0.15519">
        <ele>380.3</ele>
        <time>2020-09-01T13:40:47.000Z</time>
      </trkpt>
      <trkpt lat="43.1836" lon="-0.15518">
        <ele>380.69</ele>
        <time>2020-09-01T13:40:55.000Z</time>
      </trkpt>
      <trkpt lat="43.1837" lon="-0.15517">
        <ele>381.11</ele>
        <time>2020-09-01T13:41:03.000Z</time>
      </trkpt>
      <trkpt lat="43.1838" lon="-0.15518">
        <ele>381.37</ele>
        <time>2020-09-01T13:41:08.000Z</time>
      </trkpt>
      <trkpt lat="43.18389" lon="-0.15519">
        <ele>381.65</ele>
        <time>2020-09-01T13:41:13.000Z</time>
      </trkpt>
      <trkpt lat="43.18399" lon="-0.1552">
        <ele>381.98</ele>
        <time>2020-09-01T13:41:19.000Z</time>
      </trkpt>
      <trkpt lat="43.18407" lon="-0.15528">
        <ele>382.45</ele>
        <time>2020-09-01T13:41:27.000Z</time>
      </trkpt>
      <trkpt lat="43.18413" lon="-0.15538">
        <ele>382.79</ele>
        <time>2020-09-01T13:41:33.000Z</time>
      </trkpt>
      <trkpt lat="43.18417" lon="-0.1555">
        <ele>383.13</ele>
        <time>2020-09-01T13:41:39.000Z</time>
      </trkpt>
      <trkpt lat="43.18417" lon="-0.15562">
        <ele>383.52</ele>
        <time>2020-09-01T13:41:46.000Z</time>
      </trkpt>
      <trkpt lat="43.18413" lon="-0.15575">
        <ele>383.85</ele>
        <time>2020-09-01T13:41:52.000Z</time>
      </trkpt>
      <trkpt lat="43.18405" lon="-0.15584">
        <ele>384.14</ele>
        <time>2020-09-01T13:41:57.000Z</time>
      </trkpt>
      <trkpt lat="43.18397" lon="-0.15591">
        <ele>384.49</ele>
        <time>2020-09-01T13:42:03.000Z</time>
      </trkpt>
      <trkpt lat="43.18387" lon="-0.15599">
        <ele>384.93</ele>
        <time>2020-09-01T13:42:10.000Z</time>
      </trkpt>
      <trkpt lat="43.18379" lon="-0.15606">
        <ele>385.33</ele>
        <time>2020-09-01T13:42:16.000Z</time>
      </trkpt>
      <trkpt lat="43.18371" lon="-0.15612">
        <ele>385.76</ele>
        <time>2020-09-01T13:42:22.000Z</time>
      </trkpt>
      <trkpt lat="43.18362" lon="-0.15618">
        <ele>386.22</ele>
        <time>2020-09-01T13:42:28.000Z</time>
      </trkpt>
      <trkpt lat="43.18354" lon="-0.15625">
        <ele>386.85</ele>
        <time>2020-09-01T13:42:35.000Z</time>
      </trkpt>
      <trkpt lat="43.18345" lon="-0.15633">
        <ele>387.44</ele>
        <time>2020-09-01T13:42:41.000Z</time>
      </trkpt>
      <trkpt lat="43.18336" lon="-0.1564">
        <ele>388.23</ele>
        <time>2020-09-01T13:42:48.000Z</time>
      </trkpt>
      <trkpt lat="43.18329" lon="-0.15648">
        <ele>389.02</ele>
        <time>2020-09-01T13:42:54.000Z</time>
      </trkpt>
      <trkpt lat="43.18321" lon="-0.15654">
        <ele>389.92</ele>
        <time>2020-09-01T13:43:00.000Z</time>
      </trkpt>
      <trkpt lat="43.18313" lon="-0.15661">
        <ele>390.73</ele>
        <time>2020-09-01T13:43:05.000Z</time>
      </trkpt>
      <trkpt lat="43.18305" lon="-0.15668">
        <ele>391.75</ele>
        <time>2020-09-01T13:43:11.000Z</time>
      </trkpt>
      <trkpt lat="43.18297" lon="-0.15675">
        <ele>392.62</ele>
        <time>2020-09-01T13:43:16.000Z</time>
      </trkpt>
      <trkpt lat="43.18287" lon="-0.15682">
        <ele>393.68</ele>
        <time>2020-09-01T13:43:22.000Z</time>
      </trkpt>
      <trkpt lat="43.18278" lon="-0.15688">
        <ele>394.57</ele>
        <time>2020-09-01T13:43:27.000Z</time>
      </trkpt>
      <trkpt lat="43.18269" lon="-0.15695">
        <ele>395.47</ele>
        <time>2020-09-01T13:43:32.000Z</time>
      </trkpt>
      <trkpt lat="43.1826" lon="-0.15701">
        <ele>396.36</ele>
        <time>2020-09-01T13:43:37.000Z</time>
      </trkpt>
      <trkpt lat="43.18251" lon="-0.15708">
        <ele>397.23</ele>
        <time>2020-09-01T13:43:42.000Z</time>
      </trkpt>
      <trkpt lat="43.18242" lon="-0.15716">
        <ele>398.09</ele>
        <time>2020-09-01T13:43:47.000Z</time>
      </trkpt>
      <trkpt lat="43.18234" lon="-0.15723">
        <ele>398.92</ele>
        <time>2020-09-01T13:43:52.000Z</time>
      </trkpt>
      <trkpt lat="43.18225" lon="-0.15729">
        <ele>399.73</ele>
        <time>2020-09-01T13:43:57.000Z</time>
      </trkpt>
      <trkpt lat="43.18216" lon="-0.15736">
        <ele>400.68</ele>
        <time>2020-09-01T13:44:03.000Z</time>
      </trkpt>
      <trkpt lat="43.18207" lon="-0.15744">
        <ele>401.62</ele>
        <time>2020-09-01T13:44:09.000Z</time>
      </trkpt>
      <trkpt lat="43.182" lon="-0.15751">
        <ele>402.41</ele>
        <time>2020-09-01T13:44:14.000Z</time>
      </trkpt>
      <trkpt lat="43.18191" lon="-0.15759">
        <ele>403.2</ele>
        <time>2020-09-01T13:44:19.000Z</time>
      </trkpt>
      <trkpt lat="43.18182" lon="-0.15766">
        <ele>404.12</ele>
        <time>2020-09-01T13:44:25.000Z</time>
      </trkpt>
      <trkpt lat="43.18174" lon="-0.15774">
        <ele>405</ele>
        <time>2020-09-01T13:44:31.000Z</time>
      </trkpt>
      <trkpt lat="43.18166" lon="-0.15784">
        <ele>405.84</ele>
        <time>2020-09-01T13:44:37.000Z</time>
      </trkpt>
      <trkpt lat="43.1816" lon="-0.15796">
        <ele>406.65</ele>
        <time>2020-09-01T13:44:43.000Z</time>
      </trkpt>
      <trkpt lat="43.18155" lon="-0.15807">
        <ele>407.42</ele>
        <time>2020-09-01T13:44:49.000Z</time>
      </trkpt>
      <trkpt lat="43.18151" lon="-0.1582">
        <ele>408.16</ele>
        <time>2020-09-01T13:44:55.000Z</time>
      </trkpt>
      <trkpt lat="43.18148" lon="-0.15832">
        <ele>408.88</ele>
        <time>2020-09-01T13:45:01.000Z</time>
      </trkpt>
      <trkpt lat="43.18145" lon="-0.15845">
        <ele>409.58</ele>
        <time>2020-09-01T13:45:07.000Z</time>
      </trkpt>
      <trkpt lat="43.18142" lon="-0.15856">
        <ele>410.25</ele>
        <time>2020-09-01T13:45:13.000Z</time>
      </trkpt>
      <trkpt lat="43.18139" lon="-0.1587">
        <ele>410.91</ele>
        <time>2020-09-01T13:45:19.000Z</time>
      </trkpt>
      <trkpt lat="43.18135" lon="-0.15882">
        <ele>411.54</ele>
        <time>2020-09-01T13:45:24.999Z</time>
      </trkpt>
      <trkpt lat="43.18131" lon="-0.15894">
        <ele>412.15</ele>
        <time>2020-09-01T13:45:30.999Z</time>
      </trkpt>
      <trkpt lat="43.18128" lon="-0.15906">
        <ele>412.76</ele>
        <time>2020-09-01T13:45:36.999Z</time>
      </trkpt>
      <trkpt lat="43.18126" lon="-0.15918">
        <ele>413.24</ele>
        <time>2020-09-01T13:45:41.999Z</time>
      </trkpt>
      <trkpt lat="43.18125" lon="-0.15932">
        <ele>413.79</ele>
        <time>2020-09-01T13:45:47.999Z</time>
      </trkpt>
      <trkpt lat="43.18125" lon="-0.15945">
        <ele>414.24</ele>
        <time>2020-09-01T13:45:52.999Z</time>
      </trkpt>
      <trkpt lat="43.18124" lon="-0.15959">
        <ele>414.67</ele>
        <time>2020-09-01T13:45:57.999Z</time>
      </trkpt>
      <trkpt lat="43.18127" lon="-0.15972">
        <ele>415.21</ele>
        <time>2020-09-01T13:46:03.999Z</time>
      </trkpt>
      <trkpt lat="43.18128" lon="-0.15989">
        <ele>415.68</ele>
        <time>2020-09-01T13:46:08.999Z</time>
      </trkpt>
      <trkpt lat="43.18128" lon="-0.16006">
        <ele>416.17</ele>
        <time>2020-09-01T13:46:13.999Z</time>
      </trkpt>
      <trkpt lat="43.18127" lon="-0.16023">
        <ele>416.65</ele>
        <time>2020-09-01T13:46:18.999Z</time>
      </trkpt>
      <trkpt lat="43.18127" lon="-0.1604">
        <ele>417.13</ele>
        <time>2020-09-01T13:46:23.999Z</time>
      </trkpt>
      <trkpt lat="43.18126" lon="-0.16056">
        <ele>417.61</ele>
        <time>2020-09-01T13:46:28.999Z</time>
      </trkpt>
      <trkpt lat="43.18126" lon="-0.1607">
        <ele>418.09</ele>
        <time>2020-09-01T13:46:33.999Z</time>
      </trkpt>
      <trkpt lat="43.18125" lon="-0.16083">
        <ele>418.57</ele>
        <time>2020-09-01T13:46:38.999Z</time>
      </trkpt>
      <trkpt lat="43.18125" lon="-0.16097">
        <ele>419.05</ele>
        <time>2020-09-01T13:46:43.999Z</time>
      </trkpt>
      <trkpt lat="43.18124" lon="-0.1611">
        <ele>419.54</ele>
        <time>2020-09-01T13:46:48.999Z</time>
      </trkpt>
      <trkpt lat="43.18124" lon="-0.16125">
        <ele>420.12</ele>
        <time>2020-09-01T13:46:54.999Z</time>
      </trkpt>
      <trkpt lat="43.18123" lon="-0.16138">
        <ele>420.7</ele>
        <time>2020-09-01T13:47:00.999Z</time>
      </trkpt>
      <trkpt lat="43.18122" lon="-0.16151">
        <ele>421.18</ele>
        <time>2020-09-01T13:47:05.999Z</time>
      </trkpt>
      <trkpt lat="43.18122" lon="-0.16164">
        <ele>421.67</ele>
        <time>2020-09-01T13:47:10.999Z</time>
      </trkpt>
      <trkpt lat="43.18122" lon="-0.16177">
        <ele>422.36</ele>
        <time>2020-09-01T13:47:17.999Z</time>
      </trkpt>
      <trkpt lat="43.18121" lon="-0.16192">
        <ele>423.05</ele>
        <time>2020-09-01T13:47:24.999Z</time>
      </trkpt>
      <trkpt lat="43.18121" lon="-0.16206">
        <ele>423.64</ele>
        <time>2020-09-01T13:47:30.999Z</time>
      </trkpt>
      <trkpt lat="43.18123" lon="-0.1622">
        <ele>424.23</ele>
        <time>2020-09-01T13:47:36.999Z</time>
      </trkpt>
      <trkpt lat="43.18125" lon="-0.16233">
        <ele>424.82</ele>
        <time>2020-09-01T13:47:42.999Z</time>
      </trkpt>
      <trkpt lat="43.18127" lon="-0.16246">
        <ele>425.4</ele>
        <time>2020-09-01T13:47:48.999Z</time>
      </trkpt>
      <trkpt lat="43.1813" lon="-0.16259">
        <ele>425.97</ele>
        <time>2020-09-01T13:47:54.999Z</time>
      </trkpt>
      <trkpt lat="43.18134" lon="-0.1627">
        <ele>426.43</ele>
        <time>2020-09-01T13:47:59.999Z</time>
      </trkpt>
      <trkpt lat="43.18139" lon="-0.16283">
        <ele>426.96</ele>
        <time>2020-09-01T13:48:05.999Z</time>
      </trkpt>
      <trkpt lat="43.18145" lon="-0.16295">
        <ele>427.51</ele>
        <time>2020-09-01T13:48:11.999Z</time>
      </trkpt>
      <trkpt lat="43.1815" lon="-0.16306">
        <ele>428.06</ele>
        <time>2020-09-01T13:48:17.999Z</time>
      </trkpt>
      <trkpt lat="43.18153" lon="-0.16319">
        <ele>428.54</ele>
        <time>2020-09-01T13:48:22.999Z</time>
      </trkpt>
      <trkpt lat="43.18156" lon="-0.16331">
        <ele>429.13</ele>
        <time>2020-09-01T13:48:28.999Z</time>
      </trkpt>
      <trkpt lat="43.18159" lon="-0.16343">
        <ele>429.7</ele>
        <time>2020-09-01T13:48:34.999Z</time>
      </trkpt>
      <trkpt lat="43.18163" lon="-0.16355">
        <ele>430.26</ele>
        <time>2020-09-01T13:48:40.999Z</time>
      </trkpt>
      <trkpt lat="43.18166" lon="-0.16367">
        <ele>430.8</ele>
        <time>2020-09-01T13:48:46.999Z</time>
      </trkpt>
      <trkpt lat="43.1817" lon="-0.16378">
        <ele>431.33</ele>
        <time>2020-09-01T13:48:52.999Z</time>
      </trkpt>
      <trkpt lat="43.18173" lon="-0.16391">
        <ele>431.83</ele>
        <time>2020-09-01T13:48:58.999Z</time>
      </trkpt>
      <trkpt lat="43.18181" lon="-0.16398">
        <ele>432.26</ele>
        <time>2020-09-01T13:49:03.999Z</time>
      </trkpt>
      <trkpt lat="43.18187" lon="-0.1641">
        <ele>432.83</ele>
        <time>2020-09-01T13:49:09.999Z</time>
      </trkpt>
      <trkpt lat="43.18191" lon="-0.16423">
        <ele>433.42</ele>
        <time>2020-09-01T13:49:15.999Z</time>
      </trkpt>
      <trkpt lat="43.18192" lon="-0.16438">
        <ele>434.02</ele>
        <time>2020-09-01T13:49:21.999Z</time>
      </trkpt>
      <trkpt lat="43.18191" lon="-0.16453">
        <ele>434.63</ele>
        <time>2020-09-01T13:49:27.999Z</time>
      </trkpt>
      <trkpt lat="43.18188" lon="-0.16467">
        <ele>435.15</ele>
        <time>2020-09-01T13:49:32.999Z</time>
      </trkpt>
      <trkpt lat="43.18186" lon="-0.16487">
        <ele>435.68</ele>
        <time>2020-09-01T13:49:37.999Z</time>
      </trkpt>
      <trkpt lat="43.18183" lon="-0.16508">
        <ele>436.2</ele>
        <time>2020-09-01T13:49:42.999Z</time>
      </trkpt>
      <trkpt lat="43.18179" lon="-0.16531">
        <ele>438.16</ele>
        <time>2020-09-01T13:49:47.999Z</time>
      </trkpt>
      <trkpt lat="43.18175" lon="-0.16558">
        <ele>440.82</ele>
        <time>2020-09-01T13:49:52.999Z</time>
      </trkpt>
      <trkpt lat="43.1817" lon="-0.16591">
        <ele>441.92</ele>
        <time>2020-09-01T13:49:57.999Z</time>
      </trkpt>
      <trkpt lat="43.18166" lon="-0.1663">
        <ele>442.47</ele>
        <time>2020-09-01T13:50:02.999Z</time>
      </trkpt>
      <trkpt lat="43.1816" lon="-0.16673">
        <ele>442.8</ele>
        <time>2020-09-01T13:50:07.999Z</time>
      </trkpt>
      <trkpt lat="43.18156" lon="-0.16721">
        <ele>442.96</ele>
        <time>2020-09-01T13:50:12.999Z</time>
      </trkpt>
      <trkpt lat="43.18156" lon="-0.16772">
        <ele>443.02</ele>
        <time>2020-09-01T13:50:17.999Z</time>
      </trkpt>
      <trkpt lat="43.18157" lon="-0.16829">
        <ele>442.66</ele>
        <time>2020-09-01T13:50:22.999Z</time>
      </trkpt>
      <trkpt lat="43.18161" lon="-0.16895">
        <ele>442.55</ele>
        <time>2020-09-01T13:50:27.999Z</time>
      </trkpt>
      <trkpt lat="43.1817" lon="-0.16962">
        <ele>442.64</ele>
        <time>2020-09-01T13:50:32.999Z</time>
      </trkpt>
      <trkpt lat="43.18183" lon="-0.17029">
        <ele>442.7</ele>
        <time>2020-09-01T13:50:37.999Z</time>
      </trkpt>
      <trkpt lat="43.18198" lon="-0.171">
        <ele>442.73</ele>
        <time>2020-09-01T13:50:42.999Z</time>
      </trkpt>
      <trkpt lat="43.18214" lon="-0.17176">
        <ele>442.75</ele>
        <time>2020-09-01T13:50:47.999Z</time>
      </trkpt>
      <trkpt lat="43.18213" lon="-0.1725">
        <ele>442.66</ele>
        <time>2020-09-01T13:50:52.999Z</time>
      </trkpt>
      <trkpt lat="43.18207" lon="-0.17325">
        <ele>442.07</ele>
        <time>2020-09-01T13:50:57.999Z</time>
      </trkpt>
      <trkpt lat="43.18214" lon="-0.17402">
        <ele>441.31</ele>
        <time>2020-09-01T13:51:02.999Z</time>
      </trkpt>
      <trkpt lat="43.18221" lon="-0.17478">
        <ele>440.27</ele>
        <time>2020-09-01T13:51:07.999Z</time>
      </trkpt>
      <trkpt lat="43.1823" lon="-0.17551">
        <ele>439.42</ele>
        <time>2020-09-01T13:51:12.999Z</time>
      </trkpt>
      <trkpt lat="43.18248" lon="-0.17623">
        <ele>438.48</ele>
        <time>2020-09-01T13:51:17.999Z</time>
      </trkpt>
      <trkpt lat="43.18264" lon="-0.17697">
        <ele>436.7</ele>
        <time>2020-09-01T13:51:22.999Z</time>
      </trkpt>
      <trkpt lat="43.18288" lon="-0.17771">
        <ele>434.36</ele>
        <time>2020-09-01T13:51:27.999Z</time>
      </trkpt>
      <trkpt lat="43.18315" lon="-0.17854">
        <ele>430.67</ele>
        <time>2020-09-01T13:51:32.999Z</time>
      </trkpt>
      <trkpt lat="43.18341" lon="-0.17943">
        <ele>426.52</ele>
        <time>2020-09-01T13:51:37.999Z</time>
      </trkpt>
      <trkpt lat="43.18365" lon="-0.18032">
        <ele>421.96</ele>
        <time>2020-09-01T13:51:42.999Z</time>
      </trkpt>
      <trkpt lat="43.18383" lon="-0.18118">
        <ele>417.49</ele>
        <time>2020-09-01T13:51:47.999Z</time>
      </trkpt>
      <trkpt lat="43.18392" lon="-0.18202">
        <ele>412.94</ele>
        <time>2020-09-01T13:51:52.999Z</time>
      </trkpt>
      <trkpt lat="43.18402" lon="-0.18284">
        <ele>408.89</ele>
        <time>2020-09-01T13:51:57.999Z</time>
      </trkpt>
      <trkpt lat="43.18386" lon="-0.18361">
        <ele>405.41</ele>
        <time>2020-09-01T13:52:02.999Z</time>
      </trkpt>
      <trkpt lat="43.1835" lon="-0.18426">
        <ele>401.87</ele>
        <time>2020-09-01T13:52:07.999Z</time>
      </trkpt>
      <trkpt lat="43.18305" lon="-0.18481">
        <ele>398</ele>
        <time>2020-09-01T13:52:12.999Z</time>
      </trkpt>
      <trkpt lat="43.18293" lon="-0.18555">
        <ele>394.54</ele>
        <time>2020-09-01T13:52:17.999Z</time>
      </trkpt>
      <trkpt lat="43.18307" lon="-0.18631">
        <ele>390.31</ele>
        <time>2020-09-01T13:52:22.999Z</time>
      </trkpt>
      <trkpt lat="43.18346" lon="-0.1869">
        <ele>385.98</ele>
        <time>2020-09-01T13:52:27.999Z</time>
      </trkpt>
      <trkpt lat="43.18388" lon="-0.18737">
        <ele>381.22</ele>
        <time>2020-09-01T13:52:32.999Z</time>
      </trkpt>
      <trkpt lat="43.18391" lon="-0.18776">
        <ele>374.16</ele>
        <time>2020-09-01T13:52:37.999Z</time>
      </trkpt>
      <trkpt lat="43.18344" lon="-0.188">
        <ele>367.75</ele>
        <time>2020-09-01T13:52:42.999Z</time>
      </trkpt>
      <trkpt lat="43.18355" lon="-0.1886">
        <ele>363.23</ele>
        <time>2020-09-01T13:52:47.999Z</time>
      </trkpt>
      <trkpt lat="43.18387" lon="-0.1892">
        <ele>358.95</ele>
        <time>2020-09-01T13:52:52.999Z</time>
      </trkpt>
      <trkpt lat="43.18407" lon="-0.18996">
        <ele>354.57</ele>
        <time>2020-09-01T13:52:57.999Z</time>
      </trkpt>
      <trkpt lat="43.18452" lon="-0.19058">
        <ele>348.32</ele>
        <time>2020-09-01T13:53:02.999Z</time>
      </trkpt>
      <trkpt lat="43.18491" lon="-0.19109">
        <ele>344.59</ele>
        <time>2020-09-01T13:53:07.999Z</time>
      </trkpt>
      <trkpt lat="43.1846" lon="-0.19143">
        <ele>342.91</ele>
        <time>2020-09-01T13:53:12.999Z</time>
      </trkpt>
      <trkpt lat="43.18405" lon="-0.19174">
        <ele>340.09</ele>
        <time>2020-09-01T13:53:17.999Z</time>
      </trkpt>
      <trkpt lat="43.1836" lon="-0.19239">
        <ele>334.39</ele>
        <time>2020-09-01T13:53:22.999Z</time>
      </trkpt>
      <trkpt lat="43.18336" lon="-0.19317">
        <ele>329.41</ele>
        <time>2020-09-01T13:53:27.999Z</time>
      </trkpt>
      <trkpt lat="43.18333" lon="-0.19387">
        <ele>328.14</ele>
        <time>2020-09-01T13:53:32.999Z</time>
      </trkpt>
      <trkpt lat="43.18342" lon="-0.19445">
        <ele>324.68</ele>
        <time>2020-09-01T13:53:37.999Z</time>
      </trkpt>
      <trkpt lat="43.18354" lon="-0.19501">
        <ele>320.41</ele>
        <time>2020-09-01T13:53:42.999Z</time>
      </trkpt>
      <trkpt lat="43.18366" lon="-0.19552">
        <ele>316.52</ele>
        <time>2020-09-01T13:53:47.999Z</time>
      </trkpt>
      <trkpt lat="43.18375" lon="-0.19596">
        <ele>312.97</ele>
        <time>2020-09-01T13:53:52.999Z</time>
      </trkpt>
      <trkpt lat="43.18383" lon="-0.19636">
        <ele>309.49</ele>
        <time>2020-09-01T13:53:57.999Z</time>
      </trkpt>
      <trkpt lat="43.1839" lon="-0.1967">
        <ele>308.08</ele>
        <time>2020-09-01T13:54:02.999Z</time>
      </trkpt>
      <trkpt lat="43.18397" lon="-0.19703">
        <ele>307.23</ele>
        <time>2020-09-01T13:54:07.999Z</time>
      </trkpt>
      <trkpt lat="43.18402" lon="-0.19729">
        <ele>306.81</ele>
        <time>2020-09-01T13:54:12.999Z</time>
      </trkpt>
      <trkpt lat="43.18407" lon="-0.19752">
        <ele>306.71</ele>
        <time>2020-09-01T13:54:17.999Z</time>
      </trkpt>
      <trkpt lat="43.18412" lon="-0.19774">
        <ele>306.65</ele>
        <time>2020-09-01T13:54:22.999Z</time>
      </trkpt>
      <trkpt lat="43.18416" lon="-0.19794">
        <ele>306.55</ele>
        <time>2020-09-01T13:54:27.999Z</time>
      </trkpt>
      <trkpt lat="43.18421" lon="-0.19819">
        <ele>306.19</ele>
        <time>2020-09-01T13:54:32.999Z</time>
      </trkpt>
      <trkpt lat="43.18427" lon="-0.19847">
        <ele>304.71</ele>
        <time>2020-09-01T13:54:37.999Z</time>
      </trkpt>
      <trkpt lat="43.18433" lon="-0.19879">
        <ele>303.68</ele>
        <time>2020-09-01T13:54:42.999Z</time>
      </trkpt>
      <trkpt lat="43.18437" lon="-0.19905">
        <ele>303.05</ele>
        <time>2020-09-01T13:54:47.999Z</time>
      </trkpt>
      <trkpt lat="43.18441" lon="-0.19925">
        <ele>303.01</ele>
        <time>2020-09-01T13:54:52.999Z</time>
      </trkpt>
      <trkpt lat="43.18445" lon="-0.19941">
        <ele>302.95</ele>
        <time>2020-09-01T13:54:57.999Z</time>
      </trkpt>
      <trkpt lat="43.18449" lon="-0.19955">
        <ele>302.92</ele>
        <time>2020-09-01T13:55:02.999Z</time>
      </trkpt>
      <trkpt lat="43.18454" lon="-0.19972">
        <ele>302.84</ele>
        <time>2020-09-01T13:55:07.999Z</time>
      </trkpt>
      <trkpt lat="43.18464" lon="-0.19994">
        <ele>302.59</ele>
        <time>2020-09-01T13:55:12.999Z</time>
      </trkpt>
      <trkpt lat="43.18472" lon="-0.20019">
        <ele>300.15</ele>
        <time>2020-09-01T13:55:17.999Z</time>
      </trkpt>
      <trkpt lat="43.18484" lon="-0.20051">
        <ele>297.68</ele>
        <time>2020-09-01T13:55:22.999Z</time>
      </trkpt>
      <trkpt lat="43.18495" lon="-0.20081">
        <ele>296.9</ele>
        <time>2020-09-01T13:55:27.999Z</time>
      </trkpt>
      <trkpt lat="43.18506" lon="-0.20106">
        <ele>296.85</ele>
        <time>2020-09-01T13:55:32.999Z</time>
      </trkpt>
      <trkpt lat="43.18517" lon="-0.20132">
        <ele>296.93</ele>
        <time>2020-09-01T13:55:37.999Z</time>
      </trkpt>
      <trkpt lat="43.18529" lon="-0.2016">
        <ele>296.64</ele>
        <time>2020-09-01T13:55:42.999Z</time>
      </trkpt>
      <trkpt lat="43.1854" lon="-0.20188">
        <ele>296.61</ele>
        <time>2020-09-01T13:55:47.999Z</time>
      </trkpt>
      <trkpt lat="43.18552" lon="-0.20216">
        <ele>296.67</ele>
        <time>2020-09-01T13:55:52.999Z</time>
      </trkpt>
      <trkpt lat="43.18564" lon="-0.20244">
        <ele>296.66</ele>
        <time>2020-09-01T13:55:57.999Z</time>
      </trkpt>
      <trkpt lat="43.18576" lon="-0.20274">
        <ele>296.34</ele>
        <time>2020-09-01T13:56:02.999Z</time>
      </trkpt>
      <trkpt lat="43.1859" lon="-0.20307">
        <ele>296.09</ele>
        <time>2020-09-01T13:56:07.999Z</time>
      </trkpt>
      <trkpt lat="43.18604" lon="-0.20341">
        <ele>295.57</ele>
        <time>2020-09-01T13:56:12.999Z</time>
      </trkpt>
      <trkpt lat="43.18618" lon="-0.20375">
        <ele>295.08</ele>
        <time>2020-09-01T13:56:17.999Z</time>
      </trkpt>
      <trkpt lat="43.18633" lon="-0.20409">
        <ele>294.69</ele>
        <time>2020-09-01T13:56:22.999Z</time>
      </trkpt>
      <trkpt lat="43.18649" lon="-0.20444">
        <ele>293.91</ele>
        <time>2020-09-01T13:56:27.999Z</time>
      </trkpt>
      <trkpt lat="43.18665" lon="-0.20481">
        <ele>292.86</ele>
        <time>2020-09-01T13:56:32.999Z</time>
      </trkpt>
      <trkpt lat="43.18682" lon="-0.20519">
        <ele>291.82</ele>
        <time>2020-09-01T13:56:37.999Z</time>
      </trkpt>
      <trkpt lat="43.18694" lon="-0.20558">
        <ele>290.68</ele>
        <time>2020-09-01T13:56:42.999Z</time>
      </trkpt>
      <trkpt lat="43.18709" lon="-0.20594">
        <ele>289.87</ele>
        <time>2020-09-01T13:56:47.999Z</time>
      </trkpt>
      <trkpt lat="43.18723" lon="-0.20628">
        <ele>289.43</ele>
        <time>2020-09-01T13:56:52.999Z</time>
      </trkpt>
      <trkpt lat="43.18735" lon="-0.20664">
        <ele>288.88</ele>
        <time>2020-09-01T13:56:57.999Z</time>
      </trkpt>
      <trkpt lat="43.18743" lon="-0.20705">
        <ele>287.8</ele>
        <time>2020-09-01T13:57:02.999Z</time>
      </trkpt>
      <trkpt lat="43.18747" lon="-0.20756">
        <ele>286.04</ele>
        <time>2020-09-01T13:57:07.999Z</time>
      </trkpt>
      <trkpt lat="43.18755" lon="-0.20817">
        <ele>284.44</ele>
        <time>2020-09-01T13:57:12.999Z</time>
      </trkpt>
      <trkpt lat="43.18786" lon="-0.20861">
        <ele>283.44</ele>
        <time>2020-09-01T13:57:17.999Z</time>
      </trkpt>
      <trkpt lat="43.18819" lon="-0.2089">
        <ele>282.61</ele>
        <time>2020-09-01T13:57:22.999Z</time>
      </trkpt>
      <trkpt lat="43.18848" lon="-0.20914">
        <ele>281.92</ele>
        <time>2020-09-01T13:57:27.999Z</time>
      </trkpt>
      <trkpt lat="43.1887" lon="-0.20929">
        <ele>281.17</ele>
        <time>2020-09-01T13:57:32.000Z</time>
      </trkpt>
      <trkpt lat="43.18896" lon="-0.20948">
        <ele>279.97</ele>
        <time>2020-09-01T13:57:37.000Z</time>
      </trkpt>
      <trkpt lat="43.1892" lon="-0.20968">
        <ele>278.91</ele>
        <time>2020-09-01T13:57:42.000Z</time>
      </trkpt>
      <trkpt lat="43.18945" lon="-0.20988">
        <ele>277.75</ele>
        <time>2020-09-01T13:57:47.000Z</time>
      </trkpt>
      <trkpt lat="43.18969" lon="-0.21007">
        <ele>276.86</ele>
        <time>2020-09-01T13:57:52.000Z</time>
      </trkpt>
      <trkpt lat="43.18994" lon="-0.21025">
        <ele>276.24</ele>
        <time>2020-09-01T13:57:57.000Z</time>
      </trkpt>
      <trkpt lat="43.19016" lon="-0.21043">
        <ele>275.55</ele>
        <time>2020-09-01T13:58:02.000Z</time>
      </trkpt>
      <trkpt lat="43.19036" lon="-0.21059">
        <ele>274.74</ele>
        <time>2020-09-01T13:58:07.000Z</time>
      </trkpt>
      <trkpt lat="43.19055" lon="-0.21074">
        <ele>274.01</ele>
        <time>2020-09-01T13:58:12.000Z</time>
      </trkpt>
      <trkpt lat="43.19074" lon="-0.21088">
        <ele>273.22</ele>
        <time>2020-09-01T13:58:17.000Z</time>
      </trkpt>
      <trkpt lat="43.19093" lon="-0.21102">
        <ele>272.54</ele>
        <time>2020-09-01T13:58:22.000Z</time>
      </trkpt>
      <trkpt lat="43.19114" lon="-0.21118">
        <ele>271.83</ele>
        <time>2020-09-01T13:58:27.000Z</time>
      </trkpt>
      <trkpt lat="43.19134" lon="-0.21135">
        <ele>271.13</ele>
        <time>2020-09-01T13:58:32.000Z</time>
      </trkpt>
      <trkpt lat="43.19153" lon="-0.21155">
        <ele>270.46</ele>
        <time>2020-09-01T13:58:37.000Z</time>
      </trkpt>
      <trkpt lat="43.19168" lon="-0.21181">
        <ele>269.92</ele>
        <time>2020-09-01T13:58:42.000Z</time>
      </trkpt>
      <trkpt lat="43.1918" lon="-0.21211">
        <ele>269.31</ele>
        <time>2020-09-01T13:58:47.000Z</time>
      </trkpt>
      <trkpt lat="43.19189" lon="-0.21243">
        <ele>268.71</ele>
        <time>2020-09-01T13:58:52.000Z</time>
      </trkpt>
      <trkpt lat="43.19196" lon="-0.21271">
        <ele>268.35</ele>
        <time>2020-09-01T13:58:57.000Z</time>
      </trkpt>
      <trkpt lat="43.19195" lon="-0.21299">
        <ele>267.93</ele>
        <time>2020-09-01T13:59:02.000Z</time>
      </trkpt>
      <trkpt lat="43.19191" lon="-0.21325">
        <ele>267.73</ele>
        <time>2020-09-01T13:59:07.000Z</time>
      </trkpt>
      <trkpt lat="43.19189" lon="-0.21339">
        <ele>267.78</ele>
        <time>2020-09-01T13:59:21.000Z</time>
      </trkpt>
      <trkpt lat="43.19197" lon="-0.21357">
        <ele>267.82</ele>
        <time>2020-09-01T13:59:26.000Z</time>
      </trkpt>
      <trkpt lat="43.19209" lon="-0.21375">
        <ele>267.85</ele>
        <time>2020-09-01T13:59:31.000Z</time>
      </trkpt>
      <trkpt lat="43.1922" lon="-0.21393">
        <ele>267.87</ele>
        <time>2020-09-01T13:59:36.000Z</time>
      </trkpt>
      <trkpt lat="43.19215" lon="-0.21415">
        <ele>267.83</ele>
        <time>2020-09-01T13:59:41.000Z</time>
      </trkpt>
      <trkpt lat="43.19212" lon="-0.21439">
        <ele>267.75</ele>
        <time>2020-09-01T13:59:46.000Z</time>
      </trkpt>
      <trkpt lat="43.19212" lon="-0.21465">
        <ele>267.66</ele>
        <time>2020-09-01T13:59:51.000Z</time>
      </trkpt>
      <trkpt lat="43.19227" lon="-0.21474">
        <ele>267.56</ele>
        <time>2020-09-01T13:59:56.000Z</time>
      </trkpt>
      <trkpt lat="43.19244" lon="-0.21482">
        <ele>267.17</ele>
        <time>2020-09-01T14:00:01.000Z</time>
      </trkpt>
      <trkpt lat="43.19259" lon="-0.2149">
        <ele>267.05</ele>
        <time>2020-09-01T14:00:06.000Z</time>
      </trkpt>
      <trkpt lat="43.19271" lon="-0.21499">
        <ele>266.95</ele>
        <time>2020-09-01T14:00:11.000Z</time>
      </trkpt>
      <trkpt lat="43.19285" lon="-0.21513">
        <ele>266.88</ele>
        <time>2020-09-01T14:00:16.000Z</time>
      </trkpt>
      <trkpt lat="43.19301" lon="-0.21527">
        <ele>266.8</ele>
        <time>2020-09-01T14:00:21.000Z</time>
      </trkpt>
      <trkpt lat="43.19314" lon="-0.21545">
        <ele>266.41</ele>
        <time>2020-09-01T14:00:26.000Z</time>
      </trkpt>
      <trkpt lat="43.19327" lon="-0.21564">
        <ele>266.3</ele>
        <time>2020-09-01T14:00:31.000Z</time>
      </trkpt>
      <trkpt lat="43.19339" lon="-0.21583">
        <ele>266.18</ele>
        <time>2020-09-01T14:00:36.000Z</time>
      </trkpt>
      <trkpt lat="43.19354" lon="-0.21598">
        <ele>265.76</ele>
        <time>2020-09-01T14:00:41.000Z</time>
      </trkpt>
      <trkpt lat="43.1937" lon="-0.21605">
        <ele>265.69</ele>
        <time>2020-09-01T14:00:46.000Z</time>
      </trkpt>
      <trkpt lat="43.19387" lon="-0.21614">
        <ele>265.62</ele>
        <time>2020-09-01T14:00:51.000Z</time>
      </trkpt>
      <trkpt lat="43.19404" lon="-0.21624">
        <ele>265.45</ele>
        <time>2020-09-01T14:00:56.000Z</time>
      </trkpt>
      <trkpt lat="43.19421" lon="-0.21633">
        <ele>265.4</ele>
        <time>2020-09-01T14:01:01.000Z</time>
      </trkpt>
      <trkpt lat="43.19438" lon="-0.21641">
        <ele>265.31</ele>
        <time>2020-09-01T14:01:06.000Z</time>
      </trkpt>
      <trkpt lat="43.19454" lon="-0.21651">
        <ele>265.25</ele>
        <time>2020-09-01T14:01:11.000Z</time>
      </trkpt>
      <trkpt lat="43.19463" lon="-0.21671">
        <ele>265.11</ele>
        <time>2020-09-01T14:01:16.000Z</time>
      </trkpt>
      <trkpt lat="43.19471" lon="-0.21693">
        <ele>264.7</ele>
        <time>2020-09-01T14:01:21.000Z</time>
      </trkpt>
      <trkpt lat="43.19484" lon="-0.21717">
        <ele>263.84</ele>
        <time>2020-09-01T14:01:26.000Z</time>
      </trkpt>
      <trkpt lat="43.19495" lon="-0.21738">
        <ele>263.72</ele>
        <time>2020-09-01T14:01:31.000Z</time>
      </trkpt>
      <trkpt lat="43.195" lon="-0.21762">
        <ele>263.29</ele>
        <time>2020-09-01T14:01:36.000Z</time>
      </trkpt>
      <trkpt lat="43.19514" lon="-0.21779">
        <ele>263.09</ele>
        <time>2020-09-01T14:01:41.000Z</time>
      </trkpt>
      <trkpt lat="43.1953" lon="-0.21799">
        <ele>262.98</ele>
        <time>2020-09-01T14:01:46.000Z</time>
      </trkpt>
      <trkpt lat="43.19544" lon="-0.21821">
        <ele>262.79</ele>
        <time>2020-09-01T14:01:51.000Z</time>
      </trkpt>
      <trkpt lat="43.19558" lon="-0.21842">
        <ele>262.62</ele>
        <time>2020-09-01T14:01:56.000Z</time>
      </trkpt>
      <trkpt lat="43.1957" lon="-0.21862">
        <ele>262.34</ele>
        <time>2020-09-01T14:02:01.000Z</time>
      </trkpt>
      <trkpt lat="43.19583" lon="-0.21881">
        <ele>262.21</ele>
        <time>2020-09-01T14:02:06.000Z</time>
      </trkpt>
      <trkpt lat="43.19595" lon="-0.219">
        <ele>262.18</ele>
        <time>2020-09-01T14:02:11.000Z</time>
      </trkpt>
      <trkpt lat="43.19611" lon="-0.21919">
        <ele>262.15</ele>
        <time>2020-09-01T14:02:16.000Z</time>
      </trkpt>
      <trkpt lat="43.19626" lon="-0.21938">
        <ele>262.23</ele>
        <time>2020-09-01T14:02:21.000Z</time>
      </trkpt>
      <trkpt lat="43.19643" lon="-0.21954">
        <ele>262.27</ele>
        <time>2020-09-01T14:02:26.000Z</time>
      </trkpt>
      <trkpt lat="43.1966" lon="-0.21968">
        <ele>262.27</ele>
        <time>2020-09-01T14:02:31.000Z</time>
      </trkpt>
      <trkpt lat="43.19677" lon="-0.21981">
        <ele>262.32</ele>
        <time>2020-09-01T14:02:36.000Z</time>
      </trkpt>
      <trkpt lat="43.19698" lon="-0.2199">
        <ele>262.3</ele>
        <time>2020-09-01T14:02:41.000Z</time>
      </trkpt>
      <trkpt lat="43.19719" lon="-0.21997">
        <ele>262.29</ele>
        <time>2020-09-01T14:02:46.000Z</time>
      </trkpt>
      <trkpt lat="43.1974" lon="-0.22005">
        <ele>262.27</ele>
        <time>2020-09-01T14:02:51.000Z</time>
      </trkpt>
      <trkpt lat="43.19761" lon="-0.22012">
        <ele>262.3</ele>
        <time>2020-09-01T14:02:56.000Z</time>
      </trkpt>
      <trkpt lat="43.19783" lon="-0.22021">
        <ele>262.39</ele>
        <time>2020-09-01T14:03:01.000Z</time>
      </trkpt>
      <trkpt lat="43.19804" lon="-0.22033">
        <ele>262.48</ele>
        <time>2020-09-01T14:03:06.000Z</time>
      </trkpt>
      <trkpt lat="43.19826" lon="-0.22045">
        <ele>262.54</ele>
        <time>2020-09-01T14:03:11.000Z</time>
      </trkpt>
      <trkpt lat="43.19848" lon="-0.22056">
        <ele>262.59</ele>
        <time>2020-09-01T14:03:16.000Z</time>
      </trkpt>
      <trkpt lat="43.19869" lon="-0.22067">
        <ele>262.57</ele>
        <time>2020-09-01T14:03:21.000Z</time>
      </trkpt>
      <trkpt lat="43.19891" lon="-0.22076">
        <ele>262.52</ele>
        <time>2020-09-01T14:03:26.000Z</time>
      </trkpt>
      <trkpt lat="43.19911" lon="-0.22084">
        <ele>262.47</ele>
        <time>2020-09-01T14:03:31.000Z</time>
      </trkpt>
      <trkpt lat="43.19931" lon="-0.22094">
        <ele>262.41</ele>
        <time>2020-09-01T14:03:36.000Z</time>
      </trkpt>
      <trkpt lat="43.1995" lon="-0.22101">
        <ele>262.33</ele>
        <time>2020-09-01T14:03:41.000Z</time>
      </trkpt>
      <trkpt lat="43.1997" lon="-0.22111">
        <ele>262.28</ele>
        <time>2020-09-01T14:03:46.000Z</time>
      </trkpt>
      <trkpt lat="43.19991" lon="-0.22122">
        <ele>262.23</ele>
        <time>2020-09-01T14:03:51.000Z</time>
      </trkpt>
      <trkpt lat="43.20011" lon="-0.22133">
        <ele>262.15</ele>
        <time>2020-09-01T14:03:56.000Z</time>
      </trkpt>
      <trkpt lat="43.20032" lon="-0.22145">
        <ele>262.12</ele>
        <time>2020-09-01T14:04:01.000Z</time>
      </trkpt>
      <trkpt lat="43.20051" lon="-0.22157">
        <ele>262.14</ele>
        <time>2020-09-01T14:04:06.000Z</time>
      </trkpt>
      <trkpt lat="43.20071" lon="-0.22169">
        <ele>262.14</ele>
        <time>2020-09-01T14:04:11.000Z</time>
      </trkpt>
      <trkpt lat="43.2009" lon="-0.2218">
        <ele>262.07</ele>
        <time>2020-09-01T14:04:16.000Z</time>
      </trkpt>
      <trkpt lat="43.2011" lon="-0.22191">
        <ele>261.94</ele>
        <time>2020-09-01T14:04:21.000Z</time>
      </trkpt>
      <trkpt lat="43.20134" lon="-0.22202">
        <ele>261.81</ele>
        <time>2020-09-01T14:04:26.000Z</time>
      </trkpt>
      <trkpt lat="43.20155" lon="-0.22212">
        <ele>261.7</ele>
        <time>2020-09-01T14:04:31.000Z</time>
      </trkpt>
      <trkpt lat="43.20176" lon="-0.2222">
        <ele>261.64</ele>
        <time>2020-09-01T14:04:36.000Z</time>
      </trkpt>
      <trkpt lat="43.20196" lon="-0.22227">
        <ele>261.61</ele>
        <time>2020-09-01T14:04:41.000Z</time>
      </trkpt>
      <trkpt lat="43.20216" lon="-0.22235">
        <ele>261.57</ele>
        <time>2020-09-01T14:04:46.000Z</time>
      </trkpt>
      <trkpt lat="43.20234" lon="-0.22243">
        <ele>261.55</ele>
        <time>2020-09-01T14:04:51.000Z</time>
      </trkpt>
      <trkpt lat="43.2025" lon="-0.22251">
        <ele>261.55</ele>
        <time>2020-09-01T14:04:56.000Z</time>
      </trkpt>
      <trkpt lat="43.20267" lon="-0.22257">
        <ele>261.55</ele>
        <time>2020-09-01T14:05:01.000Z</time>
      </trkpt>
      <trkpt lat="43.20285" lon="-0.22265">
        <ele>261.57</ele>
        <time>2020-09-01T14:05:06.000Z</time>
      </trkpt>
      <trkpt lat="43.20304" lon="-0.22273">
        <ele>261.53</ele>
        <time>2020-09-01T14:05:11.000Z</time>
      </trkpt>
      <trkpt lat="43.20322" lon="-0.2228">
        <ele>261.42</ele>
        <time>2020-09-01T14:05:16.000Z</time>
      </trkpt>
      <trkpt lat="43.20341" lon="-0.22288">
        <ele>261.31</ele>
        <time>2020-09-01T14:05:21.000Z</time>
      </trkpt>
      <trkpt lat="43.20359" lon="-0.22297">
        <ele>261.22</ele>
        <time>2020-09-01T14:05:26.000Z</time>
      </trkpt>
      <trkpt lat="43.20377" lon="-0.22309">
        <ele>261.15</ele>
        <time>2020-09-01T14:05:31.000Z</time>
      </trkpt>
      <trkpt lat="43.20396" lon="-0.22316">
        <ele>261.11</ele>
        <time>2020-09-01T14:05:36.000Z</time>
      </trkpt>
      <trkpt lat="43.20414" lon="-0.22325">
        <ele>261.1</ele>
        <time>2020-09-01T14:05:41.000Z</time>
      </trkpt>
      <trkpt lat="43.20431" lon="-0.22335">
        <ele>261.07</ele>
        <time>2020-09-01T14:05:46.000Z</time>
      </trkpt>
      <trkpt lat="43.2045" lon="-0.22342">
        <ele>261.06</ele>
        <time>2020-09-01T14:05:51.000Z</time>
      </trkpt>
      <trkpt lat="43.20469" lon="-0.22348">
        <ele>261.02</ele>
        <time>2020-09-01T14:05:56.000Z</time>
      </trkpt>
      <trkpt lat="43.2049" lon="-0.22356">
        <ele>260.97</ele>
        <time>2020-09-01T14:06:01.000Z</time>
      </trkpt>
      <trkpt lat="43.20507" lon="-0.22368">
        <ele>260.95</ele>
        <time>2020-09-01T14:06:06.000Z</time>
      </trkpt>
      <trkpt lat="43.20527" lon="-0.22376">
        <ele>260.92</ele>
        <time>2020-09-01T14:06:11.000Z</time>
      </trkpt>
      <trkpt lat="43.20544" lon="-0.22391">
        <ele>260.89</ele>
        <time>2020-09-01T14:06:16.000Z</time>
      </trkpt>
      <trkpt lat="43.20562" lon="-0.22405">
        <ele>260.86</ele>
        <time>2020-09-01T14:06:21.000Z</time>
      </trkpt>
      <trkpt lat="43.20579" lon="-0.22418">
        <ele>260.85</ele>
        <time>2020-09-01T14:06:26.000Z</time>
      </trkpt>
      <trkpt lat="43.20596" lon="-0.22433">
        <ele>260.88</ele>
        <time>2020-09-01T14:06:31.000Z</time>
      </trkpt>
      <trkpt lat="43.20613" lon="-0.22447">
        <ele>260.95</ele>
        <time>2020-09-01T14:06:36.000Z</time>
      </trkpt>
      <trkpt lat="43.20629" lon="-0.22462">
        <ele>260.99</ele>
        <time>2020-09-01T14:06:41.000Z</time>
      </trkpt>
      <trkpt lat="43.20644" lon="-0.22477">
        <ele>261.01</ele>
        <time>2020-09-01T14:06:46.000Z</time>
      </trkpt>
      <trkpt lat="43.20658" lon="-0.22489">
        <ele>261.02</ele>
        <time>2020-09-01T14:06:51.000Z</time>
      </trkpt>
      <trkpt lat="43.20674" lon="-0.22503">
        <ele>261.03</ele>
        <time>2020-09-01T14:06:56.000Z</time>
      </trkpt>
      <trkpt lat="43.2069" lon="-0.22518">
        <ele>261.04</ele>
        <time>2020-09-01T14:07:01.000Z</time>
      </trkpt>
      <trkpt lat="43.20707" lon="-0.22537">
        <ele>261.07</ele>
        <time>2020-09-01T14:07:06.000Z</time>
      </trkpt>
      <trkpt lat="43.20725" lon="-0.22555">
        <ele>261.13</ele>
        <time>2020-09-01T14:07:11.000Z</time>
      </trkpt>
      <trkpt lat="43.20742" lon="-0.22573">
        <ele>261.19</ele>
        <time>2020-09-01T14:07:16.000Z</time>
      </trkpt>
      <trkpt lat="43.20759" lon="-0.22592">
        <ele>261.21</ele>
        <time>2020-09-01T14:07:21.000Z</time>
      </trkpt>
      <trkpt lat="43.20778" lon="-0.22607">
        <ele>261.26</ele>
        <time>2020-09-01T14:07:26.000Z</time>
      </trkpt>
      <trkpt lat="43.20797" lon="-0.2262">
        <ele>261.3</ele>
        <time>2020-09-01T14:07:31.000Z</time>
      </trkpt>
      <trkpt lat="43.20815" lon="-0.22629">
        <ele>261.34</ele>
        <time>2020-09-01T14:07:36.000Z</time>
      </trkpt>
      <trkpt lat="43.20835" lon="-0.22636">
        <ele>261.37</ele>
        <time>2020-09-01T14:07:41.000Z</time>
      </trkpt>
      <trkpt lat="43.20855" lon="-0.22639">
        <ele>261.33</ele>
        <time>2020-09-01T14:07:46.000Z</time>
      </trkpt>
      <trkpt lat="43.20876" lon="-0.22646">
        <ele>261.27</ele>
        <time>2020-09-01T14:07:51.000Z</time>
      </trkpt>
      <trkpt lat="43.20897" lon="-0.22661">
        <ele>261.24</ele>
        <time>2020-09-01T14:07:56.000Z</time>
      </trkpt>
      <trkpt lat="43.20916" lon="-0.22674">
        <ele>261.24</ele>
        <time>2020-09-01T14:08:01.000Z</time>
      </trkpt>
      <trkpt lat="43.20936" lon="-0.22688">
        <ele>261.17</ele>
        <time>2020-09-01T14:08:06.000Z</time>
      </trkpt>
      <trkpt lat="43.20955" lon="-0.22701">
        <ele>261.09</ele>
        <time>2020-09-01T14:08:11.000Z</time>
      </trkpt>
      <trkpt lat="43.20975" lon="-0.22712">
        <ele>261.03</ele>
        <time>2020-09-01T14:08:16.000Z</time>
      </trkpt>
      <trkpt lat="43.20994" lon="-0.22725">
        <ele>261</ele>
        <time>2020-09-01T14:08:21.000Z</time>
      </trkpt>
      <trkpt lat="43.21013" lon="-0.22737">
        <ele>261.01</ele>
        <time>2020-09-01T14:08:26.000Z</time>
      </trkpt>
      <trkpt lat="43.21032" lon="-0.2275">
        <ele>261.04</ele>
        <time>2020-09-01T14:08:31.000Z</time>
      </trkpt>
      <trkpt lat="43.21051" lon="-0.22762">
        <ele>261.09</ele>
        <time>2020-09-01T14:08:36.000Z</time>
      </trkpt>
      <trkpt lat="43.21071" lon="-0.22773">
        <ele>261.15</ele>
        <time>2020-09-01T14:08:41.000Z</time>
      </trkpt>
      <trkpt lat="43.21091" lon="-0.22781">
        <ele>261.19</ele>
        <time>2020-09-01T14:08:46.000Z</time>
      </trkpt>
      <trkpt lat="43.21111" lon="-0.22788">
        <ele>261.21</ele>
        <time>2020-09-01T14:08:51.000Z</time>
      </trkpt>
      <trkpt lat="43.21132" lon="-0.22795">
        <ele>261.21</ele>
        <time>2020-09-01T14:08:56.000Z</time>
      </trkpt>
      <trkpt lat="43.21153" lon="-0.22803">
        <ele>261.23</ele>
        <time>2020-09-01T14:09:01.000Z</time>
      </trkpt>
      <trkpt lat="43.21172" lon="-0.2281">
        <ele>261.23</ele>
        <time>2020-09-01T14:09:06.000Z</time>
      </trkpt>
      <trkpt lat="43.21193" lon="-0.22819">
        <ele>261.23</ele>
        <time>2020-09-01T14:09:11.000Z</time>
      </trkpt>
      <trkpt lat="43.21214" lon="-0.22827">
        <ele>261.26</ele>
        <time>2020-09-01T14:09:16.000Z</time>
      </trkpt>
      <trkpt lat="43.21234" lon="-0.22835">
        <ele>261.31</ele>
        <time>2020-09-01T14:09:21.000Z</time>
      </trkpt>
      <trkpt lat="43.21254" lon="-0.22842">
        <ele>261.35</ele>
        <time>2020-09-01T14:09:26.000Z</time>
      </trkpt>
      <trkpt lat="43.21275" lon="-0.22847">
        <ele>261.4</ele>
        <time>2020-09-01T14:09:31.000Z</time>
      </trkpt>
      <trkpt lat="43.21296" lon="-0.22854">
        <ele>261.43</ele>
        <time>2020-09-01T14:09:36.000Z</time>
      </trkpt>
      <trkpt lat="43.21316" lon="-0.22859">
        <ele>261.46</ele>
        <time>2020-09-01T14:09:41.000Z</time>
      </trkpt>
      <trkpt lat="43.21337" lon="-0.22865">
        <ele>261.48</ele>
        <time>2020-09-01T14:09:45.999Z</time>
      </trkpt>
      <trkpt lat="43.21358" lon="-0.22871">
        <ele>261.5</ele>
        <time>2020-09-01T14:09:50.999Z</time>
      </trkpt>
      <trkpt lat="43.21378" lon="-0.22878">
        <ele>261.53</ele>
        <time>2020-09-01T14:09:55.999Z</time>
      </trkpt>
      <trkpt lat="43.21398" lon="-0.22884">
        <ele>261.56</ele>
        <time>2020-09-01T14:10:00.999Z</time>
      </trkpt>
      <trkpt lat="43.21418" lon="-0.22891">
        <ele>261.59</ele>
        <time>2020-09-01T14:10:05.999Z</time>
      </trkpt>
      <trkpt lat="43.21439" lon="-0.22899">
        <ele>261.62</ele>
        <time>2020-09-01T14:10:10.999Z</time>
      </trkpt>
      <trkpt lat="43.21461" lon="-0.22904">
        <ele>261.64</ele>
        <time>2020-09-01T14:10:15.999Z</time>
      </trkpt>
      <trkpt lat="43.21482" lon="-0.2291">
        <ele>261.54</ele>
        <time>2020-09-01T14:10:20.999Z</time>
      </trkpt>
      <trkpt lat="43.21502" lon="-0.22912">
        <ele>261.47</ele>
        <time>2020-09-01T14:10:25.999Z</time>
      </trkpt>
      <trkpt lat="43.21522" lon="-0.22918">
        <ele>261.44</ele>
        <time>2020-09-01T14:10:30.999Z</time>
      </trkpt>
      <trkpt lat="43.21542" lon="-0.22925">
        <ele>261.41</ele>
        <time>2020-09-01T14:10:35.999Z</time>
      </trkpt>
      <trkpt lat="43.21561" lon="-0.22934">
        <ele>261.39</ele>
        <time>2020-09-01T14:10:40.999Z</time>
      </trkpt>
      <trkpt lat="43.21581" lon="-0.22944">
        <ele>261.38</ele>
        <time>2020-09-01T14:10:45.999Z</time>
      </trkpt>
      <trkpt lat="43.21601" lon="-0.22955">
        <ele>261.37</ele>
        <time>2020-09-01T14:10:50.999Z</time>
      </trkpt>
      <trkpt lat="43.21621" lon="-0.22967">
        <ele>261.39</ele>
        <time>2020-09-01T14:10:55.999Z</time>
      </trkpt>
      <trkpt lat="43.2164" lon="-0.2298">
        <ele>261.42</ele>
        <time>2020-09-01T14:11:00.999Z</time>
      </trkpt>
      <trkpt lat="43.21659" lon="-0.22995">
        <ele>261.41</ele>
        <time>2020-09-01T14:11:05.999Z</time>
      </trkpt>
      <trkpt lat="43.21679" lon="-0.23008">
        <ele>261.32</ele>
        <time>2020-09-01T14:11:10.999Z</time>
      </trkpt>
      <trkpt lat="43.21698" lon="-0.23024">
        <ele>261.23</ele>
        <time>2020-09-01T14:11:15.999Z</time>
      </trkpt>
      <trkpt lat="43.21718" lon="-0.23038">
        <ele>261.14</ele>
        <time>2020-09-01T14:11:20.999Z</time>
      </trkpt>
      <trkpt lat="43.21737" lon="-0.23051">
        <ele>261.05</ele>
        <time>2020-09-01T14:11:25.999Z</time>
      </trkpt>
      <trkpt lat="43.21758" lon="-0.23062">
        <ele>260.99</ele>
        <time>2020-09-01T14:11:30.999Z</time>
      </trkpt>
      <trkpt lat="43.2178" lon="-0.23072">
        <ele>260.92</ele>
        <time>2020-09-01T14:11:35.999Z</time>
      </trkpt>
      <trkpt lat="43.218" lon="-0.23086">
        <ele>260.88</ele>
        <time>2020-09-01T14:11:40.999Z</time>
      </trkpt>
      <trkpt lat="43.21818" lon="-0.231">
        <ele>260.86</ele>
        <time>2020-09-01T14:11:45.999Z</time>
      </trkpt>
      <trkpt lat="43.21835" lon="-0.23114">
        <ele>260.83</ele>
        <time>2020-09-01T14:11:50.999Z</time>
      </trkpt>
      <trkpt lat="43.21853" lon="-0.23129">
        <ele>260.78</ele>
        <time>2020-09-01T14:11:55.999Z</time>
      </trkpt>
      <trkpt lat="43.2187" lon="-0.23148">
        <ele>260.74</ele>
        <time>2020-09-01T14:12:00.999Z</time>
      </trkpt>
      <trkpt lat="43.21888" lon="-0.23167">
        <ele>260.61</ele>
        <time>2020-09-01T14:12:05.999Z</time>
      </trkpt>
      <trkpt lat="43.21905" lon="-0.23184">
        <ele>260.46</ele>
        <time>2020-09-01T14:12:10.999Z</time>
      </trkpt>
      <trkpt lat="43.21921" lon="-0.23203">
        <ele>260.36</ele>
        <time>2020-09-01T14:12:15.999Z</time>
      </trkpt>
      <trkpt lat="43.21937" lon="-0.23217">
        <ele>260.25</ele>
        <time>2020-09-01T14:12:20.999Z</time>
      </trkpt>
      <trkpt lat="43.21953" lon="-0.23234">
        <ele>260.15</ele>
        <time>2020-09-01T14:12:25.999Z</time>
      </trkpt>
      <trkpt lat="43.2197" lon="-0.23252">
        <ele>260.08</ele>
        <time>2020-09-01T14:12:30.999Z</time>
      </trkpt>
      <trkpt lat="43.21987" lon="-0.23269">
        <ele>260.02</ele>
        <time>2020-09-01T14:12:35.999Z</time>
      </trkpt>
      <trkpt lat="43.22004" lon="-0.23287">
        <ele>259.91</ele>
        <time>2020-09-01T14:12:40.999Z</time>
      </trkpt>
      <trkpt lat="43.22021" lon="-0.23303">
        <ele>259.77</ele>
        <time>2020-09-01T14:12:45.999Z</time>
      </trkpt>
      <trkpt lat="43.22037" lon="-0.23318">
        <ele>259.61</ele>
        <time>2020-09-01T14:12:50.999Z</time>
      </trkpt>
      <trkpt lat="43.22055" lon="-0.2333">
        <ele>259.45</ele>
        <time>2020-09-01T14:12:55.999Z</time>
      </trkpt>
      <trkpt lat="43.22075" lon="-0.23339">
        <ele>259.32</ele>
        <time>2020-09-01T14:13:00.999Z</time>
      </trkpt>
      <trkpt lat="43.22095" lon="-0.23346">
        <ele>259.2</ele>
        <time>2020-09-01T14:13:05.999Z</time>
      </trkpt>
      <trkpt lat="43.22116" lon="-0.23353">
        <ele>259.08</ele>
        <time>2020-09-01T14:13:10.999Z</time>
      </trkpt>
      <trkpt lat="43.22136" lon="-0.23361">
        <ele>258.99</ele>
        <time>2020-09-01T14:13:15.999Z</time>
      </trkpt>
      <trkpt lat="43.22156" lon="-0.23368">
        <ele>258.87</ele>
        <time>2020-09-01T14:13:20.999Z</time>
      </trkpt>
      <trkpt lat="43.22177" lon="-0.23376">
        <ele>258.74</ele>
        <time>2020-09-01T14:13:25.999Z</time>
      </trkpt>
      <trkpt lat="43.22197" lon="-0.23385">
        <ele>258.63</ele>
        <time>2020-09-01T14:13:30.999Z</time>
      </trkpt>
      <trkpt lat="43.22217" lon="-0.23395">
        <ele>258.59</ele>
        <time>2020-09-01T14:13:35.999Z</time>
      </trkpt>
      <trkpt lat="43.22238" lon="-0.23406">
        <ele>258.57</ele>
        <time>2020-09-01T14:13:40.999Z</time>
      </trkpt>
      <trkpt lat="43.22259" lon="-0.23418">
        <ele>258.53</ele>
        <time>2020-09-01T14:13:45.999Z</time>
      </trkpt>
      <trkpt lat="43.22279" lon="-0.23429">
        <ele>258.48</ele>
        <time>2020-09-01T14:13:50.999Z</time>
      </trkpt>
      <trkpt lat="43.223" lon="-0.23437">
        <ele>258.48</ele>
        <time>2020-09-01T14:13:55.999Z</time>
      </trkpt>
      <trkpt lat="43.22321" lon="-0.23445">
        <ele>258.51</ele>
        <time>2020-09-01T14:14:00.999Z</time>
      </trkpt>
      <trkpt lat="43.2234" lon="-0.23454">
        <ele>258.53</ele>
        <time>2020-09-01T14:14:05.999Z</time>
      </trkpt>
      <trkpt lat="43.2236" lon="-0.23461">
        <ele>258.55</ele>
        <time>2020-09-01T14:14:10.999Z</time>
      </trkpt>
      <trkpt lat="43.2238" lon="-0.23471">
        <ele>258.56</ele>
        <time>2020-09-01T14:14:15.999Z</time>
      </trkpt>
      <trkpt lat="43.224" lon="-0.23481">
        <ele>258.59</ele>
        <time>2020-09-01T14:14:20.999Z</time>
      </trkpt>
      <trkpt lat="43.22418" lon="-0.23496">
        <ele>258.63</ele>
        <time>2020-09-01T14:14:25.999Z</time>
      </trkpt>
      <trkpt lat="43.22435" lon="-0.23511">
        <ele>258.66</ele>
        <time>2020-09-01T14:14:30.999Z</time>
      </trkpt>
      <trkpt lat="43.22452" lon="-0.23527">
        <ele>258.65</ele>
        <time>2020-09-01T14:14:35.999Z</time>
      </trkpt>
      <trkpt lat="43.22469" lon="-0.23544">
        <ele>258.66</ele>
        <time>2020-09-01T14:14:40.999Z</time>
      </trkpt>
      <trkpt lat="43.22486" lon="-0.2356">
        <ele>258.67</ele>
        <time>2020-09-01T14:14:45.999Z</time>
      </trkpt>
      <trkpt lat="43.22503" lon="-0.23577">
        <ele>258.65</ele>
        <time>2020-09-01T14:14:50.999Z</time>
      </trkpt>
      <trkpt lat="43.2252" lon="-0.23594">
        <ele>258.64</ele>
        <time>2020-09-01T14:14:55.999Z</time>
      </trkpt>
      <trkpt lat="43.22538" lon="-0.23612">
        <ele>258.64</ele>
        <time>2020-09-01T14:15:00.999Z</time>
      </trkpt>
      <trkpt lat="43.22556" lon="-0.23631">
        <ele>258.64</ele>
        <time>2020-09-01T14:15:05.999Z</time>
      </trkpt>
      <trkpt lat="43.22575" lon="-0.23651">
        <ele>258.66</ele>
        <time>2020-09-01T14:15:10.999Z</time>
      </trkpt>
      <trkpt lat="43.22594" lon="-0.23671">
        <ele>258.68</ele>
        <time>2020-09-01T14:15:15.999Z</time>
      </trkpt>
      <trkpt lat="43.22612" lon="-0.2369">
        <ele>258.7</ele>
        <time>2020-09-01T14:15:20.999Z</time>
      </trkpt>
      <trkpt lat="43.2263" lon="-0.23707">
        <ele>258.71</ele>
        <time>2020-09-01T14:15:25.999Z</time>
      </trkpt>
      <trkpt lat="43.22648" lon="-0.23726">
        <ele>258.71</ele>
        <time>2020-09-01T14:15:30.999Z</time>
      </trkpt>
      <trkpt lat="43.22666" lon="-0.23744">
        <ele>258.73</ele>
        <time>2020-09-01T14:15:35.999Z</time>
      </trkpt>
      <trkpt lat="43.22684" lon="-0.23762">
        <ele>258.74</ele>
        <time>2020-09-01T14:15:40.999Z</time>
      </trkpt>
      <trkpt lat="43.22703" lon="-0.23779">
        <ele>258.75</ele>
        <time>2020-09-01T14:15:45.999Z</time>
      </trkpt>
      <trkpt lat="43.22721" lon="-0.23796">
        <ele>258.75</ele>
        <time>2020-09-01T14:15:50.999Z</time>
      </trkpt>
      <trkpt lat="43.22738" lon="-0.23814">
        <ele>258.76</ele>
        <time>2020-09-01T14:15:55.999Z</time>
      </trkpt>
      <trkpt lat="43.22755" lon="-0.23832">
        <ele>258.78</ele>
        <time>2020-09-01T14:16:00.999Z</time>
      </trkpt>
      <trkpt lat="43.22772" lon="-0.2385">
        <ele>258.8</ele>
        <time>2020-09-01T14:16:05.999Z</time>
      </trkpt>
      <trkpt lat="43.22788" lon="-0.23868">
        <ele>258.81</ele>
        <time>2020-09-01T14:16:10.999Z</time>
      </trkpt>
      <trkpt lat="43.22805" lon="-0.23887">
        <ele>258.81</ele>
        <time>2020-09-01T14:16:15.999Z</time>
      </trkpt>
      <trkpt lat="43.22821" lon="-0.23906">
        <ele>258.8</ele>
        <time>2020-09-01T14:16:20.999Z</time>
      </trkpt>
      <trkpt lat="43.22838" lon="-0.23926">
        <ele>258.79</ele>
        <time>2020-09-01T14:16:25.999Z</time>
      </trkpt>
      <trkpt lat="43.22856" lon="-0.23944">
        <ele>258.79</ele>
        <time>2020-09-01T14:16:30.999Z</time>
      </trkpt>
      <trkpt lat="43.22873" lon="-0.23962">
        <ele>258.79</ele>
        <time>2020-09-01T14:16:35.999Z</time>
      </trkpt>
      <trkpt lat="43.2289" lon="-0.2398">
        <ele>258.79</ele>
        <time>2020-09-01T14:16:40.999Z</time>
      </trkpt>
      <trkpt lat="43.22907" lon="-0.23997">
        <ele>258.79</ele>
        <time>2020-09-01T14:16:45.999Z</time>
      </trkpt>
      <trkpt lat="43.22924" lon="-0.24013">
        <ele>258.8</ele>
        <time>2020-09-01T14:16:50.999Z</time>
      </trkpt>
      <trkpt lat="43.22941" lon="-0.2403">
        <ele>258.8</ele>
        <time>2020-09-01T14:16:55.999Z</time>
      </trkpt>
      <trkpt lat="43.22958" lon="-0.24046">
        <ele>258.79</ele>
        <time>2020-09-01T14:17:00.999Z</time>
      </trkpt>
      <trkpt lat="43.22976" lon="-0.24061">
        <ele>258.77</ele>
        <time>2020-09-01T14:17:05.999Z</time>
      </trkpt>
      <trkpt lat="43.22994" lon="-0.24078">
        <ele>258.75</ele>
        <time>2020-09-01T14:17:10.999Z</time>
      </trkpt>
      <trkpt lat="43.23011" lon="-0.24094">
        <ele>258.73</ele>
        <time>2020-09-01T14:17:15.999Z</time>
      </trkpt>
      <trkpt lat="43.23029" lon="-0.24113">
        <ele>258.72</ele>
        <time>2020-09-01T14:17:20.999Z</time>
      </trkpt>
      <trkpt lat="43.23046" lon="-0.24131">
        <ele>258.72</ele>
        <time>2020-09-01T14:17:25.999Z</time>
      </trkpt>
      <trkpt lat="43.23061" lon="-0.24148">
        <ele>258.72</ele>
        <time>2020-09-01T14:17:30.999Z</time>
      </trkpt>
      <trkpt lat="43.23077" lon="-0.24168">
        <ele>258.71</ele>
        <time>2020-09-01T14:17:35.999Z</time>
      </trkpt>
      <trkpt lat="43.23093" lon="-0.24187">
        <ele>258.7</ele>
        <time>2020-09-01T14:17:40.999Z</time>
      </trkpt>
      <trkpt lat="43.23108" lon="-0.24206">
        <ele>258.67</ele>
        <time>2020-09-01T14:17:45.999Z</time>
      </trkpt>
      <trkpt lat="43.23123" lon="-0.24227">
        <ele>258.64</ele>
        <time>2020-09-01T14:17:50.999Z</time>
      </trkpt>
      <trkpt lat="43.23138" lon="-0.24247">
        <ele>258.58</ele>
        <time>2020-09-01T14:17:55.999Z</time>
      </trkpt>
      <trkpt lat="43.23152" lon="-0.24267">
        <ele>258.51</ele>
        <time>2020-09-01T14:18:00.999Z</time>
      </trkpt>
      <trkpt lat="43.23166" lon="-0.24287">
        <ele>258.42</ele>
        <time>2020-09-01T14:18:05.999Z</time>
      </trkpt>
      <trkpt lat="43.2318" lon="-0.24309">
        <ele>258.31</ele>
        <time>2020-09-01T14:18:10.999Z</time>
      </trkpt>
      <trkpt lat="43.23195" lon="-0.24331">
        <ele>258.18</ele>
        <time>2020-09-01T14:18:15.999Z</time>
      </trkpt>
      <trkpt lat="43.23211" lon="-0.24354">
        <ele>258.05</ele>
        <time>2020-09-01T14:18:20.999Z</time>
      </trkpt>
      <trkpt lat="43.23226" lon="-0.24375">
        <ele>257.95</ele>
        <time>2020-09-01T14:18:25.999Z</time>
      </trkpt>
      <trkpt lat="43.23241" lon="-0.24396">
        <ele>257.86</ele>
        <time>2020-09-01T14:18:30.999Z</time>
      </trkpt>
      <trkpt lat="43.23255" lon="-0.24416">
        <ele>257.77</ele>
        <time>2020-09-01T14:18:35.999Z</time>
      </trkpt>
      <trkpt lat="43.2327" lon="-0.24438">
        <ele>257.7</ele>
        <time>2020-09-01T14:18:40.999Z</time>
      </trkpt>
      <trkpt lat="43.23284" lon="-0.2446">
        <ele>257.64</ele>
        <time>2020-09-01T14:18:45.999Z</time>
      </trkpt>
      <trkpt lat="43.23299" lon="-0.24481">
        <ele>257.58</ele>
        <time>2020-09-01T14:18:50.999Z</time>
      </trkpt>
      <trkpt lat="43.23313" lon="-0.24501">
        <ele>257.52</ele>
        <time>2020-09-01T14:18:55.999Z</time>
      </trkpt>
      <trkpt lat="43.23328" lon="-0.24521">
        <ele>257.46</ele>
        <time>2020-09-01T14:19:00.999Z</time>
      </trkpt>
      <trkpt lat="43.23342" lon="-0.24541">
        <ele>257.42</ele>
        <time>2020-09-01T14:19:05.999Z</time>
      </trkpt>
      <trkpt lat="43.23357" lon="-0.24561">
        <ele>257.38</ele>
        <time>2020-09-01T14:19:10.999Z</time>
      </trkpt>
      <trkpt lat="43.23371" lon="-0.24581">
        <ele>257.33</ele>
        <time>2020-09-01T14:19:15.999Z</time>
      </trkpt>
      <trkpt lat="43.23386" lon="-0.24601">
        <ele>257.3</ele>
        <time>2020-09-01T14:19:20.999Z</time>
      </trkpt>
      <trkpt lat="43.234" lon="-0.2462">
        <ele>257.27</ele>
        <time>2020-09-01T14:19:25.999Z</time>
      </trkpt>
      <trkpt lat="43.23414" lon="-0.2464">
        <ele>257.23</ele>
        <time>2020-09-01T14:19:30.999Z</time>
      </trkpt>
      <trkpt lat="43.23427" lon="-0.24659">
        <ele>257.2</ele>
        <time>2020-09-01T14:19:35.999Z</time>
      </trkpt>
      <trkpt lat="43.23441" lon="-0.24678">
        <ele>257.16</ele>
        <time>2020-09-01T14:19:40.999Z</time>
      </trkpt>
      <trkpt lat="43.23456" lon="-0.24698">
        <ele>257.1</ele>
        <time>2020-09-01T14:19:45.999Z</time>
      </trkpt>
      <trkpt lat="43.2347" lon="-0.24722">
        <ele>256.94</ele>
        <time>2020-09-01T14:19:50.999Z</time>
      </trkpt>
      <trkpt lat="43.23485" lon="-0.24741">
        <ele>256.77</ele>
        <time>2020-09-01T14:19:55.999Z</time>
      </trkpt>
      <trkpt lat="43.235" lon="-0.24761">
        <ele>256.6</ele>
        <time>2020-09-01T14:20:00.999Z</time>
      </trkpt>
      <trkpt lat="43.23516" lon="-0.2478">
        <ele>256.37</ele>
        <time>2020-09-01T14:20:05.999Z</time>
      </trkpt>
      <trkpt lat="43.23533" lon="-0.248">
        <ele>256.23</ele>
        <time>2020-09-01T14:20:10.999Z</time>
      </trkpt>
      <trkpt lat="43.2355" lon="-0.24819">
        <ele>256.08</ele>
        <time>2020-09-01T14:20:15.999Z</time>
      </trkpt>
      <trkpt lat="43.23569" lon="-0.24839">
        <ele>255.94</ele>
        <time>2020-09-01T14:20:20.999Z</time>
      </trkpt>
      <trkpt lat="43.23586" lon="-0.2486">
        <ele>255.81</ele>
        <time>2020-09-01T14:20:25.999Z</time>
      </trkpt>
      <trkpt lat="43.23601" lon="-0.24882">
        <ele>255.7</ele>
        <time>2020-09-01T14:20:30.999Z</time>
      </trkpt>
      <trkpt lat="43.23617" lon="-0.24908">
        <ele>255.57</ele>
        <time>2020-09-01T14:20:35.999Z</time>
      </trkpt>
      <trkpt lat="43.23636" lon="-0.24929">
        <ele>255.35</ele>
        <time>2020-09-01T14:20:40.999Z</time>
      </trkpt>
      <trkpt lat="43.23658" lon="-0.24941">
        <ele>255.18</ele>
        <time>2020-09-01T14:20:45.999Z</time>
      </trkpt>
      <trkpt lat="43.23678" lon="-0.24954">
        <ele>255.06</ele>
        <time>2020-09-01T14:20:50.999Z</time>
      </trkpt>
      <trkpt lat="43.23697" lon="-0.24966">
        <ele>254.98</ele>
        <time>2020-09-01T14:20:55.999Z</time>
      </trkpt>
      <trkpt lat="43.23714" lon="-0.24979">
        <ele>254.91</ele>
        <time>2020-09-01T14:21:00.999Z</time>
      </trkpt>
      <trkpt lat="43.23731" lon="-0.24996">
        <ele>254.82</ele>
        <time>2020-09-01T14:21:05.999Z</time>
      </trkpt>
      <trkpt lat="43.23743" lon="-0.25016">
        <ele>254.7</ele>
        <time>2020-09-01T14:21:10.999Z</time>
      </trkpt>
      <trkpt lat="43.23755" lon="-0.25037">
        <ele>254.45</ele>
        <time>2020-09-01T14:21:15.999Z</time>
      </trkpt>
      <trkpt lat="43.23765" lon="-0.2506">
        <ele>254.19</ele>
        <time>2020-09-01T14:21:20.999Z</time>
      </trkpt>
      <trkpt lat="43.23772" lon="-0.25085">
        <ele>254.01</ele>
        <time>2020-09-01T14:21:25.999Z</time>
      </trkpt>
      <trkpt lat="43.23776" lon="-0.25111">
        <ele>253.82</ele>
        <time>2020-09-01T14:21:30.999Z</time>
      </trkpt>
      <trkpt lat="43.23782" lon="-0.25135">
        <ele>253.74</ele>
        <time>2020-09-01T14:21:35.999Z</time>
      </trkpt>
      <trkpt lat="43.23784" lon="-0.25162">
        <ele>253.52</ele>
        <time>2020-09-01T14:21:40.999Z</time>
      </trkpt>
      <trkpt lat="43.2378" lon="-0.25191">
        <ele>253.19</ele>
        <time>2020-09-01T14:21:45.999Z</time>
      </trkpt>
      <trkpt lat="43.23777" lon="-0.25221">
        <ele>252.77</ele>
        <time>2020-09-01T14:21:50.999Z</time>
      </trkpt>
      <trkpt lat="43.2379" lon="-0.25245">
        <ele>252.51</ele>
        <time>2020-09-01T14:21:55.999Z</time>
      </trkpt>
      <trkpt lat="43.23804" lon="-0.25257">
        <ele>252.26</ele>
        <time>2020-09-01T14:22:00.000Z</time>
      </trkpt>
      <trkpt lat="43.23819" lon="-0.25274">
        <ele>251.97</ele>
        <time>2020-09-01T14:22:05.000Z</time>
      </trkpt>
      <trkpt lat="43.2383" lon="-0.25294">
        <ele>251.74</ele>
        <time>2020-09-01T14:22:10.000Z</time>
      </trkpt>
      <trkpt lat="43.23836" lon="-0.2532">
        <ele>251.57</ele>
        <time>2020-09-01T14:22:15.000Z</time>
      </trkpt>
      <trkpt lat="43.23839" lon="-0.25348">
        <ele>251.38</ele>
        <time>2020-09-01T14:22:20.000Z</time>
      </trkpt>
      <trkpt lat="43.23842" lon="-0.25377">
        <ele>251.21</ele>
        <time>2020-09-01T14:22:25.000Z</time>
      </trkpt>
      <trkpt lat="43.23849" lon="-0.25405">
        <ele>251.06</ele>
        <time>2020-09-01T14:22:30.000Z</time>
      </trkpt>
      <trkpt lat="43.23867" lon="-0.25423">
        <ele>250.96</ele>
        <time>2020-09-01T14:22:35.000Z</time>
      </trkpt>
      <trkpt lat="43.23884" lon="-0.25442">
        <ele>250.88</ele>
        <time>2020-09-01T14:22:40.000Z</time>
      </trkpt>
      <trkpt lat="43.23899" lon="-0.25462">
        <ele>250.79</ele>
        <time>2020-09-01T14:22:45.000Z</time>
      </trkpt>
      <trkpt lat="43.23915" lon="-0.25481">
        <ele>250.66</ele>
        <time>2020-09-01T14:22:50.000Z</time>
      </trkpt>
      <trkpt lat="43.23932" lon="-0.25501">
        <ele>250.49</ele>
        <time>2020-09-01T14:22:55.000Z</time>
      </trkpt>
      <trkpt lat="43.23948" lon="-0.2552">
        <ele>250.23</ele>
        <time>2020-09-01T14:23:00.000Z</time>
      </trkpt>
      <trkpt lat="43.23963" lon="-0.25539">
        <ele>250.09</ele>
        <time>2020-09-01T14:23:05.000Z</time>
      </trkpt>
      <trkpt lat="43.23972" lon="-0.25558">
        <ele>250.05</ele>
        <time>2020-09-01T14:23:10.000Z</time>
      </trkpt>
      <trkpt lat="43.23979" lon="-0.25568">
        <ele>250.4</ele>
        <time>2020-09-01T14:24:02.000Z</time>
      </trkpt>
      <trkpt lat="43.23993" lon="-0.25583">
        <ele>250.89</ele>
        <time>2020-09-01T14:24:07.000Z</time>
      </trkpt>
      <trkpt lat="43.24005" lon="-0.25604">
        <ele>252.02</ele>
        <time>2020-09-01T14:24:12.000Z</time>
      </trkpt>
      <trkpt lat="43.24017" lon="-0.25627">
        <ele>252.39</ele>
        <time>2020-09-01T14:24:17.000Z</time>
      </trkpt>
      <trkpt lat="43.24028" lon="-0.25652">
        <ele>252.49</ele>
        <time>2020-09-01T14:24:22.000Z</time>
      </trkpt>
      <trkpt lat="43.24038" lon="-0.25677">
        <ele>252.51</ele>
        <time>2020-09-01T14:24:27.000Z</time>
      </trkpt>
      <trkpt lat="43.24049" lon="-0.25704">
        <ele>252.5</ele>
        <time>2020-09-01T14:24:32.000Z</time>
      </trkpt>
      <trkpt lat="43.24061" lon="-0.2573">
        <ele>252.49</ele>
        <time>2020-09-01T14:24:37.000Z</time>
      </trkpt>
      <trkpt lat="43.24075" lon="-0.25754">
        <ele>252.47</ele>
        <time>2020-09-01T14:24:42.000Z</time>
      </trkpt>
      <trkpt lat="43.24089" lon="-0.25776">
        <ele>252.44</ele>
        <time>2020-09-01T14:24:47.000Z</time>
      </trkpt>
      <trkpt lat="43.24104" lon="-0.25798">
        <ele>252.4</ele>
        <time>2020-09-01T14:24:52.000Z</time>
      </trkpt>
      <trkpt lat="43.24118" lon="-0.25819">
        <ele>252.38</ele>
        <time>2020-09-01T14:24:57.000Z</time>
      </trkpt>
      <trkpt lat="43.2413" lon="-0.2584">
        <ele>252.35</ele>
        <time>2020-09-01T14:25:02.000Z</time>
      </trkpt>
      <trkpt lat="43.24142" lon="-0.25862">
        <ele>252.3</ele>
        <time>2020-09-01T14:25:07.000Z</time>
      </trkpt>
      <trkpt lat="43.24152" lon="-0.25884">
        <ele>252.25</ele>
        <time>2020-09-01T14:25:12.000Z</time>
      </trkpt>
      <trkpt lat="43.24162" lon="-0.25909">
        <ele>252.21</ele>
        <time>2020-09-01T14:25:17.000Z</time>
      </trkpt>
      <trkpt lat="43.24171" lon="-0.25932">
        <ele>252.18</ele>
        <time>2020-09-01T14:25:22.000Z</time>
      </trkpt>
      <trkpt lat="43.2418" lon="-0.25956">
        <ele>252.15</ele>
        <time>2020-09-01T14:25:27.000Z</time>
      </trkpt>
      <trkpt lat="43.24189" lon="-0.2598">
        <ele>252.1</ele>
        <time>2020-09-01T14:25:32.000Z</time>
      </trkpt>
      <trkpt lat="43.24198" lon="-0.26004">
        <ele>252.06</ele>
        <time>2020-09-01T14:25:37.000Z</time>
      </trkpt>
      <trkpt lat="43.24207" lon="-0.26029">
        <ele>252.01</ele>
        <time>2020-09-01T14:25:42.000Z</time>
      </trkpt>
      <trkpt lat="43.24216" lon="-0.26053">
        <ele>251.98</ele>
        <time>2020-09-01T14:25:47.000Z</time>
      </trkpt>
      <trkpt lat="43.24226" lon="-0.26077">
        <ele>251.95</ele>
        <time>2020-09-01T14:25:52.000Z</time>
      </trkpt>
      <trkpt lat="43.24234" lon="-0.261">
        <ele>251.91</ele>
        <time>2020-09-01T14:25:57.000Z</time>
      </trkpt>
      <trkpt lat="43.24243" lon="-0.26124">
        <ele>251.87</ele>
        <time>2020-09-01T14:26:02.000Z</time>
      </trkpt>
      <trkpt lat="43.2425" lon="-0.26148">
        <ele>251.8</ele>
        <time>2020-09-01T14:26:07.000Z</time>
      </trkpt>
      <trkpt lat="43.24256" lon="-0.26175">
        <ele>251.73</ele>
        <time>2020-09-01T14:26:12.000Z</time>
      </trkpt>
      <trkpt lat="43.24261" lon="-0.26203">
        <ele>251.66</ele>
        <time>2020-09-01T14:26:17.000Z</time>
      </trkpt>
      <trkpt lat="43.24265" lon="-0.2623">
        <ele>251.59</ele>
        <time>2020-09-01T14:26:22.000Z</time>
      </trkpt>
      <trkpt lat="43.24271" lon="-0.26255">
        <ele>251.5</ele>
        <time>2020-09-01T14:26:27.000Z</time>
      </trkpt>
      <trkpt lat="43.24276" lon="-0.26281">
        <ele>251.41</ele>
        <time>2020-09-01T14:26:32.000Z</time>
      </trkpt>
      <trkpt lat="43.2428" lon="-0.26309">
        <ele>251.32</ele>
        <time>2020-09-01T14:26:37.000Z</time>
      </trkpt>
      <trkpt lat="43.24288" lon="-0.26334">
        <ele>251.24</ele>
        <time>2020-09-01T14:26:42.000Z</time>
      </trkpt>
      <trkpt lat="43.24296" lon="-0.26359">
        <ele>251.14</ele>
        <time>2020-09-01T14:26:47.000Z</time>
      </trkpt>
      <trkpt lat="43.24304" lon="-0.26384">
        <ele>251.04</ele>
        <time>2020-09-01T14:26:52.000Z</time>
      </trkpt>
      <trkpt lat="43.24313" lon="-0.2641">
        <ele>250.94</ele>
        <time>2020-09-01T14:26:57.000Z</time>
      </trkpt>
      <trkpt lat="43.2432" lon="-0.26435">
        <ele>250.87</ele>
        <time>2020-09-01T14:27:02.000Z</time>
      </trkpt>
      <trkpt lat="43.24327" lon="-0.26459">
        <ele>250.81</ele>
        <time>2020-09-01T14:27:07.000Z</time>
      </trkpt>
      <trkpt lat="43.24333" lon="-0.26485">
        <ele>250.7</ele>
        <time>2020-09-01T14:27:12.000Z</time>
      </trkpt>
      <trkpt lat="43.24337" lon="-0.26513">
        <ele>250.59</ele>
        <time>2020-09-01T14:27:17.000Z</time>
      </trkpt>
      <trkpt lat="43.2434" lon="-0.26541">
        <ele>250.53</ele>
        <time>2020-09-01T14:27:22.000Z</time>
      </trkpt>
      <trkpt lat="43.24343" lon="-0.26566">
        <ele>250.46</ele>
        <time>2020-09-01T14:27:27.000Z</time>
      </trkpt>
      <trkpt lat="43.24346" lon="-0.26592">
        <ele>250.44</ele>
        <time>2020-09-01T14:27:32.000Z</time>
      </trkpt>
      <trkpt lat="43.24349" lon="-0.26617">
        <ele>250.43</ele>
        <time>2020-09-01T14:27:37.000Z</time>
      </trkpt>
      <trkpt lat="43.24351" lon="-0.26642">
        <ele>250.37</ele>
        <time>2020-09-01T14:27:42.000Z</time>
      </trkpt>
      <trkpt lat="43.24355" lon="-0.26667">
        <ele>250.27</ele>
        <time>2020-09-01T14:27:47.000Z</time>
      </trkpt>
      <trkpt lat="43.24358" lon="-0.26695">
        <ele>250.17</ele>
        <time>2020-09-01T14:27:52.000Z</time>
      </trkpt>
      <trkpt lat="43.24361" lon="-0.26724">
        <ele>250.11</ele>
        <time>2020-09-01T14:27:57.000Z</time>
      </trkpt>
      <trkpt lat="43.24365" lon="-0.26752">
        <ele>250.04</ele>
        <time>2020-09-01T14:28:02.000Z</time>
      </trkpt>
      <trkpt lat="43.2437" lon="-0.26778">
        <ele>249.98</ele>
        <time>2020-09-01T14:28:07.000Z</time>
      </trkpt>
      <trkpt lat="43.24383" lon="-0.268">
        <ele>249.93</ele>
        <time>2020-09-01T14:28:12.000Z</time>
      </trkpt>
      <trkpt lat="43.24391" lon="-0.26827">
        <ele>249.82</ele>
        <time>2020-09-01T14:28:17.000Z</time>
      </trkpt>
      <trkpt lat="43.24388" lon="-0.26856">
        <ele>249.58</ele>
        <time>2020-09-01T14:28:22.000Z</time>
      </trkpt>
      <trkpt lat="43.24397" lon="-0.26885">
        <ele>249.3</ele>
        <time>2020-09-01T14:28:27.000Z</time>
      </trkpt>
      <trkpt lat="43.2441" lon="-0.26911">
        <ele>248.96</ele>
        <time>2020-09-01T14:28:32.000Z</time>
      </trkpt>
      <trkpt lat="43.24421" lon="-0.26939">
        <ele>248.74</ele>
        <time>2020-09-01T14:28:37.000Z</time>
      </trkpt>
      <trkpt lat="43.2443" lon="-0.26971">
        <ele>248.43</ele>
        <time>2020-09-01T14:28:42.000Z</time>
      </trkpt>
      <trkpt lat="43.24438" lon="-0.27003">
        <ele>248.17</ele>
        <time>2020-09-01T14:28:47.000Z</time>
      </trkpt>
      <trkpt lat="43.24446" lon="-0.27033">
        <ele>247.98</ele>
        <time>2020-09-01T14:28:52.000Z</time>
      </trkpt>
      <trkpt lat="43.24453" lon="-0.27063">
        <ele>247.83</ele>
        <time>2020-09-01T14:28:57.000Z</time>
      </trkpt>
      <trkpt lat="43.24462" lon="-0.27093">
        <ele>247.7</ele>
        <time>2020-09-01T14:29:02.000Z</time>
      </trkpt>
      <trkpt lat="43.2447" lon="-0.27123">
        <ele>247.58</ele>
        <time>2020-09-01T14:29:07.000Z</time>
      </trkpt>
      <trkpt lat="43.24478" lon="-0.27154">
        <ele>247.48</ele>
        <time>2020-09-01T14:29:12.000Z</time>
      </trkpt>
      <trkpt lat="43.24487" lon="-0.27184">
        <ele>247.37</ele>
        <time>2020-09-01T14:29:17.000Z</time>
      </trkpt>
      <trkpt lat="43.24495" lon="-0.27213">
        <ele>247.24</ele>
        <time>2020-09-01T14:29:22.000Z</time>
      </trkpt>
      <trkpt lat="43.24503" lon="-0.27242">
        <ele>247.12</ele>
        <time>2020-09-01T14:29:27.000Z</time>
      </trkpt>
      <trkpt lat="43.2451" lon="-0.27271">
        <ele>247.02</ele>
        <time>2020-09-01T14:29:32.000Z</time>
      </trkpt>
      <trkpt lat="43.24519" lon="-0.27297">
        <ele>246.92</ele>
        <time>2020-09-01T14:29:37.000Z</time>
      </trkpt>
      <trkpt lat="43.24526" lon="-0.27324">
        <ele>246.84</ele>
        <time>2020-09-01T14:29:42.000Z</time>
      </trkpt>
      <trkpt lat="43.24534" lon="-0.2735">
        <ele>246.76</ele>
        <time>2020-09-01T14:29:47.000Z</time>
      </trkpt>
      <trkpt lat="43.24541" lon="-0.27377">
        <ele>246.69</ele>
        <time>2020-09-01T14:29:52.000Z</time>
      </trkpt>
      <trkpt lat="43.24551" lon="-0.27405">
        <ele>246.6</ele>
        <time>2020-09-01T14:29:57.000Z</time>
      </trkpt>
      <trkpt lat="43.24558" lon="-0.27433">
        <ele>246.47</ele>
        <time>2020-09-01T14:30:02.000Z</time>
      </trkpt>
      <trkpt lat="43.24567" lon="-0.27461">
        <ele>246.28</ele>
        <time>2020-09-01T14:30:07.000Z</time>
      </trkpt>
      <trkpt lat="43.24575" lon="-0.27488">
        <ele>246.14</ele>
        <time>2020-09-01T14:30:12.000Z</time>
      </trkpt>
      <trkpt lat="43.24582" lon="-0.27514">
        <ele>245.98</ele>
        <time>2020-09-01T14:30:17.000Z</time>
      </trkpt>
      <trkpt lat="43.24589" lon="-0.2754">
        <ele>245.79</ele>
        <time>2020-09-01T14:30:22.000Z</time>
      </trkpt>
      <trkpt lat="43.24596" lon="-0.27567">
        <ele>245.62</ele>
        <time>2020-09-01T14:30:27.000Z</time>
      </trkpt>
      <trkpt lat="43.24604" lon="-0.27594">
        <ele>245.45</ele>
        <time>2020-09-01T14:30:32.000Z</time>
      </trkpt>
      <trkpt lat="43.24611" lon="-0.27623">
        <ele>245.33</ele>
        <time>2020-09-01T14:30:37.000Z</time>
      </trkpt>
      <trkpt lat="43.24619" lon="-0.27652">
        <ele>245.19</ele>
        <time>2020-09-01T14:30:42.000Z</time>
      </trkpt>
      <trkpt lat="43.24628" lon="-0.27681">
        <ele>245.05</ele>
        <time>2020-09-01T14:30:47.000Z</time>
      </trkpt>
      <trkpt lat="43.24635" lon="-0.27711">
        <ele>244.91</ele>
        <time>2020-09-01T14:30:52.000Z</time>
      </trkpt>
      <trkpt lat="43.24643" lon="-0.27741">
        <ele>244.75</ele>
        <time>2020-09-01T14:30:57.000Z</time>
      </trkpt>
      <trkpt lat="43.24652" lon="-0.2777">
        <ele>244.58</ele>
        <time>2020-09-01T14:31:02.000Z</time>
      </trkpt>
      <trkpt lat="43.2466" lon="-0.278">
        <ele>244.42</ele>
        <time>2020-09-01T14:31:07.000Z</time>
      </trkpt>
      <trkpt lat="43.24668" lon="-0.27831">
        <ele>244.23</ele>
        <time>2020-09-01T14:31:12.000Z</time>
      </trkpt>
      <trkpt lat="43.24676" lon="-0.27861">
        <ele>244.07</ele>
        <time>2020-09-01T14:31:17.000Z</time>
      </trkpt>
      <trkpt lat="43.24683" lon="-0.27889">
        <ele>243.94</ele>
        <time>2020-09-01T14:31:22.000Z</time>
      </trkpt>
      <trkpt lat="43.24691" lon="-0.27919">
        <ele>243.81</ele>
        <time>2020-09-01T14:31:27.000Z</time>
      </trkpt>
      <trkpt lat="43.24699" lon="-0.27949">
        <ele>243.64</ele>
        <time>2020-09-01T14:31:32.000Z</time>
      </trkpt>
      <trkpt lat="43.24705" lon="-0.27978">
        <ele>243.48</ele>
        <time>2020-09-01T14:31:37.000Z</time>
      </trkpt>
      <trkpt lat="43.24712" lon="-0.28006">
        <ele>243.31</ele>
        <time>2020-09-01T14:31:42.000Z</time>
      </trkpt>
      <trkpt lat="43.24719" lon="-0.28034">
        <ele>243.15</ele>
        <time>2020-09-01T14:31:47.000Z</time>
      </trkpt>
      <trkpt lat="43.24727" lon="-0.28061">
        <ele>242.99</ele>
        <time>2020-09-01T14:31:52.000Z</time>
      </trkpt>
      <trkpt lat="43.24733" lon="-0.28088">
        <ele>242.84</ele>
        <time>2020-09-01T14:31:57.000Z</time>
      </trkpt>
      <trkpt lat="43.24738" lon="-0.28113">
        <ele>242.76</ele>
        <time>2020-09-01T14:32:02.000Z</time>
      </trkpt>
      <trkpt lat="43.24743" lon="-0.28136">
        <ele>242.74</ele>
        <time>2020-09-01T14:32:07.000Z</time>
      </trkpt>
      <trkpt lat="43.2475" lon="-0.28157">
        <ele>242.71</ele>
        <time>2020-09-01T14:32:12.000Z</time>
      </trkpt>
      <trkpt lat="43.24756" lon="-0.28168">
        <ele>242.56</ele>
        <time>2020-09-01T14:32:43.000Z</time>
      </trkpt>
      <trkpt lat="43.24753" lon="-0.28188">
        <ele>242.31</ele>
        <time>2020-09-01T14:32:48.000Z</time>
      </trkpt>
      <trkpt lat="43.24744" lon="-0.28213">
        <ele>241.54</ele>
        <time>2020-09-01T14:32:53.000Z</time>
      </trkpt>
      <trkpt lat="43.24734" lon="-0.28241">
        <ele>240.82</ele>
        <time>2020-09-01T14:32:58.000Z</time>
      </trkpt>
      <trkpt lat="43.24723" lon="-0.28269">
        <ele>240.25</ele>
        <time>2020-09-01T14:33:03.000Z</time>
      </trkpt>
      <trkpt lat="43.24713" lon="-0.283">
        <ele>239.75</ele>
        <time>2020-09-01T14:33:08.000Z</time>
      </trkpt>
      <trkpt lat="43.24703" lon="-0.28331">
        <ele>239.33</ele>
        <time>2020-09-01T14:33:13.000Z</time>
      </trkpt>
      <trkpt lat="43.24693" lon="-0.28362">
        <ele>238.9</ele>
        <time>2020-09-01T14:33:18.000Z</time>
      </trkpt>
      <trkpt lat="43.24685" lon="-0.28391">
        <ele>238.54</ele>
        <time>2020-09-01T14:33:23.000Z</time>
      </trkpt>
      <trkpt lat="43.24677" lon="-0.28418">
        <ele>238.32</ele>
        <time>2020-09-01T14:33:28.000Z</time>
      </trkpt>
      <trkpt lat="43.2467" lon="-0.2844">
        <ele>238.3</ele>
        <time>2020-09-01T14:33:33.000Z</time>
      </trkpt>
      <trkpt lat="43.24664" lon="-0.28459">
        <ele>238.27</ele>
        <time>2020-09-01T14:33:38.000Z</time>
      </trkpt>
      <trkpt lat="43.24659" lon="-0.28476">
        <ele>238.23</ele>
        <time>2020-09-01T14:33:43.000Z</time>
      </trkpt>
      <trkpt lat="43.24655" lon="-0.28491">
        <ele>238.16</ele>
        <time>2020-09-01T14:33:48.000Z</time>
      </trkpt>
      <trkpt lat="43.24652" lon="-0.28504">
        <ele>238.08</ele>
        <time>2020-09-01T14:33:53.000Z</time>
      </trkpt>
      <trkpt lat="43.24647" lon="-0.28516">
        <ele>238.01</ele>
        <time>2020-09-01T14:33:58.000Z</time>
      </trkpt>
      <trkpt lat="43.24644" lon="-0.28528">
        <ele>237.95</ele>
        <time>2020-09-01T14:34:03.000Z</time>
      </trkpt>
      <trkpt lat="43.24639" lon="-0.2854">
        <ele>237.9</ele>
        <time>2020-09-01T14:34:08.000Z</time>
      </trkpt>
      <trkpt lat="43.24635" lon="-0.28553">
        <ele>237.86</ele>
        <time>2020-09-01T14:34:12.999Z</time>
      </trkpt>
      <trkpt lat="43.2463" lon="-0.28564">
        <ele>237.83</ele>
        <time>2020-09-01T14:34:17.999Z</time>
      </trkpt>
      <trkpt lat="43.24625" lon="-0.28576">
        <ele>237.81</ele>
        <time>2020-09-01T14:34:22.999Z</time>
      </trkpt>
      <trkpt lat="43.24619" lon="-0.28588">
        <ele>237.8</ele>
        <time>2020-09-01T14:34:27.999Z</time>
      </trkpt>
      <trkpt lat="43.24611" lon="-0.28602">
        <ele>237.79</ele>
        <time>2020-09-01T14:34:32.999Z</time>
      </trkpt>
      <trkpt lat="43.24602" lon="-0.28617">
        <ele>237.78</ele>
        <time>2020-09-01T14:34:37.999Z</time>
      </trkpt>
      <trkpt lat="43.24593" lon="-0.28636">
        <ele>237.78</ele>
        <time>2020-09-01T14:34:42.999Z</time>
      </trkpt>
      <trkpt lat="43.24581" lon="-0.28658">
        <ele>237.81</ele>
        <time>2020-09-01T14:34:47.999Z</time>
      </trkpt>
      <trkpt lat="43.24566" lon="-0.28684">
        <ele>237.83</ele>
        <time>2020-09-01T14:34:52.999Z</time>
      </trkpt>
      <trkpt lat="43.24542" lon="-0.28714">
        <ele>237.72</ele>
        <time>2020-09-01T14:34:57.999Z</time>
      </trkpt>
      <trkpt lat="43.24514" lon="-0.28746">
        <ele>237.43</ele>
        <time>2020-09-01T14:35:02.999Z</time>
      </trkpt>
      <trkpt lat="43.24485" lon="-0.28781">
        <ele>237.17</ele>
        <time>2020-09-01T14:35:07.999Z</time>
      </trkpt>
      <trkpt lat="43.24459" lon="-0.2881">
        <ele>237.13</ele>
        <time>2020-09-01T14:35:12.999Z</time>
      </trkpt>
      <trkpt lat="43.24436" lon="-0.28838">
        <ele>237.07</ele>
        <time>2020-09-01T14:35:17.999Z</time>
      </trkpt>
      <trkpt lat="43.24414" lon="-0.28866">
        <ele>236.93</ele>
        <time>2020-09-01T14:35:22.999Z</time>
      </trkpt>
      <trkpt lat="43.24404" lon="-0.28902">
        <ele>236.88</ele>
        <time>2020-09-01T14:35:27.999Z</time>
      </trkpt>
      <trkpt lat="43.24385" lon="-0.28926">
        <ele>236.86</ele>
        <time>2020-09-01T14:35:32.999Z</time>
      </trkpt>
      <trkpt lat="43.24357" lon="-0.28934">
        <ele>236.6</ele>
        <time>2020-09-01T14:35:37.999Z</time>
      </trkpt>
      <trkpt lat="43.24333" lon="-0.28954">
        <ele>236.46</ele>
        <time>2020-09-01T14:35:42.999Z</time>
      </trkpt>
      <trkpt lat="43.24312" lon="-0.28978">
        <ele>236.42</ele>
        <time>2020-09-01T14:35:47.999Z</time>
      </trkpt>
      <trkpt lat="43.24291" lon="-0.29003">
        <ele>236.35</ele>
        <time>2020-09-01T14:35:52.999Z</time>
      </trkpt>
      <trkpt lat="43.2427" lon="-0.29028">
        <ele>236.28</ele>
        <time>2020-09-01T14:35:57.999Z</time>
      </trkpt>
      <trkpt lat="43.24248" lon="-0.29053">
        <ele>236.25</ele>
        <time>2020-09-01T14:36:02.999Z</time>
      </trkpt>
      <trkpt lat="43.24226" lon="-0.29077">
        <ele>236.13</ele>
        <time>2020-09-01T14:36:07.999Z</time>
      </trkpt>
      <trkpt lat="43.24204" lon="-0.29102">
        <ele>236.06</ele>
        <time>2020-09-01T14:36:12.999Z</time>
      </trkpt>
      <trkpt lat="43.24182" lon="-0.29127">
        <ele>236.04</ele>
        <time>2020-09-01T14:36:17.999Z</time>
      </trkpt>
      <trkpt lat="43.24161" lon="-0.29154">
        <ele>236.03</ele>
        <time>2020-09-01T14:36:22.999Z</time>
      </trkpt>
      <trkpt lat="43.2414" lon="-0.29181">
        <ele>235.98</ele>
        <time>2020-09-01T14:36:27.999Z</time>
      </trkpt>
      <trkpt lat="43.24119" lon="-0.29208">
        <ele>235.95</ele>
        <time>2020-09-01T14:36:32.999Z</time>
      </trkpt>
      <trkpt lat="43.24097" lon="-0.29235">
        <ele>235.92</ele>
        <time>2020-09-01T14:36:37.999Z</time>
      </trkpt>
      <trkpt lat="43.24076" lon="-0.29262">
        <ele>235.91</ele>
        <time>2020-09-01T14:36:42.999Z</time>
      </trkpt>
      <trkpt lat="43.24055" lon="-0.2929">
        <ele>235.87</ele>
        <time>2020-09-01T14:36:47.999Z</time>
      </trkpt>
      <trkpt lat="43.24035" lon="-0.29317">
        <ele>235.84</ele>
        <time>2020-09-01T14:36:52.999Z</time>
      </trkpt>
      <trkpt lat="43.24022" lon="-0.29342">
        <ele>235.83</ele>
        <time>2020-09-01T14:36:57.999Z</time>
      </trkpt>
      <trkpt lat="43.24018" lon="-0.2937">
        <ele>235.83</ele>
        <time>2020-09-01T14:37:02.999Z</time>
      </trkpt>
      <trkpt lat="43.24" lon="-0.29387">
        <ele>235.83</ele>
        <time>2020-09-01T14:37:07.999Z</time>
      </trkpt>
      <trkpt lat="43.23984" lon="-0.29413">
        <ele>235.8</ele>
        <time>2020-09-01T14:37:12.999Z</time>
      </trkpt>
      <trkpt lat="43.23972" lon="-0.29444">
        <ele>235.79</ele>
        <time>2020-09-01T14:37:17.999Z</time>
      </trkpt>
      <trkpt lat="43.23966" lon="-0.29475">
        <ele>235.69</ele>
        <time>2020-09-01T14:37:22.999Z</time>
      </trkpt>
      <trkpt lat="43.2396" lon="-0.2951">
        <ele>235.61</ele>
        <time>2020-09-01T14:37:27.999Z</time>
      </trkpt>
      <trkpt lat="43.23956" lon="-0.29545">
        <ele>235.56</ele>
        <time>2020-09-01T14:37:32.999Z</time>
      </trkpt>
      <trkpt lat="43.23955" lon="-0.2958">
        <ele>235.53</ele>
        <time>2020-09-01T14:37:37.999Z</time>
      </trkpt>
      <trkpt lat="43.23957" lon="-0.29616">
        <ele>235.5</ele>
        <time>2020-09-01T14:37:42.999Z</time>
      </trkpt>
      <trkpt lat="43.2396" lon="-0.2965">
        <ele>235.48</ele>
        <time>2020-09-01T14:37:47.999Z</time>
      </trkpt>
      <trkpt lat="43.23966" lon="-0.29683">
        <ele>235.44</ele>
        <time>2020-09-01T14:37:52.999Z</time>
      </trkpt>
      <trkpt lat="43.23974" lon="-0.29716">
        <ele>235.41</ele>
        <time>2020-09-01T14:37:57.999Z</time>
      </trkpt>
      <trkpt lat="43.23985" lon="-0.29745">
        <ele>235.38</ele>
        <time>2020-09-01T14:38:02.999Z</time>
      </trkpt>
      <trkpt lat="43.23997" lon="-0.29774">
        <ele>235.32</ele>
        <time>2020-09-01T14:38:07.999Z</time>
      </trkpt>
      <trkpt lat="43.2401" lon="-0.29801">
        <ele>235.24</ele>
        <time>2020-09-01T14:38:12.999Z</time>
      </trkpt>
      <trkpt lat="43.24025" lon="-0.29825">
        <ele>235.09</ele>
        <time>2020-09-01T14:38:17.999Z</time>
      </trkpt>
      <trkpt lat="43.24042" lon="-0.29848">
        <ele>234.94</ele>
        <time>2020-09-01T14:38:22.999Z</time>
      </trkpt>
      <trkpt lat="43.24061" lon="-0.29868">
        <ele>234.72</ele>
        <time>2020-09-01T14:38:27.999Z</time>
      </trkpt>
      <trkpt lat="43.2408" lon="-0.29888">
        <ele>234.42</ele>
        <time>2020-09-01T14:38:32.999Z</time>
      </trkpt>
      <trkpt lat="43.241" lon="-0.29905">
        <ele>234.2</ele>
        <time>2020-09-01T14:38:37.999Z</time>
      </trkpt>
      <trkpt lat="43.2412" lon="-0.2992">
        <ele>234</ele>
        <time>2020-09-01T14:38:42.999Z</time>
      </trkpt>
      <trkpt lat="43.2414" lon="-0.29935">
        <ele>233.8</ele>
        <time>2020-09-01T14:38:47.999Z</time>
      </trkpt>
      <trkpt lat="43.2416" lon="-0.29951">
        <ele>233.69</ele>
        <time>2020-09-01T14:38:52.999Z</time>
      </trkpt>
      <trkpt lat="43.2418" lon="-0.29967">
        <ele>233.64</ele>
        <time>2020-09-01T14:38:57.999Z</time>
      </trkpt>
      <trkpt lat="43.24199" lon="-0.29983">
        <ele>233.62</ele>
        <time>2020-09-01T14:39:02.999Z</time>
      </trkpt>
      <trkpt lat="43.24217" lon="-0.30001">
        <ele>233.6</ele>
        <time>2020-09-01T14:39:07.999Z</time>
      </trkpt>
      <trkpt lat="43.24235" lon="-0.30022">
        <ele>233.56</ele>
        <time>2020-09-01T14:39:12.999Z</time>
      </trkpt>
      <trkpt lat="43.24251" lon="-0.30046">
        <ele>233.5</ele>
        <time>2020-09-01T14:39:17.999Z</time>
      </trkpt>
      <trkpt lat="43.24266" lon="-0.30071">
        <ele>233.41</ele>
        <time>2020-09-01T14:39:22.999Z</time>
      </trkpt>
      <trkpt lat="43.24282" lon="-0.30094">
        <ele>233.34</ele>
        <time>2020-09-01T14:39:27.999Z</time>
      </trkpt>
      <trkpt lat="43.24296" lon="-0.30117">
        <ele>233.23</ele>
        <time>2020-09-01T14:39:32.999Z</time>
      </trkpt>
      <trkpt lat="43.24309" lon="-0.3014">
        <ele>233.18</ele>
        <time>2020-09-01T14:39:37.999Z</time>
      </trkpt>
      <trkpt lat="43.24322" lon="-0.30162">
        <ele>233.16</ele>
        <time>2020-09-01T14:39:42.999Z</time>
      </trkpt>
      <trkpt lat="43.24335" lon="-0.30183">
        <ele>233.12</ele>
        <time>2020-09-01T14:39:47.999Z</time>
      </trkpt>
      <trkpt lat="43.24348" lon="-0.30204">
        <ele>233.05</ele>
        <time>2020-09-01T14:39:52.999Z</time>
      </trkpt>
      <trkpt lat="43.24361" lon="-0.30226">
        <ele>232.94</ele>
        <time>2020-09-01T14:39:57.999Z</time>
      </trkpt>
      <trkpt lat="43.24375" lon="-0.30247">
        <ele>232.88</ele>
        <time>2020-09-01T14:40:02.999Z</time>
      </trkpt>
      <trkpt lat="43.24388" lon="-0.30267">
        <ele>232.82</ele>
        <time>2020-09-01T14:40:07.999Z</time>
      </trkpt>
      <trkpt lat="43.24402" lon="-0.30288">
        <ele>232.77</ele>
        <time>2020-09-01T14:40:12.999Z</time>
      </trkpt>
      <trkpt lat="43.24415" lon="-0.30308">
        <ele>232.69</ele>
        <time>2020-09-01T14:40:17.999Z</time>
      </trkpt>
      <trkpt lat="43.2443" lon="-0.30327">
        <ele>232.53</ele>
        <time>2020-09-01T14:40:22.999Z</time>
      </trkpt>
      <trkpt lat="43.24443" lon="-0.30346">
        <ele>232.39</ele>
        <time>2020-09-01T14:40:27.999Z</time>
      </trkpt>
      <trkpt lat="43.24459" lon="-0.30366">
        <ele>232.25</ele>
        <time>2020-09-01T14:40:32.999Z</time>
      </trkpt>
      <trkpt lat="43.24478" lon="-0.30385">
        <ele>232.21</ele>
        <time>2020-09-01T14:40:37.999Z</time>
      </trkpt>
      <trkpt lat="43.24497" lon="-0.30398">
        <ele>232.18</ele>
        <time>2020-09-01T14:40:42.999Z</time>
      </trkpt>
      <trkpt lat="43.24503" lon="-0.30424">
        <ele>232.15</ele>
        <time>2020-09-01T14:40:47.999Z</time>
      </trkpt>
      <trkpt lat="43.24496" lon="-0.3045">
        <ele>232.06</ele>
        <time>2020-09-01T14:40:52.999Z</time>
      </trkpt>
      <trkpt lat="43.24491" lon="-0.30477">
        <ele>231.94</ele>
        <time>2020-09-01T14:40:57.999Z</time>
      </trkpt>
      <trkpt lat="43.24485" lon="-0.30502">
        <ele>231.87</ele>
        <time>2020-09-01T14:41:02.999Z</time>
      </trkpt>
      <trkpt lat="43.2448" lon="-0.30528">
        <ele>231.78</ele>
        <time>2020-09-01T14:41:07.999Z</time>
      </trkpt>
      <trkpt lat="43.24475" lon="-0.30556">
        <ele>231.68</ele>
        <time>2020-09-01T14:41:12.999Z</time>
      </trkpt>
      <trkpt lat="43.24471" lon="-0.30584">
        <ele>231.58</ele>
        <time>2020-09-01T14:41:17.999Z</time>
      </trkpt>
      <trkpt lat="43.24466" lon="-0.30613">
        <ele>231.5</ele>
        <time>2020-09-01T14:41:22.999Z</time>
      </trkpt>
      <trkpt lat="43.24463" lon="-0.30642">
        <ele>231.47</ele>
        <time>2020-09-01T14:41:27.999Z</time>
      </trkpt>
      <trkpt lat="43.24458" lon="-0.30669">
        <ele>231.46</ele>
        <time>2020-09-01T14:41:32.999Z</time>
      </trkpt>
      <trkpt lat="43.24456" lon="-0.30694">
        <ele>231.46</ele>
        <time>2020-09-01T14:41:37.999Z</time>
      </trkpt>
      <trkpt lat="43.24453" lon="-0.30719">
        <ele>231.45</ele>
        <time>2020-09-01T14:41:42.999Z</time>
      </trkpt>
      <trkpt lat="43.2445" lon="-0.30742">
        <ele>231.43</ele>
        <time>2020-09-01T14:41:47.999Z</time>
      </trkpt>
      <trkpt lat="43.24447" lon="-0.30762">
        <ele>231.42</ele>
        <time>2020-09-01T14:41:52.999Z</time>
      </trkpt>
      <trkpt lat="43.24444" lon="-0.30783">
        <ele>231.4</ele>
        <time>2020-09-01T14:41:57.999Z</time>
      </trkpt>
      <trkpt lat="43.24441" lon="-0.30807">
        <ele>231.37</ele>
        <time>2020-09-01T14:42:02.999Z</time>
      </trkpt>
      <trkpt lat="43.24437" lon="-0.3083">
        <ele>231.34</ele>
        <time>2020-09-01T14:42:07.999Z</time>
      </trkpt>
      <trkpt lat="43.24434" lon="-0.30857">
        <ele>231.12</ele>
        <time>2020-09-01T14:42:12.999Z</time>
      </trkpt>
      <trkpt lat="43.24429" lon="-0.30889">
        <ele>230.94</ele>
        <time>2020-09-01T14:42:17.999Z</time>
      </trkpt>
      <trkpt lat="43.24424" lon="-0.30922">
        <ele>230.8</ele>
        <time>2020-09-01T14:42:22.999Z</time>
      </trkpt>
      <trkpt lat="43.24418" lon="-0.3096">
        <ele>230.67</ele>
        <time>2020-09-01T14:42:27.999Z</time>
      </trkpt>
      <trkpt lat="43.24412" lon="-0.31">
        <ele>230.44</ele>
        <time>2020-09-01T14:42:32.999Z</time>
      </trkpt>
      <trkpt lat="43.24407" lon="-0.31034">
        <ele>230.13</ele>
        <time>2020-09-01T14:42:37.999Z</time>
      </trkpt>
      <trkpt lat="43.24403" lon="-0.31071">
        <ele>229.88</ele>
        <time>2020-09-01T14:42:42.999Z</time>
      </trkpt>
      <trkpt lat="43.24409" lon="-0.31102">
        <ele>229.75</ele>
        <time>2020-09-01T14:42:47.999Z</time>
      </trkpt>
      <trkpt lat="43.24429" lon="-0.31123">
        <ele>229.67</ele>
        <time>2020-09-01T14:42:52.999Z</time>
      </trkpt>
      <trkpt lat="43.24453" lon="-0.31138">
        <ele>229.62</ele>
        <time>2020-09-01T14:42:57.999Z</time>
      </trkpt>
      <trkpt lat="43.24477" lon="-0.31153">
        <ele>229.51</ele>
        <time>2020-09-01T14:43:02.999Z</time>
      </trkpt>
      <trkpt lat="43.245" lon="-0.31171">
        <ele>229.43</ele>
        <time>2020-09-01T14:43:07.999Z</time>
      </trkpt>
      <trkpt lat="43.24521" lon="-0.31195">
        <ele>229.28</ele>
        <time>2020-09-01T14:43:12.999Z</time>
      </trkpt>
      <trkpt lat="43.24539" lon="-0.31223">
        <ele>228.96</ele>
        <time>2020-09-01T14:43:17.999Z</time>
      </trkpt>
      <trkpt lat="43.24556" lon="-0.31252">
        <ele>228.59</ele>
        <time>2020-09-01T14:43:22.999Z</time>
      </trkpt>
      <trkpt lat="43.24571" lon="-0.31279">
        <ele>228.28</ele>
        <time>2020-09-01T14:43:27.999Z</time>
      </trkpt>
      <trkpt lat="43.24587" lon="-0.31306">
        <ele>227.99</ele>
        <time>2020-09-01T14:43:32.999Z</time>
      </trkpt>
      <trkpt lat="43.24603" lon="-0.31334">
        <ele>227.87</ele>
        <time>2020-09-01T14:43:37.999Z</time>
      </trkpt>
      <trkpt lat="43.24618" lon="-0.3136">
        <ele>227.7</ele>
        <time>2020-09-01T14:43:42.999Z</time>
      </trkpt>
      <trkpt lat="43.24634" lon="-0.31386">
        <ele>227.37</ele>
        <time>2020-09-01T14:43:47.999Z</time>
      </trkpt>
      <trkpt lat="43.24648" lon="-0.3141">
        <ele>227.02</ele>
        <time>2020-09-01T14:43:52.999Z</time>
      </trkpt>
      <trkpt lat="43.24665" lon="-0.31433">
        <ele>226.31</ele>
        <time>2020-09-01T14:43:57.999Z</time>
      </trkpt>
      <trkpt lat="43.24687" lon="-0.3145">
        <ele>225.65</ele>
        <time>2020-09-01T14:44:02.999Z</time>
      </trkpt>
      <trkpt lat="43.24711" lon="-0.31464">
        <ele>224.63</ele>
        <time>2020-09-01T14:44:07.999Z</time>
      </trkpt>
      <trkpt lat="43.24735" lon="-0.31476">
        <ele>223.95</ele>
        <time>2020-09-01T14:44:12.999Z</time>
      </trkpt>
      <trkpt lat="43.24759" lon="-0.31488">
        <ele>223.56</ele>
        <time>2020-09-01T14:44:17.999Z</time>
      </trkpt>
      <trkpt lat="43.24784" lon="-0.315">
        <ele>222.98</ele>
        <time>2020-09-01T14:44:22.999Z</time>
      </trkpt>
      <trkpt lat="43.24808" lon="-0.31514">
        <ele>222.59</ele>
        <time>2020-09-01T14:44:27.999Z</time>
      </trkpt>
      <trkpt lat="43.24829" lon="-0.31527">
        <ele>222.41</ele>
        <time>2020-09-01T14:44:32.999Z</time>
      </trkpt>
      <trkpt lat="43.24847" lon="-0.31543">
        <ele>222.55</ele>
        <time>2020-09-01T14:44:37.999Z</time>
      </trkpt>
      <trkpt lat="43.24857" lon="-0.31563">
        <ele>222.6</ele>
        <time>2020-09-01T14:44:42.999Z</time>
      </trkpt>
      <trkpt lat="43.24864" lon="-0.31591">
        <ele>222.52</ele>
        <time>2020-09-01T14:44:47.999Z</time>
      </trkpt>
      <trkpt lat="43.24878" lon="-0.31617">
        <ele>222.3</ele>
        <time>2020-09-01T14:44:52.999Z</time>
      </trkpt>
      <trkpt lat="43.24895" lon="-0.31642">
        <ele>222.09</ele>
        <time>2020-09-01T14:44:57.999Z</time>
      </trkpt>
      <trkpt lat="43.24914" lon="-0.31668">
        <ele>221.9</ele>
        <time>2020-09-01T14:45:02.999Z</time>
      </trkpt>
      <trkpt lat="43.24932" lon="-0.3169">
        <ele>221.74</ele>
        <time>2020-09-01T14:45:07.999Z</time>
      </trkpt>
      <trkpt lat="43.24951" lon="-0.31712">
        <ele>221.44</ele>
        <time>2020-09-01T14:45:12.999Z</time>
      </trkpt>
      <trkpt lat="43.24968" lon="-0.31735">
        <ele>220.81</ele>
        <time>2020-09-01T14:45:17.999Z</time>
      </trkpt>
      <trkpt lat="43.24985" lon="-0.31758">
        <ele>220.17</ele>
        <time>2020-09-01T14:45:22.999Z</time>
      </trkpt>
      <trkpt lat="43.25" lon="-0.31781">
        <ele>219.59</ele>
        <time>2020-09-01T14:45:27.999Z</time>
      </trkpt>
      <trkpt lat="43.25014" lon="-0.31804">
        <ele>219.5</ele>
        <time>2020-09-01T14:45:32.999Z</time>
      </trkpt>
      <trkpt lat="43.25026" lon="-0.3183">
        <ele>219.08</ele>
        <time>2020-09-01T14:45:37.999Z</time>
      </trkpt>
      <trkpt lat="43.25038" lon="-0.31857">
        <ele>218.38</ele>
        <time>2020-09-01T14:45:42.999Z</time>
      </trkpt>
      <trkpt lat="43.2505" lon="-0.31882">
        <ele>218.28</ele>
        <time>2020-09-01T14:45:47.999Z</time>
      </trkpt>
      <trkpt lat="43.25063" lon="-0.31905">
        <ele>218.1</ele>
        <time>2020-09-01T14:45:52.999Z</time>
      </trkpt>
      <trkpt lat="43.25076" lon="-0.31927">
        <ele>218.12</ele>
        <time>2020-09-01T14:45:57.999Z</time>
      </trkpt>
      <trkpt lat="43.2509" lon="-0.31947">
        <ele>218.81</ele>
        <time>2020-09-01T14:46:02.999Z</time>
      </trkpt>
      <trkpt lat="43.25105" lon="-0.31965">
        <ele>219.12</ele>
        <time>2020-09-01T14:46:07.999Z</time>
      </trkpt>
      <trkpt lat="43.25124" lon="-0.31983">
        <ele>219.1</ele>
        <time>2020-09-01T14:46:12.999Z</time>
      </trkpt>
      <trkpt lat="43.25146" lon="-0.32005">
        <ele>218.31</ele>
        <time>2020-09-01T14:46:17.999Z</time>
      </trkpt>
      <trkpt lat="43.25165" lon="-0.32027">
        <ele>217.41</ele>
        <time>2020-09-01T14:46:23.000Z</time>
      </trkpt>
      <trkpt lat="43.25186" lon="-0.32049">
        <ele>216.64</ele>
        <time>2020-09-01T14:46:28.000Z</time>
      </trkpt>
      <trkpt lat="43.25203" lon="-0.32077">
        <ele>216.01</ele>
        <time>2020-09-01T14:46:33.000Z</time>
      </trkpt>
      <trkpt lat="43.2522" lon="-0.32106">
        <ele>215.23</ele>
        <time>2020-09-01T14:46:38.000Z</time>
      </trkpt>
      <trkpt lat="43.25235" lon="-0.32135">
        <ele>214.55</ele>
        <time>2020-09-01T14:46:43.000Z</time>
      </trkpt>
      <trkpt lat="43.2525" lon="-0.32164">
        <ele>214.08</ele>
        <time>2020-09-01T14:46:48.000Z</time>
      </trkpt>
      <trkpt lat="43.25266" lon="-0.32193">
        <ele>213.88</ele>
        <time>2020-09-01T14:46:53.000Z</time>
      </trkpt>
      <trkpt lat="43.25289" lon="-0.32211">
        <ele>213.94</ele>
        <time>2020-09-01T14:46:58.000Z</time>
      </trkpt>
      <trkpt lat="43.25315" lon="-0.32224">
        <ele>213.92</ele>
        <time>2020-09-01T14:47:03.000Z</time>
      </trkpt>
      <trkpt lat="43.25337" lon="-0.32239">
        <ele>213.83</ele>
        <time>2020-09-01T14:47:08.000Z</time>
      </trkpt>
      <trkpt lat="43.25353" lon="-0.3226">
        <ele>213.71</ele>
        <time>2020-09-01T14:47:13.000Z</time>
      </trkpt>
      <trkpt lat="43.25367" lon="-0.32285">
        <ele>213.54</ele>
        <time>2020-09-01T14:47:18.000Z</time>
      </trkpt>
      <trkpt lat="43.25382" lon="-0.32311">
        <ele>213.53</ele>
        <time>2020-09-01T14:47:23.000Z</time>
      </trkpt>
      <trkpt lat="43.25396" lon="-0.32337">
        <ele>213.45</ele>
        <time>2020-09-01T14:47:28.000Z</time>
      </trkpt>
      <trkpt lat="43.25412" lon="-0.3236">
        <ele>213.42</ele>
        <time>2020-09-01T14:47:33.000Z</time>
      </trkpt>
      <trkpt lat="43.25431" lon="-0.3238">
        <ele>213.02</ele>
        <time>2020-09-01T14:47:38.000Z</time>
      </trkpt>
      <trkpt lat="43.25451" lon="-0.324">
        <ele>212.68</ele>
        <time>2020-09-01T14:47:43.000Z</time>
      </trkpt>
      <trkpt lat="43.25471" lon="-0.32418">
        <ele>212.33</ele>
        <time>2020-09-01T14:47:48.000Z</time>
      </trkpt>
      <trkpt lat="43.25492" lon="-0.32435">
        <ele>212.15</ele>
        <time>2020-09-01T14:47:53.000Z</time>
      </trkpt>
      <trkpt lat="43.25512" lon="-0.32452">
        <ele>212.04</ele>
        <time>2020-09-01T14:47:58.000Z</time>
      </trkpt>
      <trkpt lat="43.25533" lon="-0.32463">
        <ele>211.95</ele>
        <time>2020-09-01T14:48:03.000Z</time>
      </trkpt>
      <trkpt lat="43.25556" lon="-0.32465">
        <ele>211.94</ele>
        <time>2020-09-01T14:48:08.000Z</time>
      </trkpt>
      <trkpt lat="43.2557" lon="-0.32441">
        <ele>211.87</ele>
        <time>2020-09-01T14:48:13.000Z</time>
      </trkpt>
      <trkpt lat="43.25583" lon="-0.32417">
        <ele>211.8</ele>
        <time>2020-09-01T14:48:18.000Z</time>
      </trkpt>
      <trkpt lat="43.25595" lon="-0.32395">
        <ele>211.8</ele>
        <time>2020-09-01T14:48:23.000Z</time>
      </trkpt>
      <trkpt lat="43.25607" lon="-0.32373">
        <ele>211.86</ele>
        <time>2020-09-01T14:48:28.000Z</time>
      </trkpt>
      <trkpt lat="43.25619" lon="-0.32351">
        <ele>211.95</ele>
        <time>2020-09-01T14:48:33.000Z</time>
      </trkpt>
      <trkpt lat="43.2563" lon="-0.3233">
        <ele>212</ele>
        <time>2020-09-01T14:48:38.000Z</time>
      </trkpt>
      <trkpt lat="43.25641" lon="-0.32313">
        <ele>212.01</ele>
        <time>2020-09-01T14:48:43.000Z</time>
      </trkpt>
      <trkpt lat="43.25653" lon="-0.32308">
        <ele>211.99</ele>
        <time>2020-09-01T14:48:48.000Z</time>
      </trkpt>
      <trkpt lat="43.25654" lon="-0.32301">
        <ele>211.62</ele>
        <time>2020-09-01T14:49:26.000Z</time>
      </trkpt>
    </trkseg>
  </trk>
</gpx>